<?xml version="1.0" encoding="UTF-8" standalone="no" ?>
<gpx xmlns="http://www.topografix.com/GPX/1/1" xmlns:xsi="http://www.w3.org/2001/XMLSchema-instance" xsi:schemaLocation="http://www.topografix.com/GPX/1/1 http://www.topografix.com/GPX/1/1/gpx.xsd" version="1.1" creator="VisuGPX - https://www.visugpx.com">
  <metadata>
    <name>Alternative Chabrier</name>
  </metadata>
  <trk>
    <name><![CDATA[fête des péres à Saillans ou le "randuromarmot...."]]></name>
    <extensions>
      <line xmlns="http://www.topografix.com/GPX/gpx_style/0/2">
        <color>0000FF</color>
        <width>4</width>
      </line>
    </extensions>
    <trkseg>
      <trkpt lat="44.69907" lon="5.19728">
        <ele>217.6</ele>
        <time>2019-06-16T08:57:56Z</time>
      </trkpt>
      <trkpt lat="44.69924" lon="5.19728">
        <ele>217.6</ele>
        <time>2019-06-16T08:58:03Z</time>
      </trkpt>
      <trkpt lat="44.69935" lon="5.19735">
        <ele>221</ele>
        <time>2019-06-16T08:58:08Z</time>
      </trkpt>
      <trkpt lat="44.69937" lon="5.19737">
        <ele>221.4</ele>
        <time>2019-06-16T08:58:09Z</time>
      </trkpt>
      <trkpt lat="44.69954" lon="5.1975">
        <ele>221.6</ele>
        <time>2019-06-16T08:58:15Z</time>
      </trkpt>
      <trkpt lat="44.69961" lon="5.19756">
        <ele>222</ele>
        <time>2019-06-16T08:58:18Z</time>
      </trkpt>
      <trkpt lat="44.69963" lon="5.19758">
        <ele>222.2</ele>
        <time>2019-06-16T08:58:19Z</time>
      </trkpt>
      <trkpt lat="44.69964" lon="5.1976">
        <ele>222.6</ele>
        <time>2019-06-16T08:58:20Z</time>
      </trkpt>
      <trkpt lat="44.69966" lon="5.19762">
        <ele>222.8</ele>
        <time>2019-06-16T08:58:21Z</time>
      </trkpt>
      <trkpt lat="44.69972" lon="5.19772">
        <ele>223.4</ele>
        <time>2019-06-16T08:58:26Z</time>
      </trkpt>
      <trkpt lat="44.69974" lon="5.19773">
        <ele>223.8</ele>
        <time>2019-06-16T08:58:27Z</time>
      </trkpt>
      <trkpt lat="44.69975" lon="5.19775">
        <ele>224.2</ele>
        <time>2019-06-16T08:58:28Z</time>
      </trkpt>
      <trkpt lat="44.69976" lon="5.19777">
        <ele>224.6</ele>
        <time>2019-06-16T08:58:29Z</time>
      </trkpt>
      <trkpt lat="44.69977" lon="5.19778">
        <ele>225.2</ele>
        <time>2019-06-16T08:58:31Z</time>
      </trkpt>
      <trkpt lat="44.6998" lon="5.19782">
        <ele>225.6</ele>
        <time>2019-06-16T08:58:34Z</time>
      </trkpt>
      <trkpt lat="44.69981" lon="5.19783">
        <ele>226</ele>
        <time>2019-06-16T08:58:35Z</time>
      </trkpt>
      <trkpt lat="44.69982" lon="5.19784">
        <ele>226.4</ele>
        <time>2019-06-16T08:58:36Z</time>
      </trkpt>
      <trkpt lat="44.69983" lon="5.19785">
        <ele>226.8</ele>
        <time>2019-06-16T08:58:37Z</time>
      </trkpt>
      <trkpt lat="44.69984" lon="5.19786">
        <ele>227.2</ele>
        <time>2019-06-16T08:58:38Z</time>
      </trkpt>
      <trkpt lat="44.69985" lon="5.19787">
        <ele>227.2</ele>
        <time>2019-06-16T08:58:39Z</time>
      </trkpt>
      <trkpt lat="44.69993" lon="5.1979">
        <ele>227.2</ele>
        <time>2019-06-16T08:58:46Z</time>
      </trkpt>
      <trkpt lat="44.70002" lon="5.1979">
        <ele>227.2</ele>
        <time>2019-06-16T08:58:53Z</time>
      </trkpt>
      <trkpt lat="44.70017" lon="5.1979">
        <ele>227.6</ele>
        <time>2019-06-16T08:59:00Z</time>
      </trkpt>
      <trkpt lat="44.70019" lon="5.1979">
        <ele>228</ele>
        <time>2019-06-16T08:59:01Z</time>
      </trkpt>
      <trkpt lat="44.70021" lon="5.1979">
        <ele>228.6</ele>
        <time>2019-06-16T08:59:02Z</time>
      </trkpt>
      <trkpt lat="44.70023" lon="5.19791">
        <ele>229</ele>
        <time>2019-06-16T08:59:03Z</time>
      </trkpt>
      <trkpt lat="44.70024" lon="5.19792">
        <ele>229.4</ele>
        <time>2019-06-16T08:59:04Z</time>
      </trkpt>
      <trkpt lat="44.70029" lon="5.19792">
        <ele>229.4</ele>
        <time>2019-06-16T08:59:08Z</time>
      </trkpt>
      <trkpt lat="44.70031" lon="5.19793">
        <ele>229.4</ele>
        <time>2019-06-16T08:59:16Z</time>
      </trkpt>
      <trkpt lat="44.70045" lon="5.19789">
        <ele>229.4</ele>
        <time>2019-06-16T08:59:40Z</time>
      </trkpt>
      <trkpt lat="44.70062" lon="5.1979">
        <ele>229.4</ele>
        <time>2019-06-16T08:59:47Z</time>
      </trkpt>
      <trkpt lat="44.70077" lon="5.19787">
        <ele>229.4</ele>
        <time>2019-06-16T08:59:54Z</time>
      </trkpt>
      <trkpt lat="44.70091" lon="5.19785">
        <ele>229.4</ele>
        <time>2019-06-16T09:00:01Z</time>
      </trkpt>
      <trkpt lat="44.70109" lon="5.19785">
        <ele>229.4</ele>
        <time>2019-06-16T09:00:08Z</time>
      </trkpt>
      <trkpt lat="44.70118" lon="5.19786">
        <ele>229.8</ele>
        <time>2019-06-16T09:00:11Z</time>
      </trkpt>
      <trkpt lat="44.70121" lon="5.19786">
        <ele>230.2</ele>
        <time>2019-06-16T09:00:12Z</time>
      </trkpt>
      <trkpt lat="44.70123" lon="5.19786">
        <ele>230.6</ele>
        <time>2019-06-16T09:00:13Z</time>
      </trkpt>
      <trkpt lat="44.70126" lon="5.19786">
        <ele>231</ele>
        <time>2019-06-16T09:00:14Z</time>
      </trkpt>
      <trkpt lat="44.70129" lon="5.19786">
        <ele>231.4</ele>
        <time>2019-06-16T09:00:15Z</time>
      </trkpt>
      <trkpt lat="44.70151" lon="5.19792">
        <ele>231.4</ele>
        <time>2019-06-16T09:00:23Z</time>
      </trkpt>
      <trkpt lat="44.70163" lon="5.19796">
        <ele>231.4</ele>
        <time>2019-06-16T09:00:28Z</time>
      </trkpt>
      <trkpt lat="44.70185" lon="5.19801">
        <ele>231.4</ele>
        <time>2019-06-16T09:00:37Z</time>
      </trkpt>
      <trkpt lat="44.70204" lon="5.19805">
        <ele>231.4</ele>
        <time>2019-06-16T09:00:44Z</time>
      </trkpt>
      <trkpt lat="44.70207" lon="5.19805">
        <ele>231.8</ele>
        <time>2019-06-16T09:00:45Z</time>
      </trkpt>
      <trkpt lat="44.7021" lon="5.19805">
        <ele>232.4</ele>
        <time>2019-06-16T09:00:46Z</time>
      </trkpt>
      <trkpt lat="44.70212" lon="5.19805">
        <ele>232.8</ele>
        <time>2019-06-16T09:00:47Z</time>
      </trkpt>
      <trkpt lat="44.70216" lon="5.19804">
        <ele>233.2</ele>
        <time>2019-06-16T09:00:48Z</time>
      </trkpt>
      <trkpt lat="44.70218" lon="5.19803">
        <ele>233.6</ele>
        <time>2019-06-16T09:00:49Z</time>
      </trkpt>
      <trkpt lat="44.70221" lon="5.19803">
        <ele>233.6</ele>
        <time>2019-06-16T09:00:50Z</time>
      </trkpt>
      <trkpt lat="44.7024" lon="5.19796">
        <ele>233.6</ele>
        <time>2019-06-16T09:00:57Z</time>
      </trkpt>
      <trkpt lat="44.70257" lon="5.19794">
        <ele>233.6</ele>
        <time>2019-06-16T09:01:04Z</time>
      </trkpt>
      <trkpt lat="44.70276" lon="5.19797">
        <ele>233.6</ele>
        <time>2019-06-16T09:01:12Z</time>
      </trkpt>
      <trkpt lat="44.70293" lon="5.198">
        <ele>233.6</ele>
        <time>2019-06-16T09:01:19Z</time>
      </trkpt>
      <trkpt lat="44.70305" lon="5.19802">
        <ele>234.2</ele>
        <time>2019-06-16T09:01:24Z</time>
      </trkpt>
      <trkpt lat="44.70307" lon="5.19802">
        <ele>234.6</ele>
        <time>2019-06-16T09:01:25Z</time>
      </trkpt>
      <trkpt lat="44.70309" lon="5.19802">
        <ele>235</ele>
        <time>2019-06-16T09:01:26Z</time>
      </trkpt>
      <trkpt lat="44.70311" lon="5.19803">
        <ele>235.4</ele>
        <time>2019-06-16T09:01:27Z</time>
      </trkpt>
      <trkpt lat="44.70313" lon="5.19803">
        <ele>235.8</ele>
        <time>2019-06-16T09:01:28Z</time>
      </trkpt>
      <trkpt lat="44.70325" lon="5.19808">
        <ele>235.8</ele>
        <time>2019-06-16T09:01:34Z</time>
      </trkpt>
      <trkpt lat="44.70337" lon="5.1981">
        <ele>236.2</ele>
        <time>2019-06-16T09:01:40Z</time>
      </trkpt>
      <trkpt lat="44.7034" lon="5.19811">
        <ele>236.6</ele>
        <time>2019-06-16T09:01:41Z</time>
      </trkpt>
      <trkpt lat="44.70343" lon="5.19811">
        <ele>237</ele>
        <time>2019-06-16T09:01:42Z</time>
      </trkpt>
      <trkpt lat="44.70345" lon="5.19811">
        <ele>237.4</ele>
        <time>2019-06-16T09:01:43Z</time>
      </trkpt>
      <trkpt lat="44.70349" lon="5.19811">
        <ele>237.8</ele>
        <time>2019-06-16T09:01:44Z</time>
      </trkpt>
      <trkpt lat="44.70364" lon="5.19811">
        <ele>237.8</ele>
        <time>2019-06-16T09:01:51Z</time>
      </trkpt>
      <trkpt lat="44.70365" lon="5.19811">
        <ele>238.4</ele>
        <time>2019-06-16T09:01:52Z</time>
      </trkpt>
      <trkpt lat="44.70367" lon="5.19812">
        <ele>238.8</ele>
        <time>2019-06-16T09:01:53Z</time>
      </trkpt>
      <trkpt lat="44.7037" lon="5.19812">
        <ele>239.2</ele>
        <time>2019-06-16T09:01:54Z</time>
      </trkpt>
      <trkpt lat="44.70372" lon="5.19812">
        <ele>239.6</ele>
        <time>2019-06-16T09:01:55Z</time>
      </trkpt>
      <trkpt lat="44.70374" lon="5.19813">
        <ele>240</ele>
        <time>2019-06-16T09:01:56Z</time>
      </trkpt>
      <trkpt lat="44.70377" lon="5.19812">
        <ele>240</ele>
        <time>2019-06-16T09:01:58Z</time>
      </trkpt>
      <trkpt lat="44.70388" lon="5.19812">
        <ele>240.6</ele>
        <time>2019-06-16T09:02:04Z</time>
      </trkpt>
      <trkpt lat="44.7039" lon="5.19812">
        <ele>241</ele>
        <time>2019-06-16T09:02:05Z</time>
      </trkpt>
      <trkpt lat="44.70392" lon="5.19813">
        <ele>241.4</ele>
        <time>2019-06-16T09:02:06Z</time>
      </trkpt>
      <trkpt lat="44.70394" lon="5.19813">
        <ele>241.8</ele>
        <time>2019-06-16T09:02:07Z</time>
      </trkpt>
      <trkpt lat="44.70396" lon="5.19814">
        <ele>242.2</ele>
        <time>2019-06-16T09:02:08Z</time>
      </trkpt>
      <trkpt lat="44.70404" lon="5.19815">
        <ele>242.2</ele>
        <time>2019-06-16T09:02:11Z</time>
      </trkpt>
      <trkpt lat="44.70421" lon="5.19821">
        <ele>242.2</ele>
        <time>2019-06-16T09:02:19Z</time>
      </trkpt>
      <trkpt lat="44.70423" lon="5.19821">
        <ele>242.8</ele>
        <time>2019-06-16T09:02:20Z</time>
      </trkpt>
      <trkpt lat="44.70425" lon="5.19821">
        <ele>243.2</ele>
        <time>2019-06-16T09:02:21Z</time>
      </trkpt>
      <trkpt lat="44.70427" lon="5.19822">
        <ele>243.6</ele>
        <time>2019-06-16T09:02:22Z</time>
      </trkpt>
      <trkpt lat="44.70429" lon="5.19822">
        <ele>244.2</ele>
        <time>2019-06-16T09:02:23Z</time>
      </trkpt>
      <trkpt lat="44.70431" lon="5.19822">
        <ele>244.6</ele>
        <time>2019-06-16T09:02:24Z</time>
      </trkpt>
      <trkpt lat="44.70442" lon="5.1982">
        <ele>244.6</ele>
        <time>2019-06-16T09:02:29Z</time>
      </trkpt>
      <trkpt lat="44.70454" lon="5.19815">
        <ele>245</ele>
        <time>2019-06-16T09:02:35Z</time>
      </trkpt>
      <trkpt lat="44.70456" lon="5.19814">
        <ele>245.4</ele>
        <time>2019-06-16T09:02:36Z</time>
      </trkpt>
      <trkpt lat="44.70458" lon="5.19812">
        <ele>245.8</ele>
        <time>2019-06-16T09:02:37Z</time>
      </trkpt>
      <trkpt lat="44.70459" lon="5.19811">
        <ele>246.2</ele>
        <time>2019-06-16T09:02:38Z</time>
      </trkpt>
      <trkpt lat="44.70461" lon="5.1981">
        <ele>246.6</ele>
        <time>2019-06-16T09:02:39Z</time>
      </trkpt>
      <trkpt lat="44.70471" lon="5.19796">
        <ele>246.6</ele>
        <time>2019-06-16T09:02:47Z</time>
      </trkpt>
      <trkpt lat="44.70483" lon="5.19784">
        <ele>247</ele>
        <time>2019-06-16T09:02:55Z</time>
      </trkpt>
      <trkpt lat="44.70484" lon="5.19782">
        <ele>247.6</ele>
        <time>2019-06-16T09:02:56Z</time>
      </trkpt>
      <trkpt lat="44.70486" lon="5.19781">
        <ele>248</ele>
        <time>2019-06-16T09:02:57Z</time>
      </trkpt>
      <trkpt lat="44.70487" lon="5.19779">
        <ele>248.4</ele>
        <time>2019-06-16T09:02:58Z</time>
      </trkpt>
      <trkpt lat="44.70489" lon="5.19778">
        <ele>248.8</ele>
        <time>2019-06-16T09:02:59Z</time>
      </trkpt>
      <trkpt lat="44.70496" lon="5.19772">
        <ele>249.2</ele>
        <time>2019-06-16T09:03:04Z</time>
      </trkpt>
      <trkpt lat="44.70497" lon="5.19771">
        <ele>249.6</ele>
        <time>2019-06-16T09:03:05Z</time>
      </trkpt>
      <trkpt lat="44.70499" lon="5.19769">
        <ele>250</ele>
        <time>2019-06-16T09:03:06Z</time>
      </trkpt>
      <trkpt lat="44.705" lon="5.19768">
        <ele>250.4</ele>
        <time>2019-06-16T09:03:07Z</time>
      </trkpt>
      <trkpt lat="44.70502" lon="5.19767">
        <ele>250.8</ele>
        <time>2019-06-16T09:03:08Z</time>
      </trkpt>
      <trkpt lat="44.7051" lon="5.19759">
        <ele>250.8</ele>
        <time>2019-06-16T09:03:15Z</time>
      </trkpt>
      <trkpt lat="44.70512" lon="5.19758">
        <ele>251.2</ele>
        <time>2019-06-16T09:03:16Z</time>
      </trkpt>
      <trkpt lat="44.70513" lon="5.19756">
        <ele>251.6</ele>
        <time>2019-06-16T09:03:17Z</time>
      </trkpt>
      <trkpt lat="44.70514" lon="5.19755">
        <ele>252</ele>
        <time>2019-06-16T09:03:18Z</time>
      </trkpt>
      <trkpt lat="44.70515" lon="5.19753">
        <ele>252.6</ele>
        <time>2019-06-16T09:03:19Z</time>
      </trkpt>
      <trkpt lat="44.70516" lon="5.19751">
        <ele>253</ele>
        <time>2019-06-16T09:03:20Z</time>
      </trkpt>
      <trkpt lat="44.70521" lon="5.19745">
        <ele>253.4</ele>
        <time>2019-06-16T09:03:25Z</time>
      </trkpt>
      <trkpt lat="44.70521" lon="5.19744">
        <ele>253.8</ele>
        <time>2019-06-16T09:03:26Z</time>
      </trkpt>
      <trkpt lat="44.70523" lon="5.19743">
        <ele>254.2</ele>
        <time>2019-06-16T09:03:27Z</time>
      </trkpt>
      <trkpt lat="44.70524" lon="5.19742">
        <ele>254.6</ele>
        <time>2019-06-16T09:03:28Z</time>
      </trkpt>
      <trkpt lat="44.70525" lon="5.19741">
        <ele>255</ele>
        <time>2019-06-16T09:03:29Z</time>
      </trkpt>
      <trkpt lat="44.70532" lon="5.19735">
        <ele>255</ele>
        <time>2019-06-16T09:03:35Z</time>
      </trkpt>
      <trkpt lat="44.70537" lon="5.19728">
        <ele>255.4</ele>
        <time>2019-06-16T09:03:40Z</time>
      </trkpt>
      <trkpt lat="44.70538" lon="5.19727">
        <ele>255.8</ele>
        <time>2019-06-16T09:03:41Z</time>
      </trkpt>
      <trkpt lat="44.70539" lon="5.19725">
        <ele>256.2</ele>
        <time>2019-06-16T09:03:42Z</time>
      </trkpt>
      <trkpt lat="44.7054" lon="5.19724">
        <ele>256.6</ele>
        <time>2019-06-16T09:03:43Z</time>
      </trkpt>
      <trkpt lat="44.7054" lon="5.19723">
        <ele>257</ele>
        <time>2019-06-16T09:03:44Z</time>
      </trkpt>
      <trkpt lat="44.70544" lon="5.19713">
        <ele>257.4</ele>
        <time>2019-06-16T09:03:52Z</time>
      </trkpt>
      <trkpt lat="44.70544" lon="5.19712">
        <ele>257.8</ele>
        <time>2019-06-16T09:03:53Z</time>
      </trkpt>
      <trkpt lat="44.70545" lon="5.1971">
        <ele>258.2</ele>
        <time>2019-06-16T09:03:54Z</time>
      </trkpt>
      <trkpt lat="44.70546" lon="5.19709">
        <ele>258.6</ele>
        <time>2019-06-16T09:03:55Z</time>
      </trkpt>
      <trkpt lat="44.70547" lon="5.19707">
        <ele>259</ele>
        <time>2019-06-16T09:03:56Z</time>
      </trkpt>
      <trkpt lat="44.70548" lon="5.19704">
        <ele>259</ele>
        <time>2019-06-16T09:03:58Z</time>
      </trkpt>
      <trkpt lat="44.70551" lon="5.19696">
        <ele>259.4</ele>
        <time>2019-06-16T09:04:04Z</time>
      </trkpt>
      <trkpt lat="44.70552" lon="5.19694">
        <ele>259.8</ele>
        <time>2019-06-16T09:04:05Z</time>
      </trkpt>
      <trkpt lat="44.70553" lon="5.19693">
        <ele>260.2</ele>
        <time>2019-06-16T09:04:06Z</time>
      </trkpt>
      <trkpt lat="44.70554" lon="5.19692">
        <ele>260.6</ele>
        <time>2019-06-16T09:04:07Z</time>
      </trkpt>
      <trkpt lat="44.70555" lon="5.19691">
        <ele>261.2</ele>
        <time>2019-06-16T09:04:08Z</time>
      </trkpt>
      <trkpt lat="44.70557" lon="5.19688">
        <ele>261.2</ele>
        <time>2019-06-16T09:04:10Z</time>
      </trkpt>
      <trkpt lat="44.70566" lon="5.19673">
        <ele>261.6</ele>
        <time>2019-06-16T09:04:21Z</time>
      </trkpt>
      <trkpt lat="44.70567" lon="5.19672">
        <ele>262</ele>
        <time>2019-06-16T09:04:22Z</time>
      </trkpt>
      <trkpt lat="44.70568" lon="5.19671">
        <ele>262.4</ele>
        <time>2019-06-16T09:04:23Z</time>
      </trkpt>
      <trkpt lat="44.70569" lon="5.19671">
        <ele>262.8</ele>
        <time>2019-06-16T09:04:24Z</time>
      </trkpt>
      <trkpt lat="44.70571" lon="5.1967">
        <ele>263.2</ele>
        <time>2019-06-16T09:04:25Z</time>
      </trkpt>
      <trkpt lat="44.70583" lon="5.19664">
        <ele>263.2</ele>
        <time>2019-06-16T09:04:35Z</time>
      </trkpt>
      <trkpt lat="44.70584" lon="5.19664">
        <ele>263.6</ele>
        <time>2019-06-16T09:04:36Z</time>
      </trkpt>
      <trkpt lat="44.70585" lon="5.19663">
        <ele>264</ele>
        <time>2019-06-16T09:04:37Z</time>
      </trkpt>
      <trkpt lat="44.70586" lon="5.19662">
        <ele>264.4</ele>
        <time>2019-06-16T09:04:38Z</time>
      </trkpt>
      <trkpt lat="44.70588" lon="5.19662">
        <ele>264.8</ele>
        <time>2019-06-16T09:04:39Z</time>
      </trkpt>
      <trkpt lat="44.70589" lon="5.19661">
        <ele>265.2</ele>
        <time>2019-06-16T09:04:40Z</time>
      </trkpt>
      <trkpt lat="44.70597" lon="5.1966">
        <ele>265.2</ele>
        <time>2019-06-16T09:04:46Z</time>
      </trkpt>
      <trkpt lat="44.706" lon="5.1966">
        <ele>265.6</ele>
        <time>2019-06-16T09:04:48Z</time>
      </trkpt>
      <trkpt lat="44.706" lon="5.1966">
        <ele>266.2</ele>
        <time>2019-06-16T09:04:49Z</time>
      </trkpt>
      <trkpt lat="44.70602" lon="5.1966">
        <ele>266.6</ele>
        <time>2019-06-16T09:04:50Z</time>
      </trkpt>
      <trkpt lat="44.70604" lon="5.1966">
        <ele>267</ele>
        <time>2019-06-16T09:04:51Z</time>
      </trkpt>
      <trkpt lat="44.70606" lon="5.1966">
        <ele>267.4</ele>
        <time>2019-06-16T09:04:52Z</time>
      </trkpt>
      <trkpt lat="44.7061" lon="5.1966">
        <ele>267.4</ele>
        <time>2019-06-16T09:04:56Z</time>
      </trkpt>
      <trkpt lat="44.70614" lon="5.1966">
        <ele>267.4</ele>
        <time>2019-06-16T09:04:59Z</time>
      </trkpt>
      <trkpt lat="44.70621" lon="5.1966">
        <ele>267.4</ele>
        <time>2019-06-16T09:05:04Z</time>
      </trkpt>
      <trkpt lat="44.70622" lon="5.19661">
        <ele>267.8</ele>
        <time>2019-06-16T09:05:05Z</time>
      </trkpt>
      <trkpt lat="44.70623" lon="5.19661">
        <ele>268.2</ele>
        <time>2019-06-16T09:05:06Z</time>
      </trkpt>
      <trkpt lat="44.70623" lon="5.19662">
        <ele>268.6</ele>
        <time>2019-06-16T09:05:07Z</time>
      </trkpt>
      <trkpt lat="44.70624" lon="5.19663">
        <ele>269</ele>
        <time>2019-06-16T09:05:08Z</time>
      </trkpt>
      <trkpt lat="44.70625" lon="5.19663">
        <ele>269.4</ele>
        <time>2019-06-16T09:05:09Z</time>
      </trkpt>
      <trkpt lat="44.70627" lon="5.19662">
        <ele>269.4</ele>
        <time>2019-06-16T09:05:11Z</time>
      </trkpt>
      <trkpt lat="44.70631" lon="5.19662">
        <ele>269.4</ele>
        <time>2019-06-16T09:05:16Z</time>
      </trkpt>
      <trkpt lat="44.70632" lon="5.19664">
        <ele>269.8</ele>
        <time>2019-06-16T09:05:18Z</time>
      </trkpt>
      <trkpt lat="44.70633" lon="5.19664">
        <ele>270.2</ele>
        <time>2019-06-16T09:05:19Z</time>
      </trkpt>
      <trkpt lat="44.70633" lon="5.19665">
        <ele>270.8</ele>
        <time>2019-06-16T09:05:20Z</time>
      </trkpt>
      <trkpt lat="44.70634" lon="5.19665">
        <ele>271.2</ele>
        <time>2019-06-16T09:05:21Z</time>
      </trkpt>
      <trkpt lat="44.70634" lon="5.19665">
        <ele>271.6</ele>
        <time>2019-06-16T09:05:22Z</time>
      </trkpt>
      <trkpt lat="44.70638" lon="5.19665">
        <ele>271.6</ele>
        <time>2019-06-16T09:05:26Z</time>
      </trkpt>
      <trkpt lat="44.70646" lon="5.19668">
        <ele>272</ele>
        <time>2019-06-16T09:05:32Z</time>
      </trkpt>
      <trkpt lat="44.70648" lon="5.19668">
        <ele>272.4</ele>
        <time>2019-06-16T09:05:33Z</time>
      </trkpt>
      <trkpt lat="44.70649" lon="5.19669">
        <ele>272.8</ele>
        <time>2019-06-16T09:05:34Z</time>
      </trkpt>
      <trkpt lat="44.7065" lon="5.19669">
        <ele>273.2</ele>
        <time>2019-06-16T09:05:35Z</time>
      </trkpt>
      <trkpt lat="44.70651" lon="5.1967">
        <ele>273.6</ele>
        <time>2019-06-16T09:05:36Z</time>
      </trkpt>
      <trkpt lat="44.70659" lon="5.19673">
        <ele>273.6</ele>
        <time>2019-06-16T09:05:44Z</time>
      </trkpt>
      <trkpt lat="44.70661" lon="5.19677">
        <ele>274</ele>
        <time>2019-06-16T09:05:47Z</time>
      </trkpt>
      <trkpt lat="44.70662" lon="5.19677">
        <ele>274.4</ele>
        <time>2019-06-16T09:05:48Z</time>
      </trkpt>
      <trkpt lat="44.70663" lon="5.19678">
        <ele>274.8</ele>
        <time>2019-06-16T09:05:49Z</time>
      </trkpt>
      <trkpt lat="44.70663" lon="5.19678">
        <ele>275.2</ele>
        <time>2019-06-16T09:05:50Z</time>
      </trkpt>
      <trkpt lat="44.70664" lon="5.19678">
        <ele>275.6</ele>
        <time>2019-06-16T09:05:51Z</time>
      </trkpt>
      <trkpt lat="44.70666" lon="5.19678">
        <ele>275.6</ele>
        <time>2019-06-16T09:05:52Z</time>
      </trkpt>
      <trkpt lat="44.70674" lon="5.19681">
        <ele>275.6</ele>
        <time>2019-06-16T09:06:00Z</time>
      </trkpt>
      <trkpt lat="44.70683" lon="5.19687">
        <ele>275.6</ele>
        <time>2019-06-16T09:06:08Z</time>
      </trkpt>
      <trkpt lat="44.70684" lon="5.19687">
        <ele>276</ele>
        <time>2019-06-16T09:06:09Z</time>
      </trkpt>
      <trkpt lat="44.70685" lon="5.19688">
        <ele>276.6</ele>
        <time>2019-06-16T09:06:10Z</time>
      </trkpt>
      <trkpt lat="44.70686" lon="5.19689">
        <ele>277</ele>
        <time>2019-06-16T09:06:11Z</time>
      </trkpt>
      <trkpt lat="44.70687" lon="5.1969">
        <ele>277.4</ele>
        <time>2019-06-16T09:06:12Z</time>
      </trkpt>
      <trkpt lat="44.70688" lon="5.1969">
        <ele>277.8</ele>
        <time>2019-06-16T09:06:13Z</time>
      </trkpt>
      <trkpt lat="44.70695" lon="5.19696">
        <ele>277.8</ele>
        <time>2019-06-16T09:06:22Z</time>
      </trkpt>
      <trkpt lat="44.70705" lon="5.19702">
        <ele>277.8</ele>
        <time>2019-06-16T09:06:30Z</time>
      </trkpt>
      <trkpt lat="44.70706" lon="5.19704">
        <ele>278.2</ele>
        <time>2019-06-16T09:06:31Z</time>
      </trkpt>
      <trkpt lat="44.70707" lon="5.19705">
        <ele>278.6</ele>
        <time>2019-06-16T09:06:32Z</time>
      </trkpt>
      <trkpt lat="44.70708" lon="5.19705">
        <ele>279</ele>
        <time>2019-06-16T09:06:33Z</time>
      </trkpt>
      <trkpt lat="44.70709" lon="5.19705">
        <ele>279.6</ele>
        <time>2019-06-16T09:06:34Z</time>
      </trkpt>
      <trkpt lat="44.7071" lon="5.19705">
        <ele>280</ele>
        <time>2019-06-16T09:06:35Z</time>
      </trkpt>
      <trkpt lat="44.70715" lon="5.19706">
        <ele>280</ele>
        <time>2019-06-16T09:06:38Z</time>
      </trkpt>
      <trkpt lat="44.70729" lon="5.19716">
        <ele>280</ele>
        <time>2019-06-16T09:06:49Z</time>
      </trkpt>
      <trkpt lat="44.70736" lon="5.19722">
        <ele>280</ele>
        <time>2019-06-16T09:06:55Z</time>
      </trkpt>
      <trkpt lat="44.70737" lon="5.19723">
        <ele>280</ele>
        <time>2019-06-16T09:06:56Z</time>
      </trkpt>
      <trkpt lat="44.7074" lon="5.19726">
        <ele>280.4</ele>
        <time>2019-06-16T09:06:58Z</time>
      </trkpt>
      <trkpt lat="44.70741" lon="5.19727">
        <ele>280.8</ele>
        <time>2019-06-16T09:06:59Z</time>
      </trkpt>
      <trkpt lat="44.70742" lon="5.19728">
        <ele>281.2</ele>
        <time>2019-06-16T09:07:00Z</time>
      </trkpt>
      <trkpt lat="44.70744" lon="5.19728">
        <ele>281.6</ele>
        <time>2019-06-16T09:07:01Z</time>
      </trkpt>
      <trkpt lat="44.70746" lon="5.19729">
        <ele>282</ele>
        <time>2019-06-16T09:07:02Z</time>
      </trkpt>
      <trkpt lat="44.70763" lon="5.19737">
        <ele>282</ele>
        <time>2019-06-16T09:07:11Z</time>
      </trkpt>
      <trkpt lat="44.70775" lon="5.19742">
        <ele>282</ele>
        <time>2019-06-16T09:07:18Z</time>
      </trkpt>
      <trkpt lat="44.70789" lon="5.19748">
        <ele>282.4</ele>
        <time>2019-06-16T09:07:26Z</time>
      </trkpt>
      <trkpt lat="44.70791" lon="5.19748">
        <ele>282.8</ele>
        <time>2019-06-16T09:07:27Z</time>
      </trkpt>
      <trkpt lat="44.70794" lon="5.19748">
        <ele>283.2</ele>
        <time>2019-06-16T09:07:28Z</time>
      </trkpt>
      <trkpt lat="44.70796" lon="5.19749">
        <ele>283.6</ele>
        <time>2019-06-16T09:07:29Z</time>
      </trkpt>
      <trkpt lat="44.70798" lon="5.19749">
        <ele>284</ele>
        <time>2019-06-16T09:07:30Z</time>
      </trkpt>
      <trkpt lat="44.70808" lon="5.19748">
        <ele>284</ele>
        <time>2019-06-16T09:07:35Z</time>
      </trkpt>
      <trkpt lat="44.70816" lon="5.19751">
        <ele>284.4</ele>
        <time>2019-06-16T09:07:39Z</time>
      </trkpt>
      <trkpt lat="44.70817" lon="5.19753">
        <ele>285</ele>
        <time>2019-06-16T09:07:40Z</time>
      </trkpt>
      <trkpt lat="44.70818" lon="5.19755">
        <ele>285.4</ele>
        <time>2019-06-16T09:07:41Z</time>
      </trkpt>
      <trkpt lat="44.70819" lon="5.19756">
        <ele>285.8</ele>
        <time>2019-06-16T09:07:42Z</time>
      </trkpt>
      <trkpt lat="44.70821" lon="5.19758">
        <ele>286.2</ele>
        <time>2019-06-16T09:07:43Z</time>
      </trkpt>
      <trkpt lat="44.70833" lon="5.19764">
        <ele>286.2</ele>
        <time>2019-06-16T09:07:48Z</time>
      </trkpt>
      <trkpt lat="44.70848" lon="5.19772">
        <ele>286.2</ele>
        <time>2019-06-16T09:07:54Z</time>
      </trkpt>
      <trkpt lat="44.70853" lon="5.19774">
        <ele>286.2</ele>
        <time>2019-06-16T09:07:56Z</time>
      </trkpt>
      <trkpt lat="44.70867" lon="5.19774">
        <ele>286.2</ele>
        <time>2019-06-16T09:08:02Z</time>
      </trkpt>
      <trkpt lat="44.70883" lon="5.19769">
        <ele>286.6</ele>
        <time>2019-06-16T09:08:09Z</time>
      </trkpt>
      <trkpt lat="44.70886" lon="5.19768">
        <ele>287</ele>
        <time>2019-06-16T09:08:10Z</time>
      </trkpt>
      <trkpt lat="44.70889" lon="5.19767">
        <ele>287.4</ele>
        <time>2019-06-16T09:08:11Z</time>
      </trkpt>
      <trkpt lat="44.70891" lon="5.19767">
        <ele>287.8</ele>
        <time>2019-06-16T09:08:12Z</time>
      </trkpt>
      <trkpt lat="44.70893" lon="5.19767">
        <ele>288.2</ele>
        <time>2019-06-16T09:08:13Z</time>
      </trkpt>
      <trkpt lat="44.709" lon="5.19768">
        <ele>288.2</ele>
        <time>2019-06-16T09:08:16Z</time>
      </trkpt>
      <trkpt lat="44.70924" lon="5.19773">
        <ele>288.2</ele>
        <time>2019-06-16T09:08:25Z</time>
      </trkpt>
      <trkpt lat="44.70938" lon="5.19779">
        <ele>288.2</ele>
        <time>2019-06-16T09:08:31Z</time>
      </trkpt>
      <trkpt lat="44.70956" lon="5.19777">
        <ele>288.2</ele>
        <time>2019-06-16T09:08:38Z</time>
      </trkpt>
      <trkpt lat="44.70967" lon="5.19765">
        <ele>288.8</ele>
        <time>2019-06-16T09:08:44Z</time>
      </trkpt>
      <trkpt lat="44.70968" lon="5.19763">
        <ele>289.2</ele>
        <time>2019-06-16T09:08:45Z</time>
      </trkpt>
      <trkpt lat="44.7097" lon="5.19761">
        <ele>289.6</ele>
        <time>2019-06-16T09:08:46Z</time>
      </trkpt>
      <trkpt lat="44.70971" lon="5.19759">
        <ele>290</ele>
        <time>2019-06-16T09:08:47Z</time>
      </trkpt>
      <trkpt lat="44.70972" lon="5.19756">
        <ele>290.4</ele>
        <time>2019-06-16T09:08:48Z</time>
      </trkpt>
      <trkpt lat="44.70976" lon="5.19748">
        <ele>290.4</ele>
        <time>2019-06-16T09:08:52Z</time>
      </trkpt>
      <trkpt lat="44.70985" lon="5.19734">
        <ele>290.8</ele>
        <time>2019-06-16T09:08:59Z</time>
      </trkpt>
      <trkpt lat="44.70986" lon="5.19733">
        <ele>291.4</ele>
        <time>2019-06-16T09:09:00Z</time>
      </trkpt>
      <trkpt lat="44.70988" lon="5.19731">
        <ele>291.8</ele>
        <time>2019-06-16T09:09:01Z</time>
      </trkpt>
      <trkpt lat="44.70989" lon="5.1973">
        <ele>292.2</ele>
        <time>2019-06-16T09:09:02Z</time>
      </trkpt>
      <trkpt lat="44.70991" lon="5.19729">
        <ele>292.8</ele>
        <time>2019-06-16T09:09:03Z</time>
      </trkpt>
      <trkpt lat="44.70999" lon="5.19729">
        <ele>292.8</ele>
        <time>2019-06-16T09:09:07Z</time>
      </trkpt>
      <trkpt lat="44.71004" lon="5.19734">
        <ele>293.2</ele>
        <time>2019-06-16T09:09:10Z</time>
      </trkpt>
      <trkpt lat="44.71005" lon="5.19735">
        <ele>293.6</ele>
        <time>2019-06-16T09:09:11Z</time>
      </trkpt>
      <trkpt lat="44.71007" lon="5.19737">
        <ele>294</ele>
        <time>2019-06-16T09:09:12Z</time>
      </trkpt>
      <trkpt lat="44.71008" lon="5.19739">
        <ele>294.4</ele>
        <time>2019-06-16T09:09:13Z</time>
      </trkpt>
      <trkpt lat="44.7101" lon="5.1974">
        <ele>294.8</ele>
        <time>2019-06-16T09:09:14Z</time>
      </trkpt>
      <trkpt lat="44.71021" lon="5.19761">
        <ele>294.8</ele>
        <time>2019-06-16T09:09:23Z</time>
      </trkpt>
      <trkpt lat="44.71029" lon="5.19779">
        <ele>294.8</ele>
        <time>2019-06-16T09:09:31Z</time>
      </trkpt>
      <trkpt lat="44.71042" lon="5.19798">
        <ele>294.8</ele>
        <time>2019-06-16T09:09:40Z</time>
      </trkpt>
      <trkpt lat="44.71047" lon="5.19804">
        <ele>295.8</ele>
        <time>2019-06-16T09:09:43Z</time>
      </trkpt>
      <trkpt lat="44.7105" lon="5.19809">
        <ele>296.2</ele>
        <time>2019-06-16T09:09:45Z</time>
      </trkpt>
      <trkpt lat="44.71051" lon="5.19811">
        <ele>297</ele>
        <time>2019-06-16T09:09:46Z</time>
      </trkpt>
      <trkpt lat="44.71053" lon="5.19813">
        <ele>297</ele>
        <time>2019-06-16T09:09:47Z</time>
      </trkpt>
      <trkpt lat="44.71066" lon="5.19828">
        <ele>297</ele>
        <time>2019-06-16T09:09:54Z</time>
      </trkpt>
      <trkpt lat="44.71085" lon="5.19839">
        <ele>297</ele>
        <time>2019-06-16T09:10:02Z</time>
      </trkpt>
      <trkpt lat="44.71103" lon="5.19842">
        <ele>297</ele>
        <time>2019-06-16T09:10:09Z</time>
      </trkpt>
      <trkpt lat="44.71117" lon="5.19848">
        <ele>297.6</ele>
        <time>2019-06-16T09:10:16Z</time>
      </trkpt>
      <trkpt lat="44.7112" lon="5.19849">
        <ele>298</ele>
        <time>2019-06-16T09:10:17Z</time>
      </trkpt>
      <trkpt lat="44.71122" lon="5.19851">
        <ele>298.4</ele>
        <time>2019-06-16T09:10:18Z</time>
      </trkpt>
      <trkpt lat="44.71123" lon="5.19851">
        <ele>298.8</ele>
        <time>2019-06-16T09:10:19Z</time>
      </trkpt>
      <trkpt lat="44.71125" lon="5.19852">
        <ele>299.4</ele>
        <time>2019-06-16T09:10:20Z</time>
      </trkpt>
      <trkpt lat="44.71132" lon="5.19855">
        <ele>299.4</ele>
        <time>2019-06-16T09:10:23Z</time>
      </trkpt>
      <trkpt lat="44.7115" lon="5.19865">
        <ele>299.4</ele>
        <time>2019-06-16T09:10:31Z</time>
      </trkpt>
      <trkpt lat="44.71166" lon="5.1988">
        <ele>299.4</ele>
        <time>2019-06-16T09:10:39Z</time>
      </trkpt>
      <trkpt lat="44.71177" lon="5.19883">
        <ele>299.4</ele>
        <time>2019-06-16T09:10:45Z</time>
      </trkpt>
      <trkpt lat="44.71184" lon="5.19885">
        <ele>299.8</ele>
        <time>2019-06-16T09:10:50Z</time>
      </trkpt>
      <trkpt lat="44.71186" lon="5.19885">
        <ele>300.2</ele>
        <time>2019-06-16T09:10:51Z</time>
      </trkpt>
      <trkpt lat="44.71188" lon="5.19885">
        <ele>300.6</ele>
        <time>2019-06-16T09:10:52Z</time>
      </trkpt>
      <trkpt lat="44.7119" lon="5.19885">
        <ele>301</ele>
        <time>2019-06-16T09:10:53Z</time>
      </trkpt>
      <trkpt lat="44.71192" lon="5.19885">
        <ele>301.4</ele>
        <time>2019-06-16T09:10:54Z</time>
      </trkpt>
      <trkpt lat="44.71205" lon="5.19882">
        <ele>301.4</ele>
        <time>2019-06-16T09:11:00Z</time>
      </trkpt>
      <trkpt lat="44.7122" lon="5.19876">
        <ele>302.2</ele>
        <time>2019-06-16T09:11:06Z</time>
      </trkpt>
      <trkpt lat="44.71222" lon="5.19875">
        <ele>302.6</ele>
        <time>2019-06-16T09:11:07Z</time>
      </trkpt>
      <trkpt lat="44.71224" lon="5.19874">
        <ele>303.2</ele>
        <time>2019-06-16T09:11:08Z</time>
      </trkpt>
      <trkpt lat="44.71225" lon="5.19872">
        <ele>303.6</ele>
        <time>2019-06-16T09:11:09Z</time>
      </trkpt>
      <trkpt lat="44.71245" lon="5.19859">
        <ele>303.6</ele>
        <time>2019-06-16T09:11:20Z</time>
      </trkpt>
      <trkpt lat="44.71261" lon="5.19854">
        <ele>303.6</ele>
        <time>2019-06-16T09:11:28Z</time>
      </trkpt>
      <trkpt lat="44.71266" lon="5.19853">
        <ele>304</ele>
        <time>2019-06-16T09:11:30Z</time>
      </trkpt>
      <trkpt lat="44.71268" lon="5.19853">
        <ele>304.4</ele>
        <time>2019-06-16T09:11:31Z</time>
      </trkpt>
      <trkpt lat="44.7127" lon="5.19853">
        <ele>304.8</ele>
        <time>2019-06-16T09:11:32Z</time>
      </trkpt>
      <trkpt lat="44.71272" lon="5.19853">
        <ele>305.2</ele>
        <time>2019-06-16T09:11:33Z</time>
      </trkpt>
      <trkpt lat="44.71275" lon="5.19853">
        <ele>305.6</ele>
        <time>2019-06-16T09:11:34Z</time>
      </trkpt>
      <trkpt lat="44.71277" lon="5.19854">
        <ele>305.6</ele>
        <time>2019-06-16T09:11:35Z</time>
      </trkpt>
      <trkpt lat="44.71288" lon="5.19858">
        <ele>305.6</ele>
        <time>2019-06-16T09:11:41Z</time>
      </trkpt>
      <trkpt lat="44.71292" lon="5.19857">
        <ele>305.6</ele>
        <time>2019-06-16T09:11:43Z</time>
      </trkpt>
      <trkpt lat="44.71306" lon="5.19853">
        <ele>306</ele>
        <time>2019-06-16T09:11:50Z</time>
      </trkpt>
      <trkpt lat="44.71309" lon="5.19852">
        <ele>306.4</ele>
        <time>2019-06-16T09:11:51Z</time>
      </trkpt>
      <trkpt lat="44.71311" lon="5.19852">
        <ele>306.8</ele>
        <time>2019-06-16T09:11:52Z</time>
      </trkpt>
      <trkpt lat="44.71313" lon="5.19851">
        <ele>307.2</ele>
        <time>2019-06-16T09:11:53Z</time>
      </trkpt>
      <trkpt lat="44.71315" lon="5.19851">
        <ele>307.6</ele>
        <time>2019-06-16T09:11:54Z</time>
      </trkpt>
      <trkpt lat="44.71323" lon="5.19851">
        <ele>307.6</ele>
        <time>2019-06-16T09:11:58Z</time>
      </trkpt>
      <trkpt lat="44.71344" lon="5.19857">
        <ele>307.6</ele>
        <time>2019-06-16T09:12:07Z</time>
      </trkpt>
      <trkpt lat="44.7136" lon="5.19864">
        <ele>307.6</ele>
        <time>2019-06-16T09:12:14Z</time>
      </trkpt>
      <trkpt lat="44.71374" lon="5.19873">
        <ele>307.6</ele>
        <time>2019-06-16T09:12:21Z</time>
      </trkpt>
      <trkpt lat="44.71392" lon="5.19888">
        <ele>307.6</ele>
        <time>2019-06-16T09:12:30Z</time>
      </trkpt>
      <trkpt lat="44.71409" lon="5.19902">
        <ele>307.2</ele>
        <time>2019-06-16T09:12:38Z</time>
      </trkpt>
      <trkpt lat="44.71411" lon="5.19904">
        <ele>306.8</ele>
        <time>2019-06-16T09:12:39Z</time>
      </trkpt>
      <trkpt lat="44.71415" lon="5.19907">
        <ele>306.4</ele>
        <time>2019-06-16T09:12:40Z</time>
      </trkpt>
      <trkpt lat="44.71417" lon="5.1991">
        <ele>306</ele>
        <time>2019-06-16T09:12:41Z</time>
      </trkpt>
      <trkpt lat="44.7142" lon="5.19912">
        <ele>305.6</ele>
        <time>2019-06-16T09:12:42Z</time>
      </trkpt>
      <trkpt lat="44.71425" lon="5.19922">
        <ele>305.6</ele>
        <time>2019-06-16T09:12:45Z</time>
      </trkpt>
      <trkpt lat="44.71441" lon="5.19948">
        <ele>305.6</ele>
        <time>2019-06-16T09:12:53Z</time>
      </trkpt>
      <trkpt lat="44.71465" lon="5.19968">
        <ele>305.6</ele>
        <time>2019-06-16T09:13:01Z</time>
      </trkpt>
      <trkpt lat="44.71482" lon="5.19974">
        <ele>305.6</ele>
        <time>2019-06-16T09:13:07Z</time>
      </trkpt>
      <trkpt lat="44.715" lon="5.19975">
        <ele>305.6</ele>
        <time>2019-06-16T09:13:14Z</time>
      </trkpt>
      <trkpt lat="44.71518" lon="5.19969">
        <ele>306</ele>
        <time>2019-06-16T09:13:21Z</time>
      </trkpt>
      <trkpt lat="44.71521" lon="5.19968">
        <ele>306.4</ele>
        <time>2019-06-16T09:13:22Z</time>
      </trkpt>
      <trkpt lat="44.71523" lon="5.19967">
        <ele>306.8</ele>
        <time>2019-06-16T09:13:23Z</time>
      </trkpt>
      <trkpt lat="44.71526" lon="5.19966">
        <ele>307.2</ele>
        <time>2019-06-16T09:13:24Z</time>
      </trkpt>
      <trkpt lat="44.71529" lon="5.19965">
        <ele>307.6</ele>
        <time>2019-06-16T09:13:25Z</time>
      </trkpt>
      <trkpt lat="44.71544" lon="5.19961">
        <ele>307.6</ele>
        <time>2019-06-16T09:13:30Z</time>
      </trkpt>
      <trkpt lat="44.71547" lon="5.19961">
        <ele>308.2</ele>
        <time>2019-06-16T09:13:31Z</time>
      </trkpt>
      <trkpt lat="44.7155" lon="5.19962">
        <ele>308.6</ele>
        <time>2019-06-16T09:13:32Z</time>
      </trkpt>
      <trkpt lat="44.71552" lon="5.19964">
        <ele>309</ele>
        <time>2019-06-16T09:13:33Z</time>
      </trkpt>
      <trkpt lat="44.71554" lon="5.19966">
        <ele>309.4</ele>
        <time>2019-06-16T09:13:34Z</time>
      </trkpt>
      <trkpt lat="44.71556" lon="5.19969">
        <ele>309.8</ele>
        <time>2019-06-16T09:13:35Z</time>
      </trkpt>
      <trkpt lat="44.7156" lon="5.19979">
        <ele>310.2</ele>
        <time>2019-06-16T09:13:38Z</time>
      </trkpt>
      <trkpt lat="44.71561" lon="5.19983">
        <ele>310.6</ele>
        <time>2019-06-16T09:13:39Z</time>
      </trkpt>
      <trkpt lat="44.71561" lon="5.19987">
        <ele>311</ele>
        <time>2019-06-16T09:13:40Z</time>
      </trkpt>
      <trkpt lat="44.71562" lon="5.1999">
        <ele>311.4</ele>
        <time>2019-06-16T09:13:41Z</time>
      </trkpt>
      <trkpt lat="44.71561" lon="5.19994">
        <ele>311.8</ele>
        <time>2019-06-16T09:13:42Z</time>
      </trkpt>
      <trkpt lat="44.71562" lon="5.20024">
        <ele>311.8</ele>
        <time>2019-06-16T09:13:50Z</time>
      </trkpt>
      <trkpt lat="44.71561" lon="5.20031">
        <ele>311.8</ele>
        <time>2019-06-16T09:13:52Z</time>
      </trkpt>
      <trkpt lat="44.71559" lon="5.20047">
        <ele>312.2</ele>
        <time>2019-06-16T09:13:56Z</time>
      </trkpt>
      <trkpt lat="44.71559" lon="5.2005">
        <ele>312.8</ele>
        <time>2019-06-16T09:13:57Z</time>
      </trkpt>
      <trkpt lat="44.71559" lon="5.20054">
        <ele>313.2</ele>
        <time>2019-06-16T09:13:58Z</time>
      </trkpt>
      <trkpt lat="44.71559" lon="5.20058">
        <ele>313.6</ele>
        <time>2019-06-16T09:13:59Z</time>
      </trkpt>
      <trkpt lat="44.71559" lon="5.20062">
        <ele>314</ele>
        <time>2019-06-16T09:14:00Z</time>
      </trkpt>
      <trkpt lat="44.71561" lon="5.20081">
        <ele>314</ele>
        <time>2019-06-16T09:14:05Z</time>
      </trkpt>
      <trkpt lat="44.71564" lon="5.20096">
        <ele>314.4</ele>
        <time>2019-06-16T09:14:09Z</time>
      </trkpt>
      <trkpt lat="44.71565" lon="5.201">
        <ele>314.8</ele>
        <time>2019-06-16T09:14:10Z</time>
      </trkpt>
      <trkpt lat="44.71566" lon="5.20104">
        <ele>315.2</ele>
        <time>2019-06-16T09:14:11Z</time>
      </trkpt>
      <trkpt lat="44.71566" lon="5.20108">
        <ele>315.6</ele>
        <time>2019-06-16T09:14:12Z</time>
      </trkpt>
      <trkpt lat="44.71566" lon="5.20111">
        <ele>316</ele>
        <time>2019-06-16T09:14:13Z</time>
      </trkpt>
      <trkpt lat="44.71566" lon="5.20115">
        <ele>316</ele>
        <time>2019-06-16T09:14:14Z</time>
      </trkpt>
      <trkpt lat="44.71561" lon="5.20141">
        <ele>316</ele>
        <time>2019-06-16T09:14:22Z</time>
      </trkpt>
      <trkpt lat="44.71558" lon="5.20166">
        <ele>316.4</ele>
        <time>2019-06-16T09:14:29Z</time>
      </trkpt>
      <trkpt lat="44.71559" lon="5.20169">
        <ele>316.8</ele>
        <time>2019-06-16T09:14:30Z</time>
      </trkpt>
      <trkpt lat="44.71559" lon="5.20173">
        <ele>317.2</ele>
        <time>2019-06-16T09:14:31Z</time>
      </trkpt>
      <trkpt lat="44.71559" lon="5.20176">
        <ele>317.6</ele>
        <time>2019-06-16T09:14:32Z</time>
      </trkpt>
      <trkpt lat="44.71559" lon="5.2018">
        <ele>318</ele>
        <time>2019-06-16T09:14:33Z</time>
      </trkpt>
      <trkpt lat="44.71562" lon="5.20201">
        <ele>318</ele>
        <time>2019-06-16T09:14:38Z</time>
      </trkpt>
      <trkpt lat="44.71577" lon="5.2022">
        <ele>318</ele>
        <time>2019-06-16T09:14:43Z</time>
      </trkpt>
      <trkpt lat="44.71593" lon="5.20229">
        <ele>318.4</ele>
        <time>2019-06-16T09:14:49Z</time>
      </trkpt>
      <trkpt lat="44.71595" lon="5.20231">
        <ele>319</ele>
        <time>2019-06-16T09:14:50Z</time>
      </trkpt>
      <trkpt lat="44.71597" lon="5.20233">
        <ele>319.4</ele>
        <time>2019-06-16T09:14:51Z</time>
      </trkpt>
      <trkpt lat="44.71599" lon="5.20235">
        <ele>319.8</ele>
        <time>2019-06-16T09:14:52Z</time>
      </trkpt>
      <trkpt lat="44.71602" lon="5.20237">
        <ele>320.2</ele>
        <time>2019-06-16T09:14:53Z</time>
      </trkpt>
      <trkpt lat="44.71608" lon="5.20244">
        <ele>320.2</ele>
        <time>2019-06-16T09:14:56Z</time>
      </trkpt>
      <trkpt lat="44.71623" lon="5.20254">
        <ele>320.2</ele>
        <time>2019-06-16T09:15:02Z</time>
      </trkpt>
      <trkpt lat="44.71636" lon="5.20258">
        <ele>320.8</ele>
        <time>2019-06-16T09:15:07Z</time>
      </trkpt>
      <trkpt lat="44.71638" lon="5.20258">
        <ele>321.2</ele>
        <time>2019-06-16T09:15:08Z</time>
      </trkpt>
      <trkpt lat="44.71641" lon="5.20259">
        <ele>321.6</ele>
        <time>2019-06-16T09:15:09Z</time>
      </trkpt>
      <trkpt lat="44.71644" lon="5.2026">
        <ele>322</ele>
        <time>2019-06-16T09:15:10Z</time>
      </trkpt>
      <trkpt lat="44.71647" lon="5.2026">
        <ele>322.6</ele>
        <time>2019-06-16T09:15:11Z</time>
      </trkpt>
      <trkpt lat="44.71655" lon="5.2026">
        <ele>322.6</ele>
        <time>2019-06-16T09:15:15Z</time>
      </trkpt>
      <trkpt lat="44.71674" lon="5.20262">
        <ele>322.6</ele>
        <time>2019-06-16T09:15:23Z</time>
      </trkpt>
      <trkpt lat="44.71686" lon="5.2026">
        <ele>323</ele>
        <time>2019-06-16T09:15:29Z</time>
      </trkpt>
      <trkpt lat="44.71688" lon="5.2026">
        <ele>323.4</ele>
        <time>2019-06-16T09:15:30Z</time>
      </trkpt>
      <trkpt lat="44.71691" lon="5.20259">
        <ele>323.8</ele>
        <time>2019-06-16T09:15:31Z</time>
      </trkpt>
      <trkpt lat="44.71693" lon="5.20258">
        <ele>324.2</ele>
        <time>2019-06-16T09:15:32Z</time>
      </trkpt>
      <trkpt lat="44.71696" lon="5.20257">
        <ele>324.6</ele>
        <time>2019-06-16T09:15:33Z</time>
      </trkpt>
      <trkpt lat="44.71702" lon="5.20254">
        <ele>325</ele>
        <time>2019-06-16T09:15:36Z</time>
      </trkpt>
      <trkpt lat="44.71704" lon="5.20253">
        <ele>325.4</ele>
        <time>2019-06-16T09:15:37Z</time>
      </trkpt>
      <trkpt lat="44.71706" lon="5.20252">
        <ele>325.8</ele>
        <time>2019-06-16T09:15:38Z</time>
      </trkpt>
      <trkpt lat="44.71708" lon="5.20251">
        <ele>326.2</ele>
        <time>2019-06-16T09:15:39Z</time>
      </trkpt>
      <trkpt lat="44.7171" lon="5.2025">
        <ele>326.6</ele>
        <time>2019-06-16T09:15:40Z</time>
      </trkpt>
      <trkpt lat="44.71721" lon="5.2024">
        <ele>327.2</ele>
        <time>2019-06-16T09:15:45Z</time>
      </trkpt>
      <trkpt lat="44.71723" lon="5.20238">
        <ele>327.6</ele>
        <time>2019-06-16T09:15:46Z</time>
      </trkpt>
      <trkpt lat="44.71725" lon="5.20237">
        <ele>328</ele>
        <time>2019-06-16T09:15:47Z</time>
      </trkpt>
      <trkpt lat="44.71727" lon="5.20235">
        <ele>328.4</ele>
        <time>2019-06-16T09:15:48Z</time>
      </trkpt>
      <trkpt lat="44.71728" lon="5.20233">
        <ele>329</ele>
        <time>2019-06-16T09:15:49Z</time>
      </trkpt>
      <trkpt lat="44.71737" lon="5.20225">
        <ele>329.4</ele>
        <time>2019-06-16T09:15:53Z</time>
      </trkpt>
      <trkpt lat="44.71739" lon="5.20223">
        <ele>329.8</ele>
        <time>2019-06-16T09:15:54Z</time>
      </trkpt>
      <trkpt lat="44.71741" lon="5.20221">
        <ele>330.4</ele>
        <time>2019-06-16T09:15:55Z</time>
      </trkpt>
      <trkpt lat="44.71743" lon="5.20219">
        <ele>330.8</ele>
        <time>2019-06-16T09:15:56Z</time>
      </trkpt>
      <trkpt lat="44.71745" lon="5.20218">
        <ele>331.2</ele>
        <time>2019-06-16T09:15:57Z</time>
      </trkpt>
      <trkpt lat="44.71755" lon="5.20212">
        <ele>331.6</ele>
        <time>2019-06-16T09:16:03Z</time>
      </trkpt>
      <trkpt lat="44.71756" lon="5.20211">
        <ele>332</ele>
        <time>2019-06-16T09:16:04Z</time>
      </trkpt>
      <trkpt lat="44.71757" lon="5.2021">
        <ele>332.4</ele>
        <time>2019-06-16T09:16:05Z</time>
      </trkpt>
      <trkpt lat="44.71759" lon="5.20209">
        <ele>333</ele>
        <time>2019-06-16T09:16:06Z</time>
      </trkpt>
      <trkpt lat="44.71761" lon="5.20209">
        <ele>333.4</ele>
        <time>2019-06-16T09:16:07Z</time>
      </trkpt>
      <trkpt lat="44.71764" lon="5.20205">
        <ele>333.4</ele>
        <time>2019-06-16T09:16:10Z</time>
      </trkpt>
      <trkpt lat="44.71765" lon="5.20204">
        <ele>333.8</ele>
        <time>2019-06-16T09:16:11Z</time>
      </trkpt>
      <trkpt lat="44.71767" lon="5.20203">
        <ele>334.2</ele>
        <time>2019-06-16T09:16:12Z</time>
      </trkpt>
      <trkpt lat="44.71769" lon="5.20202">
        <ele>334.6</ele>
        <time>2019-06-16T09:16:13Z</time>
      </trkpt>
      <trkpt lat="44.7177" lon="5.20201">
        <ele>335</ele>
        <time>2019-06-16T09:16:14Z</time>
      </trkpt>
      <trkpt lat="44.71773" lon="5.202">
        <ele>335.4</ele>
        <time>2019-06-16T09:16:15Z</time>
      </trkpt>
      <trkpt lat="44.71779" lon="5.20198">
        <ele>336</ele>
        <time>2019-06-16T09:16:19Z</time>
      </trkpt>
      <trkpt lat="44.71781" lon="5.20198">
        <ele>336.4</ele>
        <time>2019-06-16T09:16:20Z</time>
      </trkpt>
      <trkpt lat="44.71782" lon="5.20198">
        <ele>336.8</ele>
        <time>2019-06-16T09:16:21Z</time>
      </trkpt>
      <trkpt lat="44.71783" lon="5.20198">
        <ele>337.2</ele>
        <time>2019-06-16T09:16:22Z</time>
      </trkpt>
      <trkpt lat="44.71784" lon="5.20198">
        <ele>337.6</ele>
        <time>2019-06-16T09:16:23Z</time>
      </trkpt>
      <trkpt lat="44.71789" lon="5.202">
        <ele>337.6</ele>
        <time>2019-06-16T09:16:26Z</time>
      </trkpt>
      <trkpt lat="44.71798" lon="5.20212">
        <ele>337.6</ele>
        <time>2019-06-16T09:16:32Z</time>
      </trkpt>
      <trkpt lat="44.71798" lon="5.20215">
        <ele>338</ele>
        <time>2019-06-16T09:16:33Z</time>
      </trkpt>
      <trkpt lat="44.71799" lon="5.20218">
        <ele>338.4</ele>
        <time>2019-06-16T09:16:34Z</time>
      </trkpt>
      <trkpt lat="44.718" lon="5.2022">
        <ele>338.8</ele>
        <time>2019-06-16T09:16:35Z</time>
      </trkpt>
      <trkpt lat="44.71802" lon="5.20223">
        <ele>339.2</ele>
        <time>2019-06-16T09:16:36Z</time>
      </trkpt>
      <trkpt lat="44.71803" lon="5.20225">
        <ele>339.6</ele>
        <time>2019-06-16T09:16:37Z</time>
      </trkpt>
      <trkpt lat="44.71811" lon="5.20236">
        <ele>340.2</ele>
        <time>2019-06-16T09:16:42Z</time>
      </trkpt>
      <trkpt lat="44.71814" lon="5.20237">
        <ele>340.6</ele>
        <time>2019-06-16T09:16:43Z</time>
      </trkpt>
      <trkpt lat="44.71815" lon="5.20239">
        <ele>341</ele>
        <time>2019-06-16T09:16:44Z</time>
      </trkpt>
      <trkpt lat="44.71818" lon="5.20241">
        <ele>341.6</ele>
        <time>2019-06-16T09:16:45Z</time>
      </trkpt>
      <trkpt lat="44.7182" lon="5.20243">
        <ele>342</ele>
        <time>2019-06-16T09:16:46Z</time>
      </trkpt>
      <trkpt lat="44.71829" lon="5.20249">
        <ele>342.4</ele>
        <time>2019-06-16T09:16:50Z</time>
      </trkpt>
      <trkpt lat="44.7183" lon="5.20251">
        <ele>342.8</ele>
        <time>2019-06-16T09:16:51Z</time>
      </trkpt>
      <trkpt lat="44.71832" lon="5.20251">
        <ele>343.2</ele>
        <time>2019-06-16T09:16:52Z</time>
      </trkpt>
      <trkpt lat="44.71834" lon="5.20252">
        <ele>343.6</ele>
        <time>2019-06-16T09:16:53Z</time>
      </trkpt>
      <trkpt lat="44.71836" lon="5.20252">
        <ele>344</ele>
        <time>2019-06-16T09:16:54Z</time>
      </trkpt>
      <trkpt lat="44.7184" lon="5.20252">
        <ele>344</ele>
        <time>2019-06-16T09:16:56Z</time>
      </trkpt>
      <trkpt lat="44.71855" lon="5.20255">
        <ele>344</ele>
        <time>2019-06-16T09:17:04Z</time>
      </trkpt>
      <trkpt lat="44.71862" lon="5.20255">
        <ele>344.4</ele>
        <time>2019-06-16T09:17:07Z</time>
      </trkpt>
      <trkpt lat="44.71863" lon="5.20255">
        <ele>345</ele>
        <time>2019-06-16T09:17:08Z</time>
      </trkpt>
      <trkpt lat="44.71866" lon="5.20256">
        <ele>345.4</ele>
        <time>2019-06-16T09:17:09Z</time>
      </trkpt>
      <trkpt lat="44.71868" lon="5.20257">
        <ele>345.8</ele>
        <time>2019-06-16T09:17:10Z</time>
      </trkpt>
      <trkpt lat="44.7187" lon="5.20257">
        <ele>346.2</ele>
        <time>2019-06-16T09:17:11Z</time>
      </trkpt>
      <trkpt lat="44.71889" lon="5.2026">
        <ele>346.2</ele>
        <time>2019-06-16T09:17:19Z</time>
      </trkpt>
      <trkpt lat="44.71893" lon="5.20262">
        <ele>346.6</ele>
        <time>2019-06-16T09:17:22Z</time>
      </trkpt>
      <trkpt lat="44.71895" lon="5.20262">
        <ele>347</ele>
        <time>2019-06-16T09:17:23Z</time>
      </trkpt>
      <trkpt lat="44.71897" lon="5.20262">
        <ele>347.4</ele>
        <time>2019-06-16T09:17:24Z</time>
      </trkpt>
      <trkpt lat="44.71899" lon="5.20263">
        <ele>347.8</ele>
        <time>2019-06-16T09:17:25Z</time>
      </trkpt>
      <trkpt lat="44.719" lon="5.20264">
        <ele>348.2</ele>
        <time>2019-06-16T09:17:26Z</time>
      </trkpt>
      <trkpt lat="44.71913" lon="5.20275">
        <ele>348.2</ele>
        <time>2019-06-16T09:17:34Z</time>
      </trkpt>
      <trkpt lat="44.71926" lon="5.20283">
        <ele>348.2</ele>
        <time>2019-06-16T09:17:40Z</time>
      </trkpt>
      <trkpt lat="44.71937" lon="5.2029">
        <ele>348.2</ele>
        <time>2019-06-16T09:17:45Z</time>
      </trkpt>
      <trkpt lat="44.7194" lon="5.20297">
        <ele>348.2</ele>
        <time>2019-06-16T09:17:50Z</time>
      </trkpt>
      <trkpt lat="44.71935" lon="5.20297">
        <ele>348.6</ele>
        <time>2019-06-16T09:17:54Z</time>
      </trkpt>
      <trkpt lat="44.71934" lon="5.20297">
        <ele>349</ele>
        <time>2019-06-16T09:17:55Z</time>
      </trkpt>
      <trkpt lat="44.71933" lon="5.20296">
        <ele>349.6</ele>
        <time>2019-06-16T09:17:56Z</time>
      </trkpt>
      <trkpt lat="44.71932" lon="5.20295">
        <ele>350</ele>
        <time>2019-06-16T09:17:57Z</time>
      </trkpt>
      <trkpt lat="44.7193" lon="5.20294">
        <ele>350.4</ele>
        <time>2019-06-16T09:17:58Z</time>
      </trkpt>
      <trkpt lat="44.71926" lon="5.20293">
        <ele>350.4</ele>
        <time>2019-06-16T09:18:02Z</time>
      </trkpt>
      <trkpt lat="44.71924" lon="5.2029">
        <ele>350.8</ele>
        <time>2019-06-16T09:18:08Z</time>
      </trkpt>
      <trkpt lat="44.71924" lon="5.2029">
        <ele>351.2</ele>
        <time>2019-06-16T09:18:09Z</time>
      </trkpt>
      <trkpt lat="44.71923" lon="5.2029">
        <ele>351.6</ele>
        <time>2019-06-16T09:18:10Z</time>
      </trkpt>
      <trkpt lat="44.71923" lon="5.2029">
        <ele>352.2</ele>
        <time>2019-06-16T09:18:11Z</time>
      </trkpt>
      <trkpt lat="44.71923" lon="5.2029">
        <ele>352.6</ele>
        <time>2019-06-16T09:18:12Z</time>
      </trkpt>
      <trkpt lat="44.71923" lon="5.2029">
        <ele>352.6</ele>
        <time>2019-06-16T09:19:10Z</time>
      </trkpt>
      <trkpt lat="44.71923" lon="5.20292">
        <ele>352.6</ele>
        <time>2019-06-16T09:20:08Z</time>
      </trkpt>
      <trkpt lat="44.71923" lon="5.20292">
        <ele>353</ele>
        <time>2019-06-16T09:20:09Z</time>
      </trkpt>
      <trkpt lat="44.71923" lon="5.20293">
        <ele>353.4</ele>
        <time>2019-06-16T09:20:10Z</time>
      </trkpt>
      <trkpt lat="44.71924" lon="5.20294">
        <ele>353.8</ele>
        <time>2019-06-16T09:20:11Z</time>
      </trkpt>
      <trkpt lat="44.71924" lon="5.20294">
        <ele>354.2</ele>
        <time>2019-06-16T09:20:12Z</time>
      </trkpt>
      <trkpt lat="44.71924" lon="5.20294">
        <ele>354.8</ele>
        <time>2019-06-16T09:20:13Z</time>
      </trkpt>
      <trkpt lat="44.71924" lon="5.20295">
        <ele>355.2</ele>
        <time>2019-06-16T09:20:17Z</time>
      </trkpt>
      <trkpt lat="44.71924" lon="5.20296">
        <ele>355.6</ele>
        <time>2019-06-16T09:20:18Z</time>
      </trkpt>
      <trkpt lat="44.71924" lon="5.20296">
        <ele>356</ele>
        <time>2019-06-16T09:20:19Z</time>
      </trkpt>
      <trkpt lat="44.71924" lon="5.20296">
        <ele>356.4</ele>
        <time>2019-06-16T09:20:20Z</time>
      </trkpt>
      <trkpt lat="44.71924" lon="5.20296">
        <ele>356.8</ele>
        <time>2019-06-16T09:20:21Z</time>
      </trkpt>
      <trkpt lat="44.71925" lon="5.20297">
        <ele>357.2</ele>
        <time>2019-06-16T09:20:30Z</time>
      </trkpt>
      <trkpt lat="44.71925" lon="5.20298">
        <ele>357.6</ele>
        <time>2019-06-16T09:20:31Z</time>
      </trkpt>
      <trkpt lat="44.71925" lon="5.20298">
        <ele>358</ele>
        <time>2019-06-16T09:20:32Z</time>
      </trkpt>
      <trkpt lat="44.71925" lon="5.20298">
        <ele>358.4</ele>
        <time>2019-06-16T09:20:33Z</time>
      </trkpt>
      <trkpt lat="44.71925" lon="5.20298">
        <ele>358.8</ele>
        <time>2019-06-16T09:20:34Z</time>
      </trkpt>
      <trkpt lat="44.71925" lon="5.20299">
        <ele>359.2</ele>
        <time>2019-06-16T09:20:39Z</time>
      </trkpt>
      <trkpt lat="44.71925" lon="5.20299">
        <ele>359.6</ele>
        <time>2019-06-16T09:20:40Z</time>
      </trkpt>
      <trkpt lat="44.71925" lon="5.20299">
        <ele>360.2</ele>
        <time>2019-06-16T09:20:41Z</time>
      </trkpt>
      <trkpt lat="44.71925" lon="5.20299">
        <ele>360.6</ele>
        <time>2019-06-16T09:20:42Z</time>
      </trkpt>
      <trkpt lat="44.71925" lon="5.20299">
        <ele>361</ele>
        <time>2019-06-16T09:20:43Z</time>
      </trkpt>
      <trkpt lat="44.71924" lon="5.20302">
        <ele>361.4</ele>
        <time>2019-06-16T09:20:57Z</time>
      </trkpt>
      <trkpt lat="44.71924" lon="5.20302">
        <ele>361.8</ele>
        <time>2019-06-16T09:20:58Z</time>
      </trkpt>
      <trkpt lat="44.71924" lon="5.20303">
        <ele>362.2</ele>
        <time>2019-06-16T09:20:59Z</time>
      </trkpt>
      <trkpt lat="44.71924" lon="5.20303">
        <ele>362.8</ele>
        <time>2019-06-16T09:21:00Z</time>
      </trkpt>
      <trkpt lat="44.71924" lon="5.20303">
        <ele>363.2</ele>
        <time>2019-06-16T09:21:01Z</time>
      </trkpt>
      <trkpt lat="44.71924" lon="5.20303">
        <ele>363.6</ele>
        <time>2019-06-16T09:21:11Z</time>
      </trkpt>
      <trkpt lat="44.71924" lon="5.20303">
        <ele>364</ele>
        <time>2019-06-16T09:21:12Z</time>
      </trkpt>
      <trkpt lat="44.71924" lon="5.20303">
        <ele>364.4</ele>
        <time>2019-06-16T09:21:13Z</time>
      </trkpt>
      <trkpt lat="44.71924" lon="5.20303">
        <ele>365</ele>
        <time>2019-06-16T09:21:14Z</time>
      </trkpt>
      <trkpt lat="44.71924" lon="5.20303">
        <ele>365.4</ele>
        <time>2019-06-16T09:21:15Z</time>
      </trkpt>
      <trkpt lat="44.71924" lon="5.20303">
        <ele>365.8</ele>
        <time>2019-06-16T09:21:24Z</time>
      </trkpt>
      <trkpt lat="44.71924" lon="5.20303">
        <ele>366.2</ele>
        <time>2019-06-16T09:21:25Z</time>
      </trkpt>
      <trkpt lat="44.71924" lon="5.20303">
        <ele>366.6</ele>
        <time>2019-06-16T09:21:26Z</time>
      </trkpt>
      <trkpt lat="44.71924" lon="5.20303">
        <ele>367.2</ele>
        <time>2019-06-16T09:21:27Z</time>
      </trkpt>
      <trkpt lat="44.71924" lon="5.20303">
        <ele>367.6</ele>
        <time>2019-06-16T09:21:28Z</time>
      </trkpt>
      <trkpt lat="44.71924" lon="5.20303">
        <ele>368</ele>
        <time>2019-06-16T09:21:35Z</time>
      </trkpt>
      <trkpt lat="44.71924" lon="5.20303">
        <ele>368.4</ele>
        <time>2019-06-16T09:21:36Z</time>
      </trkpt>
      <trkpt lat="44.71924" lon="5.20303">
        <ele>368.8</ele>
        <time>2019-06-16T09:21:37Z</time>
      </trkpt>
      <trkpt lat="44.71924" lon="5.20303">
        <ele>369.2</ele>
        <time>2019-06-16T09:21:38Z</time>
      </trkpt>
      <trkpt lat="44.71924" lon="5.20303">
        <ele>369.6</ele>
        <time>2019-06-16T09:21:39Z</time>
      </trkpt>
      <trkpt lat="44.71924" lon="5.20303">
        <ele>369.6</ele>
        <time>2019-06-16T09:21:42Z</time>
      </trkpt>
      <trkpt lat="44.71924" lon="5.20303">
        <ele>370</ele>
        <time>2019-06-16T09:21:50Z</time>
      </trkpt>
      <trkpt lat="44.71924" lon="5.20303">
        <ele>370.4</ele>
        <time>2019-06-16T09:21:51Z</time>
      </trkpt>
      <trkpt lat="44.71924" lon="5.20303">
        <ele>370.8</ele>
        <time>2019-06-16T09:21:52Z</time>
      </trkpt>
      <trkpt lat="44.71924" lon="5.20303">
        <ele>371.2</ele>
        <time>2019-06-16T09:21:53Z</time>
      </trkpt>
      <trkpt lat="44.71924" lon="5.20303">
        <ele>371.6</ele>
        <time>2019-06-16T09:21:54Z</time>
      </trkpt>
      <trkpt lat="44.71909" lon="5.20337">
        <ele>372</ele>
        <time>2019-06-16T09:22:04Z</time>
      </trkpt>
      <trkpt lat="44.7191" lon="5.20339">
        <ele>372.6</ele>
        <time>2019-06-16T09:22:05Z</time>
      </trkpt>
      <trkpt lat="44.7191" lon="5.2034">
        <ele>373</ele>
        <time>2019-06-16T09:22:06Z</time>
      </trkpt>
      <trkpt lat="44.7191" lon="5.20342">
        <ele>373.4</ele>
        <time>2019-06-16T09:22:07Z</time>
      </trkpt>
      <trkpt lat="44.7191" lon="5.20344">
        <ele>373.8</ele>
        <time>2019-06-16T09:22:08Z</time>
      </trkpt>
      <trkpt lat="44.719" lon="5.20365">
        <ele>373.8</ele>
        <time>2019-06-16T09:22:17Z</time>
      </trkpt>
      <trkpt lat="44.71896" lon="5.2037">
        <ele>374.2</ele>
        <time>2019-06-16T09:22:19Z</time>
      </trkpt>
      <trkpt lat="44.71895" lon="5.20373">
        <ele>374.6</ele>
        <time>2019-06-16T09:22:20Z</time>
      </trkpt>
      <trkpt lat="44.71894" lon="5.20375">
        <ele>375</ele>
        <time>2019-06-16T09:22:21Z</time>
      </trkpt>
      <trkpt lat="44.71893" lon="5.20376">
        <ele>375.6</ele>
        <time>2019-06-16T09:22:22Z</time>
      </trkpt>
      <trkpt lat="44.71893" lon="5.20378">
        <ele>376</ele>
        <time>2019-06-16T09:22:23Z</time>
      </trkpt>
      <trkpt lat="44.71888" lon="5.2039">
        <ele>376</ele>
        <time>2019-06-16T09:22:31Z</time>
      </trkpt>
      <trkpt lat="44.71887" lon="5.20395">
        <ele>376.4</ele>
        <time>2019-06-16T09:22:34Z</time>
      </trkpt>
      <trkpt lat="44.71887" lon="5.20396">
        <ele>376.8</ele>
        <time>2019-06-16T09:22:35Z</time>
      </trkpt>
      <trkpt lat="44.71886" lon="5.20398">
        <ele>377.2</ele>
        <time>2019-06-16T09:22:36Z</time>
      </trkpt>
      <trkpt lat="44.71886" lon="5.20401">
        <ele>377.6</ele>
        <time>2019-06-16T09:22:37Z</time>
      </trkpt>
      <trkpt lat="44.71886" lon="5.20403">
        <ele>378.2</ele>
        <time>2019-06-16T09:22:38Z</time>
      </trkpt>
      <trkpt lat="44.71881" lon="5.20422">
        <ele>378.2</ele>
        <time>2019-06-16T09:22:47Z</time>
      </trkpt>
      <trkpt lat="44.71883" lon="5.20426">
        <ele>378.6</ele>
        <time>2019-06-16T09:22:50Z</time>
      </trkpt>
      <trkpt lat="44.71883" lon="5.20427">
        <ele>379</ele>
        <time>2019-06-16T09:22:51Z</time>
      </trkpt>
      <trkpt lat="44.71883" lon="5.20428">
        <ele>379.4</ele>
        <time>2019-06-16T09:22:52Z</time>
      </trkpt>
      <trkpt lat="44.71882" lon="5.20429">
        <ele>379.8</ele>
        <time>2019-06-16T09:22:53Z</time>
      </trkpt>
      <trkpt lat="44.71882" lon="5.2043">
        <ele>380.2</ele>
        <time>2019-06-16T09:22:54Z</time>
      </trkpt>
      <trkpt lat="44.7188" lon="5.20431">
        <ele>380.2</ele>
        <time>2019-06-16T09:22:59Z</time>
      </trkpt>
      <trkpt lat="44.71864" lon="5.20471">
        <ele>380.2</ele>
        <time>2019-06-16T09:25:26Z</time>
      </trkpt>
      <trkpt lat="44.71879" lon="5.20473">
        <ele>380.2</ele>
        <time>2019-06-16T09:25:42Z</time>
      </trkpt>
      <trkpt lat="44.71891" lon="5.20471">
        <ele>380.2</ele>
        <time>2019-06-16T09:25:48Z</time>
      </trkpt>
      <trkpt lat="44.71904" lon="5.20468">
        <ele>380.8</ele>
        <time>2019-06-16T09:25:54Z</time>
      </trkpt>
      <trkpt lat="44.71905" lon="5.20467">
        <ele>381.2</ele>
        <time>2019-06-16T09:25:55Z</time>
      </trkpt>
      <trkpt lat="44.71906" lon="5.20467">
        <ele>381.8</ele>
        <time>2019-06-16T09:25:56Z</time>
      </trkpt>
      <trkpt lat="44.71907" lon="5.20467">
        <ele>382.2</ele>
        <time>2019-06-16T09:25:57Z</time>
      </trkpt>
      <trkpt lat="44.71908" lon="5.20467">
        <ele>382.8</ele>
        <time>2019-06-16T09:25:58Z</time>
      </trkpt>
      <trkpt lat="44.71911" lon="5.20467">
        <ele>383.2</ele>
        <time>2019-06-16T09:26:02Z</time>
      </trkpt>
      <trkpt lat="44.71912" lon="5.20469">
        <ele>383.6</ele>
        <time>2019-06-16T09:26:03Z</time>
      </trkpt>
      <trkpt lat="44.71913" lon="5.20471">
        <ele>384</ele>
        <time>2019-06-16T09:26:04Z</time>
      </trkpt>
      <trkpt lat="44.71914" lon="5.20473">
        <ele>384.6</ele>
        <time>2019-06-16T09:26:05Z</time>
      </trkpt>
      <trkpt lat="44.71914" lon="5.20476">
        <ele>385</ele>
        <time>2019-06-16T09:26:06Z</time>
      </trkpt>
      <trkpt lat="44.71915" lon="5.20484">
        <ele>385</ele>
        <time>2019-06-16T09:26:10Z</time>
      </trkpt>
      <trkpt lat="44.71916" lon="5.20497">
        <ele>385.4</ele>
        <time>2019-06-16T09:26:16Z</time>
      </trkpt>
      <trkpt lat="44.71916" lon="5.20498">
        <ele>385.8</ele>
        <time>2019-06-16T09:26:17Z</time>
      </trkpt>
      <trkpt lat="44.71917" lon="5.205">
        <ele>386.4</ele>
        <time>2019-06-16T09:26:18Z</time>
      </trkpt>
      <trkpt lat="44.71917" lon="5.20502">
        <ele>386.8</ele>
        <time>2019-06-16T09:26:19Z</time>
      </trkpt>
      <trkpt lat="44.71917" lon="5.20504">
        <ele>387.2</ele>
        <time>2019-06-16T09:26:20Z</time>
      </trkpt>
      <trkpt lat="44.71914" lon="5.20518">
        <ele>387.6</ele>
        <time>2019-06-16T09:26:27Z</time>
      </trkpt>
      <trkpt lat="44.71915" lon="5.20521">
        <ele>388.2</ele>
        <time>2019-06-16T09:26:28Z</time>
      </trkpt>
      <trkpt lat="44.71914" lon="5.20523">
        <ele>388.6</ele>
        <time>2019-06-16T09:26:29Z</time>
      </trkpt>
      <trkpt lat="44.71915" lon="5.20525">
        <ele>389</ele>
        <time>2019-06-16T09:26:30Z</time>
      </trkpt>
      <trkpt lat="44.71915" lon="5.20527">
        <ele>389.6</ele>
        <time>2019-06-16T09:26:31Z</time>
      </trkpt>
      <trkpt lat="44.71917" lon="5.20536">
        <ele>389.6</ele>
        <time>2019-06-16T09:26:35Z</time>
      </trkpt>
      <trkpt lat="44.71918" lon="5.2054">
        <ele>389.6</ele>
        <time>2019-06-16T09:26:37Z</time>
      </trkpt>
      <trkpt lat="44.71918" lon="5.20542">
        <ele>390</ele>
        <time>2019-06-16T09:26:38Z</time>
      </trkpt>
      <trkpt lat="44.71918" lon="5.20544">
        <ele>390.4</ele>
        <time>2019-06-16T09:26:39Z</time>
      </trkpt>
      <trkpt lat="44.71918" lon="5.20546">
        <ele>390.8</ele>
        <time>2019-06-16T09:26:40Z</time>
      </trkpt>
      <trkpt lat="44.71918" lon="5.20548">
        <ele>391.2</ele>
        <time>2019-06-16T09:26:41Z</time>
      </trkpt>
      <trkpt lat="44.71919" lon="5.2055">
        <ele>391.6</ele>
        <time>2019-06-16T09:26:42Z</time>
      </trkpt>
      <trkpt lat="44.71921" lon="5.20556">
        <ele>392</ele>
        <time>2019-06-16T09:26:45Z</time>
      </trkpt>
      <trkpt lat="44.71922" lon="5.20558">
        <ele>392.4</ele>
        <time>2019-06-16T09:26:46Z</time>
      </trkpt>
      <trkpt lat="44.71923" lon="5.2056">
        <ele>393</ele>
        <time>2019-06-16T09:26:47Z</time>
      </trkpt>
      <trkpt lat="44.71924" lon="5.20562">
        <ele>393.4</ele>
        <time>2019-06-16T09:26:48Z</time>
      </trkpt>
      <trkpt lat="44.71926" lon="5.20564">
        <ele>393.8</ele>
        <time>2019-06-16T09:26:49Z</time>
      </trkpt>
      <trkpt lat="44.7193" lon="5.20575">
        <ele>394.2</ele>
        <time>2019-06-16T09:26:54Z</time>
      </trkpt>
      <trkpt lat="44.71931" lon="5.20577">
        <ele>394.6</ele>
        <time>2019-06-16T09:26:55Z</time>
      </trkpt>
      <trkpt lat="44.71932" lon="5.20579">
        <ele>395</ele>
        <time>2019-06-16T09:26:56Z</time>
      </trkpt>
      <trkpt lat="44.71932" lon="5.20581">
        <ele>395.4</ele>
        <time>2019-06-16T09:26:57Z</time>
      </trkpt>
      <trkpt lat="44.71932" lon="5.20583">
        <ele>395.8</ele>
        <time>2019-06-16T09:26:58Z</time>
      </trkpt>
      <trkpt lat="44.71936" lon="5.20592">
        <ele>396.2</ele>
        <time>2019-06-16T09:27:03Z</time>
      </trkpt>
      <trkpt lat="44.71936" lon="5.20594">
        <ele>396.6</ele>
        <time>2019-06-16T09:27:04Z</time>
      </trkpt>
      <trkpt lat="44.71936" lon="5.20596">
        <ele>397.2</ele>
        <time>2019-06-16T09:27:05Z</time>
      </trkpt>
      <trkpt lat="44.71936" lon="5.20597">
        <ele>397.6</ele>
        <time>2019-06-16T09:27:06Z</time>
      </trkpt>
      <trkpt lat="44.71936" lon="5.20599">
        <ele>398</ele>
        <time>2019-06-16T09:27:07Z</time>
      </trkpt>
      <trkpt lat="44.71937" lon="5.20602">
        <ele>398</ele>
        <time>2019-06-16T09:27:09Z</time>
      </trkpt>
      <trkpt lat="44.71937" lon="5.20609">
        <ele>398.4</ele>
        <time>2019-06-16T09:27:13Z</time>
      </trkpt>
      <trkpt lat="44.71937" lon="5.2061">
        <ele>398.8</ele>
        <time>2019-06-16T09:27:14Z</time>
      </trkpt>
      <trkpt lat="44.71938" lon="5.20612">
        <ele>399.2</ele>
        <time>2019-06-16T09:27:15Z</time>
      </trkpt>
      <trkpt lat="44.71938" lon="5.20613">
        <ele>399.6</ele>
        <time>2019-06-16T09:27:16Z</time>
      </trkpt>
      <trkpt lat="44.71939" lon="5.20615">
        <ele>400</ele>
        <time>2019-06-16T09:27:17Z</time>
      </trkpt>
      <trkpt lat="44.71939" lon="5.20621">
        <ele>400</ele>
        <time>2019-06-16T09:27:21Z</time>
      </trkpt>
      <trkpt lat="44.7194" lon="5.20626">
        <ele>400.4</ele>
        <time>2019-06-16T09:27:24Z</time>
      </trkpt>
      <trkpt lat="44.7194" lon="5.20628">
        <ele>400.8</ele>
        <time>2019-06-16T09:27:25Z</time>
      </trkpt>
      <trkpt lat="44.7194" lon="5.2063">
        <ele>401.4</ele>
        <time>2019-06-16T09:27:26Z</time>
      </trkpt>
      <trkpt lat="44.71939" lon="5.20631">
        <ele>401.8</ele>
        <time>2019-06-16T09:27:27Z</time>
      </trkpt>
      <trkpt lat="44.71939" lon="5.20633">
        <ele>402.2</ele>
        <time>2019-06-16T09:27:28Z</time>
      </trkpt>
      <trkpt lat="44.7194" lon="5.20637">
        <ele>402.2</ele>
        <time>2019-06-16T09:27:30Z</time>
      </trkpt>
      <trkpt lat="44.71943" lon="5.20645">
        <ele>402.6</ele>
        <time>2019-06-16T09:27:35Z</time>
      </trkpt>
      <trkpt lat="44.71943" lon="5.20647">
        <ele>403</ele>
        <time>2019-06-16T09:27:36Z</time>
      </trkpt>
      <trkpt lat="44.71944" lon="5.20648">
        <ele>403.4</ele>
        <time>2019-06-16T09:27:37Z</time>
      </trkpt>
      <trkpt lat="44.71944" lon="5.2065">
        <ele>403.8</ele>
        <time>2019-06-16T09:27:38Z</time>
      </trkpt>
      <trkpt lat="44.71944" lon="5.20652">
        <ele>404.2</ele>
        <time>2019-06-16T09:27:39Z</time>
      </trkpt>
      <trkpt lat="44.71947" lon="5.20664">
        <ele>404.8</ele>
        <time>2019-06-16T09:27:47Z</time>
      </trkpt>
      <trkpt lat="44.71946" lon="5.20666">
        <ele>405.2</ele>
        <time>2019-06-16T09:27:48Z</time>
      </trkpt>
      <trkpt lat="44.71946" lon="5.20666">
        <ele>405.6</ele>
        <time>2019-06-16T09:27:49Z</time>
      </trkpt>
      <trkpt lat="44.71947" lon="5.20666">
        <ele>406</ele>
        <time>2019-06-16T09:27:50Z</time>
      </trkpt>
      <trkpt lat="44.71947" lon="5.20666">
        <ele>406.4</ele>
        <time>2019-06-16T09:27:51Z</time>
      </trkpt>
      <trkpt lat="44.71947" lon="5.20666">
        <ele>406.4</ele>
        <time>2019-06-16T09:29:26Z</time>
      </trkpt>
      <trkpt lat="44.71944" lon="5.20678">
        <ele>406.8</ele>
        <time>2019-06-16T09:29:52Z</time>
      </trkpt>
      <trkpt lat="44.71944" lon="5.20681">
        <ele>407.2</ele>
        <time>2019-06-16T09:29:53Z</time>
      </trkpt>
      <trkpt lat="44.71944" lon="5.20683">
        <ele>407.6</ele>
        <time>2019-06-16T09:29:54Z</time>
      </trkpt>
      <trkpt lat="44.71944" lon="5.20685">
        <ele>408</ele>
        <time>2019-06-16T09:29:55Z</time>
      </trkpt>
      <trkpt lat="44.71945" lon="5.20687">
        <ele>408.4</ele>
        <time>2019-06-16T09:29:56Z</time>
      </trkpt>
      <trkpt lat="44.71946" lon="5.20693">
        <ele>409</ele>
        <time>2019-06-16T09:29:59Z</time>
      </trkpt>
      <trkpt lat="44.71947" lon="5.20694">
        <ele>409.4</ele>
        <time>2019-06-16T09:30:00Z</time>
      </trkpt>
      <trkpt lat="44.71947" lon="5.20696">
        <ele>409.8</ele>
        <time>2019-06-16T09:30:01Z</time>
      </trkpt>
      <trkpt lat="44.71947" lon="5.20698">
        <ele>410.2</ele>
        <time>2019-06-16T09:30:02Z</time>
      </trkpt>
      <trkpt lat="44.71947" lon="5.20699">
        <ele>410.6</ele>
        <time>2019-06-16T09:30:03Z</time>
      </trkpt>
      <trkpt lat="44.71948" lon="5.20703">
        <ele>411</ele>
        <time>2019-06-16T09:30:05Z</time>
      </trkpt>
      <trkpt lat="44.71949" lon="5.20705">
        <ele>411.6</ele>
        <time>2019-06-16T09:30:06Z</time>
      </trkpt>
      <trkpt lat="44.71949" lon="5.20707">
        <ele>412</ele>
        <time>2019-06-16T09:30:07Z</time>
      </trkpt>
      <trkpt lat="44.7195" lon="5.20708">
        <ele>412.4</ele>
        <time>2019-06-16T09:30:08Z</time>
      </trkpt>
      <trkpt lat="44.7195" lon="5.2071">
        <ele>413</ele>
        <time>2019-06-16T09:30:09Z</time>
      </trkpt>
      <trkpt lat="44.7195" lon="5.20711">
        <ele>413</ele>
        <time>2019-06-16T09:30:10Z</time>
      </trkpt>
      <trkpt lat="44.71951" lon="5.20713">
        <ele>413.4</ele>
        <time>2019-06-16T09:30:11Z</time>
      </trkpt>
      <trkpt lat="44.71952" lon="5.20715">
        <ele>413.8</ele>
        <time>2019-06-16T09:30:12Z</time>
      </trkpt>
      <trkpt lat="44.71953" lon="5.20716">
        <ele>414.2</ele>
        <time>2019-06-16T09:30:13Z</time>
      </trkpt>
      <trkpt lat="44.71953" lon="5.20717">
        <ele>414.6</ele>
        <time>2019-06-16T09:30:14Z</time>
      </trkpt>
      <trkpt lat="44.71954" lon="5.20719">
        <ele>415</ele>
        <time>2019-06-16T09:30:15Z</time>
      </trkpt>
      <trkpt lat="44.71954" lon="5.20723">
        <ele>415</ele>
        <time>2019-06-16T09:30:18Z</time>
      </trkpt>
      <trkpt lat="44.71954" lon="5.20726">
        <ele>415</ele>
        <time>2019-06-16T09:30:20Z</time>
      </trkpt>
      <trkpt lat="44.71954" lon="5.2073">
        <ele>415.4</ele>
        <time>2019-06-16T09:30:23Z</time>
      </trkpt>
      <trkpt lat="44.71954" lon="5.20733">
        <ele>415.8</ele>
        <time>2019-06-16T09:30:24Z</time>
      </trkpt>
      <trkpt lat="44.71953" lon="5.20735">
        <ele>416.2</ele>
        <time>2019-06-16T09:30:25Z</time>
      </trkpt>
      <trkpt lat="44.71955" lon="5.20737">
        <ele>416.6</ele>
        <time>2019-06-16T09:30:26Z</time>
      </trkpt>
      <trkpt lat="44.71955" lon="5.20738">
        <ele>417</ele>
        <time>2019-06-16T09:30:27Z</time>
      </trkpt>
      <trkpt lat="44.71954" lon="5.20739">
        <ele>417</ele>
        <time>2019-06-16T09:30:28Z</time>
      </trkpt>
      <trkpt lat="44.71953" lon="5.2074">
        <ele>417</ele>
        <time>2019-06-16T09:30:29Z</time>
      </trkpt>
      <trkpt lat="44.71952" lon="5.20741">
        <ele>417</ele>
        <time>2019-06-16T09:30:30Z</time>
      </trkpt>
      <trkpt lat="44.71949" lon="5.20746">
        <ele>417.4</ele>
        <time>2019-06-16T09:30:35Z</time>
      </trkpt>
      <trkpt lat="44.71949" lon="5.20748">
        <ele>417.8</ele>
        <time>2019-06-16T09:30:36Z</time>
      </trkpt>
      <trkpt lat="44.71948" lon="5.20749">
        <ele>418.2</ele>
        <time>2019-06-16T09:30:37Z</time>
      </trkpt>
      <trkpt lat="44.71948" lon="5.2075">
        <ele>418.6</ele>
        <time>2019-06-16T09:30:38Z</time>
      </trkpt>
      <trkpt lat="44.71948" lon="5.20751">
        <ele>419</ele>
        <time>2019-06-16T09:30:39Z</time>
      </trkpt>
      <trkpt lat="44.71949" lon="5.20752">
        <ele>419</ele>
        <time>2019-06-16T09:30:40Z</time>
      </trkpt>
      <trkpt lat="44.71946" lon="5.20761">
        <ele>419.4</ele>
        <time>2019-06-16T09:30:47Z</time>
      </trkpt>
      <trkpt lat="44.71946" lon="5.20762">
        <ele>419.8</ele>
        <time>2019-06-16T09:30:48Z</time>
      </trkpt>
      <trkpt lat="44.71946" lon="5.20764">
        <ele>420.2</ele>
        <time>2019-06-16T09:30:49Z</time>
      </trkpt>
      <trkpt lat="44.71946" lon="5.20765">
        <ele>420.6</ele>
        <time>2019-06-16T09:30:50Z</time>
      </trkpt>
      <trkpt lat="44.71946" lon="5.20766">
        <ele>421.2</ele>
        <time>2019-06-16T09:30:51Z</time>
      </trkpt>
      <trkpt lat="44.71943" lon="5.20772">
        <ele>421.2</ele>
        <time>2019-06-16T09:30:55Z</time>
      </trkpt>
      <trkpt lat="44.7194" lon="5.20783">
        <ele>421.6</ele>
        <time>2019-06-16T09:31:02Z</time>
      </trkpt>
      <trkpt lat="44.71939" lon="5.20785">
        <ele>422</ele>
        <time>2019-06-16T09:31:03Z</time>
      </trkpt>
      <trkpt lat="44.71938" lon="5.20786">
        <ele>422.4</ele>
        <time>2019-06-16T09:31:04Z</time>
      </trkpt>
      <trkpt lat="44.71938" lon="5.20787">
        <ele>422.8</ele>
        <time>2019-06-16T09:31:05Z</time>
      </trkpt>
      <trkpt lat="44.71937" lon="5.20788">
        <ele>423.2</ele>
        <time>2019-06-16T09:31:06Z</time>
      </trkpt>
      <trkpt lat="44.71936" lon="5.20793">
        <ele>423.2</ele>
        <time>2019-06-16T09:31:11Z</time>
      </trkpt>
      <trkpt lat="44.71935" lon="5.20796">
        <ele>423.6</ele>
        <time>2019-06-16T09:31:14Z</time>
      </trkpt>
      <trkpt lat="44.71935" lon="5.20797">
        <ele>424.2</ele>
        <time>2019-06-16T09:31:15Z</time>
      </trkpt>
      <trkpt lat="44.71936" lon="5.20798">
        <ele>424.6</ele>
        <time>2019-06-16T09:31:16Z</time>
      </trkpt>
      <trkpt lat="44.71936" lon="5.20799">
        <ele>425</ele>
        <time>2019-06-16T09:31:17Z</time>
      </trkpt>
      <trkpt lat="44.71935" lon="5.20801">
        <ele>425.4</ele>
        <time>2019-06-16T09:31:18Z</time>
      </trkpt>
      <trkpt lat="44.71935" lon="5.20804">
        <ele>425.4</ele>
        <time>2019-06-16T09:31:21Z</time>
      </trkpt>
      <trkpt lat="44.71932" lon="5.20809">
        <ele>425.8</ele>
        <time>2019-06-16T09:31:25Z</time>
      </trkpt>
      <trkpt lat="44.71931" lon="5.2081">
        <ele>426.2</ele>
        <time>2019-06-16T09:31:26Z</time>
      </trkpt>
      <trkpt lat="44.71931" lon="5.20811">
        <ele>426.8</ele>
        <time>2019-06-16T09:31:27Z</time>
      </trkpt>
      <trkpt lat="44.7193" lon="5.20812">
        <ele>427.2</ele>
        <time>2019-06-16T09:31:28Z</time>
      </trkpt>
      <trkpt lat="44.7193" lon="5.20813">
        <ele>427.8</ele>
        <time>2019-06-16T09:31:29Z</time>
      </trkpt>
      <trkpt lat="44.71926" lon="5.20821">
        <ele>427.8</ele>
        <time>2019-06-16T09:31:36Z</time>
      </trkpt>
      <trkpt lat="44.71925" lon="5.20824">
        <ele>428.2</ele>
        <time>2019-06-16T09:31:39Z</time>
      </trkpt>
      <trkpt lat="44.71923" lon="5.20825">
        <ele>428.6</ele>
        <time>2019-06-16T09:31:40Z</time>
      </trkpt>
      <trkpt lat="44.71922" lon="5.20826">
        <ele>429</ele>
        <time>2019-06-16T09:31:41Z</time>
      </trkpt>
      <trkpt lat="44.71921" lon="5.20828">
        <ele>429.4</ele>
        <time>2019-06-16T09:31:42Z</time>
      </trkpt>
      <trkpt lat="44.7192" lon="5.20829">
        <ele>430</ele>
        <time>2019-06-16T09:31:43Z</time>
      </trkpt>
      <trkpt lat="44.71914" lon="5.20837">
        <ele>430</ele>
        <time>2019-06-16T09:31:50Z</time>
      </trkpt>
      <trkpt lat="44.71911" lon="5.20839">
        <ele>430.4</ele>
        <time>2019-06-16T09:31:53Z</time>
      </trkpt>
      <trkpt lat="44.7191" lon="5.2084">
        <ele>430.8</ele>
        <time>2019-06-16T09:31:54Z</time>
      </trkpt>
      <trkpt lat="44.7191" lon="5.20841">
        <ele>431.2</ele>
        <time>2019-06-16T09:31:55Z</time>
      </trkpt>
      <trkpt lat="44.71908" lon="5.20841">
        <ele>431.6</ele>
        <time>2019-06-16T09:31:56Z</time>
      </trkpt>
      <trkpt lat="44.71906" lon="5.20843">
        <ele>432</ele>
        <time>2019-06-16T09:31:57Z</time>
      </trkpt>
      <trkpt lat="44.71904" lon="5.20848">
        <ele>432</ele>
        <time>2019-06-16T09:32:02Z</time>
      </trkpt>
      <trkpt lat="44.719" lon="5.20853">
        <ele>432.4</ele>
        <time>2019-06-16T09:32:07Z</time>
      </trkpt>
      <trkpt lat="44.719" lon="5.20854">
        <ele>432.8</ele>
        <time>2019-06-16T09:32:08Z</time>
      </trkpt>
      <trkpt lat="44.719" lon="5.20855">
        <ele>433.2</ele>
        <time>2019-06-16T09:32:09Z</time>
      </trkpt>
      <trkpt lat="44.71899" lon="5.20855">
        <ele>433.6</ele>
        <time>2019-06-16T09:32:10Z</time>
      </trkpt>
      <trkpt lat="44.71898" lon="5.20855">
        <ele>434</ele>
        <time>2019-06-16T09:32:11Z</time>
      </trkpt>
      <trkpt lat="44.71897" lon="5.20856">
        <ele>434</ele>
        <time>2019-06-16T09:32:12Z</time>
      </trkpt>
      <trkpt lat="44.7189" lon="5.20869">
        <ele>434</ele>
        <time>2019-06-16T09:32:25Z</time>
      </trkpt>
      <trkpt lat="44.7189" lon="5.20869">
        <ele>434</ele>
        <time>2019-06-16T09:32:34Z</time>
      </trkpt>
      <trkpt lat="44.71887" lon="5.20868">
        <ele>434</ele>
        <time>2019-06-16T09:34:32Z</time>
      </trkpt>
      <trkpt lat="44.71889" lon="5.20868">
        <ele>433.6</ele>
        <time>2019-06-16T09:36:29Z</time>
      </trkpt>
      <trkpt lat="44.71889" lon="5.20868">
        <ele>433.2</ele>
        <time>2019-06-16T09:36:30Z</time>
      </trkpt>
      <trkpt lat="44.71889" lon="5.20868">
        <ele>432.4</ele>
        <time>2019-06-16T09:36:32Z</time>
      </trkpt>
      <trkpt lat="44.71889" lon="5.20868">
        <ele>432</ele>
        <time>2019-06-16T09:36:33Z</time>
      </trkpt>
      <trkpt lat="44.71894" lon="5.20876">
        <ele>432</ele>
        <time>2019-06-16T09:40:27Z</time>
      </trkpt>
      <trkpt lat="44.71895" lon="5.20877">
        <ele>432</ele>
        <time>2019-06-16T09:40:28Z</time>
      </trkpt>
      <trkpt lat="44.71898" lon="5.20877">
        <ele>432</ele>
        <time>2019-06-16T09:40:30Z</time>
      </trkpt>
      <trkpt lat="44.71902" lon="5.20876">
        <ele>432</ele>
        <time>2019-06-16T09:40:33Z</time>
      </trkpt>
      <trkpt lat="44.71922" lon="5.20877">
        <ele>432.6</ele>
        <time>2019-06-16T09:40:41Z</time>
      </trkpt>
      <trkpt lat="44.71927" lon="5.20877">
        <ele>433</ele>
        <time>2019-06-16T09:40:42Z</time>
      </trkpt>
      <trkpt lat="44.71934" lon="5.20876">
        <ele>433.4</ele>
        <time>2019-06-16T09:40:45Z</time>
      </trkpt>
      <trkpt lat="44.71937" lon="5.20876">
        <ele>433.8</ele>
        <time>2019-06-16T09:40:46Z</time>
      </trkpt>
      <trkpt lat="44.71939" lon="5.20877">
        <ele>434.4</ele>
        <time>2019-06-16T09:40:47Z</time>
      </trkpt>
      <trkpt lat="44.71942" lon="5.20877">
        <ele>434.8</ele>
        <time>2019-06-16T09:40:48Z</time>
      </trkpt>
      <trkpt lat="44.71943" lon="5.20877">
        <ele>435.4</ele>
        <time>2019-06-16T09:40:49Z</time>
      </trkpt>
      <trkpt lat="44.71945" lon="5.20877">
        <ele>435.8</ele>
        <time>2019-06-16T09:40:50Z</time>
      </trkpt>
      <trkpt lat="44.71948" lon="5.20877">
        <ele>436.4</ele>
        <time>2019-06-16T09:40:51Z</time>
      </trkpt>
      <trkpt lat="44.7195" lon="5.20877">
        <ele>436.4</ele>
        <time>2019-06-16T09:40:52Z</time>
      </trkpt>
      <trkpt lat="44.71963" lon="5.20881">
        <ele>436.8</ele>
        <time>2019-06-16T09:40:59Z</time>
      </trkpt>
      <trkpt lat="44.71964" lon="5.20881">
        <ele>437.2</ele>
        <time>2019-06-16T09:41:00Z</time>
      </trkpt>
      <trkpt lat="44.71963" lon="5.20883">
        <ele>437.6</ele>
        <time>2019-06-16T09:41:01Z</time>
      </trkpt>
      <trkpt lat="44.71964" lon="5.20884">
        <ele>438</ele>
        <time>2019-06-16T09:41:02Z</time>
      </trkpt>
      <trkpt lat="44.71965" lon="5.20885">
        <ele>438.4</ele>
        <time>2019-06-16T09:41:03Z</time>
      </trkpt>
      <trkpt lat="44.71974" lon="5.20888">
        <ele>438.4</ele>
        <time>2019-06-16T09:41:09Z</time>
      </trkpt>
      <trkpt lat="44.7198" lon="5.20892">
        <ele>438.8</ele>
        <time>2019-06-16T09:41:17Z</time>
      </trkpt>
      <trkpt lat="44.71981" lon="5.20893">
        <ele>439.2</ele>
        <time>2019-06-16T09:41:18Z</time>
      </trkpt>
      <trkpt lat="44.71982" lon="5.20893">
        <ele>439.6</ele>
        <time>2019-06-16T09:41:19Z</time>
      </trkpt>
      <trkpt lat="44.71983" lon="5.20894">
        <ele>440</ele>
        <time>2019-06-16T09:41:20Z</time>
      </trkpt>
      <trkpt lat="44.71983" lon="5.20894">
        <ele>440.4</ele>
        <time>2019-06-16T09:41:21Z</time>
      </trkpt>
      <trkpt lat="44.71983" lon="5.20898">
        <ele>440.4</ele>
        <time>2019-06-16T09:41:27Z</time>
      </trkpt>
      <trkpt lat="44.71983" lon="5.20899">
        <ele>440.4</ele>
        <time>2019-06-16T09:41:37Z</time>
      </trkpt>
      <trkpt lat="44.71982" lon="5.20899">
        <ele>440.4</ele>
        <time>2019-06-16T09:41:46Z</time>
      </trkpt>
      <trkpt lat="44.7197" lon="5.20901">
        <ele>440.4</ele>
        <time>2019-06-16T09:42:13Z</time>
      </trkpt>
      <trkpt lat="44.71966" lon="5.20902">
        <ele>440.8</ele>
        <time>2019-06-16T09:42:15Z</time>
      </trkpt>
      <trkpt lat="44.71965" lon="5.20902">
        <ele>441.4</ele>
        <time>2019-06-16T09:42:16Z</time>
      </trkpt>
      <trkpt lat="44.71963" lon="5.20903">
        <ele>441.8</ele>
        <time>2019-06-16T09:42:17Z</time>
      </trkpt>
      <trkpt lat="44.71962" lon="5.20903">
        <ele>442.2</ele>
        <time>2019-06-16T09:42:18Z</time>
      </trkpt>
      <trkpt lat="44.71961" lon="5.20903">
        <ele>442.6</ele>
        <time>2019-06-16T09:42:19Z</time>
      </trkpt>
      <trkpt lat="44.71958" lon="5.20903">
        <ele>442.6</ele>
        <time>2019-06-16T09:42:21Z</time>
      </trkpt>
      <trkpt lat="44.71954" lon="5.20905">
        <ele>443</ele>
        <time>2019-06-16T09:42:24Z</time>
      </trkpt>
      <trkpt lat="44.71953" lon="5.20906">
        <ele>443.4</ele>
        <time>2019-06-16T09:42:25Z</time>
      </trkpt>
      <trkpt lat="44.71952" lon="5.20906">
        <ele>444</ele>
        <time>2019-06-16T09:42:26Z</time>
      </trkpt>
      <trkpt lat="44.71951" lon="5.20907">
        <ele>444.4</ele>
        <time>2019-06-16T09:42:27Z</time>
      </trkpt>
      <trkpt lat="44.7195" lon="5.20907">
        <ele>444.8</ele>
        <time>2019-06-16T09:42:28Z</time>
      </trkpt>
      <trkpt lat="44.71948" lon="5.20908">
        <ele>444.8</ele>
        <time>2019-06-16T09:42:29Z</time>
      </trkpt>
      <trkpt lat="44.71941" lon="5.20913">
        <ele>444.8</ele>
        <time>2019-06-16T09:42:36Z</time>
      </trkpt>
      <trkpt lat="44.71939" lon="5.20915">
        <ele>445.2</ele>
        <time>2019-06-16T09:42:38Z</time>
      </trkpt>
      <trkpt lat="44.71938" lon="5.20916">
        <ele>445.6</ele>
        <time>2019-06-16T09:42:39Z</time>
      </trkpt>
      <trkpt lat="44.71937" lon="5.20917">
        <ele>446</ele>
        <time>2019-06-16T09:42:40Z</time>
      </trkpt>
      <trkpt lat="44.71936" lon="5.20917">
        <ele>446.4</ele>
        <time>2019-06-16T09:42:41Z</time>
      </trkpt>
      <trkpt lat="44.71935" lon="5.20918">
        <ele>446.8</ele>
        <time>2019-06-16T09:42:42Z</time>
      </trkpt>
      <trkpt lat="44.71931" lon="5.20921">
        <ele>446.8</ele>
        <time>2019-06-16T09:42:46Z</time>
      </trkpt>
      <trkpt lat="44.71926" lon="5.20925">
        <ele>447.4</ele>
        <time>2019-06-16T09:42:51Z</time>
      </trkpt>
      <trkpt lat="44.71925" lon="5.20927">
        <ele>447.8</ele>
        <time>2019-06-16T09:42:52Z</time>
      </trkpt>
      <trkpt lat="44.71924" lon="5.20928">
        <ele>448.2</ele>
        <time>2019-06-16T09:42:53Z</time>
      </trkpt>
      <trkpt lat="44.71924" lon="5.20929">
        <ele>448.6</ele>
        <time>2019-06-16T09:42:54Z</time>
      </trkpt>
      <trkpt lat="44.71923" lon="5.2093">
        <ele>449</ele>
        <time>2019-06-16T09:42:55Z</time>
      </trkpt>
      <trkpt lat="44.71919" lon="5.20934">
        <ele>449</ele>
        <time>2019-06-16T09:42:59Z</time>
      </trkpt>
      <trkpt lat="44.71914" lon="5.20939">
        <ele>449</ele>
        <time>2019-06-16T09:43:04Z</time>
      </trkpt>
      <trkpt lat="44.71909" lon="5.20944">
        <ele>449.4</ele>
        <time>2019-06-16T09:43:08Z</time>
      </trkpt>
      <trkpt lat="44.71908" lon="5.20945">
        <ele>450</ele>
        <time>2019-06-16T09:43:09Z</time>
      </trkpt>
      <trkpt lat="44.71906" lon="5.20945">
        <ele>450.4</ele>
        <time>2019-06-16T09:43:10Z</time>
      </trkpt>
      <trkpt lat="44.71905" lon="5.20946">
        <ele>450.8</ele>
        <time>2019-06-16T09:43:11Z</time>
      </trkpt>
      <trkpt lat="44.71904" lon="5.20947">
        <ele>451.2</ele>
        <time>2019-06-16T09:43:12Z</time>
      </trkpt>
      <trkpt lat="44.71898" lon="5.20954">
        <ele>451.2</ele>
        <time>2019-06-16T09:43:21Z</time>
      </trkpt>
      <trkpt lat="44.71896" lon="5.20956">
        <ele>451.6</ele>
        <time>2019-06-16T09:43:23Z</time>
      </trkpt>
      <trkpt lat="44.71895" lon="5.20957">
        <ele>452</ele>
        <time>2019-06-16T09:43:24Z</time>
      </trkpt>
      <trkpt lat="44.71894" lon="5.20958">
        <ele>452.4</ele>
        <time>2019-06-16T09:43:25Z</time>
      </trkpt>
      <trkpt lat="44.71893" lon="5.20959">
        <ele>453</ele>
        <time>2019-06-16T09:43:26Z</time>
      </trkpt>
      <trkpt lat="44.71892" lon="5.20959">
        <ele>453.4</ele>
        <time>2019-06-16T09:43:27Z</time>
      </trkpt>
      <trkpt lat="44.7189" lon="5.2096">
        <ele>453.4</ele>
        <time>2019-06-16T09:43:29Z</time>
      </trkpt>
      <trkpt lat="44.71887" lon="5.2096">
        <ele>453.8</ele>
        <time>2019-06-16T09:43:32Z</time>
      </trkpt>
      <trkpt lat="44.71886" lon="5.2096">
        <ele>454.2</ele>
        <time>2019-06-16T09:43:33Z</time>
      </trkpt>
      <trkpt lat="44.71885" lon="5.2096">
        <ele>454.6</ele>
        <time>2019-06-16T09:43:34Z</time>
      </trkpt>
      <trkpt lat="44.71885" lon="5.2096">
        <ele>455</ele>
        <time>2019-06-16T09:43:35Z</time>
      </trkpt>
      <trkpt lat="44.71884" lon="5.20959">
        <ele>455.4</ele>
        <time>2019-06-16T09:43:36Z</time>
      </trkpt>
      <trkpt lat="44.71881" lon="5.2096">
        <ele>455.4</ele>
        <time>2019-06-16T09:43:39Z</time>
      </trkpt>
      <trkpt lat="44.71873" lon="5.20962">
        <ele>455.8</ele>
        <time>2019-06-16T09:43:45Z</time>
      </trkpt>
      <trkpt lat="44.71873" lon="5.20962">
        <ele>456.2</ele>
        <time>2019-06-16T09:43:46Z</time>
      </trkpt>
      <trkpt lat="44.71872" lon="5.20963">
        <ele>456.6</ele>
        <time>2019-06-16T09:43:47Z</time>
      </trkpt>
      <trkpt lat="44.7187" lon="5.20962">
        <ele>457.2</ele>
        <time>2019-06-16T09:43:48Z</time>
      </trkpt>
      <trkpt lat="44.7187" lon="5.20962">
        <ele>457.6</ele>
        <time>2019-06-16T09:43:49Z</time>
      </trkpt>
      <trkpt lat="44.71867" lon="5.2096">
        <ele>457.6</ele>
        <time>2019-06-16T09:43:55Z</time>
      </trkpt>
      <trkpt lat="44.71867" lon="5.20961">
        <ele>457.6</ele>
        <time>2019-06-16T09:44:03Z</time>
      </trkpt>
      <trkpt lat="44.71859" lon="5.2097">
        <ele>457.6</ele>
        <time>2019-06-16T09:44:16Z</time>
      </trkpt>
      <trkpt lat="44.71858" lon="5.20971">
        <ele>458</ele>
        <time>2019-06-16T09:44:17Z</time>
      </trkpt>
      <trkpt lat="44.71858" lon="5.20972">
        <ele>458.4</ele>
        <time>2019-06-16T09:44:18Z</time>
      </trkpt>
      <trkpt lat="44.71857" lon="5.20972">
        <ele>458.8</ele>
        <time>2019-06-16T09:44:19Z</time>
      </trkpt>
      <trkpt lat="44.71857" lon="5.20971">
        <ele>459.2</ele>
        <time>2019-06-16T09:44:20Z</time>
      </trkpt>
      <trkpt lat="44.71857" lon="5.20971">
        <ele>459.6</ele>
        <time>2019-06-16T09:44:21Z</time>
      </trkpt>
      <trkpt lat="44.71858" lon="5.20971">
        <ele>459.6</ele>
        <time>2019-06-16T09:44:24Z</time>
      </trkpt>
      <trkpt lat="44.71851" lon="5.20976">
        <ele>460</ele>
        <time>2019-06-16T09:44:39Z</time>
      </trkpt>
      <trkpt lat="44.71851" lon="5.20976">
        <ele>460.4</ele>
        <time>2019-06-16T09:44:40Z</time>
      </trkpt>
      <trkpt lat="44.71851" lon="5.20976">
        <ele>460.8</ele>
        <time>2019-06-16T09:44:41Z</time>
      </trkpt>
      <trkpt lat="44.71851" lon="5.20976">
        <ele>461.2</ele>
        <time>2019-06-16T09:44:42Z</time>
      </trkpt>
      <trkpt lat="44.7185" lon="5.20977">
        <ele>461.6</ele>
        <time>2019-06-16T09:44:43Z</time>
      </trkpt>
      <trkpt lat="44.7185" lon="5.20976">
        <ele>461.6</ele>
        <time>2019-06-16T09:44:48Z</time>
      </trkpt>
      <trkpt lat="44.71851" lon="5.20973">
        <ele>461.6</ele>
        <time>2019-06-16T09:44:59Z</time>
      </trkpt>
      <trkpt lat="44.71847" lon="5.20975">
        <ele>461.6</ele>
        <time>2019-06-16T09:45:49Z</time>
      </trkpt>
      <trkpt lat="44.71843" lon="5.20979">
        <ele>462.2</ele>
        <time>2019-06-16T09:45:53Z</time>
      </trkpt>
      <trkpt lat="44.71842" lon="5.2098">
        <ele>462.6</ele>
        <time>2019-06-16T09:45:54Z</time>
      </trkpt>
      <trkpt lat="44.71841" lon="5.2098">
        <ele>463.2</ele>
        <time>2019-06-16T09:45:55Z</time>
      </trkpt>
      <trkpt lat="44.7184" lon="5.20981">
        <ele>463.6</ele>
        <time>2019-06-16T09:45:56Z</time>
      </trkpt>
      <trkpt lat="44.71839" lon="5.20982">
        <ele>464</ele>
        <time>2019-06-16T09:45:57Z</time>
      </trkpt>
      <trkpt lat="44.71831" lon="5.20988">
        <ele>464.4</ele>
        <time>2019-06-16T09:46:03Z</time>
      </trkpt>
      <trkpt lat="44.7183" lon="5.20989">
        <ele>465</ele>
        <time>2019-06-16T09:46:04Z</time>
      </trkpt>
      <trkpt lat="44.71829" lon="5.2099">
        <ele>465.4</ele>
        <time>2019-06-16T09:46:05Z</time>
      </trkpt>
      <trkpt lat="44.71827" lon="5.20991">
        <ele>465.8</ele>
        <time>2019-06-16T09:46:06Z</time>
      </trkpt>
      <trkpt lat="44.71825" lon="5.20992">
        <ele>466.2</ele>
        <time>2019-06-16T09:46:07Z</time>
      </trkpt>
      <trkpt lat="44.71817" lon="5.20995">
        <ele>466.6</ele>
        <time>2019-06-16T09:46:12Z</time>
      </trkpt>
      <trkpt lat="44.71816" lon="5.20996">
        <ele>467</ele>
        <time>2019-06-16T09:46:13Z</time>
      </trkpt>
      <trkpt lat="44.71815" lon="5.20997">
        <ele>467.4</ele>
        <time>2019-06-16T09:46:14Z</time>
      </trkpt>
      <trkpt lat="44.71814" lon="5.20998">
        <ele>468</ele>
        <time>2019-06-16T09:46:15Z</time>
      </trkpt>
      <trkpt lat="44.71812" lon="5.20999">
        <ele>468.4</ele>
        <time>2019-06-16T09:46:16Z</time>
      </trkpt>
      <trkpt lat="44.71805" lon="5.21003">
        <ele>468.4</ele>
        <time>2019-06-16T09:46:21Z</time>
      </trkpt>
      <trkpt lat="44.71801" lon="5.21005">
        <ele>468.8</ele>
        <time>2019-06-16T09:46:24Z</time>
      </trkpt>
      <trkpt lat="44.71799" lon="5.21005">
        <ele>469.2</ele>
        <time>2019-06-16T09:46:25Z</time>
      </trkpt>
      <trkpt lat="44.71798" lon="5.21005">
        <ele>469.8</ele>
        <time>2019-06-16T09:46:26Z</time>
      </trkpt>
      <trkpt lat="44.71798" lon="5.21005">
        <ele>470.2</ele>
        <time>2019-06-16T09:46:27Z</time>
      </trkpt>
      <trkpt lat="44.71797" lon="5.21005">
        <ele>470.6</ele>
        <time>2019-06-16T09:46:28Z</time>
      </trkpt>
      <trkpt lat="44.71796" lon="5.21005">
        <ele>470.6</ele>
        <time>2019-06-16T09:46:30Z</time>
      </trkpt>
      <trkpt lat="44.71793" lon="5.21007">
        <ele>471</ele>
        <time>2019-06-16T09:46:34Z</time>
      </trkpt>
      <trkpt lat="44.71792" lon="5.21007">
        <ele>471.4</ele>
        <time>2019-06-16T09:46:35Z</time>
      </trkpt>
      <trkpt lat="44.71791" lon="5.21007">
        <ele>472</ele>
        <time>2019-06-16T09:46:36Z</time>
      </trkpt>
      <trkpt lat="44.7179" lon="5.21007">
        <ele>472.4</ele>
        <time>2019-06-16T09:46:37Z</time>
      </trkpt>
      <trkpt lat="44.71789" lon="5.21007">
        <ele>472.8</ele>
        <time>2019-06-16T09:46:38Z</time>
      </trkpt>
      <trkpt lat="44.71784" lon="5.21008">
        <ele>472.8</ele>
        <time>2019-06-16T09:46:42Z</time>
      </trkpt>
      <trkpt lat="44.71783" lon="5.21012">
        <ele>472.8</ele>
        <time>2019-06-16T09:46:45Z</time>
      </trkpt>
      <trkpt lat="44.71783" lon="5.21015">
        <ele>473.2</ele>
        <time>2019-06-16T09:46:47Z</time>
      </trkpt>
      <trkpt lat="44.71783" lon="5.21016">
        <ele>473.6</ele>
        <time>2019-06-16T09:46:48Z</time>
      </trkpt>
      <trkpt lat="44.71783" lon="5.21017">
        <ele>474</ele>
        <time>2019-06-16T09:46:49Z</time>
      </trkpt>
      <trkpt lat="44.71784" lon="5.21018">
        <ele>474.4</ele>
        <time>2019-06-16T09:46:50Z</time>
      </trkpt>
      <trkpt lat="44.71785" lon="5.21019">
        <ele>474.8</ele>
        <time>2019-06-16T09:46:51Z</time>
      </trkpt>
      <trkpt lat="44.71791" lon="5.21025">
        <ele>475.2</ele>
        <time>2019-06-16T09:46:57Z</time>
      </trkpt>
      <trkpt lat="44.71793" lon="5.21026">
        <ele>475.8</ele>
        <time>2019-06-16T09:46:58Z</time>
      </trkpt>
      <trkpt lat="44.71794" lon="5.21026">
        <ele>476.2</ele>
        <time>2019-06-16T09:46:59Z</time>
      </trkpt>
      <trkpt lat="44.71795" lon="5.21027">
        <ele>476.6</ele>
        <time>2019-06-16T09:47:00Z</time>
      </trkpt>
      <trkpt lat="44.71797" lon="5.21028">
        <ele>477</ele>
        <time>2019-06-16T09:47:01Z</time>
      </trkpt>
      <trkpt lat="44.71806" lon="5.21033">
        <ele>477.4</ele>
        <time>2019-06-16T09:47:09Z</time>
      </trkpt>
      <trkpt lat="44.71806" lon="5.21034">
        <ele>477.8</ele>
        <time>2019-06-16T09:47:10Z</time>
      </trkpt>
      <trkpt lat="44.71807" lon="5.21034">
        <ele>478.4</ele>
        <time>2019-06-16T09:47:11Z</time>
      </trkpt>
      <trkpt lat="44.71808" lon="5.21035">
        <ele>478.8</ele>
        <time>2019-06-16T09:47:12Z</time>
      </trkpt>
      <trkpt lat="44.71808" lon="5.21035">
        <ele>479.2</ele>
        <time>2019-06-16T09:47:13Z</time>
      </trkpt>
      <trkpt lat="44.71816" lon="5.21038">
        <ele>479.6</ele>
        <time>2019-06-16T09:47:21Z</time>
      </trkpt>
      <trkpt lat="44.71817" lon="5.21039">
        <ele>480</ele>
        <time>2019-06-16T09:47:22Z</time>
      </trkpt>
      <trkpt lat="44.71818" lon="5.2104">
        <ele>480.4</ele>
        <time>2019-06-16T09:47:23Z</time>
      </trkpt>
      <trkpt lat="44.71819" lon="5.21042">
        <ele>481</ele>
        <time>2019-06-16T09:47:24Z</time>
      </trkpt>
      <trkpt lat="44.71821" lon="5.21042">
        <ele>481.4</ele>
        <time>2019-06-16T09:47:25Z</time>
      </trkpt>
      <trkpt lat="44.71829" lon="5.21045">
        <ele>481.8</ele>
        <time>2019-06-16T09:47:31Z</time>
      </trkpt>
      <trkpt lat="44.71829" lon="5.21046">
        <ele>482.2</ele>
        <time>2019-06-16T09:47:32Z</time>
      </trkpt>
      <trkpt lat="44.7183" lon="5.21047">
        <ele>482.8</ele>
        <time>2019-06-16T09:47:33Z</time>
      </trkpt>
      <trkpt lat="44.71831" lon="5.21047">
        <ele>483.2</ele>
        <time>2019-06-16T09:47:34Z</time>
      </trkpt>
      <trkpt lat="44.71832" lon="5.21047">
        <ele>483.6</ele>
        <time>2019-06-16T09:47:35Z</time>
      </trkpt>
      <trkpt lat="44.71837" lon="5.21049">
        <ele>484</ele>
        <time>2019-06-16T09:47:41Z</time>
      </trkpt>
      <trkpt lat="44.71838" lon="5.2105">
        <ele>484.4</ele>
        <time>2019-06-16T09:47:42Z</time>
      </trkpt>
      <trkpt lat="44.7184" lon="5.21051">
        <ele>484.8</ele>
        <time>2019-06-16T09:47:43Z</time>
      </trkpt>
      <trkpt lat="44.71841" lon="5.21052">
        <ele>485.4</ele>
        <time>2019-06-16T09:47:44Z</time>
      </trkpt>
      <trkpt lat="44.71842" lon="5.21052">
        <ele>485.8</ele>
        <time>2019-06-16T09:47:45Z</time>
      </trkpt>
      <trkpt lat="44.71849" lon="5.21058">
        <ele>486.2</ele>
        <time>2019-06-16T09:47:52Z</time>
      </trkpt>
      <trkpt lat="44.7185" lon="5.21059">
        <ele>486.6</ele>
        <time>2019-06-16T09:47:53Z</time>
      </trkpt>
      <trkpt lat="44.7185" lon="5.2106">
        <ele>487.2</ele>
        <time>2019-06-16T09:47:54Z</time>
      </trkpt>
      <trkpt lat="44.7185" lon="5.21061">
        <ele>487.6</ele>
        <time>2019-06-16T09:47:55Z</time>
      </trkpt>
      <trkpt lat="44.7185" lon="5.21061">
        <ele>488.2</ele>
        <time>2019-06-16T09:47:56Z</time>
      </trkpt>
      <trkpt lat="44.7185" lon="5.21061">
        <ele>488.2</ele>
        <time>2019-06-16T09:48:01Z</time>
      </trkpt>
      <trkpt lat="44.71848" lon="5.21069">
        <ele>488.2</ele>
        <time>2019-06-16T09:48:22Z</time>
      </trkpt>
      <trkpt lat="44.71847" lon="5.2107">
        <ele>488.2</ele>
        <time>2019-06-16T09:48:23Z</time>
      </trkpt>
      <trkpt lat="44.71841" lon="5.21076">
        <ele>488.6</ele>
        <time>2019-06-16T09:48:30Z</time>
      </trkpt>
      <trkpt lat="44.7184" lon="5.21076">
        <ele>489</ele>
        <time>2019-06-16T09:48:31Z</time>
      </trkpt>
      <trkpt lat="44.7184" lon="5.21077">
        <ele>489.4</ele>
        <time>2019-06-16T09:48:32Z</time>
      </trkpt>
      <trkpt lat="44.71839" lon="5.21078">
        <ele>489.8</ele>
        <time>2019-06-16T09:48:33Z</time>
      </trkpt>
      <trkpt lat="44.71839" lon="5.21079">
        <ele>490.2</ele>
        <time>2019-06-16T09:48:34Z</time>
      </trkpt>
      <trkpt lat="44.71834" lon="5.21084">
        <ele>490.6</ele>
        <time>2019-06-16T09:48:40Z</time>
      </trkpt>
      <trkpt lat="44.71834" lon="5.21085">
        <ele>491</ele>
        <time>2019-06-16T09:48:41Z</time>
      </trkpt>
      <trkpt lat="44.71833" lon="5.21086">
        <ele>491.6</ele>
        <time>2019-06-16T09:48:42Z</time>
      </trkpt>
      <trkpt lat="44.71833" lon="5.21088">
        <ele>492</ele>
        <time>2019-06-16T09:48:43Z</time>
      </trkpt>
      <trkpt lat="44.71832" lon="5.21089">
        <ele>492.4</ele>
        <time>2019-06-16T09:48:44Z</time>
      </trkpt>
      <trkpt lat="44.71826" lon="5.21099">
        <ele>492.8</ele>
        <time>2019-06-16T09:48:53Z</time>
      </trkpt>
      <trkpt lat="44.71825" lon="5.211">
        <ele>493.2</ele>
        <time>2019-06-16T09:48:54Z</time>
      </trkpt>
      <trkpt lat="44.71825" lon="5.21102">
        <ele>493.8</ele>
        <time>2019-06-16T09:48:55Z</time>
      </trkpt>
      <trkpt lat="44.71824" lon="5.21102">
        <ele>494.2</ele>
        <time>2019-06-16T09:48:56Z</time>
      </trkpt>
      <trkpt lat="44.71824" lon="5.21103">
        <ele>494.6</ele>
        <time>2019-06-16T09:48:57Z</time>
      </trkpt>
      <trkpt lat="44.71818" lon="5.2111">
        <ele>495</ele>
        <time>2019-06-16T09:49:03Z</time>
      </trkpt>
      <trkpt lat="44.71818" lon="5.21111">
        <ele>495.4</ele>
        <time>2019-06-16T09:49:04Z</time>
      </trkpt>
      <trkpt lat="44.71817" lon="5.21112">
        <ele>495.8</ele>
        <time>2019-06-16T09:49:05Z</time>
      </trkpt>
      <trkpt lat="44.71816" lon="5.21113">
        <ele>496.2</ele>
        <time>2019-06-16T09:49:06Z</time>
      </trkpt>
      <trkpt lat="44.71815" lon="5.21115">
        <ele>496.6</ele>
        <time>2019-06-16T09:49:07Z</time>
      </trkpt>
      <trkpt lat="44.7181" lon="5.21122">
        <ele>497</ele>
        <time>2019-06-16T09:49:14Z</time>
      </trkpt>
      <trkpt lat="44.71809" lon="5.21123">
        <ele>497.4</ele>
        <time>2019-06-16T09:49:15Z</time>
      </trkpt>
      <trkpt lat="44.71809" lon="5.21124">
        <ele>497.8</ele>
        <time>2019-06-16T09:49:16Z</time>
      </trkpt>
      <trkpt lat="44.71808" lon="5.21125">
        <ele>498.2</ele>
        <time>2019-06-16T09:49:17Z</time>
      </trkpt>
      <trkpt lat="44.71808" lon="5.21126">
        <ele>498.6</ele>
        <time>2019-06-16T09:49:18Z</time>
      </trkpt>
      <trkpt lat="44.71802" lon="5.21133">
        <ele>498.6</ele>
        <time>2019-06-16T09:49:26Z</time>
      </trkpt>
      <trkpt lat="44.71801" lon="5.21134">
        <ele>499.2</ele>
        <time>2019-06-16T09:49:27Z</time>
      </trkpt>
      <trkpt lat="44.718" lon="5.21135">
        <ele>499.6</ele>
        <time>2019-06-16T09:49:28Z</time>
      </trkpt>
      <trkpt lat="44.718" lon="5.21136">
        <ele>500</ele>
        <time>2019-06-16T09:49:29Z</time>
      </trkpt>
      <trkpt lat="44.71798" lon="5.21137">
        <ele>500.4</ele>
        <time>2019-06-16T09:49:30Z</time>
      </trkpt>
      <trkpt lat="44.71798" lon="5.21137">
        <ele>500.8</ele>
        <time>2019-06-16T09:49:31Z</time>
      </trkpt>
      <trkpt lat="44.71796" lon="5.21141">
        <ele>500.8</ele>
        <time>2019-06-16T09:49:34Z</time>
      </trkpt>
      <trkpt lat="44.71793" lon="5.21146">
        <ele>501.2</ele>
        <time>2019-06-16T09:49:38Z</time>
      </trkpt>
      <trkpt lat="44.71792" lon="5.21147">
        <ele>501.6</ele>
        <time>2019-06-16T09:49:39Z</time>
      </trkpt>
      <trkpt lat="44.71791" lon="5.21148">
        <ele>502</ele>
        <time>2019-06-16T09:49:40Z</time>
      </trkpt>
      <trkpt lat="44.71791" lon="5.21149">
        <ele>502.4</ele>
        <time>2019-06-16T09:49:41Z</time>
      </trkpt>
      <trkpt lat="44.71791" lon="5.21149">
        <ele>502.8</ele>
        <time>2019-06-16T09:49:42Z</time>
      </trkpt>
      <trkpt lat="44.71792" lon="5.2115">
        <ele>502.8</ele>
        <time>2019-06-16T09:49:45Z</time>
      </trkpt>
      <trkpt lat="44.71792" lon="5.21149">
        <ele>502.8</ele>
        <time>2019-06-16T09:49:53Z</time>
      </trkpt>
      <trkpt lat="44.71789" lon="5.21159">
        <ele>502.8</ele>
        <time>2019-06-16T09:50:55Z</time>
      </trkpt>
      <trkpt lat="44.71788" lon="5.21161">
        <ele>503.4</ele>
        <time>2019-06-16T09:50:56Z</time>
      </trkpt>
      <trkpt lat="44.71787" lon="5.21162">
        <ele>503.8</ele>
        <time>2019-06-16T09:50:57Z</time>
      </trkpt>
      <trkpt lat="44.71786" lon="5.21163">
        <ele>504.2</ele>
        <time>2019-06-16T09:50:58Z</time>
      </trkpt>
      <trkpt lat="44.71786" lon="5.21164">
        <ele>504.6</ele>
        <time>2019-06-16T09:50:59Z</time>
      </trkpt>
      <trkpt lat="44.71785" lon="5.21165">
        <ele>505</ele>
        <time>2019-06-16T09:51:00Z</time>
      </trkpt>
      <trkpt lat="44.71782" lon="5.21174">
        <ele>505.4</ele>
        <time>2019-06-16T09:51:07Z</time>
      </trkpt>
      <trkpt lat="44.71781" lon="5.21176">
        <ele>505.8</ele>
        <time>2019-06-16T09:51:08Z</time>
      </trkpt>
      <trkpt lat="44.7178" lon="5.21177">
        <ele>506.4</ele>
        <time>2019-06-16T09:51:09Z</time>
      </trkpt>
      <trkpt lat="44.7178" lon="5.21179">
        <ele>506.8</ele>
        <time>2019-06-16T09:51:10Z</time>
      </trkpt>
      <trkpt lat="44.7178" lon="5.2118">
        <ele>507.2</ele>
        <time>2019-06-16T09:51:11Z</time>
      </trkpt>
      <trkpt lat="44.71776" lon="5.21189">
        <ele>507.6</ele>
        <time>2019-06-16T09:51:18Z</time>
      </trkpt>
      <trkpt lat="44.71775" lon="5.21191">
        <ele>508</ele>
        <time>2019-06-16T09:51:19Z</time>
      </trkpt>
      <trkpt lat="44.71775" lon="5.21192">
        <ele>508.4</ele>
        <time>2019-06-16T09:51:20Z</time>
      </trkpt>
      <trkpt lat="44.71774" lon="5.21193">
        <ele>508.8</ele>
        <time>2019-06-16T09:51:21Z</time>
      </trkpt>
      <trkpt lat="44.71774" lon="5.21195">
        <ele>509.2</ele>
        <time>2019-06-16T09:51:22Z</time>
      </trkpt>
      <trkpt lat="44.71774" lon="5.21206">
        <ele>509.6</ele>
        <time>2019-06-16T09:51:30Z</time>
      </trkpt>
      <trkpt lat="44.71774" lon="5.21208">
        <ele>510</ele>
        <time>2019-06-16T09:51:31Z</time>
      </trkpt>
      <trkpt lat="44.71773" lon="5.2121">
        <ele>510.4</ele>
        <time>2019-06-16T09:51:32Z</time>
      </trkpt>
      <trkpt lat="44.71773" lon="5.21211">
        <ele>510.8</ele>
        <time>2019-06-16T09:51:33Z</time>
      </trkpt>
      <trkpt lat="44.71773" lon="5.21213">
        <ele>511.2</ele>
        <time>2019-06-16T09:51:34Z</time>
      </trkpt>
      <trkpt lat="44.71772" lon="5.21215">
        <ele>511.2</ele>
        <time>2019-06-16T09:51:35Z</time>
      </trkpt>
      <trkpt lat="44.71769" lon="5.21225">
        <ele>511.6</ele>
        <time>2019-06-16T09:51:42Z</time>
      </trkpt>
      <trkpt lat="44.71768" lon="5.21226">
        <ele>512</ele>
        <time>2019-06-16T09:51:43Z</time>
      </trkpt>
      <trkpt lat="44.71768" lon="5.21227">
        <ele>512.4</ele>
        <time>2019-06-16T09:51:44Z</time>
      </trkpt>
      <trkpt lat="44.71768" lon="5.21229">
        <ele>512.8</ele>
        <time>2019-06-16T09:51:45Z</time>
      </trkpt>
      <trkpt lat="44.71768" lon="5.2123">
        <ele>513.2</ele>
        <time>2019-06-16T09:51:46Z</time>
      </trkpt>
      <trkpt lat="44.71768" lon="5.21238">
        <ele>513.2</ele>
        <time>2019-06-16T09:51:51Z</time>
      </trkpt>
      <trkpt lat="44.71767" lon="5.21241">
        <ele>513.6</ele>
        <time>2019-06-16T09:51:53Z</time>
      </trkpt>
      <trkpt lat="44.71767" lon="5.21243">
        <ele>514</ele>
        <time>2019-06-16T09:51:54Z</time>
      </trkpt>
      <trkpt lat="44.71767" lon="5.21244">
        <ele>514.4</ele>
        <time>2019-06-16T09:51:55Z</time>
      </trkpt>
      <trkpt lat="44.71767" lon="5.21246">
        <ele>514.8</ele>
        <time>2019-06-16T09:51:56Z</time>
      </trkpt>
      <trkpt lat="44.71766" lon="5.21247">
        <ele>515.2</ele>
        <time>2019-06-16T09:51:57Z</time>
      </trkpt>
      <trkpt lat="44.71767" lon="5.21258">
        <ele>515.8</ele>
        <time>2019-06-16T09:52:04Z</time>
      </trkpt>
      <trkpt lat="44.71767" lon="5.21259">
        <ele>516.2</ele>
        <time>2019-06-16T09:52:05Z</time>
      </trkpt>
      <trkpt lat="44.71767" lon="5.21261">
        <ele>516.8</ele>
        <time>2019-06-16T09:52:06Z</time>
      </trkpt>
      <trkpt lat="44.71768" lon="5.21263">
        <ele>517.2</ele>
        <time>2019-06-16T09:52:07Z</time>
      </trkpt>
      <trkpt lat="44.71768" lon="5.21265">
        <ele>517.6</ele>
        <time>2019-06-16T09:52:08Z</time>
      </trkpt>
      <trkpt lat="44.71768" lon="5.21281">
        <ele>518</ele>
        <time>2019-06-16T09:52:19Z</time>
      </trkpt>
      <trkpt lat="44.71768" lon="5.21282">
        <ele>518.4</ele>
        <time>2019-06-16T09:52:20Z</time>
      </trkpt>
      <trkpt lat="44.71768" lon="5.21284">
        <ele>518.8</ele>
        <time>2019-06-16T09:52:21Z</time>
      </trkpt>
      <trkpt lat="44.71768" lon="5.21285">
        <ele>519.2</ele>
        <time>2019-06-16T09:52:22Z</time>
      </trkpt>
      <trkpt lat="44.71767" lon="5.21286">
        <ele>519.6</ele>
        <time>2019-06-16T09:52:23Z</time>
      </trkpt>
      <trkpt lat="44.71767" lon="5.21296">
        <ele>520</ele>
        <time>2019-06-16T09:52:31Z</time>
      </trkpt>
      <trkpt lat="44.71767" lon="5.21297">
        <ele>520.4</ele>
        <time>2019-06-16T09:52:32Z</time>
      </trkpt>
      <trkpt lat="44.71766" lon="5.21299">
        <ele>520.8</ele>
        <time>2019-06-16T09:52:33Z</time>
      </trkpt>
      <trkpt lat="44.71766" lon="5.213">
        <ele>521.4</ele>
        <time>2019-06-16T09:52:34Z</time>
      </trkpt>
      <trkpt lat="44.71766" lon="5.21302">
        <ele>521.8</ele>
        <time>2019-06-16T09:52:35Z</time>
      </trkpt>
      <trkpt lat="44.71765" lon="5.21309">
        <ele>522.2</ele>
        <time>2019-06-16T09:52:40Z</time>
      </trkpt>
      <trkpt lat="44.71765" lon="5.2131">
        <ele>522.6</ele>
        <time>2019-06-16T09:52:41Z</time>
      </trkpt>
      <trkpt lat="44.71764" lon="5.21312">
        <ele>523</ele>
        <time>2019-06-16T09:52:42Z</time>
      </trkpt>
      <trkpt lat="44.71763" lon="5.21313">
        <ele>523.4</ele>
        <time>2019-06-16T09:52:43Z</time>
      </trkpt>
      <trkpt lat="44.71762" lon="5.21315">
        <ele>523.8</ele>
        <time>2019-06-16T09:52:44Z</time>
      </trkpt>
      <trkpt lat="44.7176" lon="5.21316">
        <ele>523.8</ele>
        <time>2019-06-16T09:52:46Z</time>
      </trkpt>
      <trkpt lat="44.71755" lon="5.2132">
        <ele>524.4</ele>
        <time>2019-06-16T09:52:53Z</time>
      </trkpt>
      <trkpt lat="44.71754" lon="5.2132">
        <ele>524.8</ele>
        <time>2019-06-16T09:52:54Z</time>
      </trkpt>
      <trkpt lat="44.71753" lon="5.21321">
        <ele>525.2</ele>
        <time>2019-06-16T09:52:55Z</time>
      </trkpt>
      <trkpt lat="44.71752" lon="5.21321">
        <ele>525.8</ele>
        <time>2019-06-16T09:52:56Z</time>
      </trkpt>
      <trkpt lat="44.71751" lon="5.21322">
        <ele>526.2</ele>
        <time>2019-06-16T09:52:57Z</time>
      </trkpt>
      <trkpt lat="44.71738" lon="5.21327">
        <ele>526.2</ele>
        <time>2019-06-16T09:53:08Z</time>
      </trkpt>
      <trkpt lat="44.71734" lon="5.21329">
        <ele>526.6</ele>
        <time>2019-06-16T09:53:12Z</time>
      </trkpt>
      <trkpt lat="44.71732" lon="5.2133">
        <ele>527</ele>
        <time>2019-06-16T09:53:13Z</time>
      </trkpt>
      <trkpt lat="44.71731" lon="5.2133">
        <ele>527.6</ele>
        <time>2019-06-16T09:53:14Z</time>
      </trkpt>
      <trkpt lat="44.7173" lon="5.21331">
        <ele>528</ele>
        <time>2019-06-16T09:53:15Z</time>
      </trkpt>
      <trkpt lat="44.71731" lon="5.21332">
        <ele>528.4</ele>
        <time>2019-06-16T09:53:16Z</time>
      </trkpt>
      <trkpt lat="44.71725" lon="5.21333">
        <ele>528.4</ele>
        <time>2019-06-16T09:53:20Z</time>
      </trkpt>
      <trkpt lat="44.71718" lon="5.21339">
        <ele>528.8</ele>
        <time>2019-06-16T09:53:28Z</time>
      </trkpt>
      <trkpt lat="44.71717" lon="5.21339">
        <ele>529.2</ele>
        <time>2019-06-16T09:53:29Z</time>
      </trkpt>
      <trkpt lat="44.71716" lon="5.2134">
        <ele>529.6</ele>
        <time>2019-06-16T09:53:30Z</time>
      </trkpt>
      <trkpt lat="44.71716" lon="5.21341">
        <ele>530</ele>
        <time>2019-06-16T09:53:31Z</time>
      </trkpt>
      <trkpt lat="44.71716" lon="5.21342">
        <ele>530.6</ele>
        <time>2019-06-16T09:53:32Z</time>
      </trkpt>
      <trkpt lat="44.71712" lon="5.21348">
        <ele>530.6</ele>
        <time>2019-06-16T09:53:37Z</time>
      </trkpt>
      <trkpt lat="44.71699" lon="5.21357">
        <ele>531</ele>
        <time>2019-06-16T09:53:48Z</time>
      </trkpt>
      <trkpt lat="44.71699" lon="5.21358">
        <ele>531.4</ele>
        <time>2019-06-16T09:53:49Z</time>
      </trkpt>
      <trkpt lat="44.71698" lon="5.21359">
        <ele>531.8</ele>
        <time>2019-06-16T09:53:50Z</time>
      </trkpt>
      <trkpt lat="44.71696" lon="5.21359">
        <ele>532.2</ele>
        <time>2019-06-16T09:53:51Z</time>
      </trkpt>
      <trkpt lat="44.71693" lon="5.2136">
        <ele>532.6</ele>
        <time>2019-06-16T09:53:52Z</time>
      </trkpt>
      <trkpt lat="44.71685" lon="5.21365">
        <ele>532.6</ele>
        <time>2019-06-16T09:53:58Z</time>
      </trkpt>
      <trkpt lat="44.71678" lon="5.21369">
        <ele>533</ele>
        <time>2019-06-16T09:54:06Z</time>
      </trkpt>
      <trkpt lat="44.71677" lon="5.21369">
        <ele>533.4</ele>
        <time>2019-06-16T09:54:07Z</time>
      </trkpt>
      <trkpt lat="44.71676" lon="5.2137">
        <ele>533.8</ele>
        <time>2019-06-16T09:54:08Z</time>
      </trkpt>
      <trkpt lat="44.71676" lon="5.21371">
        <ele>534.2</ele>
        <time>2019-06-16T09:54:09Z</time>
      </trkpt>
      <trkpt lat="44.71675" lon="5.21371">
        <ele>534.6</ele>
        <time>2019-06-16T09:54:10Z</time>
      </trkpt>
      <trkpt lat="44.71671" lon="5.21372">
        <ele>534.6</ele>
        <time>2019-06-16T09:54:12Z</time>
      </trkpt>
      <trkpt lat="44.71666" lon="5.21375">
        <ele>534.6</ele>
        <time>2019-06-16T09:54:16Z</time>
      </trkpt>
      <trkpt lat="44.7166" lon="5.2138">
        <ele>535</ele>
        <time>2019-06-16T09:54:22Z</time>
      </trkpt>
      <trkpt lat="44.71659" lon="5.21381">
        <ele>535.6</ele>
        <time>2019-06-16T09:54:23Z</time>
      </trkpt>
      <trkpt lat="44.71658" lon="5.21382">
        <ele>536</ele>
        <time>2019-06-16T09:54:24Z</time>
      </trkpt>
      <trkpt lat="44.71657" lon="5.21383">
        <ele>536.4</ele>
        <time>2019-06-16T09:54:25Z</time>
      </trkpt>
      <trkpt lat="44.71656" lon="5.21384">
        <ele>536.8</ele>
        <time>2019-06-16T09:54:26Z</time>
      </trkpt>
      <trkpt lat="44.71654" lon="5.21389">
        <ele>536.8</ele>
        <time>2019-06-16T09:54:31Z</time>
      </trkpt>
      <trkpt lat="44.71652" lon="5.21397">
        <ele>537.2</ele>
        <time>2019-06-16T09:54:37Z</time>
      </trkpt>
      <trkpt lat="44.71651" lon="5.21399">
        <ele>537.6</ele>
        <time>2019-06-16T09:54:38Z</time>
      </trkpt>
      <trkpt lat="44.71649" lon="5.214">
        <ele>538</ele>
        <time>2019-06-16T09:54:39Z</time>
      </trkpt>
      <trkpt lat="44.71648" lon="5.21402">
        <ele>538.4</ele>
        <time>2019-06-16T09:54:40Z</time>
      </trkpt>
      <trkpt lat="44.71647" lon="5.21404">
        <ele>538.8</ele>
        <time>2019-06-16T09:54:41Z</time>
      </trkpt>
      <trkpt lat="44.71645" lon="5.21405">
        <ele>538.8</ele>
        <time>2019-06-16T09:54:42Z</time>
      </trkpt>
      <trkpt lat="44.71636" lon="5.21418">
        <ele>538.8</ele>
        <time>2019-06-16T09:54:51Z</time>
      </trkpt>
      <trkpt lat="44.71629" lon="5.21429">
        <ele>538.8</ele>
        <time>2019-06-16T09:54:58Z</time>
      </trkpt>
      <trkpt lat="44.71623" lon="5.21437">
        <ele>539.2</ele>
        <time>2019-06-16T09:55:05Z</time>
      </trkpt>
      <trkpt lat="44.71622" lon="5.21438">
        <ele>539.6</ele>
        <time>2019-06-16T09:55:06Z</time>
      </trkpt>
      <trkpt lat="44.71622" lon="5.21439">
        <ele>540</ele>
        <time>2019-06-16T09:55:07Z</time>
      </trkpt>
      <trkpt lat="44.71621" lon="5.21441">
        <ele>540.4</ele>
        <time>2019-06-16T09:55:08Z</time>
      </trkpt>
      <trkpt lat="44.7162" lon="5.21443">
        <ele>540.8</ele>
        <time>2019-06-16T09:55:09Z</time>
      </trkpt>
      <trkpt lat="44.71621" lon="5.21446">
        <ele>540.8</ele>
        <time>2019-06-16T09:55:11Z</time>
      </trkpt>
      <trkpt lat="44.7162" lon="5.2145">
        <ele>540.8</ele>
        <time>2019-06-16T09:55:13Z</time>
      </trkpt>
      <trkpt lat="44.71616" lon="5.21461">
        <ele>540.8</ele>
        <time>2019-06-16T09:55:19Z</time>
      </trkpt>
      <trkpt lat="44.71616" lon="5.21464">
        <ele>541.2</ele>
        <time>2019-06-16T09:55:20Z</time>
      </trkpt>
      <trkpt lat="44.71616" lon="5.21466">
        <ele>541.6</ele>
        <time>2019-06-16T09:55:21Z</time>
      </trkpt>
      <trkpt lat="44.71615" lon="5.21468">
        <ele>542</ele>
        <time>2019-06-16T09:55:22Z</time>
      </trkpt>
      <trkpt lat="44.71615" lon="5.2147">
        <ele>542.6</ele>
        <time>2019-06-16T09:55:23Z</time>
      </trkpt>
      <trkpt lat="44.71615" lon="5.21472">
        <ele>543</ele>
        <time>2019-06-16T09:55:24Z</time>
      </trkpt>
      <trkpt lat="44.71616" lon="5.21483">
        <ele>543</ele>
        <time>2019-06-16T09:55:30Z</time>
      </trkpt>
      <trkpt lat="44.71619" lon="5.21494">
        <ele>543.4</ele>
        <time>2019-06-16T09:55:37Z</time>
      </trkpt>
      <trkpt lat="44.71619" lon="5.21496">
        <ele>543.8</ele>
        <time>2019-06-16T09:55:38Z</time>
      </trkpt>
      <trkpt lat="44.71619" lon="5.21498">
        <ele>544.4</ele>
        <time>2019-06-16T09:55:39Z</time>
      </trkpt>
      <trkpt lat="44.71619" lon="5.21499">
        <ele>544.8</ele>
        <time>2019-06-16T09:55:40Z</time>
      </trkpt>
      <trkpt lat="44.7162" lon="5.21501">
        <ele>545.2</ele>
        <time>2019-06-16T09:55:41Z</time>
      </trkpt>
      <trkpt lat="44.71621" lon="5.21519">
        <ele>545.2</ele>
        <time>2019-06-16T09:55:51Z</time>
      </trkpt>
      <trkpt lat="44.71621" lon="5.21529">
        <ele>545.6</ele>
        <time>2019-06-16T09:55:58Z</time>
      </trkpt>
      <trkpt lat="44.71621" lon="5.21531">
        <ele>546</ele>
        <time>2019-06-16T09:55:59Z</time>
      </trkpt>
      <trkpt lat="44.71621" lon="5.21533">
        <ele>546.4</ele>
        <time>2019-06-16T09:56:00Z</time>
      </trkpt>
      <trkpt lat="44.71621" lon="5.21534">
        <ele>546.8</ele>
        <time>2019-06-16T09:56:01Z</time>
      </trkpt>
      <trkpt lat="44.71622" lon="5.21536">
        <ele>547.2</ele>
        <time>2019-06-16T09:56:02Z</time>
      </trkpt>
      <trkpt lat="44.71632" lon="5.21545">
        <ele>547.2</ele>
        <time>2019-06-16T09:56:11Z</time>
      </trkpt>
      <trkpt lat="44.71634" lon="5.21546">
        <ele>547.2</ele>
        <time>2019-06-16T09:56:13Z</time>
      </trkpt>
      <trkpt lat="44.71635" lon="5.21547">
        <ele>547.8</ele>
        <time>2019-06-16T09:56:14Z</time>
      </trkpt>
      <trkpt lat="44.71636" lon="5.21547">
        <ele>548.2</ele>
        <time>2019-06-16T09:56:15Z</time>
      </trkpt>
      <trkpt lat="44.71638" lon="5.21548">
        <ele>548.6</ele>
        <time>2019-06-16T09:56:16Z</time>
      </trkpt>
      <trkpt lat="44.71639" lon="5.21549">
        <ele>549.2</ele>
        <time>2019-06-16T09:56:17Z</time>
      </trkpt>
      <trkpt lat="44.7164" lon="5.2155">
        <ele>549.6</ele>
        <time>2019-06-16T09:56:18Z</time>
      </trkpt>
      <trkpt lat="44.71645" lon="5.21557">
        <ele>549.6</ele>
        <time>2019-06-16T09:56:25Z</time>
      </trkpt>
      <trkpt lat="44.71646" lon="5.21565">
        <ele>550</ele>
        <time>2019-06-16T09:56:30Z</time>
      </trkpt>
      <trkpt lat="44.71646" lon="5.21567">
        <ele>550.6</ele>
        <time>2019-06-16T09:56:31Z</time>
      </trkpt>
      <trkpt lat="44.71646" lon="5.21568">
        <ele>551</ele>
        <time>2019-06-16T09:56:32Z</time>
      </trkpt>
      <trkpt lat="44.71645" lon="5.2157">
        <ele>551.4</ele>
        <time>2019-06-16T09:56:33Z</time>
      </trkpt>
      <trkpt lat="44.71644" lon="5.21572">
        <ele>552</ele>
        <time>2019-06-16T09:56:34Z</time>
      </trkpt>
      <trkpt lat="44.71644" lon="5.21574">
        <ele>552</ele>
        <time>2019-06-16T09:56:35Z</time>
      </trkpt>
      <trkpt lat="44.71637" lon="5.21591">
        <ele>552</ele>
        <time>2019-06-16T09:56:47Z</time>
      </trkpt>
      <trkpt lat="44.71637" lon="5.21595">
        <ele>552.4</ele>
        <time>2019-06-16T09:56:49Z</time>
      </trkpt>
      <trkpt lat="44.71636" lon="5.21597">
        <ele>552.8</ele>
        <time>2019-06-16T09:56:50Z</time>
      </trkpt>
      <trkpt lat="44.71636" lon="5.21598">
        <ele>553.2</ele>
        <time>2019-06-16T09:56:51Z</time>
      </trkpt>
      <trkpt lat="44.71635" lon="5.216">
        <ele>553.6</ele>
        <time>2019-06-16T09:56:52Z</time>
      </trkpt>
      <trkpt lat="44.71634" lon="5.21602">
        <ele>554</ele>
        <time>2019-06-16T09:56:53Z</time>
      </trkpt>
      <trkpt lat="44.71633" lon="5.21606">
        <ele>554</ele>
        <time>2019-06-16T09:56:56Z</time>
      </trkpt>
      <trkpt lat="44.7163" lon="5.21622">
        <ele>554</ele>
        <time>2019-06-16T09:57:05Z</time>
      </trkpt>
      <trkpt lat="44.71629" lon="5.21627">
        <ele>554.4</ele>
        <time>2019-06-16T09:57:08Z</time>
      </trkpt>
      <trkpt lat="44.71629" lon="5.21628">
        <ele>554.8</ele>
        <time>2019-06-16T09:57:09Z</time>
      </trkpt>
      <trkpt lat="44.71629" lon="5.2163">
        <ele>555.2</ele>
        <time>2019-06-16T09:57:10Z</time>
      </trkpt>
      <trkpt lat="44.71629" lon="5.21632">
        <ele>555.6</ele>
        <time>2019-06-16T09:57:11Z</time>
      </trkpt>
      <trkpt lat="44.71629" lon="5.21633">
        <ele>556</ele>
        <time>2019-06-16T09:57:12Z</time>
      </trkpt>
      <trkpt lat="44.71628" lon="5.21637">
        <ele>556</ele>
        <time>2019-06-16T09:57:14Z</time>
      </trkpt>
      <trkpt lat="44.7163" lon="5.21651">
        <ele>556</ele>
        <time>2019-06-16T09:57:21Z</time>
      </trkpt>
      <trkpt lat="44.7163" lon="5.2166">
        <ele>556.4</ele>
        <time>2019-06-16T09:57:26Z</time>
      </trkpt>
      <trkpt lat="44.71631" lon="5.21661">
        <ele>556.8</ele>
        <time>2019-06-16T09:57:27Z</time>
      </trkpt>
      <trkpt lat="44.71631" lon="5.21663">
        <ele>557.2</ele>
        <time>2019-06-16T09:57:28Z</time>
      </trkpt>
      <trkpt lat="44.71631" lon="5.21664">
        <ele>557.6</ele>
        <time>2019-06-16T09:57:29Z</time>
      </trkpt>
      <trkpt lat="44.71632" lon="5.21666">
        <ele>558</ele>
        <time>2019-06-16T09:57:30Z</time>
      </trkpt>
      <trkpt lat="44.71634" lon="5.2167">
        <ele>558</ele>
        <time>2019-06-16T09:57:33Z</time>
      </trkpt>
      <trkpt lat="44.71642" lon="5.2169">
        <ele>558</ele>
        <time>2019-06-16T09:57:43Z</time>
      </trkpt>
      <trkpt lat="44.71646" lon="5.21698">
        <ele>558.6</ele>
        <time>2019-06-16T09:57:49Z</time>
      </trkpt>
      <trkpt lat="44.71647" lon="5.21699">
        <ele>559</ele>
        <time>2019-06-16T09:57:50Z</time>
      </trkpt>
      <trkpt lat="44.71647" lon="5.21701">
        <ele>559.6</ele>
        <time>2019-06-16T09:57:51Z</time>
      </trkpt>
      <trkpt lat="44.71648" lon="5.21702">
        <ele>560</ele>
        <time>2019-06-16T09:57:52Z</time>
      </trkpt>
      <trkpt lat="44.71649" lon="5.21703">
        <ele>560.4</ele>
        <time>2019-06-16T09:57:53Z</time>
      </trkpt>
      <trkpt lat="44.71656" lon="5.2171">
        <ele>560.4</ele>
        <time>2019-06-16T09:58:01Z</time>
      </trkpt>
      <trkpt lat="44.7166" lon="5.21714">
        <ele>560.8</ele>
        <time>2019-06-16T09:58:07Z</time>
      </trkpt>
      <trkpt lat="44.71661" lon="5.21714">
        <ele>561.2</ele>
        <time>2019-06-16T09:58:08Z</time>
      </trkpt>
      <trkpt lat="44.71662" lon="5.21715">
        <ele>561.6</ele>
        <time>2019-06-16T09:58:09Z</time>
      </trkpt>
      <trkpt lat="44.71662" lon="5.21715">
        <ele>562</ele>
        <time>2019-06-16T09:58:10Z</time>
      </trkpt>
      <trkpt lat="44.71663" lon="5.21716">
        <ele>562.4</ele>
        <time>2019-06-16T09:58:11Z</time>
      </trkpt>
      <trkpt lat="44.71675" lon="5.21723">
        <ele>563</ele>
        <time>2019-06-16T09:58:23Z</time>
      </trkpt>
      <trkpt lat="44.71676" lon="5.21724">
        <ele>563.4</ele>
        <time>2019-06-16T09:58:24Z</time>
      </trkpt>
      <trkpt lat="44.71678" lon="5.21725">
        <ele>564.2</ele>
        <time>2019-06-16T09:58:26Z</time>
      </trkpt>
      <trkpt lat="44.7168" lon="5.21725">
        <ele>564.6</ele>
        <time>2019-06-16T09:58:27Z</time>
      </trkpt>
      <trkpt lat="44.71698" lon="5.21737">
        <ele>564.6</ele>
        <time>2019-06-16T09:58:39Z</time>
      </trkpt>
      <trkpt lat="44.71701" lon="5.2174">
        <ele>565</ele>
        <time>2019-06-16T09:58:42Z</time>
      </trkpt>
      <trkpt lat="44.71702" lon="5.21741">
        <ele>565.4</ele>
        <time>2019-06-16T09:58:43Z</time>
      </trkpt>
      <trkpt lat="44.71704" lon="5.21742">
        <ele>566</ele>
        <time>2019-06-16T09:58:44Z</time>
      </trkpt>
      <trkpt lat="44.71704" lon="5.21743">
        <ele>566.4</ele>
        <time>2019-06-16T09:58:45Z</time>
      </trkpt>
      <trkpt lat="44.71705" lon="5.21744">
        <ele>566.8</ele>
        <time>2019-06-16T09:58:46Z</time>
      </trkpt>
      <trkpt lat="44.71712" lon="5.21751">
        <ele>566.8</ele>
        <time>2019-06-16T09:58:54Z</time>
      </trkpt>
      <trkpt lat="44.71724" lon="5.21765">
        <ele>566.8</ele>
        <time>2019-06-16T09:59:06Z</time>
      </trkpt>
      <trkpt lat="44.71724" lon="5.2177">
        <ele>567.2</ele>
        <time>2019-06-16T09:59:09Z</time>
      </trkpt>
      <trkpt lat="44.71724" lon="5.2177">
        <ele>567.6</ele>
        <time>2019-06-16T09:59:10Z</time>
      </trkpt>
      <trkpt lat="44.71723" lon="5.21772">
        <ele>568</ele>
        <time>2019-06-16T09:59:11Z</time>
      </trkpt>
      <trkpt lat="44.71722" lon="5.21773">
        <ele>568.4</ele>
        <time>2019-06-16T09:59:12Z</time>
      </trkpt>
      <trkpt lat="44.71721" lon="5.21774">
        <ele>568.8</ele>
        <time>2019-06-16T09:59:13Z</time>
      </trkpt>
      <trkpt lat="44.71716" lon="5.21774">
        <ele>569.2</ele>
        <time>2019-06-16T09:59:17Z</time>
      </trkpt>
      <trkpt lat="44.71715" lon="5.21774">
        <ele>569.6</ele>
        <time>2019-06-16T09:59:18Z</time>
      </trkpt>
      <trkpt lat="44.71714" lon="5.21773">
        <ele>570</ele>
        <time>2019-06-16T09:59:19Z</time>
      </trkpt>
      <trkpt lat="44.71713" lon="5.21774">
        <ele>570.6</ele>
        <time>2019-06-16T09:59:20Z</time>
      </trkpt>
      <trkpt lat="44.71711" lon="5.21774">
        <ele>571</ele>
        <time>2019-06-16T09:59:21Z</time>
      </trkpt>
      <trkpt lat="44.71707" lon="5.21776">
        <ele>571.4</ele>
        <time>2019-06-16T09:59:24Z</time>
      </trkpt>
      <trkpt lat="44.71707" lon="5.21777">
        <ele>571.8</ele>
        <time>2019-06-16T09:59:25Z</time>
      </trkpt>
      <trkpt lat="44.71706" lon="5.21778">
        <ele>572.2</ele>
        <time>2019-06-16T09:59:26Z</time>
      </trkpt>
      <trkpt lat="44.71705" lon="5.21778">
        <ele>572.6</ele>
        <time>2019-06-16T09:59:27Z</time>
      </trkpt>
      <trkpt lat="44.71704" lon="5.21778">
        <ele>573</ele>
        <time>2019-06-16T09:59:28Z</time>
      </trkpt>
      <trkpt lat="44.71703" lon="5.21776">
        <ele>573</ele>
        <time>2019-06-16T09:59:31Z</time>
      </trkpt>
      <trkpt lat="44.717" lon="5.21776">
        <ele>573</ele>
        <time>2019-06-16T09:59:38Z</time>
      </trkpt>
      <trkpt lat="44.71695" lon="5.21775">
        <ele>573</ele>
        <time>2019-06-16T10:00:05Z</time>
      </trkpt>
      <trkpt lat="44.71694" lon="5.21774">
        <ele>573.6</ele>
        <time>2019-06-16T10:00:42Z</time>
      </trkpt>
      <trkpt lat="44.71694" lon="5.21774">
        <ele>574</ele>
        <time>2019-06-16T10:00:43Z</time>
      </trkpt>
      <trkpt lat="44.71693" lon="5.21774">
        <ele>574.4</ele>
        <time>2019-06-16T10:00:44Z</time>
      </trkpt>
      <trkpt lat="44.71693" lon="5.21774">
        <ele>574.8</ele>
        <time>2019-06-16T10:00:45Z</time>
      </trkpt>
      <trkpt lat="44.71693" lon="5.21774">
        <ele>575.4</ele>
        <time>2019-06-16T10:00:46Z</time>
      </trkpt>
      <trkpt lat="44.71688" lon="5.21779">
        <ele>575.4</ele>
        <time>2019-06-16T10:00:54Z</time>
      </trkpt>
      <trkpt lat="44.71686" lon="5.2178">
        <ele>575.8</ele>
        <time>2019-06-16T10:00:56Z</time>
      </trkpt>
      <trkpt lat="44.71686" lon="5.2178">
        <ele>576.2</ele>
        <time>2019-06-16T10:00:57Z</time>
      </trkpt>
      <trkpt lat="44.71686" lon="5.2178">
        <ele>576.6</ele>
        <time>2019-06-16T10:00:58Z</time>
      </trkpt>
      <trkpt lat="44.71685" lon="5.21781">
        <ele>577</ele>
        <time>2019-06-16T10:00:59Z</time>
      </trkpt>
      <trkpt lat="44.71684" lon="5.21781">
        <ele>577.4</ele>
        <time>2019-06-16T10:01:00Z</time>
      </trkpt>
      <trkpt lat="44.71682" lon="5.2178">
        <ele>577.4</ele>
        <time>2019-06-16T10:01:06Z</time>
      </trkpt>
      <trkpt lat="44.71673" lon="5.21783">
        <ele>577.4</ele>
        <time>2019-06-16T10:01:23Z</time>
      </trkpt>
      <trkpt lat="44.71671" lon="5.21784">
        <ele>577.4</ele>
        <time>2019-06-16T10:01:25Z</time>
      </trkpt>
      <trkpt lat="44.71669" lon="5.21787">
        <ele>577.8</ele>
        <time>2019-06-16T10:01:29Z</time>
      </trkpt>
      <trkpt lat="44.71669" lon="5.21788">
        <ele>578.4</ele>
        <time>2019-06-16T10:01:30Z</time>
      </trkpt>
      <trkpt lat="44.71668" lon="5.21789">
        <ele>578.8</ele>
        <time>2019-06-16T10:01:31Z</time>
      </trkpt>
      <trkpt lat="44.71667" lon="5.2179">
        <ele>579.2</ele>
        <time>2019-06-16T10:01:32Z</time>
      </trkpt>
      <trkpt lat="44.71666" lon="5.21791">
        <ele>579.8</ele>
        <time>2019-06-16T10:01:33Z</time>
      </trkpt>
      <trkpt lat="44.71661" lon="5.21793">
        <ele>579.8</ele>
        <time>2019-06-16T10:01:38Z</time>
      </trkpt>
      <trkpt lat="44.71655" lon="5.21798">
        <ele>580.2</ele>
        <time>2019-06-16T10:01:46Z</time>
      </trkpt>
      <trkpt lat="44.71654" lon="5.21799">
        <ele>580.6</ele>
        <time>2019-06-16T10:01:47Z</time>
      </trkpt>
      <trkpt lat="44.71653" lon="5.218">
        <ele>581</ele>
        <time>2019-06-16T10:01:48Z</time>
      </trkpt>
      <trkpt lat="44.71652" lon="5.218">
        <ele>581.4</ele>
        <time>2019-06-16T10:01:49Z</time>
      </trkpt>
      <trkpt lat="44.71652" lon="5.21801">
        <ele>581.8</ele>
        <time>2019-06-16T10:01:50Z</time>
      </trkpt>
      <trkpt lat="44.71651" lon="5.21801">
        <ele>581.8</ele>
        <time>2019-06-16T10:01:51Z</time>
      </trkpt>
      <trkpt lat="44.71645" lon="5.21807">
        <ele>582.4</ele>
        <time>2019-06-16T10:02:00Z</time>
      </trkpt>
      <trkpt lat="44.71645" lon="5.21807">
        <ele>582.8</ele>
        <time>2019-06-16T10:02:01Z</time>
      </trkpt>
      <trkpt lat="44.71645" lon="5.21808">
        <ele>583.2</ele>
        <time>2019-06-16T10:02:02Z</time>
      </trkpt>
      <trkpt lat="44.71645" lon="5.21809">
        <ele>583.6</ele>
        <time>2019-06-16T10:02:03Z</time>
      </trkpt>
      <trkpt lat="44.71643" lon="5.2181">
        <ele>584.2</ele>
        <time>2019-06-16T10:02:04Z</time>
      </trkpt>
      <trkpt lat="44.71639" lon="5.21809">
        <ele>584.2</ele>
        <time>2019-06-16T10:02:11Z</time>
      </trkpt>
      <trkpt lat="44.71638" lon="5.21813">
        <ele>584.6</ele>
        <time>2019-06-16T10:02:18Z</time>
      </trkpt>
      <trkpt lat="44.71638" lon="5.21813">
        <ele>585</ele>
        <time>2019-06-16T10:02:19Z</time>
      </trkpt>
      <trkpt lat="44.71638" lon="5.21814">
        <ele>585.4</ele>
        <time>2019-06-16T10:02:20Z</time>
      </trkpt>
      <trkpt lat="44.71637" lon="5.21814">
        <ele>585.8</ele>
        <time>2019-06-16T10:02:21Z</time>
      </trkpt>
      <trkpt lat="44.71636" lon="5.21815">
        <ele>586.2</ele>
        <time>2019-06-16T10:02:22Z</time>
      </trkpt>
      <trkpt lat="44.71627" lon="5.21817">
        <ele>586.2</ele>
        <time>2019-06-16T10:02:49Z</time>
      </trkpt>
      <trkpt lat="44.71622" lon="5.21819">
        <ele>586.6</ele>
        <time>2019-06-16T10:02:53Z</time>
      </trkpt>
      <trkpt lat="44.71622" lon="5.2182">
        <ele>587.2</ele>
        <time>2019-06-16T10:02:54Z</time>
      </trkpt>
      <trkpt lat="44.71621" lon="5.2182">
        <ele>587.6</ele>
        <time>2019-06-16T10:02:55Z</time>
      </trkpt>
      <trkpt lat="44.71619" lon="5.21821">
        <ele>588</ele>
        <time>2019-06-16T10:02:56Z</time>
      </trkpt>
      <trkpt lat="44.71618" lon="5.21821">
        <ele>588.4</ele>
        <time>2019-06-16T10:02:57Z</time>
      </trkpt>
      <trkpt lat="44.71613" lon="5.21824">
        <ele>588.4</ele>
        <time>2019-06-16T10:03:01Z</time>
      </trkpt>
      <trkpt lat="44.71608" lon="5.21828">
        <ele>588.8</ele>
        <time>2019-06-16T10:03:08Z</time>
      </trkpt>
      <trkpt lat="44.71607" lon="5.21828">
        <ele>589.4</ele>
        <time>2019-06-16T10:03:09Z</time>
      </trkpt>
      <trkpt lat="44.71606" lon="5.21828">
        <ele>589.8</ele>
        <time>2019-06-16T10:03:10Z</time>
      </trkpt>
      <trkpt lat="44.71606" lon="5.21828">
        <ele>590.2</ele>
        <time>2019-06-16T10:03:11Z</time>
      </trkpt>
      <trkpt lat="44.71605" lon="5.21829">
        <ele>590.8</ele>
        <time>2019-06-16T10:03:12Z</time>
      </trkpt>
      <trkpt lat="44.71602" lon="5.21831">
        <ele>590.8</ele>
        <time>2019-06-16T10:03:15Z</time>
      </trkpt>
      <trkpt lat="44.71599" lon="5.21833">
        <ele>590.8</ele>
        <time>2019-06-16T10:03:17Z</time>
      </trkpt>
      <trkpt lat="44.71587" lon="5.21834">
        <ele>590.8</ele>
        <time>2019-06-16T10:03:27Z</time>
      </trkpt>
      <trkpt lat="44.71586" lon="5.21834">
        <ele>591.2</ele>
        <time>2019-06-16T10:03:28Z</time>
      </trkpt>
      <trkpt lat="44.71585" lon="5.21835">
        <ele>591.6</ele>
        <time>2019-06-16T10:03:29Z</time>
      </trkpt>
      <trkpt lat="44.71584" lon="5.21835">
        <ele>592</ele>
        <time>2019-06-16T10:03:30Z</time>
      </trkpt>
      <trkpt lat="44.71583" lon="5.21836">
        <ele>592.4</ele>
        <time>2019-06-16T10:03:31Z</time>
      </trkpt>
      <trkpt lat="44.71581" lon="5.21836">
        <ele>592.8</ele>
        <time>2019-06-16T10:03:32Z</time>
      </trkpt>
      <trkpt lat="44.71574" lon="5.21837">
        <ele>592.8</ele>
        <time>2019-06-16T10:03:39Z</time>
      </trkpt>
      <trkpt lat="44.71571" lon="5.2184">
        <ele>593.2</ele>
        <time>2019-06-16T10:03:43Z</time>
      </trkpt>
      <trkpt lat="44.7157" lon="5.21841">
        <ele>593.6</ele>
        <time>2019-06-16T10:03:44Z</time>
      </trkpt>
      <trkpt lat="44.7157" lon="5.21842">
        <ele>594</ele>
        <time>2019-06-16T10:03:45Z</time>
      </trkpt>
      <trkpt lat="44.71568" lon="5.21842">
        <ele>594.4</ele>
        <time>2019-06-16T10:03:46Z</time>
      </trkpt>
      <trkpt lat="44.71567" lon="5.21843">
        <ele>594.8</ele>
        <time>2019-06-16T10:03:47Z</time>
      </trkpt>
      <trkpt lat="44.71563" lon="5.21845">
        <ele>594.8</ele>
        <time>2019-06-16T10:03:51Z</time>
      </trkpt>
      <trkpt lat="44.71548" lon="5.21854">
        <ele>595.2</ele>
        <time>2019-06-16T10:04:03Z</time>
      </trkpt>
      <trkpt lat="44.71547" lon="5.21854">
        <ele>595.6</ele>
        <time>2019-06-16T10:04:04Z</time>
      </trkpt>
      <trkpt lat="44.71547" lon="5.21854">
        <ele>596</ele>
        <time>2019-06-16T10:04:05Z</time>
      </trkpt>
      <trkpt lat="44.71546" lon="5.21853">
        <ele>596.4</ele>
        <time>2019-06-16T10:04:06Z</time>
      </trkpt>
      <trkpt lat="44.71545" lon="5.21853">
        <ele>596.8</ele>
        <time>2019-06-16T10:04:07Z</time>
      </trkpt>
      <trkpt lat="44.71541" lon="5.21852">
        <ele>596.8</ele>
        <time>2019-06-16T10:04:12Z</time>
      </trkpt>
      <trkpt lat="44.71533" lon="5.21849">
        <ele>596.8</ele>
        <time>2019-06-16T10:04:20Z</time>
      </trkpt>
      <trkpt lat="44.71529" lon="5.21849">
        <ele>597.4</ele>
        <time>2019-06-16T10:04:25Z</time>
      </trkpt>
      <trkpt lat="44.71528" lon="5.21848">
        <ele>597.8</ele>
        <time>2019-06-16T10:04:26Z</time>
      </trkpt>
      <trkpt lat="44.71527" lon="5.21847">
        <ele>598.2</ele>
        <time>2019-06-16T10:04:27Z</time>
      </trkpt>
      <trkpt lat="44.71526" lon="5.21847">
        <ele>598.6</ele>
        <time>2019-06-16T10:04:28Z</time>
      </trkpt>
      <trkpt lat="44.71525" lon="5.21846">
        <ele>599.2</ele>
        <time>2019-06-16T10:04:29Z</time>
      </trkpt>
      <trkpt lat="44.71515" lon="5.21844">
        <ele>599.2</ele>
        <time>2019-06-16T10:04:40Z</time>
      </trkpt>
      <trkpt lat="44.71513" lon="5.21844">
        <ele>599.6</ele>
        <time>2019-06-16T10:04:42Z</time>
      </trkpt>
      <trkpt lat="44.71513" lon="5.21845">
        <ele>600</ele>
        <time>2019-06-16T10:04:43Z</time>
      </trkpt>
      <trkpt lat="44.71512" lon="5.21844">
        <ele>600.4</ele>
        <time>2019-06-16T10:04:44Z</time>
      </trkpt>
      <trkpt lat="44.71511" lon="5.21844">
        <ele>600.8</ele>
        <time>2019-06-16T10:04:45Z</time>
      </trkpt>
      <trkpt lat="44.7151" lon="5.21844">
        <ele>601.2</ele>
        <time>2019-06-16T10:04:46Z</time>
      </trkpt>
      <trkpt lat="44.71508" lon="5.21845">
        <ele>601.2</ele>
        <time>2019-06-16T10:04:49Z</time>
      </trkpt>
      <trkpt lat="44.71498" lon="5.21848">
        <ele>601.6</ele>
        <time>2019-06-16T10:05:00Z</time>
      </trkpt>
      <trkpt lat="44.71496" lon="5.21848">
        <ele>602.2</ele>
        <time>2019-06-16T10:05:01Z</time>
      </trkpt>
      <trkpt lat="44.71495" lon="5.21848">
        <ele>602.6</ele>
        <time>2019-06-16T10:05:02Z</time>
      </trkpt>
      <trkpt lat="44.71494" lon="5.21848">
        <ele>603</ele>
        <time>2019-06-16T10:05:03Z</time>
      </trkpt>
      <trkpt lat="44.71492" lon="5.21849">
        <ele>603.4</ele>
        <time>2019-06-16T10:05:04Z</time>
      </trkpt>
      <trkpt lat="44.71479" lon="5.21856">
        <ele>603.4</ele>
        <time>2019-06-16T10:05:16Z</time>
      </trkpt>
      <trkpt lat="44.71474" lon="5.21859">
        <ele>603.8</ele>
        <time>2019-06-16T10:05:20Z</time>
      </trkpt>
      <trkpt lat="44.71473" lon="5.2186">
        <ele>604.2</ele>
        <time>2019-06-16T10:05:21Z</time>
      </trkpt>
      <trkpt lat="44.71473" lon="5.2186">
        <ele>604.8</ele>
        <time>2019-06-16T10:05:22Z</time>
      </trkpt>
      <trkpt lat="44.71472" lon="5.21862">
        <ele>605.2</ele>
        <time>2019-06-16T10:05:23Z</time>
      </trkpt>
      <trkpt lat="44.71471" lon="5.21863">
        <ele>605.6</ele>
        <time>2019-06-16T10:05:24Z</time>
      </trkpt>
      <trkpt lat="44.7147" lon="5.21863">
        <ele>605.6</ele>
        <time>2019-06-16T10:05:25Z</time>
      </trkpt>
      <trkpt lat="44.71461" lon="5.2187">
        <ele>606</ele>
        <time>2019-06-16T10:05:35Z</time>
      </trkpt>
      <trkpt lat="44.7146" lon="5.2187">
        <ele>606.4</ele>
        <time>2019-06-16T10:05:36Z</time>
      </trkpt>
      <trkpt lat="44.71459" lon="5.21871">
        <ele>606.8</ele>
        <time>2019-06-16T10:05:37Z</time>
      </trkpt>
      <trkpt lat="44.71458" lon="5.21872">
        <ele>607.2</ele>
        <time>2019-06-16T10:05:38Z</time>
      </trkpt>
      <trkpt lat="44.71456" lon="5.21874">
        <ele>607.6</ele>
        <time>2019-06-16T10:05:39Z</time>
      </trkpt>
      <trkpt lat="44.71452" lon="5.21876">
        <ele>607.6</ele>
        <time>2019-06-16T10:05:43Z</time>
      </trkpt>
      <trkpt lat="44.71448" lon="5.2188">
        <ele>608</ele>
        <time>2019-06-16T10:05:50Z</time>
      </trkpt>
      <trkpt lat="44.71448" lon="5.21881">
        <ele>608.4</ele>
        <time>2019-06-16T10:05:51Z</time>
      </trkpt>
      <trkpt lat="44.71447" lon="5.21882">
        <ele>608.8</ele>
        <time>2019-06-16T10:05:52Z</time>
      </trkpt>
      <trkpt lat="44.71446" lon="5.21883">
        <ele>609.4</ele>
        <time>2019-06-16T10:05:53Z</time>
      </trkpt>
      <trkpt lat="44.71445" lon="5.21884">
        <ele>609.8</ele>
        <time>2019-06-16T10:05:54Z</time>
      </trkpt>
      <trkpt lat="44.7144" lon="5.2189">
        <ele>609.8</ele>
        <time>2019-06-16T10:05:59Z</time>
      </trkpt>
      <trkpt lat="44.71435" lon="5.21894">
        <ele>610.2</ele>
        <time>2019-06-16T10:06:05Z</time>
      </trkpt>
      <trkpt lat="44.71434" lon="5.21895">
        <ele>610.6</ele>
        <time>2019-06-16T10:06:06Z</time>
      </trkpt>
      <trkpt lat="44.71433" lon="5.21898">
        <ele>611</ele>
        <time>2019-06-16T10:06:07Z</time>
      </trkpt>
      <trkpt lat="44.71433" lon="5.21898">
        <ele>611.4</ele>
        <time>2019-06-16T10:06:08Z</time>
      </trkpt>
      <trkpt lat="44.71433" lon="5.21899">
        <ele>611.8</ele>
        <time>2019-06-16T10:06:09Z</time>
      </trkpt>
      <trkpt lat="44.71422" lon="5.21905">
        <ele>611.8</ele>
        <time>2019-06-16T10:06:20Z</time>
      </trkpt>
      <trkpt lat="44.71419" lon="5.21907">
        <ele>612.2</ele>
        <time>2019-06-16T10:06:23Z</time>
      </trkpt>
      <trkpt lat="44.71418" lon="5.21908">
        <ele>612.6</ele>
        <time>2019-06-16T10:06:24Z</time>
      </trkpt>
      <trkpt lat="44.71417" lon="5.21908">
        <ele>613</ele>
        <time>2019-06-16T10:06:25Z</time>
      </trkpt>
      <trkpt lat="44.71417" lon="5.21908">
        <ele>613.4</ele>
        <time>2019-06-16T10:06:26Z</time>
      </trkpt>
      <trkpt lat="44.71416" lon="5.21909">
        <ele>613.8</ele>
        <time>2019-06-16T10:06:27Z</time>
      </trkpt>
      <trkpt lat="44.71414" lon="5.2191">
        <ele>613.8</ele>
        <time>2019-06-16T10:06:29Z</time>
      </trkpt>
      <trkpt lat="44.71405" lon="5.21915">
        <ele>614.2</ele>
        <time>2019-06-16T10:06:37Z</time>
      </trkpt>
      <trkpt lat="44.71404" lon="5.21916">
        <ele>614.6</ele>
        <time>2019-06-16T10:06:38Z</time>
      </trkpt>
      <trkpt lat="44.71403" lon="5.21917">
        <ele>615</ele>
        <time>2019-06-16T10:06:39Z</time>
      </trkpt>
      <trkpt lat="44.71402" lon="5.21918">
        <ele>615.6</ele>
        <time>2019-06-16T10:06:40Z</time>
      </trkpt>
      <trkpt lat="44.71401" lon="5.21919">
        <ele>616</ele>
        <time>2019-06-16T10:06:41Z</time>
      </trkpt>
      <trkpt lat="44.71395" lon="5.21923">
        <ele>616</ele>
        <time>2019-06-16T10:06:49Z</time>
      </trkpt>
      <trkpt lat="44.71386" lon="5.21929">
        <ele>616.4</ele>
        <time>2019-06-16T10:06:59Z</time>
      </trkpt>
      <trkpt lat="44.71385" lon="5.2193">
        <ele>616.8</ele>
        <time>2019-06-16T10:07:00Z</time>
      </trkpt>
      <trkpt lat="44.71384" lon="5.21931">
        <ele>617.2</ele>
        <time>2019-06-16T10:07:01Z</time>
      </trkpt>
      <trkpt lat="44.71383" lon="5.21931">
        <ele>617.6</ele>
        <time>2019-06-16T10:07:02Z</time>
      </trkpt>
      <trkpt lat="44.71383" lon="5.21932">
        <ele>618</ele>
        <time>2019-06-16T10:07:03Z</time>
      </trkpt>
      <trkpt lat="44.71376" lon="5.21942">
        <ele>618.4</ele>
        <time>2019-06-16T10:07:15Z</time>
      </trkpt>
      <trkpt lat="44.71376" lon="5.21942">
        <ele>619</ele>
        <time>2019-06-16T10:07:16Z</time>
      </trkpt>
      <trkpt lat="44.71376" lon="5.21942">
        <ele>619.4</ele>
        <time>2019-06-16T10:07:17Z</time>
      </trkpt>
      <trkpt lat="44.71375" lon="5.21942">
        <ele>619.8</ele>
        <time>2019-06-16T10:07:18Z</time>
      </trkpt>
      <trkpt lat="44.71375" lon="5.21942">
        <ele>620.4</ele>
        <time>2019-06-16T10:07:19Z</time>
      </trkpt>
      <trkpt lat="44.71374" lon="5.21941">
        <ele>620.4</ele>
        <time>2019-06-16T10:07:23Z</time>
      </trkpt>
      <trkpt lat="44.7137" lon="5.21947">
        <ele>620.4</ele>
        <time>2019-06-16T10:07:45Z</time>
      </trkpt>
      <trkpt lat="44.7137" lon="5.21966">
        <ele>620.4</ele>
        <time>2019-06-16T10:07:56Z</time>
      </trkpt>
      <trkpt lat="44.71366" lon="5.21974">
        <ele>620.4</ele>
        <time>2019-06-16T10:08:02Z</time>
      </trkpt>
      <trkpt lat="44.71364" lon="5.2198">
        <ele>620.8</ele>
        <time>2019-06-16T10:08:06Z</time>
      </trkpt>
      <trkpt lat="44.71364" lon="5.21981">
        <ele>621.2</ele>
        <time>2019-06-16T10:08:07Z</time>
      </trkpt>
      <trkpt lat="44.71364" lon="5.21982">
        <ele>621.6</ele>
        <time>2019-06-16T10:08:08Z</time>
      </trkpt>
      <trkpt lat="44.71363" lon="5.21983">
        <ele>622</ele>
        <time>2019-06-16T10:08:09Z</time>
      </trkpt>
      <trkpt lat="44.71363" lon="5.21984">
        <ele>622.4</ele>
        <time>2019-06-16T10:08:10Z</time>
      </trkpt>
      <trkpt lat="44.7136" lon="5.21986">
        <ele>622.4</ele>
        <time>2019-06-16T10:08:12Z</time>
      </trkpt>
      <trkpt lat="44.7135" lon="5.21997">
        <ele>622.4</ele>
        <time>2019-06-16T10:08:22Z</time>
      </trkpt>
      <trkpt lat="44.71349" lon="5.22012">
        <ele>622.4</ele>
        <time>2019-06-16T10:08:30Z</time>
      </trkpt>
      <trkpt lat="44.71357" lon="5.22028">
        <ele>622.4</ele>
        <time>2019-06-16T10:08:38Z</time>
      </trkpt>
      <trkpt lat="44.7137" lon="5.22047">
        <ele>622.4</ele>
        <time>2019-06-16T10:08:47Z</time>
      </trkpt>
      <trkpt lat="44.71384" lon="5.22056">
        <ele>622.4</ele>
        <time>2019-06-16T10:08:55Z</time>
      </trkpt>
      <trkpt lat="44.71393" lon="5.22065">
        <ele>622.4</ele>
        <time>2019-06-16T10:09:03Z</time>
      </trkpt>
      <trkpt lat="44.71402" lon="5.22076">
        <ele>622.4</ele>
        <time>2019-06-16T10:09:12Z</time>
      </trkpt>
      <trkpt lat="44.7141" lon="5.2209">
        <ele>622.8</ele>
        <time>2019-06-16T10:09:22Z</time>
      </trkpt>
      <trkpt lat="44.71411" lon="5.22092">
        <ele>623.2</ele>
        <time>2019-06-16T10:09:23Z</time>
      </trkpt>
      <trkpt lat="44.71412" lon="5.22093">
        <ele>623.8</ele>
        <time>2019-06-16T10:09:24Z</time>
      </trkpt>
      <trkpt lat="44.71413" lon="5.22095">
        <ele>624.2</ele>
        <time>2019-06-16T10:09:25Z</time>
      </trkpt>
      <trkpt lat="44.71413" lon="5.22097">
        <ele>624.8</ele>
        <time>2019-06-16T10:09:26Z</time>
      </trkpt>
      <trkpt lat="44.71414" lon="5.22102">
        <ele>624.8</ele>
        <time>2019-06-16T10:09:29Z</time>
      </trkpt>
      <trkpt lat="44.71417" lon="5.22116">
        <ele>624.8</ele>
        <time>2019-06-16T10:09:37Z</time>
      </trkpt>
      <trkpt lat="44.7142" lon="5.22132">
        <ele>624.8</ele>
        <time>2019-06-16T10:09:47Z</time>
      </trkpt>
      <trkpt lat="44.71422" lon="5.22143">
        <ele>624.8</ele>
        <time>2019-06-16T10:09:54Z</time>
      </trkpt>
      <trkpt lat="44.71425" lon="5.22146">
        <ele>624.8</ele>
        <time>2019-06-16T10:10:00Z</time>
      </trkpt>
      <trkpt lat="44.71426" lon="5.22146">
        <ele>625.2</ele>
        <time>2019-06-16T10:10:03Z</time>
      </trkpt>
      <trkpt lat="44.71426" lon="5.22146">
        <ele>625.6</ele>
        <time>2019-06-16T10:10:04Z</time>
      </trkpt>
      <trkpt lat="44.71426" lon="5.22146">
        <ele>626</ele>
        <time>2019-06-16T10:10:05Z</time>
      </trkpt>
      <trkpt lat="44.71426" lon="5.22146">
        <ele>626.4</ele>
        <time>2019-06-16T10:10:06Z</time>
      </trkpt>
      <trkpt lat="44.71426" lon="5.22146">
        <ele>626.8</ele>
        <time>2019-06-16T10:10:07Z</time>
      </trkpt>
      <trkpt lat="44.71426" lon="5.22147">
        <ele>626.8</ele>
        <time>2019-06-16T10:10:24Z</time>
      </trkpt>
      <trkpt lat="44.71421" lon="5.22164">
        <ele>626.8</ele>
        <time>2019-06-16T10:11:02Z</time>
      </trkpt>
      <trkpt lat="44.71416" lon="5.22187">
        <ele>626.8</ele>
        <time>2019-06-16T10:11:12Z</time>
      </trkpt>
      <trkpt lat="44.71411" lon="5.22213">
        <ele>626.8</ele>
        <time>2019-06-16T10:11:19Z</time>
      </trkpt>
      <trkpt lat="44.71406" lon="5.22233">
        <ele>626.8</ele>
        <time>2019-06-16T10:11:27Z</time>
      </trkpt>
      <trkpt lat="44.71399" lon="5.2225">
        <ele>626.8</ele>
        <time>2019-06-16T10:11:33Z</time>
      </trkpt>
      <trkpt lat="44.71396" lon="5.22256">
        <ele>627.2</ele>
        <time>2019-06-16T10:11:36Z</time>
      </trkpt>
      <trkpt lat="44.71395" lon="5.22259">
        <ele>627.6</ele>
        <time>2019-06-16T10:11:37Z</time>
      </trkpt>
      <trkpt lat="44.71394" lon="5.2226">
        <ele>628</ele>
        <time>2019-06-16T10:11:38Z</time>
      </trkpt>
      <trkpt lat="44.71393" lon="5.22262">
        <ele>628.4</ele>
        <time>2019-06-16T10:11:39Z</time>
      </trkpt>
      <trkpt lat="44.71392" lon="5.22264">
        <ele>629</ele>
        <time>2019-06-16T10:11:40Z</time>
      </trkpt>
      <trkpt lat="44.71388" lon="5.22271">
        <ele>629</ele>
        <time>2019-06-16T10:11:44Z</time>
      </trkpt>
      <trkpt lat="44.71385" lon="5.22279">
        <ele>629.4</ele>
        <time>2019-06-16T10:11:48Z</time>
      </trkpt>
      <trkpt lat="44.71384" lon="5.2228">
        <ele>629.8</ele>
        <time>2019-06-16T10:11:49Z</time>
      </trkpt>
      <trkpt lat="44.71383" lon="5.22282">
        <ele>630.2</ele>
        <time>2019-06-16T10:11:50Z</time>
      </trkpt>
      <trkpt lat="44.71381" lon="5.22283">
        <ele>630.6</ele>
        <time>2019-06-16T10:11:51Z</time>
      </trkpt>
      <trkpt lat="44.7138" lon="5.22284">
        <ele>631</ele>
        <time>2019-06-16T10:11:52Z</time>
      </trkpt>
      <trkpt lat="44.71371" lon="5.22297">
        <ele>631</ele>
        <time>2019-06-16T10:12:01Z</time>
      </trkpt>
      <trkpt lat="44.71366" lon="5.22304">
        <ele>631.4</ele>
        <time>2019-06-16T10:12:06Z</time>
      </trkpt>
      <trkpt lat="44.71365" lon="5.22305">
        <ele>631.8</ele>
        <time>2019-06-16T10:12:07Z</time>
      </trkpt>
      <trkpt lat="44.71364" lon="5.22307">
        <ele>632.2</ele>
        <time>2019-06-16T10:12:08Z</time>
      </trkpt>
      <trkpt lat="44.71363" lon="5.22308">
        <ele>632.6</ele>
        <time>2019-06-16T10:12:09Z</time>
      </trkpt>
      <trkpt lat="44.71362" lon="5.22309">
        <ele>633</ele>
        <time>2019-06-16T10:12:10Z</time>
      </trkpt>
      <trkpt lat="44.71355" lon="5.2232">
        <ele>633.4</ele>
        <time>2019-06-16T10:12:18Z</time>
      </trkpt>
      <trkpt lat="44.71354" lon="5.22321">
        <ele>633.8</ele>
        <time>2019-06-16T10:12:19Z</time>
      </trkpt>
      <trkpt lat="44.71354" lon="5.22322">
        <ele>634.4</ele>
        <time>2019-06-16T10:12:20Z</time>
      </trkpt>
      <trkpt lat="44.71354" lon="5.22322">
        <ele>634.8</ele>
        <time>2019-06-16T10:12:21Z</time>
      </trkpt>
      <trkpt lat="44.71353" lon="5.22324">
        <ele>635.2</ele>
        <time>2019-06-16T10:12:22Z</time>
      </trkpt>
      <trkpt lat="44.71352" lon="5.22326">
        <ele>635.2</ele>
        <time>2019-06-16T10:12:24Z</time>
      </trkpt>
      <trkpt lat="44.71347" lon="5.22334">
        <ele>635.6</ele>
        <time>2019-06-16T10:12:33Z</time>
      </trkpt>
      <trkpt lat="44.71347" lon="5.22335">
        <ele>636</ele>
        <time>2019-06-16T10:12:34Z</time>
      </trkpt>
      <trkpt lat="44.71346" lon="5.22336">
        <ele>636.4</ele>
        <time>2019-06-16T10:12:35Z</time>
      </trkpt>
      <trkpt lat="44.71346" lon="5.22337">
        <ele>636.8</ele>
        <time>2019-06-16T10:12:36Z</time>
      </trkpt>
      <trkpt lat="44.71346" lon="5.22338">
        <ele>637.2</ele>
        <time>2019-06-16T10:12:37Z</time>
      </trkpt>
      <trkpt lat="44.71346" lon="5.22338">
        <ele>637.2</ele>
        <time>2019-06-16T10:12:38Z</time>
      </trkpt>
      <trkpt lat="44.71343" lon="5.22342">
        <ele>637.2</ele>
        <time>2019-06-16T10:12:56Z</time>
      </trkpt>
      <trkpt lat="44.71341" lon="5.2234">
        <ele>637.2</ele>
        <time>2019-06-16T10:13:43Z</time>
      </trkpt>
      <trkpt lat="44.71351" lon="5.22352">
        <ele>637.2</ele>
        <time>2019-06-16T10:14:01Z</time>
      </trkpt>
      <trkpt lat="44.71361" lon="5.22364">
        <ele>637.2</ele>
        <time>2019-06-16T10:14:07Z</time>
      </trkpt>
      <trkpt lat="44.7137" lon="5.22385">
        <ele>637.2</ele>
        <time>2019-06-16T10:14:13Z</time>
      </trkpt>
      <trkpt lat="44.71372" lon="5.22389">
        <ele>636.8</ele>
        <time>2019-06-16T10:14:14Z</time>
      </trkpt>
      <trkpt lat="44.71374" lon="5.22394">
        <ele>636.4</ele>
        <time>2019-06-16T10:14:15Z</time>
      </trkpt>
      <trkpt lat="44.71376" lon="5.22398">
        <ele>636</ele>
        <time>2019-06-16T10:14:16Z</time>
      </trkpt>
      <trkpt lat="44.71377" lon="5.22402">
        <ele>635.6</ele>
        <time>2019-06-16T10:14:17Z</time>
      </trkpt>
      <trkpt lat="44.71379" lon="5.22405">
        <ele>635.2</ele>
        <time>2019-06-16T10:14:18Z</time>
      </trkpt>
      <trkpt lat="44.7138" lon="5.22407">
        <ele>635.2</ele>
        <time>2019-06-16T10:14:19Z</time>
      </trkpt>
      <trkpt lat="44.71384" lon="5.22425">
        <ele>635.2</ele>
        <time>2019-06-16T10:14:25Z</time>
      </trkpt>
      <trkpt lat="44.71391" lon="5.22442">
        <ele>635.2</ele>
        <time>2019-06-16T10:14:32Z</time>
      </trkpt>
      <trkpt lat="44.71392" lon="5.22459">
        <ele>635.2</ele>
        <time>2019-06-16T10:14:37Z</time>
      </trkpt>
      <trkpt lat="44.71394" lon="5.22469">
        <ele>634.8</ele>
        <time>2019-06-16T10:14:41Z</time>
      </trkpt>
      <trkpt lat="44.71395" lon="5.22471">
        <ele>634.4</ele>
        <time>2019-06-16T10:14:42Z</time>
      </trkpt>
      <trkpt lat="44.71396" lon="5.22474">
        <ele>634</ele>
        <time>2019-06-16T10:14:43Z</time>
      </trkpt>
      <trkpt lat="44.71397" lon="5.22476">
        <ele>633.6</ele>
        <time>2019-06-16T10:14:44Z</time>
      </trkpt>
      <trkpt lat="44.71397" lon="5.22479">
        <ele>633.2</ele>
        <time>2019-06-16T10:14:45Z</time>
      </trkpt>
      <trkpt lat="44.71398" lon="5.22485">
        <ele>633.2</ele>
        <time>2019-06-16T10:14:47Z</time>
      </trkpt>
      <trkpt lat="44.71399" lon="5.22502">
        <ele>633.2</ele>
        <time>2019-06-16T10:14:53Z</time>
      </trkpt>
      <trkpt lat="44.71401" lon="5.22521">
        <ele>633.2</ele>
        <time>2019-06-16T10:14:59Z</time>
      </trkpt>
      <trkpt lat="44.71402" lon="5.22524">
        <ele>632.6</ele>
        <time>2019-06-16T10:15:00Z</time>
      </trkpt>
      <trkpt lat="44.71403" lon="5.22527">
        <ele>632.2</ele>
        <time>2019-06-16T10:15:01Z</time>
      </trkpt>
      <trkpt lat="44.71404" lon="5.22531">
        <ele>631.6</ele>
        <time>2019-06-16T10:15:02Z</time>
      </trkpt>
      <trkpt lat="44.71405" lon="5.22534">
        <ele>631</ele>
        <time>2019-06-16T10:15:03Z</time>
      </trkpt>
      <trkpt lat="44.71405" lon="5.22537">
        <ele>630.6</ele>
        <time>2019-06-16T10:15:04Z</time>
      </trkpt>
      <trkpt lat="44.71405" lon="5.22543">
        <ele>630.6</ele>
        <time>2019-06-16T10:15:06Z</time>
      </trkpt>
      <trkpt lat="44.71403" lon="5.22564">
        <ele>630.6</ele>
        <time>2019-06-16T10:15:14Z</time>
      </trkpt>
      <trkpt lat="44.71403" lon="5.22572">
        <ele>630.6</ele>
        <time>2019-06-16T10:15:21Z</time>
      </trkpt>
      <trkpt lat="44.71405" lon="5.22583">
        <ele>630.6</ele>
        <time>2019-06-16T10:15:35Z</time>
      </trkpt>
      <trkpt lat="44.71408" lon="5.22587">
        <ele>630.6</ele>
        <time>2019-06-16T10:15:40Z</time>
      </trkpt>
      <trkpt lat="44.71409" lon="5.22599">
        <ele>630.6</ele>
        <time>2019-06-16T10:16:17Z</time>
      </trkpt>
      <trkpt lat="44.71409" lon="5.22607">
        <ele>630.6</ele>
        <time>2019-06-16T10:16:22Z</time>
      </trkpt>
      <trkpt lat="44.71409" lon="5.22609">
        <ele>630.6</ele>
        <time>2019-06-16T10:16:40Z</time>
      </trkpt>
      <trkpt lat="44.71408" lon="5.22619">
        <ele>630.6</ele>
        <time>2019-06-16T10:16:49Z</time>
      </trkpt>
      <trkpt lat="44.71409" lon="5.22632">
        <ele>630.6</ele>
        <time>2019-06-16T10:16:59Z</time>
      </trkpt>
      <trkpt lat="44.71408" lon="5.22644">
        <ele>630.6</ele>
        <time>2019-06-16T10:17:08Z</time>
      </trkpt>
      <trkpt lat="44.71405" lon="5.22652">
        <ele>630.6</ele>
        <time>2019-06-16T10:17:13Z</time>
      </trkpt>
      <trkpt lat="44.71396" lon="5.22657">
        <ele>630.6</ele>
        <time>2019-06-16T10:17:21Z</time>
      </trkpt>
      <trkpt lat="44.71389" lon="5.22661">
        <ele>630.6</ele>
        <time>2019-06-16T10:17:27Z</time>
      </trkpt>
      <trkpt lat="44.71384" lon="5.22662">
        <ele>630.6</ele>
        <time>2019-06-16T10:17:31Z</time>
      </trkpt>
      <trkpt lat="44.71376" lon="5.22664">
        <ele>630.6</ele>
        <time>2019-06-16T10:17:57Z</time>
      </trkpt>
      <trkpt lat="44.71373" lon="5.22668">
        <ele>630.6</ele>
        <time>2019-06-16T10:18:03Z</time>
      </trkpt>
      <trkpt lat="44.71368" lon="5.22669">
        <ele>630.6</ele>
        <time>2019-06-16T10:18:13Z</time>
      </trkpt>
      <trkpt lat="44.71366" lon="5.2267">
        <ele>630.6</ele>
        <time>2019-06-16T10:18:14Z</time>
      </trkpt>
      <trkpt lat="44.71365" lon="5.2267">
        <ele>631</ele>
        <time>2019-06-16T10:18:15Z</time>
      </trkpt>
      <trkpt lat="44.71363" lon="5.22671">
        <ele>631.4</ele>
        <time>2019-06-16T10:18:16Z</time>
      </trkpt>
      <trkpt lat="44.71361" lon="5.2267">
        <ele>631.8</ele>
        <time>2019-06-16T10:18:17Z</time>
      </trkpt>
      <trkpt lat="44.7136" lon="5.22671">
        <ele>632.2</ele>
        <time>2019-06-16T10:18:18Z</time>
      </trkpt>
      <trkpt lat="44.71359" lon="5.22671">
        <ele>632.8</ele>
        <time>2019-06-16T10:18:19Z</time>
      </trkpt>
      <trkpt lat="44.71359" lon="5.22673">
        <ele>632.8</ele>
        <time>2019-06-16T10:18:21Z</time>
      </trkpt>
      <trkpt lat="44.71355" lon="5.22677">
        <ele>632.8</ele>
        <time>2019-06-16T10:18:28Z</time>
      </trkpt>
      <trkpt lat="44.71354" lon="5.22679">
        <ele>633.2</ele>
        <time>2019-06-16T10:18:30Z</time>
      </trkpt>
      <trkpt lat="44.71353" lon="5.22679">
        <ele>633.6</ele>
        <time>2019-06-16T10:18:31Z</time>
      </trkpt>
      <trkpt lat="44.71353" lon="5.2268">
        <ele>634</ele>
        <time>2019-06-16T10:18:32Z</time>
      </trkpt>
      <trkpt lat="44.71352" lon="5.2268">
        <ele>634.4</ele>
        <time>2019-06-16T10:18:33Z</time>
      </trkpt>
      <trkpt lat="44.71352" lon="5.22678">
        <ele>634.8</ele>
        <time>2019-06-16T10:18:34Z</time>
      </trkpt>
      <trkpt lat="44.71349" lon="5.22678">
        <ele>634.8</ele>
        <time>2019-06-16T10:18:38Z</time>
      </trkpt>
      <trkpt lat="44.71339" lon="5.22672">
        <ele>634.8</ele>
        <time>2019-06-16T10:18:45Z</time>
      </trkpt>
      <trkpt lat="44.71336" lon="5.22671">
        <ele>635.4</ele>
        <time>2019-06-16T10:18:47Z</time>
      </trkpt>
      <trkpt lat="44.71335" lon="5.22671">
        <ele>635.8</ele>
        <time>2019-06-16T10:18:48Z</time>
      </trkpt>
      <trkpt lat="44.71334" lon="5.2267">
        <ele>636.2</ele>
        <time>2019-06-16T10:18:49Z</time>
      </trkpt>
      <trkpt lat="44.71332" lon="5.2267">
        <ele>636.8</ele>
        <time>2019-06-16T10:18:50Z</time>
      </trkpt>
      <trkpt lat="44.71331" lon="5.22669">
        <ele>637.2</ele>
        <time>2019-06-16T10:18:51Z</time>
      </trkpt>
      <trkpt lat="44.71329" lon="5.22669">
        <ele>637.2</ele>
        <time>2019-06-16T10:18:53Z</time>
      </trkpt>
      <trkpt lat="44.71326" lon="5.22669">
        <ele>637.6</ele>
        <time>2019-06-16T10:18:55Z</time>
      </trkpt>
      <trkpt lat="44.71325" lon="5.22669">
        <ele>638.2</ele>
        <time>2019-06-16T10:18:56Z</time>
      </trkpt>
      <trkpt lat="44.71324" lon="5.22669">
        <ele>638.6</ele>
        <time>2019-06-16T10:18:57Z</time>
      </trkpt>
      <trkpt lat="44.71322" lon="5.22669">
        <ele>639.2</ele>
        <time>2019-06-16T10:18:58Z</time>
      </trkpt>
      <trkpt lat="44.71321" lon="5.22668">
        <ele>639.6</ele>
        <time>2019-06-16T10:18:59Z</time>
      </trkpt>
      <trkpt lat="44.71318" lon="5.22667">
        <ele>639.6</ele>
        <time>2019-06-16T10:19:02Z</time>
      </trkpt>
      <trkpt lat="44.71315" lon="5.22667">
        <ele>640</ele>
        <time>2019-06-16T10:19:05Z</time>
      </trkpt>
      <trkpt lat="44.71314" lon="5.22668">
        <ele>640.6</ele>
        <time>2019-06-16T10:19:06Z</time>
      </trkpt>
      <trkpt lat="44.71313" lon="5.22668">
        <ele>641</ele>
        <time>2019-06-16T10:19:07Z</time>
      </trkpt>
      <trkpt lat="44.71312" lon="5.22668">
        <ele>641.4</ele>
        <time>2019-06-16T10:19:08Z</time>
      </trkpt>
      <trkpt lat="44.71311" lon="5.22668">
        <ele>641.8</ele>
        <time>2019-06-16T10:19:09Z</time>
      </trkpt>
      <trkpt lat="44.71306" lon="5.22669">
        <ele>641.8</ele>
        <time>2019-06-16T10:19:12Z</time>
      </trkpt>
      <trkpt lat="44.71305" lon="5.2267">
        <ele>642.2</ele>
        <time>2019-06-16T10:19:13Z</time>
      </trkpt>
      <trkpt lat="44.71303" lon="5.22671">
        <ele>642.6</ele>
        <time>2019-06-16T10:19:14Z</time>
      </trkpt>
      <trkpt lat="44.71302" lon="5.22671">
        <ele>643</ele>
        <time>2019-06-16T10:19:15Z</time>
      </trkpt>
      <trkpt lat="44.71301" lon="5.22672">
        <ele>643.6</ele>
        <time>2019-06-16T10:19:16Z</time>
      </trkpt>
      <trkpt lat="44.71299" lon="5.22672">
        <ele>644</ele>
        <time>2019-06-16T10:19:17Z</time>
      </trkpt>
      <trkpt lat="44.71293" lon="5.22676">
        <ele>644.4</ele>
        <time>2019-06-16T10:19:23Z</time>
      </trkpt>
      <trkpt lat="44.71292" lon="5.22676">
        <ele>644.8</ele>
        <time>2019-06-16T10:19:24Z</time>
      </trkpt>
      <trkpt lat="44.71291" lon="5.22676">
        <ele>645.2</ele>
        <time>2019-06-16T10:19:25Z</time>
      </trkpt>
      <trkpt lat="44.7129" lon="5.22677">
        <ele>645.6</ele>
        <time>2019-06-16T10:19:26Z</time>
      </trkpt>
      <trkpt lat="44.71289" lon="5.22678">
        <ele>646</ele>
        <time>2019-06-16T10:19:27Z</time>
      </trkpt>
      <trkpt lat="44.71287" lon="5.22678">
        <ele>646.6</ele>
        <time>2019-06-16T10:19:29Z</time>
      </trkpt>
      <trkpt lat="44.71287" lon="5.22678">
        <ele>647</ele>
        <time>2019-06-16T10:19:30Z</time>
      </trkpt>
      <trkpt lat="44.71287" lon="5.22678">
        <ele>647.4</ele>
        <time>2019-06-16T10:19:31Z</time>
      </trkpt>
      <trkpt lat="44.71287" lon="5.22677">
        <ele>647.8</ele>
        <time>2019-06-16T10:19:32Z</time>
      </trkpt>
      <trkpt lat="44.71287" lon="5.22677">
        <ele>648.2</ele>
        <time>2019-06-16T10:19:33Z</time>
      </trkpt>
      <trkpt lat="44.71285" lon="5.22678">
        <ele>648.2</ele>
        <time>2019-06-16T10:19:41Z</time>
      </trkpt>
      <trkpt lat="44.71285" lon="5.22679">
        <ele>648.6</ele>
        <time>2019-06-16T10:22:06Z</time>
      </trkpt>
      <trkpt lat="44.71285" lon="5.22679">
        <ele>649</ele>
        <time>2019-06-16T10:22:07Z</time>
      </trkpt>
      <trkpt lat="44.71285" lon="5.22679">
        <ele>649.4</ele>
        <time>2019-06-16T10:22:08Z</time>
      </trkpt>
      <trkpt lat="44.71285" lon="5.22679">
        <ele>650</ele>
        <time>2019-06-16T10:22:09Z</time>
      </trkpt>
      <trkpt lat="44.71285" lon="5.2268">
        <ele>650.4</ele>
        <time>2019-06-16T10:22:10Z</time>
      </trkpt>
      <trkpt lat="44.71278" lon="5.22684">
        <ele>650.8</ele>
        <time>2019-06-16T10:22:19Z</time>
      </trkpt>
      <trkpt lat="44.71278" lon="5.22685">
        <ele>651.2</ele>
        <time>2019-06-16T10:22:20Z</time>
      </trkpt>
      <trkpt lat="44.71278" lon="5.22685">
        <ele>651.6</ele>
        <time>2019-06-16T10:22:21Z</time>
      </trkpt>
      <trkpt lat="44.71277" lon="5.22686">
        <ele>652</ele>
        <time>2019-06-16T10:22:22Z</time>
      </trkpt>
      <trkpt lat="44.71277" lon="5.22686">
        <ele>652.4</ele>
        <time>2019-06-16T10:22:23Z</time>
      </trkpt>
      <trkpt lat="44.71276" lon="5.22687">
        <ele>652.4</ele>
        <time>2019-06-16T10:22:24Z</time>
      </trkpt>
      <trkpt lat="44.7127" lon="5.22694">
        <ele>652.8</ele>
        <time>2019-06-16T10:22:36Z</time>
      </trkpt>
      <trkpt lat="44.7127" lon="5.22694">
        <ele>653.2</ele>
        <time>2019-06-16T10:22:37Z</time>
      </trkpt>
      <trkpt lat="44.71269" lon="5.22694">
        <ele>653.6</ele>
        <time>2019-06-16T10:22:38Z</time>
      </trkpt>
      <trkpt lat="44.71269" lon="5.22694">
        <ele>654</ele>
        <time>2019-06-16T10:22:39Z</time>
      </trkpt>
      <trkpt lat="44.71269" lon="5.22694">
        <ele>654.4</ele>
        <time>2019-06-16T10:22:40Z</time>
      </trkpt>
      <trkpt lat="44.71263" lon="5.227">
        <ele>654.4</ele>
        <time>2019-06-16T10:22:56Z</time>
      </trkpt>
      <trkpt lat="44.7126" lon="5.22704">
        <ele>654.8</ele>
        <time>2019-06-16T10:23:02Z</time>
      </trkpt>
      <trkpt lat="44.7126" lon="5.22705">
        <ele>655.2</ele>
        <time>2019-06-16T10:23:03Z</time>
      </trkpt>
      <trkpt lat="44.7126" lon="5.22705">
        <ele>655.6</ele>
        <time>2019-06-16T10:23:04Z</time>
      </trkpt>
      <trkpt lat="44.7126" lon="5.22706">
        <ele>656.2</ele>
        <time>2019-06-16T10:23:05Z</time>
      </trkpt>
      <trkpt lat="44.7126" lon="5.22706">
        <ele>656.6</ele>
        <time>2019-06-16T10:23:06Z</time>
      </trkpt>
      <trkpt lat="44.7126" lon="5.22707">
        <ele>656.6</ele>
        <time>2019-06-16T10:23:07Z</time>
      </trkpt>
      <trkpt lat="44.71257" lon="5.22711">
        <ele>656.6</ele>
        <time>2019-06-16T10:23:15Z</time>
      </trkpt>
      <trkpt lat="44.71257" lon="5.22714">
        <ele>657</ele>
        <time>2019-06-16T10:23:20Z</time>
      </trkpt>
      <trkpt lat="44.71256" lon="5.22715">
        <ele>657.4</ele>
        <time>2019-06-16T10:23:21Z</time>
      </trkpt>
      <trkpt lat="44.71256" lon="5.22716">
        <ele>657.8</ele>
        <time>2019-06-16T10:23:22Z</time>
      </trkpt>
      <trkpt lat="44.71256" lon="5.22717">
        <ele>658.2</ele>
        <time>2019-06-16T10:23:23Z</time>
      </trkpt>
      <trkpt lat="44.71256" lon="5.22717">
        <ele>658.6</ele>
        <time>2019-06-16T10:23:24Z</time>
      </trkpt>
      <trkpt lat="44.71255" lon="5.22718">
        <ele>658.6</ele>
        <time>2019-06-16T10:23:27Z</time>
      </trkpt>
      <trkpt lat="44.71252" lon="5.22726">
        <ele>658.6</ele>
        <time>2019-06-16T10:24:07Z</time>
      </trkpt>
      <trkpt lat="44.7125" lon="5.22732">
        <ele>659</ele>
        <time>2019-06-16T10:24:10Z</time>
      </trkpt>
      <trkpt lat="44.71249" lon="5.22733">
        <ele>659.4</ele>
        <time>2019-06-16T10:24:11Z</time>
      </trkpt>
      <trkpt lat="44.71248" lon="5.22735">
        <ele>659.8</ele>
        <time>2019-06-16T10:24:12Z</time>
      </trkpt>
      <trkpt lat="44.71248" lon="5.22736">
        <ele>660.2</ele>
        <time>2019-06-16T10:24:13Z</time>
      </trkpt>
      <trkpt lat="44.71247" lon="5.22737">
        <ele>660.6</ele>
        <time>2019-06-16T10:24:14Z</time>
      </trkpt>
      <trkpt lat="44.71247" lon="5.22739">
        <ele>660.6</ele>
        <time>2019-06-16T10:24:16Z</time>
      </trkpt>
      <trkpt lat="44.71246" lon="5.22744">
        <ele>661</ele>
        <time>2019-06-16T10:24:20Z</time>
      </trkpt>
      <trkpt lat="44.71246" lon="5.22746">
        <ele>661.6</ele>
        <time>2019-06-16T10:24:21Z</time>
      </trkpt>
      <trkpt lat="44.71245" lon="5.22748">
        <ele>662</ele>
        <time>2019-06-16T10:24:22Z</time>
      </trkpt>
      <trkpt lat="44.71245" lon="5.2275">
        <ele>662.4</ele>
        <time>2019-06-16T10:24:23Z</time>
      </trkpt>
      <trkpt lat="44.71245" lon="5.22751">
        <ele>662.8</ele>
        <time>2019-06-16T10:24:24Z</time>
      </trkpt>
      <trkpt lat="44.71243" lon="5.22754">
        <ele>663.2</ele>
        <time>2019-06-16T10:24:27Z</time>
      </trkpt>
      <trkpt lat="44.71242" lon="5.22754">
        <ele>663.6</ele>
        <time>2019-06-16T10:24:28Z</time>
      </trkpt>
      <trkpt lat="44.71242" lon="5.22755">
        <ele>664</ele>
        <time>2019-06-16T10:24:29Z</time>
      </trkpt>
      <trkpt lat="44.71242" lon="5.22755">
        <ele>664.4</ele>
        <time>2019-06-16T10:24:30Z</time>
      </trkpt>
      <trkpt lat="44.71242" lon="5.22756">
        <ele>664.8</ele>
        <time>2019-06-16T10:24:31Z</time>
      </trkpt>
      <trkpt lat="44.71243" lon="5.22755">
        <ele>664.8</ele>
        <time>2019-06-16T10:24:33Z</time>
      </trkpt>
      <trkpt lat="44.71243" lon="5.22755">
        <ele>664.8</ele>
        <time>2019-06-16T10:24:39Z</time>
      </trkpt>
      <trkpt lat="44.71237" lon="5.22769">
        <ele>664.8</ele>
        <time>2019-06-16T10:25:06Z</time>
      </trkpt>
      <trkpt lat="44.71236" lon="5.22775">
        <ele>665.2</ele>
        <time>2019-06-16T10:25:08Z</time>
      </trkpt>
      <trkpt lat="44.71236" lon="5.22776">
        <ele>665.8</ele>
        <time>2019-06-16T10:25:09Z</time>
      </trkpt>
      <trkpt lat="44.71236" lon="5.22777">
        <ele>666.2</ele>
        <time>2019-06-16T10:25:10Z</time>
      </trkpt>
      <trkpt lat="44.71235" lon="5.22779">
        <ele>666.6</ele>
        <time>2019-06-16T10:25:11Z</time>
      </trkpt>
      <trkpt lat="44.71234" lon="5.22781">
        <ele>667</ele>
        <time>2019-06-16T10:25:12Z</time>
      </trkpt>
      <trkpt lat="44.71233" lon="5.22785">
        <ele>667.6</ele>
        <time>2019-06-16T10:25:14Z</time>
      </trkpt>
      <trkpt lat="44.71232" lon="5.22787">
        <ele>668</ele>
        <time>2019-06-16T10:25:15Z</time>
      </trkpt>
      <trkpt lat="44.71232" lon="5.22788">
        <ele>668.4</ele>
        <time>2019-06-16T10:25:16Z</time>
      </trkpt>
      <trkpt lat="44.71231" lon="5.22789">
        <ele>668.8</ele>
        <time>2019-06-16T10:25:17Z</time>
      </trkpt>
      <trkpt lat="44.71231" lon="5.2279">
        <ele>669.4</ele>
        <time>2019-06-16T10:25:18Z</time>
      </trkpt>
      <trkpt lat="44.71228" lon="5.228">
        <ele>669.4</ele>
        <time>2019-06-16T10:25:25Z</time>
      </trkpt>
      <trkpt lat="44.71228" lon="5.22801">
        <ele>669.4</ele>
        <time>2019-06-16T10:25:26Z</time>
      </trkpt>
      <trkpt lat="44.71228" lon="5.22806">
        <ele>669.4</ele>
        <time>2019-06-16T10:25:31Z</time>
      </trkpt>
      <trkpt lat="44.71226" lon="5.22807">
        <ele>669.4</ele>
        <time>2019-06-16T10:25:43Z</time>
      </trkpt>
      <trkpt lat="44.71226" lon="5.22807">
        <ele>669.4</ele>
        <time>2019-06-16T10:25:53Z</time>
      </trkpt>
      <trkpt lat="44.71225" lon="5.22807">
        <ele>669.4</ele>
        <time>2019-06-16T10:29:06Z</time>
      </trkpt>
      <trkpt lat="44.71225" lon="5.22807">
        <ele>669.8</ele>
        <time>2019-06-16T10:30:02Z</time>
      </trkpt>
      <trkpt lat="44.71225" lon="5.22807">
        <ele>670.2</ele>
        <time>2019-06-16T10:30:03Z</time>
      </trkpt>
      <trkpt lat="44.71225" lon="5.22807">
        <ele>670.6</ele>
        <time>2019-06-16T10:30:04Z</time>
      </trkpt>
      <trkpt lat="44.71225" lon="5.22807">
        <ele>671</ele>
        <time>2019-06-16T10:30:05Z</time>
      </trkpt>
      <trkpt lat="44.71225" lon="5.22807">
        <ele>671.4</ele>
        <time>2019-06-16T10:30:06Z</time>
      </trkpt>
      <trkpt lat="44.71234" lon="5.22825">
        <ele>671.4</ele>
        <time>2019-06-16T10:31:11Z</time>
      </trkpt>
      <trkpt lat="44.71236" lon="5.22843">
        <ele>671.4</ele>
        <time>2019-06-16T10:31:17Z</time>
      </trkpt>
      <trkpt lat="44.71236" lon="5.22845">
        <ele>671.8</ele>
        <time>2019-06-16T10:31:18Z</time>
      </trkpt>
      <trkpt lat="44.71236" lon="5.22848">
        <ele>672.2</ele>
        <time>2019-06-16T10:31:19Z</time>
      </trkpt>
      <trkpt lat="44.71236" lon="5.2285">
        <ele>672.6</ele>
        <time>2019-06-16T10:31:20Z</time>
      </trkpt>
      <trkpt lat="44.71235" lon="5.22851">
        <ele>673.2</ele>
        <time>2019-06-16T10:31:21Z</time>
      </trkpt>
      <trkpt lat="44.71234" lon="5.22853">
        <ele>673.6</ele>
        <time>2019-06-16T10:31:22Z</time>
      </trkpt>
      <trkpt lat="44.7123" lon="5.22856">
        <ele>673.6</ele>
        <time>2019-06-16T10:31:24Z</time>
      </trkpt>
      <trkpt lat="44.71228" lon="5.22857">
        <ele>673.6</ele>
        <time>2019-06-16T10:31:25Z</time>
      </trkpt>
      <trkpt lat="44.71212" lon="5.22864">
        <ele>673.6</ele>
        <time>2019-06-16T10:31:34Z</time>
      </trkpt>
      <trkpt lat="44.71206" lon="5.22868">
        <ele>674</ele>
        <time>2019-06-16T10:31:38Z</time>
      </trkpt>
      <trkpt lat="44.71204" lon="5.22868">
        <ele>674.4</ele>
        <time>2019-06-16T10:31:39Z</time>
      </trkpt>
      <trkpt lat="44.71203" lon="5.22869">
        <ele>674.8</ele>
        <time>2019-06-16T10:31:40Z</time>
      </trkpt>
      <trkpt lat="44.71201" lon="5.22871">
        <ele>675.2</ele>
        <time>2019-06-16T10:31:41Z</time>
      </trkpt>
      <trkpt lat="44.712" lon="5.2287">
        <ele>675.6</ele>
        <time>2019-06-16T10:31:42Z</time>
      </trkpt>
      <trkpt lat="44.71198" lon="5.22871">
        <ele>675.6</ele>
        <time>2019-06-16T10:31:43Z</time>
      </trkpt>
      <trkpt lat="44.71179" lon="5.22879">
        <ele>675.6</ele>
        <time>2019-06-16T10:31:51Z</time>
      </trkpt>
      <trkpt lat="44.71172" lon="5.2288">
        <ele>675.2</ele>
        <time>2019-06-16T10:31:53Z</time>
      </trkpt>
      <trkpt lat="44.71169" lon="5.22879">
        <ele>674.8</ele>
        <time>2019-06-16T10:31:54Z</time>
      </trkpt>
      <trkpt lat="44.71167" lon="5.22879">
        <ele>674.4</ele>
        <time>2019-06-16T10:31:55Z</time>
      </trkpt>
      <trkpt lat="44.71164" lon="5.22877">
        <ele>674</ele>
        <time>2019-06-16T10:31:56Z</time>
      </trkpt>
      <trkpt lat="44.71162" lon="5.22876">
        <ele>673.6</ele>
        <time>2019-06-16T10:31:57Z</time>
      </trkpt>
      <trkpt lat="44.71155" lon="5.2287">
        <ele>673.6</ele>
        <time>2019-06-16T10:32:00Z</time>
      </trkpt>
      <trkpt lat="44.71153" lon="5.22868">
        <ele>673.6</ele>
        <time>2019-06-16T10:32:02Z</time>
      </trkpt>
      <trkpt lat="44.7115" lon="5.22866">
        <ele>673.6</ele>
        <time>2019-06-16T10:32:09Z</time>
      </trkpt>
      <trkpt lat="44.7115" lon="5.22866">
        <ele>673.6</ele>
        <time>2019-06-16T10:33:04Z</time>
      </trkpt>
      <trkpt lat="44.71145" lon="5.22863">
        <ele>673.6</ele>
        <time>2019-06-16T10:33:41Z</time>
      </trkpt>
      <trkpt lat="44.71129" lon="5.22853">
        <ele>673.6</ele>
        <time>2019-06-16T10:33:53Z</time>
      </trkpt>
      <trkpt lat="44.71126" lon="5.22851">
        <ele>674</ele>
        <time>2019-06-16T10:33:56Z</time>
      </trkpt>
      <trkpt lat="44.71125" lon="5.2285">
        <ele>674.4</ele>
        <time>2019-06-16T10:33:57Z</time>
      </trkpt>
      <trkpt lat="44.71124" lon="5.22849">
        <ele>674.8</ele>
        <time>2019-06-16T10:33:58Z</time>
      </trkpt>
      <trkpt lat="44.71123" lon="5.22849">
        <ele>675.2</ele>
        <time>2019-06-16T10:33:59Z</time>
      </trkpt>
      <trkpt lat="44.71121" lon="5.22848">
        <ele>675.8</ele>
        <time>2019-06-16T10:34:00Z</time>
      </trkpt>
      <trkpt lat="44.71119" lon="5.22848">
        <ele>675.8</ele>
        <time>2019-06-16T10:34:01Z</time>
      </trkpt>
      <trkpt lat="44.71105" lon="5.2284">
        <ele>675.8</ele>
        <time>2019-06-16T10:34:14Z</time>
      </trkpt>
      <trkpt lat="44.71105" lon="5.22841">
        <ele>675.8</ele>
        <time>2019-06-16T10:34:20Z</time>
      </trkpt>
      <trkpt lat="44.71101" lon="5.22836">
        <ele>675.8</ele>
        <time>2019-06-16T10:34:38Z</time>
      </trkpt>
      <trkpt lat="44.71097" lon="5.22833">
        <ele>675.8</ele>
        <time>2019-06-16T10:34:40Z</time>
      </trkpt>
      <trkpt lat="44.71094" lon="5.22831">
        <ele>676.2</ele>
        <time>2019-06-16T10:34:42Z</time>
      </trkpt>
      <trkpt lat="44.71093" lon="5.2283">
        <ele>676.6</ele>
        <time>2019-06-16T10:34:43Z</time>
      </trkpt>
      <trkpt lat="44.71091" lon="5.22829">
        <ele>677.2</ele>
        <time>2019-06-16T10:34:44Z</time>
      </trkpt>
      <trkpt lat="44.7109" lon="5.22827">
        <ele>677.6</ele>
        <time>2019-06-16T10:34:45Z</time>
      </trkpt>
      <trkpt lat="44.71088" lon="5.22826">
        <ele>678</ele>
        <time>2019-06-16T10:34:46Z</time>
      </trkpt>
      <trkpt lat="44.7108" lon="5.22818">
        <ele>678</ele>
        <time>2019-06-16T10:34:51Z</time>
      </trkpt>
      <trkpt lat="44.71072" lon="5.22817">
        <ele>678</ele>
        <time>2019-06-16T10:34:55Z</time>
      </trkpt>
      <trkpt lat="44.71069" lon="5.22817">
        <ele>678.6</ele>
        <time>2019-06-16T10:34:57Z</time>
      </trkpt>
      <trkpt lat="44.71067" lon="5.22818">
        <ele>679</ele>
        <time>2019-06-16T10:34:58Z</time>
      </trkpt>
      <trkpt lat="44.71065" lon="5.22819">
        <ele>679.4</ele>
        <time>2019-06-16T10:34:59Z</time>
      </trkpt>
      <trkpt lat="44.71064" lon="5.22819">
        <ele>679.8</ele>
        <time>2019-06-16T10:35:00Z</time>
      </trkpt>
      <trkpt lat="44.71062" lon="5.2282">
        <ele>680.4</ele>
        <time>2019-06-16T10:35:01Z</time>
      </trkpt>
      <trkpt lat="44.71058" lon="5.22822">
        <ele>680.8</ele>
        <time>2019-06-16T10:35:04Z</time>
      </trkpt>
      <trkpt lat="44.71056" lon="5.22823">
        <ele>681.2</ele>
        <time>2019-06-16T10:35:05Z</time>
      </trkpt>
      <trkpt lat="44.71056" lon="5.22824">
        <ele>681.6</ele>
        <time>2019-06-16T10:35:06Z</time>
      </trkpt>
      <trkpt lat="44.71055" lon="5.22825">
        <ele>682</ele>
        <time>2019-06-16T10:35:07Z</time>
      </trkpt>
      <trkpt lat="44.71055" lon="5.22826">
        <ele>682.4</ele>
        <time>2019-06-16T10:35:08Z</time>
      </trkpt>
      <trkpt lat="44.71054" lon="5.22826">
        <ele>682.4</ele>
        <time>2019-06-16T10:35:10Z</time>
      </trkpt>
      <trkpt lat="44.71051" lon="5.22825">
        <ele>682.4</ele>
        <time>2019-06-16T10:35:40Z</time>
      </trkpt>
      <trkpt lat="44.71045" lon="5.22827">
        <ele>682.8</ele>
        <time>2019-06-16T10:36:33Z</time>
      </trkpt>
      <trkpt lat="44.71045" lon="5.22827">
        <ele>683.2</ele>
        <time>2019-06-16T10:36:34Z</time>
      </trkpt>
      <trkpt lat="44.71045" lon="5.22828">
        <ele>683.8</ele>
        <time>2019-06-16T10:36:35Z</time>
      </trkpt>
      <trkpt lat="44.71043" lon="5.22829">
        <ele>684.2</ele>
        <time>2019-06-16T10:36:36Z</time>
      </trkpt>
      <trkpt lat="44.71042" lon="5.22829">
        <ele>684.6</ele>
        <time>2019-06-16T10:36:37Z</time>
      </trkpt>
      <trkpt lat="44.71036" lon="5.22832">
        <ele>684.6</ele>
        <time>2019-06-16T10:36:43Z</time>
      </trkpt>
      <trkpt lat="44.71022" lon="5.2284">
        <ele>685</ele>
        <time>2019-06-16T10:36:50Z</time>
      </trkpt>
      <trkpt lat="44.71021" lon="5.2284">
        <ele>685.4</ele>
        <time>2019-06-16T10:36:51Z</time>
      </trkpt>
      <trkpt lat="44.7102" lon="5.22841">
        <ele>685.8</ele>
        <time>2019-06-16T10:36:52Z</time>
      </trkpt>
      <trkpt lat="44.71018" lon="5.22843">
        <ele>686.2</ele>
        <time>2019-06-16T10:36:53Z</time>
      </trkpt>
      <trkpt lat="44.71017" lon="5.22844">
        <ele>686.6</ele>
        <time>2019-06-16T10:36:54Z</time>
      </trkpt>
      <trkpt lat="44.71013" lon="5.22847">
        <ele>686.6</ele>
        <time>2019-06-16T10:36:57Z</time>
      </trkpt>
      <trkpt lat="44.71004" lon="5.22855">
        <ele>686.6</ele>
        <time>2019-06-16T10:37:05Z</time>
      </trkpt>
      <trkpt lat="44.70995" lon="5.22863">
        <ele>687</ele>
        <time>2019-06-16T10:37:12Z</time>
      </trkpt>
      <trkpt lat="44.70993" lon="5.22865">
        <ele>687.4</ele>
        <time>2019-06-16T10:37:13Z</time>
      </trkpt>
      <trkpt lat="44.70992" lon="5.22866">
        <ele>687.8</ele>
        <time>2019-06-16T10:37:14Z</time>
      </trkpt>
      <trkpt lat="44.70991" lon="5.22867">
        <ele>688.2</ele>
        <time>2019-06-16T10:37:15Z</time>
      </trkpt>
      <trkpt lat="44.70989" lon="5.22868">
        <ele>688.6</ele>
        <time>2019-06-16T10:37:16Z</time>
      </trkpt>
      <trkpt lat="44.70978" lon="5.22881">
        <ele>688.6</ele>
        <time>2019-06-16T10:37:24Z</time>
      </trkpt>
      <trkpt lat="44.7097" lon="5.22889">
        <ele>688.6</ele>
        <time>2019-06-16T10:37:30Z</time>
      </trkpt>
      <trkpt lat="44.70967" lon="5.22892">
        <ele>688.6</ele>
        <time>2019-06-16T10:37:33Z</time>
      </trkpt>
      <trkpt lat="44.70962" lon="5.22896">
        <ele>689</ele>
        <time>2019-06-16T10:37:37Z</time>
      </trkpt>
      <trkpt lat="44.70961" lon="5.22898">
        <ele>689.4</ele>
        <time>2019-06-16T10:37:38Z</time>
      </trkpt>
      <trkpt lat="44.7096" lon="5.22898">
        <ele>689.8</ele>
        <time>2019-06-16T10:37:39Z</time>
      </trkpt>
      <trkpt lat="44.70958" lon="5.22899">
        <ele>690.2</ele>
        <time>2019-06-16T10:37:40Z</time>
      </trkpt>
      <trkpt lat="44.70956" lon="5.229">
        <ele>690.6</ele>
        <time>2019-06-16T10:37:41Z</time>
      </trkpt>
      <trkpt lat="44.70953" lon="5.22903">
        <ele>690.6</ele>
        <time>2019-06-16T10:37:43Z</time>
      </trkpt>
      <trkpt lat="44.70947" lon="5.22912">
        <ele>690.6</ele>
        <time>2019-06-16T10:37:49Z</time>
      </trkpt>
      <trkpt lat="44.70936" lon="5.22913">
        <ele>691.2</ele>
        <time>2019-06-16T10:37:55Z</time>
      </trkpt>
      <trkpt lat="44.70934" lon="5.22913">
        <ele>691.6</ele>
        <time>2019-06-16T10:37:56Z</time>
      </trkpt>
      <trkpt lat="44.70932" lon="5.22914">
        <ele>692</ele>
        <time>2019-06-16T10:37:57Z</time>
      </trkpt>
      <trkpt lat="44.70929" lon="5.22915">
        <ele>692.4</ele>
        <time>2019-06-16T10:37:58Z</time>
      </trkpt>
      <trkpt lat="44.70927" lon="5.22915">
        <ele>692.8</ele>
        <time>2019-06-16T10:37:59Z</time>
      </trkpt>
      <trkpt lat="44.7092" lon="5.22921">
        <ele>692.8</ele>
        <time>2019-06-16T10:38:03Z</time>
      </trkpt>
      <trkpt lat="44.70916" lon="5.22921">
        <ele>692.8</ele>
        <time>2019-06-16T10:38:05Z</time>
      </trkpt>
      <trkpt lat="44.70909" lon="5.22919">
        <ele>692.8</ele>
        <time>2019-06-16T10:38:08Z</time>
      </trkpt>
      <trkpt lat="44.70896" lon="5.22922">
        <ele>692.8</ele>
        <time>2019-06-16T10:38:13Z</time>
      </trkpt>
      <trkpt lat="44.70885" lon="5.22923">
        <ele>692.4</ele>
        <time>2019-06-16T10:38:16Z</time>
      </trkpt>
      <trkpt lat="44.70881" lon="5.22923">
        <ele>692</ele>
        <time>2019-06-16T10:38:17Z</time>
      </trkpt>
      <trkpt lat="44.70878" lon="5.22922">
        <ele>691.6</ele>
        <time>2019-06-16T10:38:18Z</time>
      </trkpt>
      <trkpt lat="44.70875" lon="5.22922">
        <ele>691</ele>
        <time>2019-06-16T10:38:19Z</time>
      </trkpt>
      <trkpt lat="44.70872" lon="5.22923">
        <ele>690.6</ele>
        <time>2019-06-16T10:38:20Z</time>
      </trkpt>
      <trkpt lat="44.70871" lon="5.22923">
        <ele>690.6</ele>
        <time>2019-06-16T10:38:22Z</time>
      </trkpt>
      <trkpt lat="44.70869" lon="5.22923">
        <ele>690.2</ele>
        <time>2019-06-16T10:38:58Z</time>
      </trkpt>
      <trkpt lat="44.70869" lon="5.22923">
        <ele>689.8</ele>
        <time>2019-06-16T10:38:59Z</time>
      </trkpt>
      <trkpt lat="44.70869" lon="5.22923">
        <ele>689.4</ele>
        <time>2019-06-16T10:39:00Z</time>
      </trkpt>
      <trkpt lat="44.70869" lon="5.22923">
        <ele>689</ele>
        <time>2019-06-16T10:39:01Z</time>
      </trkpt>
      <trkpt lat="44.70869" lon="5.22923">
        <ele>688.6</ele>
        <time>2019-06-16T10:39:02Z</time>
      </trkpt>
      <trkpt lat="44.70868" lon="5.22923">
        <ele>688.2</ele>
        <time>2019-06-16T10:39:39Z</time>
      </trkpt>
      <trkpt lat="44.70868" lon="5.22922">
        <ele>687.8</ele>
        <time>2019-06-16T10:39:40Z</time>
      </trkpt>
      <trkpt lat="44.70868" lon="5.22922">
        <ele>687.4</ele>
        <time>2019-06-16T10:39:41Z</time>
      </trkpt>
      <trkpt lat="44.70868" lon="5.22922">
        <ele>687</ele>
        <time>2019-06-16T10:39:42Z</time>
      </trkpt>
      <trkpt lat="44.70868" lon="5.22922">
        <ele>686.6</ele>
        <time>2019-06-16T10:39:43Z</time>
      </trkpt>
      <trkpt lat="44.70868" lon="5.22922">
        <ele>686.2</ele>
        <time>2019-06-16T10:42:29Z</time>
      </trkpt>
      <trkpt lat="44.70868" lon="5.22922">
        <ele>685.6</ele>
        <time>2019-06-16T10:42:30Z</time>
      </trkpt>
      <trkpt lat="44.70868" lon="5.22921">
        <ele>685</ele>
        <time>2019-06-16T10:42:31Z</time>
      </trkpt>
      <trkpt lat="44.70868" lon="5.22919">
        <ele>684.4</ele>
        <time>2019-06-16T10:42:32Z</time>
      </trkpt>
      <trkpt lat="44.70869" lon="5.22916">
        <ele>683.4</ele>
        <time>2019-06-16T10:42:33Z</time>
      </trkpt>
      <trkpt lat="44.70869" lon="5.22914">
        <ele>682.4</ele>
        <time>2019-06-16T10:42:34Z</time>
      </trkpt>
      <trkpt lat="44.70869" lon="5.22908">
        <ele>681.6</ele>
        <time>2019-06-16T10:42:35Z</time>
      </trkpt>
      <trkpt lat="44.70869" lon="5.22904">
        <ele>680.6</ele>
        <time>2019-06-16T10:42:36Z</time>
      </trkpt>
      <trkpt lat="44.70869" lon="5.22899">
        <ele>679.8</ele>
        <time>2019-06-16T10:42:37Z</time>
      </trkpt>
      <trkpt lat="44.7087" lon="5.22894">
        <ele>678.8</ele>
        <time>2019-06-16T10:42:38Z</time>
      </trkpt>
      <trkpt lat="44.7087" lon="5.22887">
        <ele>677.8</ele>
        <time>2019-06-16T10:42:39Z</time>
      </trkpt>
      <trkpt lat="44.70872" lon="5.22882">
        <ele>677</ele>
        <time>2019-06-16T10:42:40Z</time>
      </trkpt>
      <trkpt lat="44.70873" lon="5.22877">
        <ele>676</ele>
        <time>2019-06-16T10:42:41Z</time>
      </trkpt>
      <trkpt lat="44.70874" lon="5.22873">
        <ele>675.2</ele>
        <time>2019-06-16T10:42:42Z</time>
      </trkpt>
      <trkpt lat="44.70875" lon="5.22868">
        <ele>674.2</ele>
        <time>2019-06-16T10:42:43Z</time>
      </trkpt>
      <trkpt lat="44.70877" lon="5.22863">
        <ele>673.4</ele>
        <time>2019-06-16T10:42:44Z</time>
      </trkpt>
      <trkpt lat="44.70877" lon="5.22855">
        <ele>672.4</ele>
        <time>2019-06-16T10:42:45Z</time>
      </trkpt>
      <trkpt lat="44.70878" lon="5.22849">
        <ele>671.6</ele>
        <time>2019-06-16T10:42:46Z</time>
      </trkpt>
      <trkpt lat="44.70878" lon="5.22845">
        <ele>671.6</ele>
        <time>2019-06-16T10:42:47Z</time>
      </trkpt>
      <trkpt lat="44.70875" lon="5.22835">
        <ele>671.2</ele>
        <time>2019-06-16T10:42:50Z</time>
      </trkpt>
      <trkpt lat="44.70873" lon="5.22831">
        <ele>670.6</ele>
        <time>2019-06-16T10:42:51Z</time>
      </trkpt>
      <trkpt lat="44.70873" lon="5.22827">
        <ele>670.2</ele>
        <time>2019-06-16T10:42:52Z</time>
      </trkpt>
      <trkpt lat="44.70872" lon="5.22825">
        <ele>669.6</ele>
        <time>2019-06-16T10:42:53Z</time>
      </trkpt>
      <trkpt lat="44.70871" lon="5.22822">
        <ele>669</ele>
        <time>2019-06-16T10:42:54Z</time>
      </trkpt>
      <trkpt lat="44.7087" lon="5.22819">
        <ele>668.4</ele>
        <time>2019-06-16T10:42:55Z</time>
      </trkpt>
      <trkpt lat="44.70869" lon="5.22816">
        <ele>667.8</ele>
        <time>2019-06-16T10:42:56Z</time>
      </trkpt>
      <trkpt lat="44.70869" lon="5.22814">
        <ele>667.2</ele>
        <time>2019-06-16T10:42:57Z</time>
      </trkpt>
      <trkpt lat="44.70868" lon="5.22812">
        <ele>666.6</ele>
        <time>2019-06-16T10:42:58Z</time>
      </trkpt>
      <trkpt lat="44.70868" lon="5.22811">
        <ele>666</ele>
        <time>2019-06-16T10:42:59Z</time>
      </trkpt>
      <trkpt lat="44.70868" lon="5.22809">
        <ele>665.4</ele>
        <time>2019-06-16T10:43:00Z</time>
      </trkpt>
      <trkpt lat="44.70867" lon="5.22808">
        <ele>664.6</ele>
        <time>2019-06-16T10:43:01Z</time>
      </trkpt>
      <trkpt lat="44.70868" lon="5.22807">
        <ele>664.6</ele>
        <time>2019-06-16T10:43:06Z</time>
      </trkpt>
      <trkpt lat="44.70868" lon="5.22807">
        <ele>664.2</ele>
        <time>2019-06-16T10:43:16Z</time>
      </trkpt>
      <trkpt lat="44.70868" lon="5.22807">
        <ele>663.8</ele>
        <time>2019-06-16T10:43:17Z</time>
      </trkpt>
      <trkpt lat="44.70868" lon="5.22807">
        <ele>663.4</ele>
        <time>2019-06-16T10:43:18Z</time>
      </trkpt>
      <trkpt lat="44.70868" lon="5.22807">
        <ele>663</ele>
        <time>2019-06-16T10:43:19Z</time>
      </trkpt>
      <trkpt lat="44.70868" lon="5.22807">
        <ele>662.6</ele>
        <time>2019-06-16T10:43:20Z</time>
      </trkpt>
      <trkpt lat="44.70868" lon="5.22807">
        <ele>662.6</ele>
        <time>2019-06-16T10:43:44Z</time>
      </trkpt>
      <trkpt lat="44.70867" lon="5.22807">
        <ele>662.2</ele>
        <time>2019-06-16T10:44:12Z</time>
      </trkpt>
      <trkpt lat="44.70867" lon="5.22807">
        <ele>661.6</ele>
        <time>2019-06-16T10:44:13Z</time>
      </trkpt>
      <trkpt lat="44.70867" lon="5.22807">
        <ele>661.2</ele>
        <time>2019-06-16T10:44:14Z</time>
      </trkpt>
      <trkpt lat="44.70867" lon="5.22807">
        <ele>660.6</ele>
        <time>2019-06-16T10:44:15Z</time>
      </trkpt>
      <trkpt lat="44.70867" lon="5.22807">
        <ele>660.2</ele>
        <time>2019-06-16T10:44:16Z</time>
      </trkpt>
      <trkpt lat="44.70867" lon="5.22807">
        <ele>659.6</ele>
        <time>2019-06-16T10:44:36Z</time>
      </trkpt>
      <trkpt lat="44.70867" lon="5.22806">
        <ele>659.2</ele>
        <time>2019-06-16T10:44:37Z</time>
      </trkpt>
      <trkpt lat="44.70866" lon="5.22806">
        <ele>658.6</ele>
        <time>2019-06-16T10:44:38Z</time>
      </trkpt>
      <trkpt lat="44.70866" lon="5.22806">
        <ele>658</ele>
        <time>2019-06-16T10:44:39Z</time>
      </trkpt>
      <trkpt lat="44.70866" lon="5.22805">
        <ele>657.6</ele>
        <time>2019-06-16T10:44:40Z</time>
      </trkpt>
      <trkpt lat="44.70865" lon="5.22804">
        <ele>657</ele>
        <time>2019-06-16T10:44:41Z</time>
      </trkpt>
      <trkpt lat="44.70864" lon="5.22803">
        <ele>656.4</ele>
        <time>2019-06-16T10:44:42Z</time>
      </trkpt>
      <trkpt lat="44.70861" lon="5.22801">
        <ele>655.8</ele>
        <time>2019-06-16T10:44:43Z</time>
      </trkpt>
      <trkpt lat="44.70859" lon="5.228">
        <ele>655.2</ele>
        <time>2019-06-16T10:44:44Z</time>
      </trkpt>
      <trkpt lat="44.70856" lon="5.228">
        <ele>654.6</ele>
        <time>2019-06-16T10:44:45Z</time>
      </trkpt>
      <trkpt lat="44.70854" lon="5.22799">
        <ele>653.8</ele>
        <time>2019-06-16T10:44:46Z</time>
      </trkpt>
      <trkpt lat="44.70852" lon="5.22799">
        <ele>653.2</ele>
        <time>2019-06-16T10:44:47Z</time>
      </trkpt>
      <trkpt lat="44.70846" lon="5.22797">
        <ele>653.2</ele>
        <time>2019-06-16T10:44:53Z</time>
      </trkpt>
      <trkpt lat="44.70845" lon="5.22797">
        <ele>652.8</ele>
        <time>2019-06-16T10:44:54Z</time>
      </trkpt>
      <trkpt lat="44.70845" lon="5.22796">
        <ele>652.4</ele>
        <time>2019-06-16T10:44:55Z</time>
      </trkpt>
      <trkpt lat="44.70844" lon="5.22796">
        <ele>652</ele>
        <time>2019-06-16T10:44:56Z</time>
      </trkpt>
      <trkpt lat="44.70844" lon="5.22795">
        <ele>651.6</ele>
        <time>2019-06-16T10:44:57Z</time>
      </trkpt>
      <trkpt lat="44.70843" lon="5.22795">
        <ele>651.2</ele>
        <time>2019-06-16T10:44:58Z</time>
      </trkpt>
      <trkpt lat="44.70842" lon="5.22796">
        <ele>651.2</ele>
        <time>2019-06-16T10:45:05Z</time>
      </trkpt>
      <trkpt lat="44.70837" lon="5.22802">
        <ele>651.2</ele>
        <time>2019-06-16T10:45:12Z</time>
      </trkpt>
      <trkpt lat="44.70834" lon="5.22808">
        <ele>651.2</ele>
        <time>2019-06-16T10:45:14Z</time>
      </trkpt>
      <trkpt lat="44.70832" lon="5.22814">
        <ele>650.6</ele>
        <time>2019-06-16T10:45:17Z</time>
      </trkpt>
      <trkpt lat="44.7083" lon="5.22816">
        <ele>650.2</ele>
        <time>2019-06-16T10:45:18Z</time>
      </trkpt>
      <trkpt lat="44.70828" lon="5.22817">
        <ele>649.8</ele>
        <time>2019-06-16T10:45:19Z</time>
      </trkpt>
      <trkpt lat="44.70825" lon="5.22818">
        <ele>649.2</ele>
        <time>2019-06-16T10:45:20Z</time>
      </trkpt>
      <trkpt lat="44.70824" lon="5.2282">
        <ele>648.8</ele>
        <time>2019-06-16T10:45:21Z</time>
      </trkpt>
      <trkpt lat="44.70823" lon="5.22821">
        <ele>648.2</ele>
        <time>2019-06-16T10:45:22Z</time>
      </trkpt>
      <trkpt lat="44.70822" lon="5.22822">
        <ele>647.6</ele>
        <time>2019-06-16T10:45:23Z</time>
      </trkpt>
      <trkpt lat="44.70822" lon="5.22822">
        <ele>647</ele>
        <time>2019-06-16T10:45:24Z</time>
      </trkpt>
      <trkpt lat="44.70822" lon="5.22823">
        <ele>646.6</ele>
        <time>2019-06-16T10:45:25Z</time>
      </trkpt>
      <trkpt lat="44.70823" lon="5.22823">
        <ele>646.6</ele>
        <time>2019-06-16T10:45:36Z</time>
      </trkpt>
      <trkpt lat="44.70823" lon="5.22824">
        <ele>646.6</ele>
        <time>2019-06-16T10:45:41Z</time>
      </trkpt>
      <trkpt lat="44.7082" lon="5.22822">
        <ele>646</ele>
        <time>2019-06-16T10:46:29Z</time>
      </trkpt>
      <trkpt lat="44.70818" lon="5.22823">
        <ele>645.6</ele>
        <time>2019-06-16T10:46:30Z</time>
      </trkpt>
      <trkpt lat="44.70816" lon="5.22824">
        <ele>645</ele>
        <time>2019-06-16T10:46:31Z</time>
      </trkpt>
      <trkpt lat="44.70814" lon="5.22826">
        <ele>644.4</ele>
        <time>2019-06-16T10:46:32Z</time>
      </trkpt>
      <trkpt lat="44.70813" lon="5.22828">
        <ele>643.8</ele>
        <time>2019-06-16T10:46:33Z</time>
      </trkpt>
      <trkpt lat="44.70811" lon="5.22829">
        <ele>643.2</ele>
        <time>2019-06-16T10:46:34Z</time>
      </trkpt>
      <trkpt lat="44.7081" lon="5.2283">
        <ele>642.6</ele>
        <time>2019-06-16T10:46:35Z</time>
      </trkpt>
      <trkpt lat="44.70809" lon="5.2283">
        <ele>642</ele>
        <time>2019-06-16T10:46:36Z</time>
      </trkpt>
      <trkpt lat="44.70807" lon="5.22829">
        <ele>642</ele>
        <time>2019-06-16T10:46:39Z</time>
      </trkpt>
      <trkpt lat="44.70798" lon="5.22826">
        <ele>642</ele>
        <time>2019-06-16T10:46:54Z</time>
      </trkpt>
      <trkpt lat="44.70791" lon="5.22823">
        <ele>642</ele>
        <time>2019-06-16T10:47:05Z</time>
      </trkpt>
      <trkpt lat="44.70781" lon="5.22822">
        <ele>642</ele>
        <time>2019-06-16T10:47:13Z</time>
      </trkpt>
      <trkpt lat="44.70775" lon="5.22825">
        <ele>642.4</ele>
        <time>2019-06-16T10:47:16Z</time>
      </trkpt>
      <trkpt lat="44.70774" lon="5.22825">
        <ele>642.8</ele>
        <time>2019-06-16T10:47:17Z</time>
      </trkpt>
      <trkpt lat="44.70772" lon="5.22826">
        <ele>643.2</ele>
        <time>2019-06-16T10:47:18Z</time>
      </trkpt>
      <trkpt lat="44.7077" lon="5.22827">
        <ele>643.6</ele>
        <time>2019-06-16T10:47:19Z</time>
      </trkpt>
      <trkpt lat="44.70769" lon="5.22827">
        <ele>644</ele>
        <time>2019-06-16T10:47:20Z</time>
      </trkpt>
      <trkpt lat="44.70761" lon="5.2283">
        <ele>644</ele>
        <time>2019-06-16T10:47:25Z</time>
      </trkpt>
      <trkpt lat="44.7076" lon="5.22832">
        <ele>644</ele>
        <time>2019-06-16T10:47:31Z</time>
      </trkpt>
      <trkpt lat="44.7076" lon="5.22832">
        <ele>644</ele>
        <time>2019-06-16T10:47:41Z</time>
      </trkpt>
      <trkpt lat="44.7076" lon="5.22832">
        <ele>644.4</ele>
        <time>2019-06-16T10:48:04Z</time>
      </trkpt>
      <trkpt lat="44.7076" lon="5.22832">
        <ele>644.8</ele>
        <time>2019-06-16T10:48:05Z</time>
      </trkpt>
      <trkpt lat="44.7076" lon="5.22832">
        <ele>645.2</ele>
        <time>2019-06-16T10:48:06Z</time>
      </trkpt>
      <trkpt lat="44.7076" lon="5.22832">
        <ele>645.6</ele>
        <time>2019-06-16T10:48:07Z</time>
      </trkpt>
      <trkpt lat="44.7076" lon="5.22832">
        <ele>646</ele>
        <time>2019-06-16T10:48:08Z</time>
      </trkpt>
      <trkpt lat="44.70752" lon="5.22836">
        <ele>646</ele>
        <time>2019-06-16T10:49:27Z</time>
      </trkpt>
      <trkpt lat="44.70737" lon="5.22846">
        <ele>646</ele>
        <time>2019-06-16T10:49:35Z</time>
      </trkpt>
      <trkpt lat="44.70734" lon="5.22849">
        <ele>646.4</ele>
        <time>2019-06-16T10:49:37Z</time>
      </trkpt>
      <trkpt lat="44.70733" lon="5.22851">
        <ele>647</ele>
        <time>2019-06-16T10:49:38Z</time>
      </trkpt>
      <trkpt lat="44.70731" lon="5.22852">
        <ele>647.4</ele>
        <time>2019-06-16T10:49:39Z</time>
      </trkpt>
      <trkpt lat="44.70729" lon="5.22853">
        <ele>647.8</ele>
        <time>2019-06-16T10:49:40Z</time>
      </trkpt>
      <trkpt lat="44.70727" lon="5.22855">
        <ele>648.2</ele>
        <time>2019-06-16T10:49:41Z</time>
      </trkpt>
      <trkpt lat="44.70726" lon="5.22857">
        <ele>648.2</ele>
        <time>2019-06-16T10:49:42Z</time>
      </trkpt>
      <trkpt lat="44.70717" lon="5.22863">
        <ele>648.2</ele>
        <time>2019-06-16T10:49:48Z</time>
      </trkpt>
      <trkpt lat="44.70715" lon="5.22864">
        <ele>648.2</ele>
        <time>2019-06-16T10:49:49Z</time>
      </trkpt>
      <trkpt lat="44.70705" lon="5.22869">
        <ele>648.2</ele>
        <time>2019-06-16T10:49:57Z</time>
      </trkpt>
      <trkpt lat="44.70693" lon="5.22871">
        <ele>648.6</ele>
        <time>2019-06-16T10:50:04Z</time>
      </trkpt>
      <trkpt lat="44.70692" lon="5.22871">
        <ele>649</ele>
        <time>2019-06-16T10:50:05Z</time>
      </trkpt>
      <trkpt lat="44.7069" lon="5.2287">
        <ele>649.4</ele>
        <time>2019-06-16T10:50:06Z</time>
      </trkpt>
      <trkpt lat="44.70688" lon="5.2287">
        <ele>649.8</ele>
        <time>2019-06-16T10:50:07Z</time>
      </trkpt>
      <trkpt lat="44.70686" lon="5.2287">
        <ele>650.2</ele>
        <time>2019-06-16T10:50:08Z</time>
      </trkpt>
      <trkpt lat="44.70682" lon="5.22871">
        <ele>650.2</ele>
        <time>2019-06-16T10:50:11Z</time>
      </trkpt>
      <trkpt lat="44.70673" lon="5.22874">
        <ele>650.2</ele>
        <time>2019-06-16T10:50:18Z</time>
      </trkpt>
      <trkpt lat="44.70666" lon="5.22875">
        <ele>650.8</ele>
        <time>2019-06-16T10:50:24Z</time>
      </trkpt>
      <trkpt lat="44.70665" lon="5.22875">
        <ele>651.2</ele>
        <time>2019-06-16T10:50:25Z</time>
      </trkpt>
      <trkpt lat="44.70664" lon="5.22876">
        <ele>651.6</ele>
        <time>2019-06-16T10:50:26Z</time>
      </trkpt>
      <trkpt lat="44.70663" lon="5.22876">
        <ele>652.2</ele>
        <time>2019-06-16T10:50:27Z</time>
      </trkpt>
      <trkpt lat="44.70661" lon="5.22878">
        <ele>652.6</ele>
        <time>2019-06-16T10:50:28Z</time>
      </trkpt>
      <trkpt lat="44.70653" lon="5.2288">
        <ele>652.6</ele>
        <time>2019-06-16T10:50:35Z</time>
      </trkpt>
      <trkpt lat="44.70648" lon="5.22884">
        <ele>653</ele>
        <time>2019-06-16T10:50:40Z</time>
      </trkpt>
      <trkpt lat="44.70647" lon="5.22885">
        <ele>653.4</ele>
        <time>2019-06-16T10:50:41Z</time>
      </trkpt>
      <trkpt lat="44.70646" lon="5.22886">
        <ele>653.8</ele>
        <time>2019-06-16T10:50:42Z</time>
      </trkpt>
      <trkpt lat="44.70644" lon="5.22886">
        <ele>654.2</ele>
        <time>2019-06-16T10:50:43Z</time>
      </trkpt>
      <trkpt lat="44.70643" lon="5.22887">
        <ele>654.6</ele>
        <time>2019-06-16T10:50:44Z</time>
      </trkpt>
      <trkpt lat="44.70636" lon="5.2289">
        <ele>654.6</ele>
        <time>2019-06-16T10:50:51Z</time>
      </trkpt>
      <trkpt lat="44.70627" lon="5.22898">
        <ele>655</ele>
        <time>2019-06-16T10:51:00Z</time>
      </trkpt>
      <trkpt lat="44.70626" lon="5.22899">
        <ele>655.4</ele>
        <time>2019-06-16T10:51:01Z</time>
      </trkpt>
      <trkpt lat="44.70625" lon="5.229">
        <ele>655.8</ele>
        <time>2019-06-16T10:51:02Z</time>
      </trkpt>
      <trkpt lat="44.70624" lon="5.22901">
        <ele>656.2</ele>
        <time>2019-06-16T10:51:03Z</time>
      </trkpt>
      <trkpt lat="44.70622" lon="5.22902">
        <ele>656.6</ele>
        <time>2019-06-16T10:51:04Z</time>
      </trkpt>
      <trkpt lat="44.70618" lon="5.22905">
        <ele>656.6</ele>
        <time>2019-06-16T10:51:10Z</time>
      </trkpt>
      <trkpt lat="44.70616" lon="5.22907">
        <ele>656.6</ele>
        <time>2019-06-16T10:51:18Z</time>
      </trkpt>
      <trkpt lat="44.70607" lon="5.22911">
        <ele>656.6</ele>
        <time>2019-06-16T10:52:11Z</time>
      </trkpt>
      <trkpt lat="44.70605" lon="5.22912">
        <ele>657</ele>
        <time>2019-06-16T10:52:13Z</time>
      </trkpt>
      <trkpt lat="44.70603" lon="5.22912">
        <ele>657.6</ele>
        <time>2019-06-16T10:52:14Z</time>
      </trkpt>
      <trkpt lat="44.70602" lon="5.22913">
        <ele>658</ele>
        <time>2019-06-16T10:52:15Z</time>
      </trkpt>
      <trkpt lat="44.70601" lon="5.22913">
        <ele>658.4</ele>
        <time>2019-06-16T10:52:16Z</time>
      </trkpt>
      <trkpt lat="44.70599" lon="5.22913">
        <ele>659</ele>
        <time>2019-06-16T10:52:17Z</time>
      </trkpt>
      <trkpt lat="44.70595" lon="5.22915">
        <ele>659</ele>
        <time>2019-06-16T10:52:20Z</time>
      </trkpt>
      <trkpt lat="44.70588" lon="5.22918">
        <ele>659.4</ele>
        <time>2019-06-16T10:52:25Z</time>
      </trkpt>
      <trkpt lat="44.70587" lon="5.22919">
        <ele>659.8</ele>
        <time>2019-06-16T10:52:26Z</time>
      </trkpt>
      <trkpt lat="44.70586" lon="5.2292">
        <ele>660.2</ele>
        <time>2019-06-16T10:52:27Z</time>
      </trkpt>
      <trkpt lat="44.70584" lon="5.22921">
        <ele>660.6</ele>
        <time>2019-06-16T10:52:28Z</time>
      </trkpt>
      <trkpt lat="44.70583" lon="5.22921">
        <ele>661</ele>
        <time>2019-06-16T10:52:29Z</time>
      </trkpt>
      <trkpt lat="44.70573" lon="5.22926">
        <ele>661.4</ele>
        <time>2019-06-16T10:52:36Z</time>
      </trkpt>
      <trkpt lat="44.70571" lon="5.22927">
        <ele>661.8</ele>
        <time>2019-06-16T10:52:37Z</time>
      </trkpt>
      <trkpt lat="44.7057" lon="5.22928">
        <ele>662.2</ele>
        <time>2019-06-16T10:52:38Z</time>
      </trkpt>
      <trkpt lat="44.70569" lon="5.22928">
        <ele>662.6</ele>
        <time>2019-06-16T10:52:39Z</time>
      </trkpt>
      <trkpt lat="44.70568" lon="5.22929">
        <ele>663</ele>
        <time>2019-06-16T10:52:40Z</time>
      </trkpt>
      <trkpt lat="44.7056" lon="5.22934">
        <ele>663</ele>
        <time>2019-06-16T10:52:47Z</time>
      </trkpt>
      <trkpt lat="44.70555" lon="5.22936">
        <ele>663.4</ele>
        <time>2019-06-16T10:52:51Z</time>
      </trkpt>
      <trkpt lat="44.70554" lon="5.22937">
        <ele>663.8</ele>
        <time>2019-06-16T10:52:52Z</time>
      </trkpt>
      <trkpt lat="44.70552" lon="5.22938">
        <ele>664.2</ele>
        <time>2019-06-16T10:52:53Z</time>
      </trkpt>
      <trkpt lat="44.70551" lon="5.22938">
        <ele>664.6</ele>
        <time>2019-06-16T10:52:54Z</time>
      </trkpt>
      <trkpt lat="44.7055" lon="5.22939">
        <ele>665.2</ele>
        <time>2019-06-16T10:52:55Z</time>
      </trkpt>
      <trkpt lat="44.70548" lon="5.2294">
        <ele>665.2</ele>
        <time>2019-06-16T10:52:56Z</time>
      </trkpt>
      <trkpt lat="44.70542" lon="5.22955">
        <ele>665.2</ele>
        <time>2019-06-16T10:53:05Z</time>
      </trkpt>
      <trkpt lat="44.7054" lon="5.22963">
        <ele>665.6</ele>
        <time>2019-06-16T10:53:09Z</time>
      </trkpt>
      <trkpt lat="44.70539" lon="5.22965">
        <ele>666</ele>
        <time>2019-06-16T10:53:10Z</time>
      </trkpt>
      <trkpt lat="44.70539" lon="5.22967">
        <ele>666.4</ele>
        <time>2019-06-16T10:53:11Z</time>
      </trkpt>
      <trkpt lat="44.70539" lon="5.22968">
        <ele>666.8</ele>
        <time>2019-06-16T10:53:12Z</time>
      </trkpt>
      <trkpt lat="44.70538" lon="5.2297">
        <ele>667.2</ele>
        <time>2019-06-16T10:53:13Z</time>
      </trkpt>
      <trkpt lat="44.70539" lon="5.22972">
        <ele>667.2</ele>
        <time>2019-06-16T10:53:14Z</time>
      </trkpt>
      <trkpt lat="44.7054" lon="5.22978">
        <ele>667.2</ele>
        <time>2019-06-16T10:53:17Z</time>
      </trkpt>
      <trkpt lat="44.7054" lon="5.22982">
        <ele>667.2</ele>
        <time>2019-06-16T10:53:19Z</time>
      </trkpt>
      <trkpt lat="44.70544" lon="5.22999">
        <ele>667.2</ele>
        <time>2019-06-16T10:53:28Z</time>
      </trkpt>
      <trkpt lat="44.70546" lon="5.23011">
        <ele>667.6</ele>
        <time>2019-06-16T10:53:34Z</time>
      </trkpt>
      <trkpt lat="44.70547" lon="5.23013">
        <ele>668</ele>
        <time>2019-06-16T10:53:35Z</time>
      </trkpt>
      <trkpt lat="44.70548" lon="5.23015">
        <ele>668.4</ele>
        <time>2019-06-16T10:53:36Z</time>
      </trkpt>
      <trkpt lat="44.70548" lon="5.23016">
        <ele>668.8</ele>
        <time>2019-06-16T10:53:37Z</time>
      </trkpt>
      <trkpt lat="44.70548" lon="5.23018">
        <ele>669.2</ele>
        <time>2019-06-16T10:53:38Z</time>
      </trkpt>
      <trkpt lat="44.70548" lon="5.23019">
        <ele>669.2</ele>
        <time>2019-06-16T10:53:43Z</time>
      </trkpt>
      <trkpt lat="44.70548" lon="5.23039">
        <ele>669.2</ele>
        <time>2019-06-16T10:56:10Z</time>
      </trkpt>
      <trkpt lat="44.70547" lon="5.23047">
        <ele>669.6</ele>
        <time>2019-06-16T10:56:13Z</time>
      </trkpt>
      <trkpt lat="44.70547" lon="5.23048">
        <ele>670</ele>
        <time>2019-06-16T10:56:14Z</time>
      </trkpt>
      <trkpt lat="44.70547" lon="5.23051">
        <ele>670.4</ele>
        <time>2019-06-16T10:56:15Z</time>
      </trkpt>
      <trkpt lat="44.70547" lon="5.23055">
        <ele>670.8</ele>
        <time>2019-06-16T10:56:17Z</time>
      </trkpt>
      <trkpt lat="44.70547" lon="5.23057">
        <ele>671.4</ele>
        <time>2019-06-16T10:56:18Z</time>
      </trkpt>
      <trkpt lat="44.70547" lon="5.2306">
        <ele>671.4</ele>
        <time>2019-06-16T10:56:20Z</time>
      </trkpt>
      <trkpt lat="44.70546" lon="5.23068">
        <ele>671.4</ele>
        <time>2019-06-16T10:56:27Z</time>
      </trkpt>
      <trkpt lat="44.70547" lon="5.23068">
        <ele>671.4</ele>
        <time>2019-06-16T10:56:28Z</time>
      </trkpt>
      <trkpt lat="44.70547" lon="5.23067">
        <ele>671.4</ele>
        <time>2019-06-16T10:56:32Z</time>
      </trkpt>
      <trkpt lat="44.70548" lon="5.23067">
        <ele>671.4</ele>
        <time>2019-06-16T10:57:12Z</time>
      </trkpt>
      <trkpt lat="44.70544" lon="5.23064">
        <ele>671.4</ele>
        <time>2019-06-16T10:59:57Z</time>
      </trkpt>
      <trkpt lat="44.70544" lon="5.23063">
        <ele>671.4</ele>
        <time>2019-06-16T11:04:26Z</time>
      </trkpt>
      <trkpt lat="44.70543" lon="5.23063">
        <ele>671.8</ele>
        <time>2019-06-16T11:08:37Z</time>
      </trkpt>
      <trkpt lat="44.70543" lon="5.23063">
        <ele>672.2</ele>
        <time>2019-06-16T11:08:38Z</time>
      </trkpt>
      <trkpt lat="44.70543" lon="5.23063">
        <ele>672.6</ele>
        <time>2019-06-16T11:08:39Z</time>
      </trkpt>
      <trkpt lat="44.70543" lon="5.23063">
        <ele>673</ele>
        <time>2019-06-16T11:08:40Z</time>
      </trkpt>
      <trkpt lat="44.70543" lon="5.23063">
        <ele>673.4</ele>
        <time>2019-06-16T11:08:41Z</time>
      </trkpt>
      <trkpt lat="44.70543" lon="5.23064">
        <ele>673.4</ele>
        <time>2019-06-16T11:18:14Z</time>
      </trkpt>
      <trkpt lat="44.70543" lon="5.23065">
        <ele>673.4</ele>
        <time>2019-06-16T11:25:12Z</time>
      </trkpt>
      <trkpt lat="44.70542" lon="5.23065">
        <ele>673.8</ele>
        <time>2019-06-16T11:31:14Z</time>
      </trkpt>
      <trkpt lat="44.70542" lon="5.23065">
        <ele>674.2</ele>
        <time>2019-06-16T11:31:15Z</time>
      </trkpt>
      <trkpt lat="44.70542" lon="5.23065">
        <ele>674.6</ele>
        <time>2019-06-16T11:31:16Z</time>
      </trkpt>
      <trkpt lat="44.70542" lon="5.23065">
        <ele>675</ele>
        <time>2019-06-16T11:31:17Z</time>
      </trkpt>
      <trkpt lat="44.70542" lon="5.23065">
        <ele>675.6</ele>
        <time>2019-06-16T11:31:18Z</time>
      </trkpt>
      <trkpt lat="44.70542" lon="5.23066">
        <ele>675.6</ele>
        <time>2019-06-16T11:40:00Z</time>
      </trkpt>
      <trkpt lat="44.70542" lon="5.23067">
        <ele>675.6</ele>
        <time>2019-06-16T11:47:48Z</time>
      </trkpt>
      <trkpt lat="44.70539" lon="5.23077">
        <ele>675.6</ele>
        <time>2019-06-16T11:47:51Z</time>
      </trkpt>
      <trkpt lat="44.70537" lon="5.23085">
        <ele>676</ele>
        <time>2019-06-16T11:47:53Z</time>
      </trkpt>
      <trkpt lat="44.70536" lon="5.23087">
        <ele>676.4</ele>
        <time>2019-06-16T11:47:54Z</time>
      </trkpt>
      <trkpt lat="44.70536" lon="5.2309">
        <ele>676.8</ele>
        <time>2019-06-16T11:47:55Z</time>
      </trkpt>
      <trkpt lat="44.70536" lon="5.23093">
        <ele>677.2</ele>
        <time>2019-06-16T11:47:56Z</time>
      </trkpt>
      <trkpt lat="44.70536" lon="5.23096">
        <ele>677.6</ele>
        <time>2019-06-16T11:47:57Z</time>
      </trkpt>
      <trkpt lat="44.70535" lon="5.23103">
        <ele>677.6</ele>
        <time>2019-06-16T11:48:00Z</time>
      </trkpt>
      <trkpt lat="44.70534" lon="5.23118">
        <ele>678</ele>
        <time>2019-06-16T11:48:07Z</time>
      </trkpt>
      <trkpt lat="44.70533" lon="5.2312">
        <ele>678.4</ele>
        <time>2019-06-16T11:48:08Z</time>
      </trkpt>
      <trkpt lat="44.70533" lon="5.23122">
        <ele>678.8</ele>
        <time>2019-06-16T11:48:09Z</time>
      </trkpt>
      <trkpt lat="44.70533" lon="5.23124">
        <ele>679.2</ele>
        <time>2019-06-16T11:48:10Z</time>
      </trkpt>
      <trkpt lat="44.70533" lon="5.23126">
        <ele>679.6</ele>
        <time>2019-06-16T11:48:11Z</time>
      </trkpt>
      <trkpt lat="44.70533" lon="5.23139">
        <ele>679.6</ele>
        <time>2019-06-16T11:48:16Z</time>
      </trkpt>
      <trkpt lat="44.70533" lon="5.23154">
        <ele>680</ele>
        <time>2019-06-16T11:48:23Z</time>
      </trkpt>
      <trkpt lat="44.70533" lon="5.23156">
        <ele>680.6</ele>
        <time>2019-06-16T11:48:24Z</time>
      </trkpt>
      <trkpt lat="44.70533" lon="5.23157">
        <ele>681</ele>
        <time>2019-06-16T11:48:25Z</time>
      </trkpt>
      <trkpt lat="44.70533" lon="5.23159">
        <ele>681.4</ele>
        <time>2019-06-16T11:48:26Z</time>
      </trkpt>
      <trkpt lat="44.70533" lon="5.23161">
        <ele>681.8</ele>
        <time>2019-06-16T11:48:27Z</time>
      </trkpt>
      <trkpt lat="44.70534" lon="5.23171">
        <ele>681.8</ele>
        <time>2019-06-16T11:48:32Z</time>
      </trkpt>
      <trkpt lat="44.70536" lon="5.23186">
        <ele>681.8</ele>
        <time>2019-06-16T11:48:42Z</time>
      </trkpt>
      <trkpt lat="44.70543" lon="5.23194">
        <ele>681.8</ele>
        <time>2019-06-16T11:48:50Z</time>
      </trkpt>
      <trkpt lat="44.70546" lon="5.23194">
        <ele>681.8</ele>
        <time>2019-06-16T11:48:52Z</time>
      </trkpt>
      <trkpt lat="44.70551" lon="5.23194">
        <ele>681.8</ele>
        <time>2019-06-16T11:48:56Z</time>
      </trkpt>
      <trkpt lat="44.70551" lon="5.23195">
        <ele>682.2</ele>
        <time>2019-06-16T11:48:57Z</time>
      </trkpt>
      <trkpt lat="44.70552" lon="5.23194">
        <ele>682.6</ele>
        <time>2019-06-16T11:48:58Z</time>
      </trkpt>
      <trkpt lat="44.70552" lon="5.23194">
        <ele>683</ele>
        <time>2019-06-16T11:48:59Z</time>
      </trkpt>
      <trkpt lat="44.70553" lon="5.23194">
        <ele>683.6</ele>
        <time>2019-06-16T11:49:00Z</time>
      </trkpt>
      <trkpt lat="44.70553" lon="5.23194">
        <ele>684</ele>
        <time>2019-06-16T11:49:01Z</time>
      </trkpt>
      <trkpt lat="44.70556" lon="5.23195">
        <ele>684</ele>
        <time>2019-06-16T11:49:03Z</time>
      </trkpt>
      <trkpt lat="44.70567" lon="5.23196">
        <ele>684</ele>
        <time>2019-06-16T11:49:14Z</time>
      </trkpt>
      <trkpt lat="44.70581" lon="5.23193">
        <ele>684</ele>
        <time>2019-06-16T11:49:24Z</time>
      </trkpt>
      <trkpt lat="44.70583" lon="5.23192">
        <ele>684.4</ele>
        <time>2019-06-16T11:49:26Z</time>
      </trkpt>
      <trkpt lat="44.70584" lon="5.23192">
        <ele>684.8</ele>
        <time>2019-06-16T11:49:27Z</time>
      </trkpt>
      <trkpt lat="44.70585" lon="5.23192">
        <ele>685.2</ele>
        <time>2019-06-16T11:49:28Z</time>
      </trkpt>
      <trkpt lat="44.70586" lon="5.23192">
        <ele>685.6</ele>
        <time>2019-06-16T11:49:29Z</time>
      </trkpt>
      <trkpt lat="44.70587" lon="5.23192">
        <ele>686</ele>
        <time>2019-06-16T11:49:30Z</time>
      </trkpt>
      <trkpt lat="44.70594" lon="5.23191">
        <ele>686</ele>
        <time>2019-06-16T11:49:37Z</time>
      </trkpt>
      <trkpt lat="44.70606" lon="5.23192">
        <ele>686</ele>
        <time>2019-06-16T11:49:50Z</time>
      </trkpt>
      <trkpt lat="44.7061" lon="5.23193">
        <ele>686.4</ele>
        <time>2019-06-16T11:49:53Z</time>
      </trkpt>
      <trkpt lat="44.70611" lon="5.23193">
        <ele>687</ele>
        <time>2019-06-16T11:49:54Z</time>
      </trkpt>
      <trkpt lat="44.70612" lon="5.23193">
        <ele>687.4</ele>
        <time>2019-06-16T11:49:55Z</time>
      </trkpt>
      <trkpt lat="44.70613" lon="5.23193">
        <ele>688</ele>
        <time>2019-06-16T11:49:56Z</time>
      </trkpt>
      <trkpt lat="44.70615" lon="5.23193">
        <ele>688.4</ele>
        <time>2019-06-16T11:49:57Z</time>
      </trkpt>
      <trkpt lat="44.70616" lon="5.23193">
        <ele>688.4</ele>
        <time>2019-06-16T11:49:58Z</time>
      </trkpt>
      <trkpt lat="44.70631" lon="5.23201">
        <ele>688.4</ele>
        <time>2019-06-16T11:50:10Z</time>
      </trkpt>
      <trkpt lat="44.70644" lon="5.23205">
        <ele>688.4</ele>
        <time>2019-06-16T11:50:21Z</time>
      </trkpt>
      <trkpt lat="44.70652" lon="5.23203">
        <ele>688.4</ele>
        <time>2019-06-16T11:50:28Z</time>
      </trkpt>
      <trkpt lat="44.70663" lon="5.23199">
        <ele>688.8</ele>
        <time>2019-06-16T11:50:38Z</time>
      </trkpt>
      <trkpt lat="44.70664" lon="5.23199">
        <ele>689.2</ele>
        <time>2019-06-16T11:50:39Z</time>
      </trkpt>
      <trkpt lat="44.70665" lon="5.23198">
        <ele>689.6</ele>
        <time>2019-06-16T11:50:40Z</time>
      </trkpt>
      <trkpt lat="44.70666" lon="5.23197">
        <ele>690</ele>
        <time>2019-06-16T11:50:41Z</time>
      </trkpt>
      <trkpt lat="44.70668" lon="5.23197">
        <ele>690.4</ele>
        <time>2019-06-16T11:50:42Z</time>
      </trkpt>
      <trkpt lat="44.70677" lon="5.23194">
        <ele>690.4</ele>
        <time>2019-06-16T11:50:51Z</time>
      </trkpt>
      <trkpt lat="44.70686" lon="5.23194">
        <ele>690.4</ele>
        <time>2019-06-16T11:51:01Z</time>
      </trkpt>
      <trkpt lat="44.7069" lon="5.23196">
        <ele>690.4</ele>
        <time>2019-06-16T11:51:06Z</time>
      </trkpt>
      <trkpt lat="44.70696" lon="5.232">
        <ele>690.4</ele>
        <time>2019-06-16T11:51:13Z</time>
      </trkpt>
      <trkpt lat="44.70698" lon="5.232">
        <ele>690.4</ele>
        <time>2019-06-16T11:51:23Z</time>
      </trkpt>
      <trkpt lat="44.70708" lon="5.23211">
        <ele>690.8</ele>
        <time>2019-06-16T11:51:59Z</time>
      </trkpt>
      <trkpt lat="44.7071" lon="5.23213">
        <ele>691.4</ele>
        <time>2019-06-16T11:52:00Z</time>
      </trkpt>
      <trkpt lat="44.70711" lon="5.23214">
        <ele>691.8</ele>
        <time>2019-06-16T11:52:01Z</time>
      </trkpt>
      <trkpt lat="44.70713" lon="5.23215">
        <ele>692.2</ele>
        <time>2019-06-16T11:52:02Z</time>
      </trkpt>
      <trkpt lat="44.70714" lon="5.23217">
        <ele>692.6</ele>
        <time>2019-06-16T11:52:03Z</time>
      </trkpt>
      <trkpt lat="44.70718" lon="5.2322">
        <ele>692.6</ele>
        <time>2019-06-16T11:52:05Z</time>
      </trkpt>
      <trkpt lat="44.7073" lon="5.23225">
        <ele>692.6</ele>
        <time>2019-06-16T11:52:12Z</time>
      </trkpt>
      <trkpt lat="44.70738" lon="5.23228">
        <ele>692.6</ele>
        <time>2019-06-16T11:52:19Z</time>
      </trkpt>
      <trkpt lat="44.7074" lon="5.23228">
        <ele>693.2</ele>
        <time>2019-06-16T11:52:20Z</time>
      </trkpt>
      <trkpt lat="44.70741" lon="5.23229">
        <ele>693.6</ele>
        <time>2019-06-16T11:52:21Z</time>
      </trkpt>
      <trkpt lat="44.70743" lon="5.23229">
        <ele>694</ele>
        <time>2019-06-16T11:52:22Z</time>
      </trkpt>
      <trkpt lat="44.70744" lon="5.23229">
        <ele>694.4</ele>
        <time>2019-06-16T11:52:23Z</time>
      </trkpt>
      <trkpt lat="44.70745" lon="5.23229">
        <ele>694.8</ele>
        <time>2019-06-16T11:52:24Z</time>
      </trkpt>
      <trkpt lat="44.70749" lon="5.23229">
        <ele>694.8</ele>
        <time>2019-06-16T11:52:27Z</time>
      </trkpt>
      <trkpt lat="44.70757" lon="5.2323">
        <ele>694.8</ele>
        <time>2019-06-16T11:52:33Z</time>
      </trkpt>
      <trkpt lat="44.7076" lon="5.23231">
        <ele>695.2</ele>
        <time>2019-06-16T11:52:36Z</time>
      </trkpt>
      <trkpt lat="44.7076" lon="5.23232">
        <ele>695.8</ele>
        <time>2019-06-16T11:52:37Z</time>
      </trkpt>
      <trkpt lat="44.70761" lon="5.23233">
        <ele>696.2</ele>
        <time>2019-06-16T11:52:38Z</time>
      </trkpt>
      <trkpt lat="44.70762" lon="5.23233">
        <ele>696.6</ele>
        <time>2019-06-16T11:52:39Z</time>
      </trkpt>
      <trkpt lat="44.70763" lon="5.23234">
        <ele>697</ele>
        <time>2019-06-16T11:52:40Z</time>
      </trkpt>
      <trkpt lat="44.70765" lon="5.23234">
        <ele>697</ele>
        <time>2019-06-16T11:52:42Z</time>
      </trkpt>
      <trkpt lat="44.70766" lon="5.23234">
        <ele>697</ele>
        <time>2019-06-16T11:52:47Z</time>
      </trkpt>
      <trkpt lat="44.70767" lon="5.23236">
        <ele>697</ele>
        <time>2019-06-16T11:52:55Z</time>
      </trkpt>
      <trkpt lat="44.70774" lon="5.23236">
        <ele>697</ele>
        <time>2019-06-16T11:52:59Z</time>
      </trkpt>
      <trkpt lat="44.70786" lon="5.23237">
        <ele>697</ele>
        <time>2019-06-16T11:53:07Z</time>
      </trkpt>
      <trkpt lat="44.70794" lon="5.23241">
        <ele>697</ele>
        <time>2019-06-16T11:53:14Z</time>
      </trkpt>
      <trkpt lat="44.70794" lon="5.23241">
        <ele>697.4</ele>
        <time>2019-06-16T11:53:15Z</time>
      </trkpt>
      <trkpt lat="44.70795" lon="5.23242">
        <ele>697.8</ele>
        <time>2019-06-16T11:53:16Z</time>
      </trkpt>
      <trkpt lat="44.70797" lon="5.23242">
        <ele>698.2</ele>
        <time>2019-06-16T11:53:17Z</time>
      </trkpt>
      <trkpt lat="44.70798" lon="5.23243">
        <ele>698.6</ele>
        <time>2019-06-16T11:53:18Z</time>
      </trkpt>
      <trkpt lat="44.70799" lon="5.23243">
        <ele>699</ele>
        <time>2019-06-16T11:53:19Z</time>
      </trkpt>
      <trkpt lat="44.70802" lon="5.23245">
        <ele>699</ele>
        <time>2019-06-16T11:53:21Z</time>
      </trkpt>
      <trkpt lat="44.70807" lon="5.23246">
        <ele>699</ele>
        <time>2019-06-16T11:53:25Z</time>
      </trkpt>
      <trkpt lat="44.70811" lon="5.23247">
        <ele>699</ele>
        <time>2019-06-16T11:53:29Z</time>
      </trkpt>
      <trkpt lat="44.70812" lon="5.23253">
        <ele>699</ele>
        <time>2019-06-16T11:53:37Z</time>
      </trkpt>
      <trkpt lat="44.70819" lon="5.23255">
        <ele>699</ele>
        <time>2019-06-16T11:53:47Z</time>
      </trkpt>
      <trkpt lat="44.70827" lon="5.2326">
        <ele>699</ele>
        <time>2019-06-16T11:53:54Z</time>
      </trkpt>
      <trkpt lat="44.70833" lon="5.2326">
        <ele>699.4</ele>
        <time>2019-06-16T11:54:01Z</time>
      </trkpt>
      <trkpt lat="44.70833" lon="5.2326">
        <ele>699.8</ele>
        <time>2019-06-16T11:54:02Z</time>
      </trkpt>
      <trkpt lat="44.70833" lon="5.2326">
        <ele>700.2</ele>
        <time>2019-06-16T11:54:03Z</time>
      </trkpt>
      <trkpt lat="44.70833" lon="5.2326">
        <ele>700.6</ele>
        <time>2019-06-16T11:54:04Z</time>
      </trkpt>
      <trkpt lat="44.70834" lon="5.2326">
        <ele>701</ele>
        <time>2019-06-16T11:54:05Z</time>
      </trkpt>
      <trkpt lat="44.70834" lon="5.23258">
        <ele>701</ele>
        <time>2019-06-16T11:54:14Z</time>
      </trkpt>
      <trkpt lat="44.7084" lon="5.23263">
        <ele>701</ele>
        <time>2019-06-16T11:54:31Z</time>
      </trkpt>
      <trkpt lat="44.7085" lon="5.2327">
        <ele>701</ele>
        <time>2019-06-16T11:54:39Z</time>
      </trkpt>
      <trkpt lat="44.70856" lon="5.23273">
        <ele>701.6</ele>
        <time>2019-06-16T11:54:44Z</time>
      </trkpt>
      <trkpt lat="44.70857" lon="5.23274">
        <ele>702</ele>
        <time>2019-06-16T11:54:45Z</time>
      </trkpt>
      <trkpt lat="44.70858" lon="5.23274">
        <ele>702.4</ele>
        <time>2019-06-16T11:54:46Z</time>
      </trkpt>
      <trkpt lat="44.70859" lon="5.23275">
        <ele>703</ele>
        <time>2019-06-16T11:54:47Z</time>
      </trkpt>
      <trkpt lat="44.7086" lon="5.23275">
        <ele>703.4</ele>
        <time>2019-06-16T11:54:48Z</time>
      </trkpt>
      <trkpt lat="44.70868" lon="5.23281">
        <ele>703.4</ele>
        <time>2019-06-16T11:54:57Z</time>
      </trkpt>
      <trkpt lat="44.70871" lon="5.23283">
        <ele>703.8</ele>
        <time>2019-06-16T11:55:01Z</time>
      </trkpt>
      <trkpt lat="44.70872" lon="5.23284">
        <ele>704.2</ele>
        <time>2019-06-16T11:55:02Z</time>
      </trkpt>
      <trkpt lat="44.70873" lon="5.23284">
        <ele>704.6</ele>
        <time>2019-06-16T11:55:03Z</time>
      </trkpt>
      <trkpt lat="44.70873" lon="5.23285">
        <ele>705</ele>
        <time>2019-06-16T11:55:04Z</time>
      </trkpt>
      <trkpt lat="44.70874" lon="5.23286">
        <ele>705.6</ele>
        <time>2019-06-16T11:55:05Z</time>
      </trkpt>
      <trkpt lat="44.70874" lon="5.23286">
        <ele>705.6</ele>
        <time>2019-06-16T11:55:06Z</time>
      </trkpt>
      <trkpt lat="44.70875" lon="5.23286">
        <ele>705.6</ele>
        <time>2019-06-16T11:55:16Z</time>
      </trkpt>
      <trkpt lat="44.7088" lon="5.2329">
        <ele>705.6</ele>
        <time>2019-06-16T11:55:21Z</time>
      </trkpt>
      <trkpt lat="44.70891" lon="5.23297">
        <ele>705.6</ele>
        <time>2019-06-16T11:55:28Z</time>
      </trkpt>
      <trkpt lat="44.70903" lon="5.23302">
        <ele>705.6</ele>
        <time>2019-06-16T11:55:38Z</time>
      </trkpt>
      <trkpt lat="44.70904" lon="5.23303">
        <ele>705.6</ele>
        <time>2019-06-16T11:55:45Z</time>
      </trkpt>
      <trkpt lat="44.70916" lon="5.23297">
        <ele>705.6</ele>
        <time>2019-06-16T11:57:07Z</time>
      </trkpt>
      <trkpt lat="44.70924" lon="5.23298">
        <ele>705.6</ele>
        <time>2019-06-16T11:57:09Z</time>
      </trkpt>
      <trkpt lat="44.70927" lon="5.23301">
        <ele>705</ele>
        <time>2019-06-16T11:57:10Z</time>
      </trkpt>
      <trkpt lat="44.70931" lon="5.23305">
        <ele>704.4</ele>
        <time>2019-06-16T11:57:11Z</time>
      </trkpt>
      <trkpt lat="44.70935" lon="5.23308">
        <ele>704</ele>
        <time>2019-06-16T11:57:12Z</time>
      </trkpt>
      <trkpt lat="44.70939" lon="5.23311">
        <ele>703.4</ele>
        <time>2019-06-16T11:57:13Z</time>
      </trkpt>
      <trkpt lat="44.70942" lon="5.23314">
        <ele>702.8</ele>
        <time>2019-06-16T11:57:14Z</time>
      </trkpt>
      <trkpt lat="44.70946" lon="5.23317">
        <ele>702.4</ele>
        <time>2019-06-16T11:57:15Z</time>
      </trkpt>
      <trkpt lat="44.70949" lon="5.2332">
        <ele>702</ele>
        <time>2019-06-16T11:57:16Z</time>
      </trkpt>
      <trkpt lat="44.70952" lon="5.23324">
        <ele>701.6</ele>
        <time>2019-06-16T11:57:17Z</time>
      </trkpt>
      <trkpt lat="44.70955" lon="5.23328">
        <ele>701.2</ele>
        <time>2019-06-16T11:57:18Z</time>
      </trkpt>
      <trkpt lat="44.70958" lon="5.23331">
        <ele>700.6</ele>
        <time>2019-06-16T11:57:19Z</time>
      </trkpt>
      <trkpt lat="44.70964" lon="5.23337">
        <ele>699.8</ele>
        <time>2019-06-16T11:57:21Z</time>
      </trkpt>
      <trkpt lat="44.70967" lon="5.23339">
        <ele>699.8</ele>
        <time>2019-06-16T11:57:22Z</time>
      </trkpt>
      <trkpt lat="44.7097" lon="5.23342">
        <ele>699.4</ele>
        <time>2019-06-16T11:57:23Z</time>
      </trkpt>
      <trkpt lat="44.70973" lon="5.23345">
        <ele>698.8</ele>
        <time>2019-06-16T11:57:24Z</time>
      </trkpt>
      <trkpt lat="44.70976" lon="5.23347">
        <ele>698.4</ele>
        <time>2019-06-16T11:57:25Z</time>
      </trkpt>
      <trkpt lat="44.70989" lon="5.2336">
        <ele>698</ele>
        <time>2019-06-16T11:57:29Z</time>
      </trkpt>
      <trkpt lat="44.70992" lon="5.23363">
        <ele>697.6</ele>
        <time>2019-06-16T11:57:30Z</time>
      </trkpt>
      <trkpt lat="44.70995" lon="5.23364">
        <ele>697</ele>
        <time>2019-06-16T11:57:31Z</time>
      </trkpt>
      <trkpt lat="44.70998" lon="5.23366">
        <ele>696.6</ele>
        <time>2019-06-16T11:57:32Z</time>
      </trkpt>
      <trkpt lat="44.71001" lon="5.23366">
        <ele>696.2</ele>
        <time>2019-06-16T11:57:33Z</time>
      </trkpt>
      <trkpt lat="44.71003" lon="5.23366">
        <ele>695.6</ele>
        <time>2019-06-16T11:57:34Z</time>
      </trkpt>
      <trkpt lat="44.71005" lon="5.23366">
        <ele>695.2</ele>
        <time>2019-06-16T11:57:35Z</time>
      </trkpt>
      <trkpt lat="44.71007" lon="5.23367">
        <ele>694.6</ele>
        <time>2019-06-16T11:57:36Z</time>
      </trkpt>
      <trkpt lat="44.71007" lon="5.23368">
        <ele>694.2</ele>
        <time>2019-06-16T11:57:37Z</time>
      </trkpt>
      <trkpt lat="44.71005" lon="5.23367">
        <ele>694.2</ele>
        <time>2019-06-16T11:57:39Z</time>
      </trkpt>
      <trkpt lat="44.71003" lon="5.23367">
        <ele>693.8</ele>
        <time>2019-06-16T11:57:40Z</time>
      </trkpt>
      <trkpt lat="44.71" lon="5.23366">
        <ele>693.2</ele>
        <time>2019-06-16T11:57:41Z</time>
      </trkpt>
      <trkpt lat="44.70997" lon="5.23365">
        <ele>692.8</ele>
        <time>2019-06-16T11:57:42Z</time>
      </trkpt>
      <trkpt lat="44.70994" lon="5.23365">
        <ele>692.4</ele>
        <time>2019-06-16T11:57:43Z</time>
      </trkpt>
      <trkpt lat="44.70992" lon="5.23364">
        <ele>691.8</ele>
        <time>2019-06-16T11:57:44Z</time>
      </trkpt>
      <trkpt lat="44.70988" lon="5.23363">
        <ele>691.8</ele>
        <time>2019-06-16T11:57:45Z</time>
      </trkpt>
      <trkpt lat="44.70985" lon="5.23363">
        <ele>691.4</ele>
        <time>2019-06-16T11:57:46Z</time>
      </trkpt>
      <trkpt lat="44.70982" lon="5.23362">
        <ele>691</ele>
        <time>2019-06-16T11:57:47Z</time>
      </trkpt>
      <trkpt lat="44.70978" lon="5.23361">
        <ele>690.6</ele>
        <time>2019-06-16T11:57:48Z</time>
      </trkpt>
      <trkpt lat="44.70975" lon="5.2336">
        <ele>690</ele>
        <time>2019-06-16T11:57:49Z</time>
      </trkpt>
      <trkpt lat="44.70972" lon="5.23359">
        <ele>689.6</ele>
        <time>2019-06-16T11:57:50Z</time>
      </trkpt>
      <trkpt lat="44.70969" lon="5.23358">
        <ele>689.2</ele>
        <time>2019-06-16T11:57:51Z</time>
      </trkpt>
      <trkpt lat="44.70966" lon="5.23357">
        <ele>688.8</ele>
        <time>2019-06-16T11:57:52Z</time>
      </trkpt>
      <trkpt lat="44.70963" lon="5.23355">
        <ele>688.4</ele>
        <time>2019-06-16T11:57:53Z</time>
      </trkpt>
      <trkpt lat="44.70961" lon="5.23354">
        <ele>687.8</ele>
        <time>2019-06-16T11:57:54Z</time>
      </trkpt>
      <trkpt lat="44.70958" lon="5.23353">
        <ele>687.4</ele>
        <time>2019-06-16T11:57:55Z</time>
      </trkpt>
      <trkpt lat="44.70955" lon="5.23351">
        <ele>687</ele>
        <time>2019-06-16T11:57:56Z</time>
      </trkpt>
      <trkpt lat="44.70952" lon="5.23349">
        <ele>686.6</ele>
        <time>2019-06-16T11:57:57Z</time>
      </trkpt>
      <trkpt lat="44.70949" lon="5.23346">
        <ele>685.6</ele>
        <time>2019-06-16T11:57:58Z</time>
      </trkpt>
      <trkpt lat="44.70945" lon="5.23341">
        <ele>685.2</ele>
        <time>2019-06-16T11:58:00Z</time>
      </trkpt>
      <trkpt lat="44.70941" lon="5.23335">
        <ele>684.8</ele>
        <time>2019-06-16T11:58:03Z</time>
      </trkpt>
      <trkpt lat="44.70939" lon="5.23333">
        <ele>684.8</ele>
        <time>2019-06-16T11:58:04Z</time>
      </trkpt>
      <trkpt lat="44.70937" lon="5.23334">
        <ele>684.4</ele>
        <time>2019-06-16T11:58:05Z</time>
      </trkpt>
      <trkpt lat="44.70937" lon="5.23336">
        <ele>683.8</ele>
        <time>2019-06-16T11:58:06Z</time>
      </trkpt>
      <trkpt lat="44.70937" lon="5.23337">
        <ele>683.4</ele>
        <time>2019-06-16T11:58:07Z</time>
      </trkpt>
      <trkpt lat="44.70937" lon="5.23337">
        <ele>683</ele>
        <time>2019-06-16T11:58:08Z</time>
      </trkpt>
      <trkpt lat="44.7094" lon="5.23346">
        <ele>683</ele>
        <time>2019-06-16T11:58:14Z</time>
      </trkpt>
      <trkpt lat="44.70943" lon="5.23354">
        <ele>683</ele>
        <time>2019-06-16T11:58:16Z</time>
      </trkpt>
      <trkpt lat="44.70945" lon="5.23357">
        <ele>682.6</ele>
        <time>2019-06-16T11:58:17Z</time>
      </trkpt>
      <trkpt lat="44.70946" lon="5.2336">
        <ele>682</ele>
        <time>2019-06-16T11:58:18Z</time>
      </trkpt>
      <trkpt lat="44.70948" lon="5.23363">
        <ele>681.6</ele>
        <time>2019-06-16T11:58:19Z</time>
      </trkpt>
      <trkpt lat="44.70949" lon="5.23365">
        <ele>681.2</ele>
        <time>2019-06-16T11:58:20Z</time>
      </trkpt>
      <trkpt lat="44.70951" lon="5.23368">
        <ele>680.6</ele>
        <time>2019-06-16T11:58:21Z</time>
      </trkpt>
      <trkpt lat="44.70955" lon="5.23374">
        <ele>680.6</ele>
        <time>2019-06-16T11:58:23Z</time>
      </trkpt>
      <trkpt lat="44.70956" lon="5.23376">
        <ele>680.2</ele>
        <time>2019-06-16T11:58:24Z</time>
      </trkpt>
      <trkpt lat="44.70958" lon="5.23378">
        <ele>679.8</ele>
        <time>2019-06-16T11:58:25Z</time>
      </trkpt>
      <trkpt lat="44.7096" lon="5.2338">
        <ele>679.4</ele>
        <time>2019-06-16T11:58:26Z</time>
      </trkpt>
      <trkpt lat="44.70962" lon="5.23382">
        <ele>679</ele>
        <time>2019-06-16T11:58:27Z</time>
      </trkpt>
      <trkpt lat="44.70964" lon="5.23383">
        <ele>678.6</ele>
        <time>2019-06-16T11:58:28Z</time>
      </trkpt>
      <trkpt lat="44.70969" lon="5.2339">
        <ele>678.6</ele>
        <time>2019-06-16T11:58:31Z</time>
      </trkpt>
      <trkpt lat="44.70972" lon="5.23392">
        <ele>678</ele>
        <time>2019-06-16T11:58:32Z</time>
      </trkpt>
      <trkpt lat="44.70974" lon="5.23394">
        <ele>677.6</ele>
        <time>2019-06-16T11:58:33Z</time>
      </trkpt>
      <trkpt lat="44.70979" lon="5.23399">
        <ele>677.2</ele>
        <time>2019-06-16T11:58:35Z</time>
      </trkpt>
      <trkpt lat="44.70981" lon="5.23401">
        <ele>676.6</ele>
        <time>2019-06-16T11:58:36Z</time>
      </trkpt>
      <trkpt lat="44.70984" lon="5.23402">
        <ele>676.2</ele>
        <time>2019-06-16T11:58:37Z</time>
      </trkpt>
      <trkpt lat="44.70988" lon="5.23405">
        <ele>675.8</ele>
        <time>2019-06-16T11:58:39Z</time>
      </trkpt>
      <trkpt lat="44.70993" lon="5.23407">
        <ele>675.4</ele>
        <time>2019-06-16T11:58:41Z</time>
      </trkpt>
      <trkpt lat="44.70997" lon="5.23407">
        <ele>675</ele>
        <time>2019-06-16T11:58:42Z</time>
      </trkpt>
      <trkpt lat="44.70999" lon="5.23407">
        <ele>674.6</ele>
        <time>2019-06-16T11:58:43Z</time>
      </trkpt>
      <trkpt lat="44.71002" lon="5.23407">
        <ele>674.2</ele>
        <time>2019-06-16T11:58:44Z</time>
      </trkpt>
      <trkpt lat="44.71018" lon="5.2341">
        <ele>673.6</ele>
        <time>2019-06-16T11:58:49Z</time>
      </trkpt>
      <trkpt lat="44.71022" lon="5.2341">
        <ele>673.2</ele>
        <time>2019-06-16T11:58:50Z</time>
      </trkpt>
      <trkpt lat="44.71025" lon="5.2341">
        <ele>672.8</ele>
        <time>2019-06-16T11:58:51Z</time>
      </trkpt>
      <trkpt lat="44.71027" lon="5.23411">
        <ele>672.4</ele>
        <time>2019-06-16T11:58:52Z</time>
      </trkpt>
      <trkpt lat="44.7103" lon="5.2341">
        <ele>672</ele>
        <time>2019-06-16T11:58:53Z</time>
      </trkpt>
      <trkpt lat="44.71035" lon="5.23411">
        <ele>672</ele>
        <time>2019-06-16T11:58:55Z</time>
      </trkpt>
      <trkpt lat="44.7104" lon="5.23413">
        <ele>671.4</ele>
        <time>2019-06-16T11:58:57Z</time>
      </trkpt>
      <trkpt lat="44.71044" lon="5.23412">
        <ele>671</ele>
        <time>2019-06-16T11:58:58Z</time>
      </trkpt>
      <trkpt lat="44.71047" lon="5.23412">
        <ele>670.6</ele>
        <time>2019-06-16T11:58:59Z</time>
      </trkpt>
      <trkpt lat="44.7105" lon="5.23412">
        <ele>670</ele>
        <time>2019-06-16T11:59:00Z</time>
      </trkpt>
      <trkpt lat="44.71053" lon="5.23413">
        <ele>669.6</ele>
        <time>2019-06-16T11:59:01Z</time>
      </trkpt>
      <trkpt lat="44.71066" lon="5.23413">
        <ele>669.2</ele>
        <time>2019-06-16T11:59:06Z</time>
      </trkpt>
      <trkpt lat="44.7107" lon="5.23412">
        <ele>668.6</ele>
        <time>2019-06-16T11:59:07Z</time>
      </trkpt>
      <trkpt lat="44.71072" lon="5.23413">
        <ele>668.2</ele>
        <time>2019-06-16T11:59:08Z</time>
      </trkpt>
      <trkpt lat="44.71075" lon="5.23413">
        <ele>667.8</ele>
        <time>2019-06-16T11:59:09Z</time>
      </trkpt>
      <trkpt lat="44.71078" lon="5.23414">
        <ele>667.4</ele>
        <time>2019-06-16T11:59:10Z</time>
      </trkpt>
      <trkpt lat="44.71082" lon="5.23414">
        <ele>667.4</ele>
        <time>2019-06-16T11:59:11Z</time>
      </trkpt>
      <trkpt lat="44.71091" lon="5.23416">
        <ele>667</ele>
        <time>2019-06-16T11:59:14Z</time>
      </trkpt>
      <trkpt lat="44.71095" lon="5.23418">
        <ele>666.4</ele>
        <time>2019-06-16T11:59:15Z</time>
      </trkpt>
      <trkpt lat="44.71099" lon="5.23418">
        <ele>666</ele>
        <time>2019-06-16T11:59:16Z</time>
      </trkpt>
      <trkpt lat="44.71102" lon="5.23418">
        <ele>665.6</ele>
        <time>2019-06-16T11:59:17Z</time>
      </trkpt>
      <trkpt lat="44.71105" lon="5.23418">
        <ele>665.2</ele>
        <time>2019-06-16T11:59:18Z</time>
      </trkpt>
      <trkpt lat="44.71117" lon="5.23425">
        <ele>664.8</ele>
        <time>2019-06-16T11:59:22Z</time>
      </trkpt>
      <trkpt lat="44.7112" lon="5.23427">
        <ele>664.4</ele>
        <time>2019-06-16T11:59:23Z</time>
      </trkpt>
      <trkpt lat="44.71123" lon="5.23428">
        <ele>664</ele>
        <time>2019-06-16T11:59:24Z</time>
      </trkpt>
      <trkpt lat="44.71125" lon="5.23428">
        <ele>663.6</ele>
        <time>2019-06-16T11:59:25Z</time>
      </trkpt>
      <trkpt lat="44.71127" lon="5.23429">
        <ele>663.2</ele>
        <time>2019-06-16T11:59:26Z</time>
      </trkpt>
      <trkpt lat="44.71139" lon="5.23434">
        <ele>663.2</ele>
        <time>2019-06-16T11:59:31Z</time>
      </trkpt>
      <trkpt lat="44.71142" lon="5.23435">
        <ele>662.8</ele>
        <time>2019-06-16T11:59:32Z</time>
      </trkpt>
      <trkpt lat="44.71145" lon="5.23436">
        <ele>662.2</ele>
        <time>2019-06-16T11:59:33Z</time>
      </trkpt>
      <trkpt lat="44.71148" lon="5.23437">
        <ele>661.8</ele>
        <time>2019-06-16T11:59:34Z</time>
      </trkpt>
      <trkpt lat="44.71151" lon="5.23437">
        <ele>661.4</ele>
        <time>2019-06-16T11:59:35Z</time>
      </trkpt>
      <trkpt lat="44.71154" lon="5.23438">
        <ele>660.8</ele>
        <time>2019-06-16T11:59:36Z</time>
      </trkpt>
      <trkpt lat="44.71158" lon="5.23439">
        <ele>660.8</ele>
        <time>2019-06-16T11:59:38Z</time>
      </trkpt>
      <trkpt lat="44.71168" lon="5.23443">
        <ele>660.4</ele>
        <time>2019-06-16T11:59:41Z</time>
      </trkpt>
      <trkpt lat="44.71171" lon="5.23444">
        <ele>660</ele>
        <time>2019-06-16T11:59:42Z</time>
      </trkpt>
      <trkpt lat="44.71174" lon="5.23445">
        <ele>659.4</ele>
        <time>2019-06-16T11:59:43Z</time>
      </trkpt>
      <trkpt lat="44.71177" lon="5.23445">
        <ele>659</ele>
        <time>2019-06-16T11:59:44Z</time>
      </trkpt>
      <trkpt lat="44.7118" lon="5.23446">
        <ele>658.6</ele>
        <time>2019-06-16T11:59:45Z</time>
      </trkpt>
      <trkpt lat="44.71204" lon="5.23453">
        <ele>658.6</ele>
        <time>2019-06-16T11:59:52Z</time>
      </trkpt>
      <trkpt lat="44.71206" lon="5.23454">
        <ele>658.2</ele>
        <time>2019-06-16T11:59:53Z</time>
      </trkpt>
      <trkpt lat="44.7121" lon="5.23456">
        <ele>657.8</ele>
        <time>2019-06-16T11:59:54Z</time>
      </trkpt>
      <trkpt lat="44.71212" lon="5.23457">
        <ele>657.4</ele>
        <time>2019-06-16T11:59:55Z</time>
      </trkpt>
      <trkpt lat="44.71215" lon="5.23459">
        <ele>656.8</ele>
        <time>2019-06-16T11:59:56Z</time>
      </trkpt>
      <trkpt lat="44.71218" lon="5.23461">
        <ele>656.4</ele>
        <time>2019-06-16T11:59:57Z</time>
      </trkpt>
      <trkpt lat="44.71227" lon="5.23468">
        <ele>656.4</ele>
        <time>2019-06-16T12:00:00Z</time>
      </trkpt>
      <trkpt lat="44.71234" lon="5.23477">
        <ele>656</ele>
        <time>2019-06-16T12:00:03Z</time>
      </trkpt>
      <trkpt lat="44.71237" lon="5.2348">
        <ele>655.6</ele>
        <time>2019-06-16T12:00:04Z</time>
      </trkpt>
      <trkpt lat="44.7124" lon="5.23482">
        <ele>655.2</ele>
        <time>2019-06-16T12:00:05Z</time>
      </trkpt>
      <trkpt lat="44.71243" lon="5.23485">
        <ele>654.8</ele>
        <time>2019-06-16T12:00:06Z</time>
      </trkpt>
      <trkpt lat="44.71245" lon="5.23489">
        <ele>654.4</ele>
        <time>2019-06-16T12:00:07Z</time>
      </trkpt>
      <trkpt lat="44.71254" lon="5.23496">
        <ele>654</ele>
        <time>2019-06-16T12:00:10Z</time>
      </trkpt>
      <trkpt lat="44.71257" lon="5.23498">
        <ele>653.6</ele>
        <time>2019-06-16T12:00:11Z</time>
      </trkpt>
      <trkpt lat="44.7126" lon="5.23499">
        <ele>653.2</ele>
        <time>2019-06-16T12:00:12Z</time>
      </trkpt>
      <trkpt lat="44.71262" lon="5.235">
        <ele>652.8</ele>
        <time>2019-06-16T12:00:13Z</time>
      </trkpt>
      <trkpt lat="44.71265" lon="5.23501">
        <ele>652.4</ele>
        <time>2019-06-16T12:00:14Z</time>
      </trkpt>
      <trkpt lat="44.71274" lon="5.23503">
        <ele>652.4</ele>
        <time>2019-06-16T12:00:18Z</time>
      </trkpt>
      <trkpt lat="44.71277" lon="5.23503">
        <ele>652.4</ele>
        <time>2019-06-16T12:00:19Z</time>
      </trkpt>
      <trkpt lat="44.71289" lon="5.23506">
        <ele>652</ele>
        <time>2019-06-16T12:00:24Z</time>
      </trkpt>
      <trkpt lat="44.71292" lon="5.23506">
        <ele>651.6</ele>
        <time>2019-06-16T12:00:25Z</time>
      </trkpt>
      <trkpt lat="44.71295" lon="5.23506">
        <ele>651.2</ele>
        <time>2019-06-16T12:00:26Z</time>
      </trkpt>
      <trkpt lat="44.71298" lon="5.23507">
        <ele>650.8</ele>
        <time>2019-06-16T12:00:27Z</time>
      </trkpt>
      <trkpt lat="44.713" lon="5.23508">
        <ele>650.4</ele>
        <time>2019-06-16T12:00:28Z</time>
      </trkpt>
      <trkpt lat="44.71307" lon="5.23511">
        <ele>650.4</ele>
        <time>2019-06-16T12:00:31Z</time>
      </trkpt>
      <trkpt lat="44.71314" lon="5.23511">
        <ele>650</ele>
        <time>2019-06-16T12:00:34Z</time>
      </trkpt>
      <trkpt lat="44.71317" lon="5.23511">
        <ele>649.4</ele>
        <time>2019-06-16T12:00:35Z</time>
      </trkpt>
      <trkpt lat="44.71319" lon="5.23511">
        <ele>649</ele>
        <time>2019-06-16T12:00:36Z</time>
      </trkpt>
      <trkpt lat="44.71321" lon="5.23511">
        <ele>648.4</ele>
        <time>2019-06-16T12:00:37Z</time>
      </trkpt>
      <trkpt lat="44.71325" lon="5.23513">
        <ele>648</ele>
        <time>2019-06-16T12:00:38Z</time>
      </trkpt>
      <trkpt lat="44.71328" lon="5.23514">
        <ele>648</ele>
        <time>2019-06-16T12:00:40Z</time>
      </trkpt>
      <trkpt lat="44.71331" lon="5.23516">
        <ele>648</ele>
        <time>2019-06-16T12:01:38Z</time>
      </trkpt>
      <trkpt lat="44.71333" lon="5.23517">
        <ele>648</ele>
        <time>2019-06-16T12:02:34Z</time>
      </trkpt>
      <trkpt lat="44.71336" lon="5.23518">
        <ele>647.6</ele>
        <time>2019-06-16T12:02:35Z</time>
      </trkpt>
      <trkpt lat="44.71341" lon="5.23519">
        <ele>647.2</ele>
        <time>2019-06-16T12:02:36Z</time>
      </trkpt>
      <trkpt lat="44.71344" lon="5.23521">
        <ele>646.8</ele>
        <time>2019-06-16T12:02:37Z</time>
      </trkpt>
      <trkpt lat="44.71348" lon="5.23522">
        <ele>646.4</ele>
        <time>2019-06-16T12:02:38Z</time>
      </trkpt>
      <trkpt lat="44.71353" lon="5.23524">
        <ele>646</ele>
        <time>2019-06-16T12:02:39Z</time>
      </trkpt>
      <trkpt lat="44.71357" lon="5.23524">
        <ele>645.4</ele>
        <time>2019-06-16T12:02:40Z</time>
      </trkpt>
      <trkpt lat="44.71362" lon="5.23526">
        <ele>645</ele>
        <time>2019-06-16T12:02:41Z</time>
      </trkpt>
      <trkpt lat="44.71368" lon="5.23527">
        <ele>644.4</ele>
        <time>2019-06-16T12:02:42Z</time>
      </trkpt>
      <trkpt lat="44.71374" lon="5.23527">
        <ele>644</ele>
        <time>2019-06-16T12:02:43Z</time>
      </trkpt>
      <trkpt lat="44.71379" lon="5.23527">
        <ele>643.4</ele>
        <time>2019-06-16T12:02:44Z</time>
      </trkpt>
      <trkpt lat="44.71385" lon="5.23526">
        <ele>643</ele>
        <time>2019-06-16T12:02:45Z</time>
      </trkpt>
      <trkpt lat="44.71391" lon="5.23525">
        <ele>642.4</ele>
        <time>2019-06-16T12:02:46Z</time>
      </trkpt>
      <trkpt lat="44.714" lon="5.23522">
        <ele>642</ele>
        <time>2019-06-16T12:02:47Z</time>
      </trkpt>
      <trkpt lat="44.71407" lon="5.2352">
        <ele>641.6</ele>
        <time>2019-06-16T12:02:48Z</time>
      </trkpt>
      <trkpt lat="44.71414" lon="5.23519">
        <ele>641.6</ele>
        <time>2019-06-16T12:02:49Z</time>
      </trkpt>
      <trkpt lat="44.71426" lon="5.23519">
        <ele>641</ele>
        <time>2019-06-16T12:02:51Z</time>
      </trkpt>
      <trkpt lat="44.71431" lon="5.2352">
        <ele>640.6</ele>
        <time>2019-06-16T12:02:52Z</time>
      </trkpt>
      <trkpt lat="44.71444" lon="5.23519">
        <ele>639.6</ele>
        <time>2019-06-16T12:02:54Z</time>
      </trkpt>
      <trkpt lat="44.7145" lon="5.23518">
        <ele>639</ele>
        <time>2019-06-16T12:02:55Z</time>
      </trkpt>
      <trkpt lat="44.71456" lon="5.23517">
        <ele>638.6</ele>
        <time>2019-06-16T12:02:56Z</time>
      </trkpt>
      <trkpt lat="44.71462" lon="5.23515">
        <ele>638.2</ele>
        <time>2019-06-16T12:02:57Z</time>
      </trkpt>
      <trkpt lat="44.71466" lon="5.23512">
        <ele>637.8</ele>
        <time>2019-06-16T12:02:58Z</time>
      </trkpt>
      <trkpt lat="44.71471" lon="5.2351">
        <ele>637.2</ele>
        <time>2019-06-16T12:02:59Z</time>
      </trkpt>
      <trkpt lat="44.71476" lon="5.23507">
        <ele>636.8</ele>
        <time>2019-06-16T12:03:00Z</time>
      </trkpt>
      <trkpt lat="44.71501" lon="5.23507">
        <ele>636.4</ele>
        <time>2019-06-16T12:03:04Z</time>
      </trkpt>
      <trkpt lat="44.71509" lon="5.2351">
        <ele>636</ele>
        <time>2019-06-16T12:03:05Z</time>
      </trkpt>
      <trkpt lat="44.71518" lon="5.23511">
        <ele>635.6</ele>
        <time>2019-06-16T12:03:06Z</time>
      </trkpt>
      <trkpt lat="44.71524" lon="5.23514">
        <ele>635</ele>
        <time>2019-06-16T12:03:07Z</time>
      </trkpt>
      <trkpt lat="44.71532" lon="5.23517">
        <ele>634.4</ele>
        <time>2019-06-16T12:03:08Z</time>
      </trkpt>
      <trkpt lat="44.71539" lon="5.23517">
        <ele>633.8</ele>
        <time>2019-06-16T12:03:09Z</time>
      </trkpt>
      <trkpt lat="44.71547" lon="5.23517">
        <ele>633</ele>
        <time>2019-06-16T12:03:10Z</time>
      </trkpt>
      <trkpt lat="44.71553" lon="5.23517">
        <ele>632.4</ele>
        <time>2019-06-16T12:03:11Z</time>
      </trkpt>
      <trkpt lat="44.71559" lon="5.23516">
        <ele>631.8</ele>
        <time>2019-06-16T12:03:12Z</time>
      </trkpt>
      <trkpt lat="44.71563" lon="5.23517">
        <ele>631</ele>
        <time>2019-06-16T12:03:13Z</time>
      </trkpt>
      <trkpt lat="44.71569" lon="5.23517">
        <ele>630.4</ele>
        <time>2019-06-16T12:03:14Z</time>
      </trkpt>
      <trkpt lat="44.71575" lon="5.23516">
        <ele>630.4</ele>
        <time>2019-06-16T12:03:15Z</time>
      </trkpt>
      <trkpt lat="44.71596" lon="5.2351">
        <ele>630</ele>
        <time>2019-06-16T12:03:19Z</time>
      </trkpt>
      <trkpt lat="44.716" lon="5.23508">
        <ele>629.6</ele>
        <time>2019-06-16T12:03:20Z</time>
      </trkpt>
      <trkpt lat="44.71602" lon="5.23507">
        <ele>629.2</ele>
        <time>2019-06-16T12:03:21Z</time>
      </trkpt>
      <trkpt lat="44.71605" lon="5.23506">
        <ele>628.8</ele>
        <time>2019-06-16T12:03:22Z</time>
      </trkpt>
      <trkpt lat="44.71607" lon="5.23505">
        <ele>628.4</ele>
        <time>2019-06-16T12:03:23Z</time>
      </trkpt>
      <trkpt lat="44.71611" lon="5.23503">
        <ele>627.8</ele>
        <time>2019-06-16T12:03:24Z</time>
      </trkpt>
      <trkpt lat="44.71616" lon="5.23501">
        <ele>627.2</ele>
        <time>2019-06-16T12:03:25Z</time>
      </trkpt>
      <trkpt lat="44.71621" lon="5.23499">
        <ele>626.8</ele>
        <time>2019-06-16T12:03:26Z</time>
      </trkpt>
      <trkpt lat="44.71626" lon="5.23497">
        <ele>626.2</ele>
        <time>2019-06-16T12:03:27Z</time>
      </trkpt>
      <trkpt lat="44.7163" lon="5.23495">
        <ele>625.8</ele>
        <time>2019-06-16T12:03:28Z</time>
      </trkpt>
      <trkpt lat="44.71647" lon="5.23493">
        <ele>625.2</ele>
        <time>2019-06-16T12:03:31Z</time>
      </trkpt>
      <trkpt lat="44.71652" lon="5.23491">
        <ele>624.8</ele>
        <time>2019-06-16T12:03:32Z</time>
      </trkpt>
      <trkpt lat="44.71658" lon="5.2349">
        <ele>624.4</ele>
        <time>2019-06-16T12:03:33Z</time>
      </trkpt>
      <trkpt lat="44.71663" lon="5.23488">
        <ele>623.8</ele>
        <time>2019-06-16T12:03:34Z</time>
      </trkpt>
      <trkpt lat="44.71667" lon="5.23488">
        <ele>623.4</ele>
        <time>2019-06-16T12:03:35Z</time>
      </trkpt>
      <trkpt lat="44.7168" lon="5.23488">
        <ele>623.4</ele>
        <time>2019-06-16T12:03:38Z</time>
      </trkpt>
      <trkpt lat="44.71689" lon="5.23487">
        <ele>623</ele>
        <time>2019-06-16T12:03:40Z</time>
      </trkpt>
      <trkpt lat="44.71694" lon="5.23486">
        <ele>622.6</ele>
        <time>2019-06-16T12:03:41Z</time>
      </trkpt>
      <trkpt lat="44.71697" lon="5.23486">
        <ele>622</ele>
        <time>2019-06-16T12:03:42Z</time>
      </trkpt>
      <trkpt lat="44.71701" lon="5.23486">
        <ele>621.6</ele>
        <time>2019-06-16T12:03:43Z</time>
      </trkpt>
      <trkpt lat="44.71704" lon="5.23486">
        <ele>621.2</ele>
        <time>2019-06-16T12:03:44Z</time>
      </trkpt>
      <trkpt lat="44.71716" lon="5.23483">
        <ele>620.8</ele>
        <time>2019-06-16T12:03:47Z</time>
      </trkpt>
      <trkpt lat="44.7172" lon="5.23482">
        <ele>620.4</ele>
        <time>2019-06-16T12:03:48Z</time>
      </trkpt>
      <trkpt lat="44.71724" lon="5.2348">
        <ele>619.8</ele>
        <time>2019-06-16T12:03:49Z</time>
      </trkpt>
      <trkpt lat="44.7173" lon="5.23478">
        <ele>619.4</ele>
        <time>2019-06-16T12:03:50Z</time>
      </trkpt>
      <trkpt lat="44.71734" lon="5.23477">
        <ele>619</ele>
        <time>2019-06-16T12:03:51Z</time>
      </trkpt>
      <trkpt lat="44.71738" lon="5.23474">
        <ele>619</ele>
        <time>2019-06-16T12:03:52Z</time>
      </trkpt>
      <trkpt lat="44.71748" lon="5.23476">
        <ele>619</ele>
        <time>2019-06-16T12:03:55Z</time>
      </trkpt>
      <trkpt lat="44.71764" lon="5.23486">
        <ele>618.6</ele>
        <time>2019-06-16T12:04:00Z</time>
      </trkpt>
      <trkpt lat="44.71766" lon="5.23488">
        <ele>618</ele>
        <time>2019-06-16T12:04:01Z</time>
      </trkpt>
      <trkpt lat="44.71769" lon="5.2349">
        <ele>617.6</ele>
        <time>2019-06-16T12:04:02Z</time>
      </trkpt>
      <trkpt lat="44.71772" lon="5.23493">
        <ele>617.2</ele>
        <time>2019-06-16T12:04:03Z</time>
      </trkpt>
      <trkpt lat="44.71776" lon="5.23496">
        <ele>616.6</ele>
        <time>2019-06-16T12:04:04Z</time>
      </trkpt>
      <trkpt lat="44.71788" lon="5.23508">
        <ele>616.6</ele>
        <time>2019-06-16T12:04:08Z</time>
      </trkpt>
      <trkpt lat="44.71793" lon="5.23513">
        <ele>616.2</ele>
        <time>2019-06-16T12:04:10Z</time>
      </trkpt>
      <trkpt lat="44.71795" lon="5.23516">
        <ele>615.8</ele>
        <time>2019-06-16T12:04:11Z</time>
      </trkpt>
      <trkpt lat="44.71798" lon="5.23517">
        <ele>615.4</ele>
        <time>2019-06-16T12:04:12Z</time>
      </trkpt>
      <trkpt lat="44.718" lon="5.23519">
        <ele>615</ele>
        <time>2019-06-16T12:04:13Z</time>
      </trkpt>
      <trkpt lat="44.71801" lon="5.23521">
        <ele>614.6</ele>
        <time>2019-06-16T12:04:14Z</time>
      </trkpt>
      <trkpt lat="44.71805" lon="5.23523">
        <ele>614.6</ele>
        <time>2019-06-16T12:04:16Z</time>
      </trkpt>
      <trkpt lat="44.71808" lon="5.23526">
        <ele>614.2</ele>
        <time>2019-06-16T12:04:17Z</time>
      </trkpt>
      <trkpt lat="44.71812" lon="5.2353">
        <ele>613.6</ele>
        <time>2019-06-16T12:04:18Z</time>
      </trkpt>
      <trkpt lat="44.71815" lon="5.23533">
        <ele>613.2</ele>
        <time>2019-06-16T12:04:19Z</time>
      </trkpt>
      <trkpt lat="44.71817" lon="5.23538">
        <ele>612.6</ele>
        <time>2019-06-16T12:04:20Z</time>
      </trkpt>
      <trkpt lat="44.7182" lon="5.23543">
        <ele>612.2</ele>
        <time>2019-06-16T12:04:21Z</time>
      </trkpt>
      <trkpt lat="44.71831" lon="5.23555">
        <ele>612.2</ele>
        <time>2019-06-16T12:04:25Z</time>
      </trkpt>
      <trkpt lat="44.71843" lon="5.23564">
        <ele>611.8</ele>
        <time>2019-06-16T12:04:30Z</time>
      </trkpt>
      <trkpt lat="44.71845" lon="5.23565">
        <ele>611.4</ele>
        <time>2019-06-16T12:04:31Z</time>
      </trkpt>
      <trkpt lat="44.71847" lon="5.23567">
        <ele>611</ele>
        <time>2019-06-16T12:04:32Z</time>
      </trkpt>
      <trkpt lat="44.71849" lon="5.23569">
        <ele>610.4</ele>
        <time>2019-06-16T12:04:33Z</time>
      </trkpt>
      <trkpt lat="44.71851" lon="5.23571">
        <ele>610</ele>
        <time>2019-06-16T12:04:34Z</time>
      </trkpt>
      <trkpt lat="44.71858" lon="5.23575">
        <ele>609.6</ele>
        <time>2019-06-16T12:04:36Z</time>
      </trkpt>
      <trkpt lat="44.7186" lon="5.23577">
        <ele>609.2</ele>
        <time>2019-06-16T12:04:37Z</time>
      </trkpt>
      <trkpt lat="44.71862" lon="5.23578">
        <ele>608.8</ele>
        <time>2019-06-16T12:04:38Z</time>
      </trkpt>
      <trkpt lat="44.71865" lon="5.2358">
        <ele>608.2</ele>
        <time>2019-06-16T12:04:39Z</time>
      </trkpt>
      <trkpt lat="44.71867" lon="5.23581">
        <ele>607.8</ele>
        <time>2019-06-16T12:04:40Z</time>
      </trkpt>
      <trkpt lat="44.71881" lon="5.23586">
        <ele>607.8</ele>
        <time>2019-06-16T12:04:45Z</time>
      </trkpt>
      <trkpt lat="44.71885" lon="5.23586">
        <ele>607.4</ele>
        <time>2019-06-16T12:04:46Z</time>
      </trkpt>
      <trkpt lat="44.71888" lon="5.23586">
        <ele>607</ele>
        <time>2019-06-16T12:04:47Z</time>
      </trkpt>
      <trkpt lat="44.71892" lon="5.23585">
        <ele>606.4</ele>
        <time>2019-06-16T12:04:48Z</time>
      </trkpt>
      <trkpt lat="44.71895" lon="5.23585">
        <ele>606</ele>
        <time>2019-06-16T12:04:49Z</time>
      </trkpt>
      <trkpt lat="44.71897" lon="5.23585">
        <ele>605.6</ele>
        <time>2019-06-16T12:04:50Z</time>
      </trkpt>
      <trkpt lat="44.71918" lon="5.23588">
        <ele>605.6</ele>
        <time>2019-06-16T12:04:57Z</time>
      </trkpt>
      <trkpt lat="44.71931" lon="5.23596">
        <ele>605</ele>
        <time>2019-06-16T12:05:01Z</time>
      </trkpt>
      <trkpt lat="44.71935" lon="5.23598">
        <ele>604.6</ele>
        <time>2019-06-16T12:05:02Z</time>
      </trkpt>
      <trkpt lat="44.71938" lon="5.236">
        <ele>604</ele>
        <time>2019-06-16T12:05:03Z</time>
      </trkpt>
      <trkpt lat="44.71942" lon="5.23603">
        <ele>603.6</ele>
        <time>2019-06-16T12:05:04Z</time>
      </trkpt>
      <trkpt lat="44.71945" lon="5.23605">
        <ele>603.2</ele>
        <time>2019-06-16T12:05:05Z</time>
      </trkpt>
      <trkpt lat="44.71957" lon="5.23615">
        <ele>603.2</ele>
        <time>2019-06-16T12:05:09Z</time>
      </trkpt>
      <trkpt lat="44.71961" lon="5.23618">
        <ele>602.8</ele>
        <time>2019-06-16T12:05:10Z</time>
      </trkpt>
      <trkpt lat="44.71965" lon="5.23621">
        <ele>602.2</ele>
        <time>2019-06-16T12:05:11Z</time>
      </trkpt>
      <trkpt lat="44.71968" lon="5.23625">
        <ele>601.8</ele>
        <time>2019-06-16T12:05:12Z</time>
      </trkpt>
      <trkpt lat="44.71972" lon="5.23628">
        <ele>601.4</ele>
        <time>2019-06-16T12:05:13Z</time>
      </trkpt>
      <trkpt lat="44.71975" lon="5.23632">
        <ele>601</ele>
        <time>2019-06-16T12:05:14Z</time>
      </trkpt>
      <trkpt lat="44.71982" lon="5.23635">
        <ele>601</ele>
        <time>2019-06-16T12:05:16Z</time>
      </trkpt>
      <trkpt lat="44.71991" lon="5.23632">
        <ele>601</ele>
        <time>2019-06-16T12:05:20Z</time>
      </trkpt>
      <trkpt lat="44.71994" lon="5.23634">
        <ele>601</ele>
        <time>2019-06-16T12:05:21Z</time>
      </trkpt>
      <trkpt lat="44.72" lon="5.23638">
        <ele>601</ele>
        <time>2019-06-16T12:05:23Z</time>
      </trkpt>
      <trkpt lat="44.72003" lon="5.23643">
        <ele>600.6</ele>
        <time>2019-06-16T12:05:24Z</time>
      </trkpt>
      <trkpt lat="44.72004" lon="5.23649">
        <ele>600.2</ele>
        <time>2019-06-16T12:05:25Z</time>
      </trkpt>
      <trkpt lat="44.72004" lon="5.23653">
        <ele>599.8</ele>
        <time>2019-06-16T12:05:26Z</time>
      </trkpt>
      <trkpt lat="44.72001" lon="5.23656">
        <ele>599.4</ele>
        <time>2019-06-16T12:05:27Z</time>
      </trkpt>
      <trkpt lat="44.71999" lon="5.2366">
        <ele>599</ele>
        <time>2019-06-16T12:05:28Z</time>
      </trkpt>
      <trkpt lat="44.71996" lon="5.23672">
        <ele>598.4</ele>
        <time>2019-06-16T12:05:31Z</time>
      </trkpt>
      <trkpt lat="44.71995" lon="5.23676">
        <ele>598</ele>
        <time>2019-06-16T12:05:32Z</time>
      </trkpt>
      <trkpt lat="44.71993" lon="5.23681">
        <ele>597.6</ele>
        <time>2019-06-16T12:05:33Z</time>
      </trkpt>
      <trkpt lat="44.71992" lon="5.23685">
        <ele>597</ele>
        <time>2019-06-16T12:05:34Z</time>
      </trkpt>
      <trkpt lat="44.71991" lon="5.2369">
        <ele>596.6</ele>
        <time>2019-06-16T12:05:35Z</time>
      </trkpt>
      <trkpt lat="44.71985" lon="5.237">
        <ele>596</ele>
        <time>2019-06-16T12:05:38Z</time>
      </trkpt>
      <trkpt lat="44.71983" lon="5.23702">
        <ele>595.6</ele>
        <time>2019-06-16T12:05:39Z</time>
      </trkpt>
      <trkpt lat="44.71981" lon="5.23706">
        <ele>595.2</ele>
        <time>2019-06-16T12:05:40Z</time>
      </trkpt>
      <trkpt lat="44.7198" lon="5.23709">
        <ele>594.8</ele>
        <time>2019-06-16T12:05:41Z</time>
      </trkpt>
      <trkpt lat="44.71978" lon="5.23711">
        <ele>594.4</ele>
        <time>2019-06-16T12:05:42Z</time>
      </trkpt>
      <trkpt lat="44.71976" lon="5.23714">
        <ele>594.4</ele>
        <time>2019-06-16T12:05:43Z</time>
      </trkpt>
      <trkpt lat="44.71972" lon="5.23717">
        <ele>594.4</ele>
        <time>2019-06-16T12:05:45Z</time>
      </trkpt>
      <trkpt lat="44.71972" lon="5.2372">
        <ele>594.4</ele>
        <time>2019-06-16T12:05:51Z</time>
      </trkpt>
      <trkpt lat="44.71972" lon="5.2372">
        <ele>594</ele>
        <time>2019-06-16T12:06:08Z</time>
      </trkpt>
      <trkpt lat="44.71972" lon="5.2372">
        <ele>593.6</ele>
        <time>2019-06-16T12:06:09Z</time>
      </trkpt>
      <trkpt lat="44.71972" lon="5.2372">
        <ele>593.2</ele>
        <time>2019-06-16T12:06:10Z</time>
      </trkpt>
      <trkpt lat="44.71972" lon="5.2372">
        <ele>592.8</ele>
        <time>2019-06-16T12:06:11Z</time>
      </trkpt>
      <trkpt lat="44.71972" lon="5.2372">
        <ele>592.4</ele>
        <time>2019-06-16T12:06:12Z</time>
      </trkpt>
      <trkpt lat="44.71972" lon="5.2372">
        <ele>592.4</ele>
        <time>2019-06-16T12:07:57Z</time>
      </trkpt>
      <trkpt lat="44.71973" lon="5.2372">
        <ele>592.8</ele>
        <time>2019-06-16T12:08:48Z</time>
      </trkpt>
      <trkpt lat="44.71973" lon="5.2372">
        <ele>593.2</ele>
        <time>2019-06-16T12:08:49Z</time>
      </trkpt>
      <trkpt lat="44.71973" lon="5.2372">
        <ele>593.6</ele>
        <time>2019-06-16T12:08:50Z</time>
      </trkpt>
      <trkpt lat="44.71973" lon="5.2372">
        <ele>594</ele>
        <time>2019-06-16T12:08:51Z</time>
      </trkpt>
      <trkpt lat="44.71973" lon="5.2372">
        <ele>594.4</ele>
        <time>2019-06-16T12:08:52Z</time>
      </trkpt>
      <trkpt lat="44.71974" lon="5.2372">
        <ele>594.8</ele>
        <time>2019-06-16T12:09:01Z</time>
      </trkpt>
      <trkpt lat="44.71974" lon="5.2372">
        <ele>595.2</ele>
        <time>2019-06-16T12:09:02Z</time>
      </trkpt>
      <trkpt lat="44.71974" lon="5.2372">
        <ele>595.6</ele>
        <time>2019-06-16T12:09:03Z</time>
      </trkpt>
      <trkpt lat="44.71974" lon="5.2372">
        <ele>596</ele>
        <time>2019-06-16T12:09:04Z</time>
      </trkpt>
      <trkpt lat="44.71974" lon="5.2372">
        <ele>596.4</ele>
        <time>2019-06-16T12:09:05Z</time>
      </trkpt>
      <trkpt lat="44.71974" lon="5.2372">
        <ele>596.4</ele>
        <time>2019-06-16T12:09:15Z</time>
      </trkpt>
      <trkpt lat="44.71976" lon="5.2372">
        <ele>596.4</ele>
        <time>2019-06-16T12:09:20Z</time>
      </trkpt>
      <trkpt lat="44.71976" lon="5.2372">
        <ele>597</ele>
        <time>2019-06-16T12:09:21Z</time>
      </trkpt>
      <trkpt lat="44.71976" lon="5.2372">
        <ele>597.4</ele>
        <time>2019-06-16T12:09:22Z</time>
      </trkpt>
      <trkpt lat="44.71976" lon="5.2372">
        <ele>597.8</ele>
        <time>2019-06-16T12:09:23Z</time>
      </trkpt>
      <trkpt lat="44.71976" lon="5.2372">
        <ele>598.2</ele>
        <time>2019-06-16T12:09:24Z</time>
      </trkpt>
      <trkpt lat="44.71976" lon="5.2372">
        <ele>598.6</ele>
        <time>2019-06-16T12:09:25Z</time>
      </trkpt>
      <trkpt lat="44.71976" lon="5.2372">
        <ele>599.2</ele>
        <time>2019-06-16T12:09:42Z</time>
      </trkpt>
      <trkpt lat="44.71976" lon="5.2372">
        <ele>599.6</ele>
        <time>2019-06-16T12:09:43Z</time>
      </trkpt>
      <trkpt lat="44.71976" lon="5.2372">
        <ele>600</ele>
        <time>2019-06-16T12:09:44Z</time>
      </trkpt>
      <trkpt lat="44.71976" lon="5.2372">
        <ele>600.4</ele>
        <time>2019-06-16T12:09:45Z</time>
      </trkpt>
      <trkpt lat="44.71976" lon="5.2372">
        <ele>600.8</ele>
        <time>2019-06-16T12:09:46Z</time>
      </trkpt>
      <trkpt lat="44.71978" lon="5.23714">
        <ele>601.2</ele>
        <time>2019-06-16T12:09:55Z</time>
      </trkpt>
      <trkpt lat="44.71978" lon="5.23714">
        <ele>601.6</ele>
        <time>2019-06-16T12:09:56Z</time>
      </trkpt>
      <trkpt lat="44.71978" lon="5.23714">
        <ele>602</ele>
        <time>2019-06-16T12:09:57Z</time>
      </trkpt>
      <trkpt lat="44.71978" lon="5.2371">
        <ele>602.4</ele>
        <time>2019-06-16T12:09:58Z</time>
      </trkpt>
      <trkpt lat="44.71978" lon="5.23712">
        <ele>602.8</ele>
        <time>2019-06-16T12:09:59Z</time>
      </trkpt>
      <trkpt lat="44.71984" lon="5.2372">
        <ele>602.8</ele>
        <time>2019-06-16T12:10:03Z</time>
      </trkpt>
      <trkpt lat="44.71983" lon="5.23724">
        <ele>603.4</ele>
        <time>2019-06-16T12:10:14Z</time>
      </trkpt>
      <trkpt lat="44.71983" lon="5.23725">
        <ele>603.8</ele>
        <time>2019-06-16T12:10:15Z</time>
      </trkpt>
      <trkpt lat="44.71985" lon="5.23728">
        <ele>604.2</ele>
        <time>2019-06-16T12:10:16Z</time>
      </trkpt>
      <trkpt lat="44.71985" lon="5.23727">
        <ele>604.6</ele>
        <time>2019-06-16T12:10:17Z</time>
      </trkpt>
      <trkpt lat="44.71984" lon="5.23728">
        <ele>605</ele>
        <time>2019-06-16T12:10:18Z</time>
      </trkpt>
      <trkpt lat="44.71981" lon="5.23738">
        <ele>605.6</ele>
        <time>2019-06-16T12:10:29Z</time>
      </trkpt>
      <trkpt lat="44.71981" lon="5.23739">
        <ele>606</ele>
        <time>2019-06-16T12:10:30Z</time>
      </trkpt>
      <trkpt lat="44.7198" lon="5.23739">
        <ele>606.4</ele>
        <time>2019-06-16T12:10:31Z</time>
      </trkpt>
      <trkpt lat="44.7198" lon="5.2374">
        <ele>606.8</ele>
        <time>2019-06-16T12:10:32Z</time>
      </trkpt>
      <trkpt lat="44.71979" lon="5.23741">
        <ele>607.2</ele>
        <time>2019-06-16T12:10:33Z</time>
      </trkpt>
      <trkpt lat="44.71977" lon="5.23751">
        <ele>607.2</ele>
        <time>2019-06-16T12:10:43Z</time>
      </trkpt>
      <trkpt lat="44.71976" lon="5.23752">
        <ele>607.6</ele>
        <time>2019-06-16T12:10:51Z</time>
      </trkpt>
      <trkpt lat="44.71977" lon="5.23752">
        <ele>608</ele>
        <time>2019-06-16T12:10:52Z</time>
      </trkpt>
      <trkpt lat="44.71977" lon="5.23753">
        <ele>608.4</ele>
        <time>2019-06-16T12:10:53Z</time>
      </trkpt>
      <trkpt lat="44.71977" lon="5.23752">
        <ele>608.8</ele>
        <time>2019-06-16T12:10:54Z</time>
      </trkpt>
      <trkpt lat="44.71977" lon="5.2375">
        <ele>609.2</ele>
        <time>2019-06-16T12:10:55Z</time>
      </trkpt>
      <trkpt lat="44.71976" lon="5.23746">
        <ele>609.2</ele>
        <time>2019-06-16T12:11:05Z</time>
      </trkpt>
      <trkpt lat="44.7198" lon="5.23734">
        <ele>609.2</ele>
        <time>2019-06-16T12:11:22Z</time>
      </trkpt>
      <trkpt lat="44.71983" lon="5.2373">
        <ele>609.6</ele>
        <time>2019-06-16T12:11:24Z</time>
      </trkpt>
      <trkpt lat="44.71983" lon="5.23728">
        <ele>610</ele>
        <time>2019-06-16T12:11:25Z</time>
      </trkpt>
      <trkpt lat="44.71984" lon="5.23726">
        <ele>610.4</ele>
        <time>2019-06-16T12:11:26Z</time>
      </trkpt>
      <trkpt lat="44.71985" lon="5.23723">
        <ele>610.8</ele>
        <time>2019-06-16T12:11:27Z</time>
      </trkpt>
      <trkpt lat="44.71986" lon="5.23721">
        <ele>611.2</ele>
        <time>2019-06-16T12:11:28Z</time>
      </trkpt>
      <trkpt lat="44.71988" lon="5.23718">
        <ele>611.2</ele>
        <time>2019-06-16T12:11:30Z</time>
      </trkpt>
      <trkpt lat="44.71991" lon="5.23713">
        <ele>611.8</ele>
        <time>2019-06-16T12:11:33Z</time>
      </trkpt>
      <trkpt lat="44.71992" lon="5.23713">
        <ele>612.2</ele>
        <time>2019-06-16T12:11:34Z</time>
      </trkpt>
      <trkpt lat="44.71993" lon="5.23712">
        <ele>612.6</ele>
        <time>2019-06-16T12:11:35Z</time>
      </trkpt>
      <trkpt lat="44.71994" lon="5.23711">
        <ele>613</ele>
        <time>2019-06-16T12:11:36Z</time>
      </trkpt>
      <trkpt lat="44.71996" lon="5.23709">
        <ele>613.4</ele>
        <time>2019-06-16T12:11:37Z</time>
      </trkpt>
      <trkpt lat="44.71999" lon="5.23698">
        <ele>614</ele>
        <time>2019-06-16T12:11:42Z</time>
      </trkpt>
      <trkpt lat="44.72" lon="5.23696">
        <ele>614.4</ele>
        <time>2019-06-16T12:11:43Z</time>
      </trkpt>
      <trkpt lat="44.72001" lon="5.23695">
        <ele>614.8</ele>
        <time>2019-06-16T12:11:44Z</time>
      </trkpt>
      <trkpt lat="44.72002" lon="5.23693">
        <ele>615.2</ele>
        <time>2019-06-16T12:11:45Z</time>
      </trkpt>
      <trkpt lat="44.72003" lon="5.2369">
        <ele>615.6</ele>
        <time>2019-06-16T12:11:46Z</time>
      </trkpt>
      <trkpt lat="44.72005" lon="5.23686">
        <ele>615.6</ele>
        <time>2019-06-16T12:11:49Z</time>
      </trkpt>
      <trkpt lat="44.72006" lon="5.23683">
        <ele>616.2</ele>
        <time>2019-06-16T12:11:52Z</time>
      </trkpt>
      <trkpt lat="44.72006" lon="5.23681">
        <ele>616.6</ele>
        <time>2019-06-16T12:11:53Z</time>
      </trkpt>
      <trkpt lat="44.72007" lon="5.2368">
        <ele>617</ele>
        <time>2019-06-16T12:11:54Z</time>
      </trkpt>
      <trkpt lat="44.72008" lon="5.23678">
        <ele>617.4</ele>
        <time>2019-06-16T12:11:55Z</time>
      </trkpt>
      <trkpt lat="44.72009" lon="5.23676">
        <ele>617.8</ele>
        <time>2019-06-16T12:11:56Z</time>
      </trkpt>
      <trkpt lat="44.7201" lon="5.23674">
        <ele>617.8</ele>
        <time>2019-06-16T12:11:57Z</time>
      </trkpt>
      <trkpt lat="44.72014" lon="5.23664">
        <ele>618.2</ele>
        <time>2019-06-16T12:12:03Z</time>
      </trkpt>
      <trkpt lat="44.72015" lon="5.23662">
        <ele>618.6</ele>
        <time>2019-06-16T12:12:04Z</time>
      </trkpt>
      <trkpt lat="44.72015" lon="5.2366">
        <ele>619</ele>
        <time>2019-06-16T12:12:05Z</time>
      </trkpt>
      <trkpt lat="44.72015" lon="5.23658">
        <ele>619.4</ele>
        <time>2019-06-16T12:12:06Z</time>
      </trkpt>
      <trkpt lat="44.72015" lon="5.23657">
        <ele>619.8</ele>
        <time>2019-06-16T12:12:07Z</time>
      </trkpt>
      <trkpt lat="44.72019" lon="5.23658">
        <ele>619.8</ele>
        <time>2019-06-16T12:12:09Z</time>
      </trkpt>
      <trkpt lat="44.7202" lon="5.23655">
        <ele>620.2</ele>
        <time>2019-06-16T12:12:13Z</time>
      </trkpt>
      <trkpt lat="44.7202" lon="5.23655">
        <ele>620.6</ele>
        <time>2019-06-16T12:12:14Z</time>
      </trkpt>
      <trkpt lat="44.72021" lon="5.23654">
        <ele>621</ele>
        <time>2019-06-16T12:12:15Z</time>
      </trkpt>
      <trkpt lat="44.72021" lon="5.23653">
        <ele>621.6</ele>
        <time>2019-06-16T12:12:16Z</time>
      </trkpt>
      <trkpt lat="44.72024" lon="5.23655">
        <ele>622</ele>
        <time>2019-06-16T12:12:17Z</time>
      </trkpt>
      <trkpt lat="44.72026" lon="5.23654">
        <ele>622</ele>
        <time>2019-06-16T12:12:26Z</time>
      </trkpt>
      <trkpt lat="44.72029" lon="5.23649">
        <ele>622</ele>
        <time>2019-06-16T12:12:37Z</time>
      </trkpt>
      <trkpt lat="44.72031" lon="5.23643">
        <ele>622</ele>
        <time>2019-06-16T12:12:45Z</time>
      </trkpt>
      <trkpt lat="44.72033" lon="5.23637">
        <ele>622.4</ele>
        <time>2019-06-16T12:12:48Z</time>
      </trkpt>
      <trkpt lat="44.72034" lon="5.23636">
        <ele>622.8</ele>
        <time>2019-06-16T12:12:49Z</time>
      </trkpt>
      <trkpt lat="44.72035" lon="5.23634">
        <ele>623.2</ele>
        <time>2019-06-16T12:12:50Z</time>
      </trkpt>
      <trkpt lat="44.72036" lon="5.23633">
        <ele>623.8</ele>
        <time>2019-06-16T12:12:51Z</time>
      </trkpt>
      <trkpt lat="44.72036" lon="5.23631">
        <ele>624.2</ele>
        <time>2019-06-16T12:12:52Z</time>
      </trkpt>
      <trkpt lat="44.72037" lon="5.2363">
        <ele>624.2</ele>
        <time>2019-06-16T12:12:53Z</time>
      </trkpt>
      <trkpt lat="44.72037" lon="5.23627">
        <ele>624.6</ele>
        <time>2019-06-16T12:12:55Z</time>
      </trkpt>
      <trkpt lat="44.72038" lon="5.23626">
        <ele>625</ele>
        <time>2019-06-16T12:12:56Z</time>
      </trkpt>
      <trkpt lat="44.72038" lon="5.23625">
        <ele>625.4</ele>
        <time>2019-06-16T12:12:57Z</time>
      </trkpt>
      <trkpt lat="44.72038" lon="5.23624">
        <ele>625.8</ele>
        <time>2019-06-16T12:12:58Z</time>
      </trkpt>
      <trkpt lat="44.7204" lon="5.23624">
        <ele>626.2</ele>
        <time>2019-06-16T12:12:59Z</time>
      </trkpt>
      <trkpt lat="44.72042" lon="5.23621">
        <ele>626.2</ele>
        <time>2019-06-16T12:13:04Z</time>
      </trkpt>
      <trkpt lat="44.72045" lon="5.23611">
        <ele>626.2</ele>
        <time>2019-06-16T12:13:13Z</time>
      </trkpt>
      <trkpt lat="44.72046" lon="5.23605">
        <ele>626.8</ele>
        <time>2019-06-16T12:13:16Z</time>
      </trkpt>
      <trkpt lat="44.72047" lon="5.23604">
        <ele>627.2</ele>
        <time>2019-06-16T12:13:17Z</time>
      </trkpt>
      <trkpt lat="44.72047" lon="5.23602">
        <ele>627.6</ele>
        <time>2019-06-16T12:13:18Z</time>
      </trkpt>
      <trkpt lat="44.72048" lon="5.23602">
        <ele>628.2</ele>
        <time>2019-06-16T12:13:19Z</time>
      </trkpt>
      <trkpt lat="44.72049" lon="5.23602">
        <ele>628.6</ele>
        <time>2019-06-16T12:13:20Z</time>
      </trkpt>
      <trkpt lat="44.7205" lon="5.23599">
        <ele>628.6</ele>
        <time>2019-06-16T12:13:25Z</time>
      </trkpt>
      <trkpt lat="44.7205" lon="5.23597">
        <ele>628.6</ele>
        <time>2019-06-16T12:13:37Z</time>
      </trkpt>
      <trkpt lat="44.72049" lon="5.23595">
        <ele>629</ele>
        <time>2019-06-16T12:14:04Z</time>
      </trkpt>
      <trkpt lat="44.72049" lon="5.23595">
        <ele>629.4</ele>
        <time>2019-06-16T12:14:05Z</time>
      </trkpt>
      <trkpt lat="44.72049" lon="5.23595">
        <ele>630</ele>
        <time>2019-06-16T12:14:06Z</time>
      </trkpt>
      <trkpt lat="44.72049" lon="5.23595">
        <ele>630.4</ele>
        <time>2019-06-16T12:14:07Z</time>
      </trkpt>
      <trkpt lat="44.72049" lon="5.23595">
        <ele>630.8</ele>
        <time>2019-06-16T12:14:08Z</time>
      </trkpt>
      <trkpt lat="44.72055" lon="5.23588">
        <ele>630.8</ele>
        <time>2019-06-16T12:14:55Z</time>
      </trkpt>
      <trkpt lat="44.72057" lon="5.23578">
        <ele>631.2</ele>
        <time>2019-06-16T12:14:59Z</time>
      </trkpt>
      <trkpt lat="44.72057" lon="5.23577">
        <ele>631.6</ele>
        <time>2019-06-16T12:15:00Z</time>
      </trkpt>
      <trkpt lat="44.72058" lon="5.23575">
        <ele>632</ele>
        <time>2019-06-16T12:15:01Z</time>
      </trkpt>
      <trkpt lat="44.7206" lon="5.23573">
        <ele>632.4</ele>
        <time>2019-06-16T12:15:02Z</time>
      </trkpt>
      <trkpt lat="44.72061" lon="5.23571">
        <ele>632.8</ele>
        <time>2019-06-16T12:15:03Z</time>
      </trkpt>
      <trkpt lat="44.72063" lon="5.2357">
        <ele>633.2</ele>
        <time>2019-06-16T12:15:04Z</time>
      </trkpt>
      <trkpt lat="44.72064" lon="5.23568">
        <ele>633.6</ele>
        <time>2019-06-16T12:15:05Z</time>
      </trkpt>
      <trkpt lat="44.72065" lon="5.23566">
        <ele>634</ele>
        <time>2019-06-16T12:15:06Z</time>
      </trkpt>
      <trkpt lat="44.72065" lon="5.23565">
        <ele>634.4</ele>
        <time>2019-06-16T12:15:07Z</time>
      </trkpt>
      <trkpt lat="44.72066" lon="5.23563">
        <ele>634.8</ele>
        <time>2019-06-16T12:15:08Z</time>
      </trkpt>
      <trkpt lat="44.7207" lon="5.23557">
        <ele>634.8</ele>
        <time>2019-06-16T12:15:13Z</time>
      </trkpt>
      <trkpt lat="44.72071" lon="5.23557">
        <ele>635.2</ele>
        <time>2019-06-16T12:15:14Z</time>
      </trkpt>
      <trkpt lat="44.72071" lon="5.23556">
        <ele>635.8</ele>
        <time>2019-06-16T12:15:15Z</time>
      </trkpt>
      <trkpt lat="44.72072" lon="5.23555">
        <ele>636.2</ele>
        <time>2019-06-16T12:15:16Z</time>
      </trkpt>
      <trkpt lat="44.72072" lon="5.23554">
        <ele>636.6</ele>
        <time>2019-06-16T12:15:17Z</time>
      </trkpt>
      <trkpt lat="44.72073" lon="5.23553">
        <ele>637</ele>
        <time>2019-06-16T12:15:18Z</time>
      </trkpt>
      <trkpt lat="44.72076" lon="5.23551">
        <ele>637</ele>
        <time>2019-06-16T12:15:20Z</time>
      </trkpt>
      <trkpt lat="44.72078" lon="5.23546">
        <ele>637.4</ele>
        <time>2019-06-16T12:15:23Z</time>
      </trkpt>
      <trkpt lat="44.72079" lon="5.23546">
        <ele>638</ele>
        <time>2019-06-16T12:15:24Z</time>
      </trkpt>
      <trkpt lat="44.7208" lon="5.23543">
        <ele>638.4</ele>
        <time>2019-06-16T12:15:25Z</time>
      </trkpt>
      <trkpt lat="44.7208" lon="5.23542">
        <ele>638.8</ele>
        <time>2019-06-16T12:15:26Z</time>
      </trkpt>
      <trkpt lat="44.72081" lon="5.23542">
        <ele>639.2</ele>
        <time>2019-06-16T12:15:27Z</time>
      </trkpt>
      <trkpt lat="44.72084" lon="5.23537">
        <ele>639.6</ele>
        <time>2019-06-16T12:15:32Z</time>
      </trkpt>
      <trkpt lat="44.72085" lon="5.23536">
        <ele>640</ele>
        <time>2019-06-16T12:15:33Z</time>
      </trkpt>
      <trkpt lat="44.72086" lon="5.23536">
        <ele>640.4</ele>
        <time>2019-06-16T12:15:34Z</time>
      </trkpt>
      <trkpt lat="44.72087" lon="5.23535">
        <ele>640.8</ele>
        <time>2019-06-16T12:15:35Z</time>
      </trkpt>
      <trkpt lat="44.72088" lon="5.23534">
        <ele>641.2</ele>
        <time>2019-06-16T12:15:36Z</time>
      </trkpt>
      <trkpt lat="44.72089" lon="5.23533">
        <ele>641.2</ele>
        <time>2019-06-16T12:15:37Z</time>
      </trkpt>
      <trkpt lat="44.72092" lon="5.23533">
        <ele>641.2</ele>
        <time>2019-06-16T12:15:40Z</time>
      </trkpt>
      <trkpt lat="44.72094" lon="5.23532">
        <ele>641.8</ele>
        <time>2019-06-16T12:15:42Z</time>
      </trkpt>
      <trkpt lat="44.72096" lon="5.23531">
        <ele>642.2</ele>
        <time>2019-06-16T12:15:43Z</time>
      </trkpt>
      <trkpt lat="44.72097" lon="5.23531">
        <ele>642.6</ele>
        <time>2019-06-16T12:15:44Z</time>
      </trkpt>
      <trkpt lat="44.72097" lon="5.2353">
        <ele>643</ele>
        <time>2019-06-16T12:15:45Z</time>
      </trkpt>
      <trkpt lat="44.72098" lon="5.23529">
        <ele>643.4</ele>
        <time>2019-06-16T12:15:46Z</time>
      </trkpt>
      <trkpt lat="44.721" lon="5.23528">
        <ele>643.4</ele>
        <time>2019-06-16T12:15:49Z</time>
      </trkpt>
      <trkpt lat="44.72101" lon="5.23526">
        <ele>643.8</ele>
        <time>2019-06-16T12:15:51Z</time>
      </trkpt>
      <trkpt lat="44.72101" lon="5.23526">
        <ele>644.2</ele>
        <time>2019-06-16T12:15:52Z</time>
      </trkpt>
      <trkpt lat="44.72102" lon="5.23526">
        <ele>644.8</ele>
        <time>2019-06-16T12:15:53Z</time>
      </trkpt>
      <trkpt lat="44.72103" lon="5.23525">
        <ele>645.2</ele>
        <time>2019-06-16T12:15:54Z</time>
      </trkpt>
      <trkpt lat="44.72103" lon="5.23525">
        <ele>645.6</ele>
        <time>2019-06-16T12:15:55Z</time>
      </trkpt>
      <trkpt lat="44.72107" lon="5.23521">
        <ele>645.6</ele>
        <time>2019-06-16T12:16:00Z</time>
      </trkpt>
      <trkpt lat="44.72108" lon="5.23521">
        <ele>646</ele>
        <time>2019-06-16T12:16:02Z</time>
      </trkpt>
      <trkpt lat="44.72108" lon="5.2352">
        <ele>646.4</ele>
        <time>2019-06-16T12:16:03Z</time>
      </trkpt>
      <trkpt lat="44.7211" lon="5.23521">
        <ele>646.8</ele>
        <time>2019-06-16T12:16:04Z</time>
      </trkpt>
      <trkpt lat="44.72109" lon="5.2352">
        <ele>647.2</ele>
        <time>2019-06-16T12:16:05Z</time>
      </trkpt>
      <trkpt lat="44.7211" lon="5.2352">
        <ele>647.6</ele>
        <time>2019-06-16T12:16:06Z</time>
      </trkpt>
      <trkpt lat="44.72112" lon="5.23518">
        <ele>647.6</ele>
        <time>2019-06-16T12:16:28Z</time>
      </trkpt>
      <trkpt lat="44.72121" lon="5.23512">
        <ele>647.6</ele>
        <time>2019-06-16T12:17:28Z</time>
      </trkpt>
      <trkpt lat="44.72126" lon="5.23501">
        <ele>647.6</ele>
        <time>2019-06-16T12:17:33Z</time>
      </trkpt>
      <trkpt lat="44.72124" lon="5.23497">
        <ele>647.6</ele>
        <time>2019-06-16T12:17:35Z</time>
      </trkpt>
      <trkpt lat="44.72122" lon="5.23494">
        <ele>648</ele>
        <time>2019-06-16T12:17:37Z</time>
      </trkpt>
      <trkpt lat="44.72121" lon="5.23493">
        <ele>648.4</ele>
        <time>2019-06-16T12:17:38Z</time>
      </trkpt>
      <trkpt lat="44.7212" lon="5.23493">
        <ele>649</ele>
        <time>2019-06-16T12:17:39Z</time>
      </trkpt>
      <trkpt lat="44.72119" lon="5.23491">
        <ele>649.4</ele>
        <time>2019-06-16T12:17:40Z</time>
      </trkpt>
      <trkpt lat="44.72117" lon="5.2349">
        <ele>649.8</ele>
        <time>2019-06-16T12:17:41Z</time>
      </trkpt>
      <trkpt lat="44.72109" lon="5.23486">
        <ele>649.8</ele>
        <time>2019-06-16T12:17:47Z</time>
      </trkpt>
      <trkpt lat="44.72087" lon="5.23473">
        <ele>650.2</ele>
        <time>2019-06-16T12:18:01Z</time>
      </trkpt>
      <trkpt lat="44.72087" lon="5.23474">
        <ele>650.8</ele>
        <time>2019-06-16T12:18:02Z</time>
      </trkpt>
      <trkpt lat="44.72087" lon="5.23476">
        <ele>651.2</ele>
        <time>2019-06-16T12:18:03Z</time>
      </trkpt>
      <trkpt lat="44.72086" lon="5.23476">
        <ele>651.8</ele>
        <time>2019-06-16T12:18:04Z</time>
      </trkpt>
      <trkpt lat="44.72086" lon="5.23477">
        <ele>652.2</ele>
        <time>2019-06-16T12:18:05Z</time>
      </trkpt>
      <trkpt lat="44.72084" lon="5.23478">
        <ele>652.2</ele>
        <time>2019-06-16T12:18:07Z</time>
      </trkpt>
      <trkpt lat="44.72075" lon="5.23478">
        <ele>652.6</ele>
        <time>2019-06-16T12:18:15Z</time>
      </trkpt>
      <trkpt lat="44.72073" lon="5.23477">
        <ele>653</ele>
        <time>2019-06-16T12:18:16Z</time>
      </trkpt>
      <trkpt lat="44.72072" lon="5.23476">
        <ele>653.4</ele>
        <time>2019-06-16T12:18:17Z</time>
      </trkpt>
      <trkpt lat="44.72071" lon="5.23476">
        <ele>653.8</ele>
        <time>2019-06-16T12:18:18Z</time>
      </trkpt>
      <trkpt lat="44.7207" lon="5.23475">
        <ele>654.2</ele>
        <time>2019-06-16T12:18:19Z</time>
      </trkpt>
      <trkpt lat="44.72065" lon="5.23473">
        <ele>654.2</ele>
        <time>2019-06-16T12:18:22Z</time>
      </trkpt>
      <trkpt lat="44.72053" lon="5.23467">
        <ele>654.6</ele>
        <time>2019-06-16T12:18:30Z</time>
      </trkpt>
      <trkpt lat="44.72052" lon="5.23466">
        <ele>655</ele>
        <time>2019-06-16T12:18:31Z</time>
      </trkpt>
      <trkpt lat="44.72051" lon="5.23465">
        <ele>655.6</ele>
        <time>2019-06-16T12:18:32Z</time>
      </trkpt>
      <trkpt lat="44.72049" lon="5.23463">
        <ele>656</ele>
        <time>2019-06-16T12:18:33Z</time>
      </trkpt>
      <trkpt lat="44.72048" lon="5.23462">
        <ele>656.4</ele>
        <time>2019-06-16T12:18:34Z</time>
      </trkpt>
      <trkpt lat="44.7204" lon="5.23457">
        <ele>656.4</ele>
        <time>2019-06-16T12:18:40Z</time>
      </trkpt>
      <trkpt lat="44.72035" lon="5.23453">
        <ele>656.8</ele>
        <time>2019-06-16T12:18:43Z</time>
      </trkpt>
      <trkpt lat="44.72034" lon="5.23452">
        <ele>657.2</ele>
        <time>2019-06-16T12:18:44Z</time>
      </trkpt>
      <trkpt lat="44.72034" lon="5.23452">
        <ele>657.8</ele>
        <time>2019-06-16T12:18:45Z</time>
      </trkpt>
      <trkpt lat="44.72032" lon="5.23451">
        <ele>658.2</ele>
        <time>2019-06-16T12:18:46Z</time>
      </trkpt>
      <trkpt lat="44.72031" lon="5.23451">
        <ele>658.6</ele>
        <time>2019-06-16T12:18:47Z</time>
      </trkpt>
      <trkpt lat="44.7203" lon="5.2345">
        <ele>658.6</ele>
        <time>2019-06-16T12:18:48Z</time>
      </trkpt>
      <trkpt lat="44.72023" lon="5.23443">
        <ele>659</ele>
        <time>2019-06-16T12:18:52Z</time>
      </trkpt>
      <trkpt lat="44.72022" lon="5.23442">
        <ele>659.4</ele>
        <time>2019-06-16T12:18:53Z</time>
      </trkpt>
      <trkpt lat="44.7202" lon="5.2344">
        <ele>659.8</ele>
        <time>2019-06-16T12:18:54Z</time>
      </trkpt>
      <trkpt lat="44.72019" lon="5.23439">
        <ele>660.4</ele>
        <time>2019-06-16T12:18:55Z</time>
      </trkpt>
      <trkpt lat="44.72018" lon="5.23437">
        <ele>660.8</ele>
        <time>2019-06-16T12:18:56Z</time>
      </trkpt>
      <trkpt lat="44.7202" lon="5.23434">
        <ele>660.8</ele>
        <time>2019-06-16T12:19:01Z</time>
      </trkpt>
      <trkpt lat="44.72021" lon="5.23434">
        <ele>661.2</ele>
        <time>2019-06-16T12:19:04Z</time>
      </trkpt>
      <trkpt lat="44.72022" lon="5.23434">
        <ele>661.6</ele>
        <time>2019-06-16T12:19:05Z</time>
      </trkpt>
      <trkpt lat="44.72022" lon="5.23434">
        <ele>662</ele>
        <time>2019-06-16T12:19:06Z</time>
      </trkpt>
      <trkpt lat="44.72023" lon="5.23433">
        <ele>662.4</ele>
        <time>2019-06-16T12:19:07Z</time>
      </trkpt>
      <trkpt lat="44.72024" lon="5.23433">
        <ele>662.8</ele>
        <time>2019-06-16T12:19:08Z</time>
      </trkpt>
      <trkpt lat="44.72025" lon="5.23433">
        <ele>662.8</ele>
        <time>2019-06-16T12:19:09Z</time>
      </trkpt>
      <trkpt lat="44.72027" lon="5.23433">
        <ele>663.2</ele>
        <time>2019-06-16T12:19:13Z</time>
      </trkpt>
      <trkpt lat="44.72026" lon="5.23433">
        <ele>663.6</ele>
        <time>2019-06-16T12:19:14Z</time>
      </trkpt>
      <trkpt lat="44.72027" lon="5.23432">
        <ele>664.2</ele>
        <time>2019-06-16T12:19:15Z</time>
      </trkpt>
      <trkpt lat="44.72027" lon="5.23432">
        <ele>664.6</ele>
        <time>2019-06-16T12:19:16Z</time>
      </trkpt>
      <trkpt lat="44.72028" lon="5.23432">
        <ele>665</ele>
        <time>2019-06-16T12:19:17Z</time>
      </trkpt>
      <trkpt lat="44.7203" lon="5.23432">
        <ele>665</ele>
        <time>2019-06-16T12:19:20Z</time>
      </trkpt>
      <trkpt lat="44.7203" lon="5.23432">
        <ele>665</ele>
        <time>2019-06-16T12:19:21Z</time>
      </trkpt>
      <trkpt lat="44.7203" lon="5.23432">
        <ele>665.4</ele>
        <time>2019-06-16T12:19:22Z</time>
      </trkpt>
      <trkpt lat="44.72031" lon="5.23432">
        <ele>665.8</ele>
        <time>2019-06-16T12:19:23Z</time>
      </trkpt>
      <trkpt lat="44.72033" lon="5.23431">
        <ele>666.2</ele>
        <time>2019-06-16T12:19:24Z</time>
      </trkpt>
      <trkpt lat="44.72033" lon="5.23431">
        <ele>666.6</ele>
        <time>2019-06-16T12:19:25Z</time>
      </trkpt>
      <trkpt lat="44.72035" lon="5.23429">
        <ele>667</ele>
        <time>2019-06-16T12:19:26Z</time>
      </trkpt>
      <trkpt lat="44.72036" lon="5.23428">
        <ele>667</ele>
        <time>2019-06-16T12:19:27Z</time>
      </trkpt>
      <trkpt lat="44.72039" lon="5.23427">
        <ele>667.4</ele>
        <time>2019-06-16T12:19:30Z</time>
      </trkpt>
      <trkpt lat="44.7204" lon="5.23426">
        <ele>667.8</ele>
        <time>2019-06-16T12:19:31Z</time>
      </trkpt>
      <trkpt lat="44.7204" lon="5.23426">
        <ele>668.2</ele>
        <time>2019-06-16T12:19:32Z</time>
      </trkpt>
      <trkpt lat="44.72041" lon="5.23425">
        <ele>668.6</ele>
        <time>2019-06-16T12:19:33Z</time>
      </trkpt>
      <trkpt lat="44.72042" lon="5.23425">
        <ele>669</ele>
        <time>2019-06-16T12:19:34Z</time>
      </trkpt>
      <trkpt lat="44.72044" lon="5.23424">
        <ele>669</ele>
        <time>2019-06-16T12:19:35Z</time>
      </trkpt>
      <trkpt lat="44.72049" lon="5.23422">
        <ele>669.4</ele>
        <time>2019-06-16T12:19:43Z</time>
      </trkpt>
      <trkpt lat="44.7205" lon="5.23422">
        <ele>670</ele>
        <time>2019-06-16T12:19:44Z</time>
      </trkpt>
      <trkpt lat="44.72051" lon="5.23421">
        <ele>670.4</ele>
        <time>2019-06-16T12:19:45Z</time>
      </trkpt>
      <trkpt lat="44.72051" lon="5.2342">
        <ele>670.8</ele>
        <time>2019-06-16T12:19:46Z</time>
      </trkpt>
      <trkpt lat="44.72051" lon="5.23419">
        <ele>671.2</ele>
        <time>2019-06-16T12:19:47Z</time>
      </trkpt>
      <trkpt lat="44.7205" lon="5.23419">
        <ele>671.2</ele>
        <time>2019-06-16T12:19:50Z</time>
      </trkpt>
      <trkpt lat="44.72051" lon="5.23419">
        <ele>671.2</ele>
        <time>2019-06-16T12:19:59Z</time>
      </trkpt>
      <trkpt lat="44.72055" lon="5.2342">
        <ele>671.6</ele>
        <time>2019-06-16T12:21:03Z</time>
      </trkpt>
      <trkpt lat="44.72056" lon="5.2342">
        <ele>672.2</ele>
        <time>2019-06-16T12:21:04Z</time>
      </trkpt>
      <trkpt lat="44.72057" lon="5.23419">
        <ele>672.6</ele>
        <time>2019-06-16T12:21:05Z</time>
      </trkpt>
      <trkpt lat="44.72058" lon="5.23418">
        <ele>673</ele>
        <time>2019-06-16T12:21:06Z</time>
      </trkpt>
      <trkpt lat="44.72058" lon="5.23418">
        <ele>673.4</ele>
        <time>2019-06-16T12:21:07Z</time>
      </trkpt>
      <trkpt lat="44.72061" lon="5.23417">
        <ele>673.4</ele>
        <time>2019-06-16T12:21:10Z</time>
      </trkpt>
      <trkpt lat="44.72062" lon="5.23416">
        <ele>674</ele>
        <time>2019-06-16T12:21:11Z</time>
      </trkpt>
      <trkpt lat="44.72063" lon="5.23415">
        <ele>674.4</ele>
        <time>2019-06-16T12:21:12Z</time>
      </trkpt>
      <trkpt lat="44.72064" lon="5.23415">
        <ele>674.8</ele>
        <time>2019-06-16T12:21:13Z</time>
      </trkpt>
      <trkpt lat="44.72064" lon="5.23415">
        <ele>675.2</ele>
        <time>2019-06-16T12:21:14Z</time>
      </trkpt>
      <trkpt lat="44.72065" lon="5.23414">
        <ele>675.6</ele>
        <time>2019-06-16T12:21:15Z</time>
      </trkpt>
      <trkpt lat="44.72075" lon="5.2341">
        <ele>675.6</ele>
        <time>2019-06-16T12:21:24Z</time>
      </trkpt>
      <trkpt lat="44.72077" lon="5.23409">
        <ele>676</ele>
        <time>2019-06-16T12:21:26Z</time>
      </trkpt>
      <trkpt lat="44.72078" lon="5.23408">
        <ele>676.6</ele>
        <time>2019-06-16T12:21:27Z</time>
      </trkpt>
      <trkpt lat="44.72079" lon="5.23408">
        <ele>677</ele>
        <time>2019-06-16T12:21:28Z</time>
      </trkpt>
      <trkpt lat="44.7208" lon="5.23407">
        <ele>677.6</ele>
        <time>2019-06-16T12:21:29Z</time>
      </trkpt>
      <trkpt lat="44.72081" lon="5.23407">
        <ele>678</ele>
        <time>2019-06-16T12:21:30Z</time>
      </trkpt>
      <trkpt lat="44.72088" lon="5.23405">
        <ele>678.4</ele>
        <time>2019-06-16T12:21:36Z</time>
      </trkpt>
      <trkpt lat="44.72089" lon="5.23405">
        <ele>679</ele>
        <time>2019-06-16T12:21:37Z</time>
      </trkpt>
      <trkpt lat="44.7209" lon="5.23405">
        <ele>679.4</ele>
        <time>2019-06-16T12:21:38Z</time>
      </trkpt>
      <trkpt lat="44.72091" lon="5.23405">
        <ele>679.8</ele>
        <time>2019-06-16T12:21:39Z</time>
      </trkpt>
      <trkpt lat="44.72092" lon="5.23405">
        <ele>680.2</ele>
        <time>2019-06-16T12:21:40Z</time>
      </trkpt>
      <trkpt lat="44.721" lon="5.23403">
        <ele>680.8</ele>
        <time>2019-06-16T12:21:48Z</time>
      </trkpt>
      <trkpt lat="44.72102" lon="5.23402">
        <ele>681.2</ele>
        <time>2019-06-16T12:21:49Z</time>
      </trkpt>
      <trkpt lat="44.72103" lon="5.23402">
        <ele>681.6</ele>
        <time>2019-06-16T12:21:50Z</time>
      </trkpt>
      <trkpt lat="44.72104" lon="5.23402">
        <ele>682</ele>
        <time>2019-06-16T12:21:51Z</time>
      </trkpt>
      <trkpt lat="44.72106" lon="5.23402">
        <ele>682.4</ele>
        <time>2019-06-16T12:21:52Z</time>
      </trkpt>
      <trkpt lat="44.72118" lon="5.23402">
        <ele>682.8</ele>
        <time>2019-06-16T12:22:01Z</time>
      </trkpt>
      <trkpt lat="44.7212" lon="5.23402">
        <ele>683.2</ele>
        <time>2019-06-16T12:22:02Z</time>
      </trkpt>
      <trkpt lat="44.72121" lon="5.23402">
        <ele>683.6</ele>
        <time>2019-06-16T12:22:03Z</time>
      </trkpt>
      <trkpt lat="44.72122" lon="5.23402">
        <ele>684</ele>
        <time>2019-06-16T12:22:04Z</time>
      </trkpt>
      <trkpt lat="44.72124" lon="5.23402">
        <ele>684.4</ele>
        <time>2019-06-16T12:22:05Z</time>
      </trkpt>
      <trkpt lat="44.72128" lon="5.234">
        <ele>684.4</ele>
        <time>2019-06-16T12:22:08Z</time>
      </trkpt>
      <trkpt lat="44.72133" lon="5.23401">
        <ele>684.8</ele>
        <time>2019-06-16T12:22:13Z</time>
      </trkpt>
      <trkpt lat="44.72134" lon="5.23401">
        <ele>685.4</ele>
        <time>2019-06-16T12:22:14Z</time>
      </trkpt>
      <trkpt lat="44.72135" lon="5.23401">
        <ele>685.8</ele>
        <time>2019-06-16T12:22:15Z</time>
      </trkpt>
      <trkpt lat="44.72135" lon="5.23401">
        <ele>686.2</ele>
        <time>2019-06-16T12:22:16Z</time>
      </trkpt>
      <trkpt lat="44.72136" lon="5.234">
        <ele>686.8</ele>
        <time>2019-06-16T12:22:17Z</time>
      </trkpt>
      <trkpt lat="44.72136" lon="5.234">
        <ele>686.8</ele>
        <time>2019-06-16T12:22:18Z</time>
      </trkpt>
      <trkpt lat="44.72147" lon="5.23396">
        <ele>686.8</ele>
        <time>2019-06-16T12:22:34Z</time>
      </trkpt>
      <trkpt lat="44.72152" lon="5.23396">
        <ele>686.8</ele>
        <time>2019-06-16T12:23:15Z</time>
      </trkpt>
      <trkpt lat="44.72151" lon="5.23397">
        <ele>687.2</ele>
        <time>2019-06-16T12:24:08Z</time>
      </trkpt>
      <trkpt lat="44.72152" lon="5.23396">
        <ele>687.6</ele>
        <time>2019-06-16T12:24:09Z</time>
      </trkpt>
      <trkpt lat="44.72153" lon="5.23397">
        <ele>688</ele>
        <time>2019-06-16T12:24:10Z</time>
      </trkpt>
      <trkpt lat="44.72154" lon="5.23397">
        <ele>688.4</ele>
        <time>2019-06-16T12:24:11Z</time>
      </trkpt>
      <trkpt lat="44.72155" lon="5.23398">
        <ele>688.8</ele>
        <time>2019-06-16T12:24:12Z</time>
      </trkpt>
      <trkpt lat="44.72162" lon="5.23396">
        <ele>688.8</ele>
        <time>2019-06-16T12:24:17Z</time>
      </trkpt>
      <trkpt lat="44.72164" lon="5.23396">
        <ele>689.2</ele>
        <time>2019-06-16T12:24:19Z</time>
      </trkpt>
      <trkpt lat="44.72165" lon="5.23396">
        <ele>689.6</ele>
        <time>2019-06-16T12:24:20Z</time>
      </trkpt>
      <trkpt lat="44.72166" lon="5.23395">
        <ele>690</ele>
        <time>2019-06-16T12:24:21Z</time>
      </trkpt>
      <trkpt lat="44.72167" lon="5.23395">
        <ele>690.6</ele>
        <time>2019-06-16T12:24:22Z</time>
      </trkpt>
      <trkpt lat="44.72168" lon="5.23395">
        <ele>691</ele>
        <time>2019-06-16T12:24:23Z</time>
      </trkpt>
      <trkpt lat="44.72177" lon="5.23393">
        <ele>691.4</ele>
        <time>2019-06-16T12:24:31Z</time>
      </trkpt>
      <trkpt lat="44.72179" lon="5.23393">
        <ele>691.8</ele>
        <time>2019-06-16T12:24:32Z</time>
      </trkpt>
      <trkpt lat="44.7218" lon="5.23392">
        <ele>692.2</ele>
        <time>2019-06-16T12:24:33Z</time>
      </trkpt>
      <trkpt lat="44.72181" lon="5.23392">
        <ele>692.6</ele>
        <time>2019-06-16T12:24:34Z</time>
      </trkpt>
      <trkpt lat="44.72182" lon="5.23392">
        <ele>693</ele>
        <time>2019-06-16T12:24:35Z</time>
      </trkpt>
      <trkpt lat="44.72185" lon="5.2339">
        <ele>693.6</ele>
        <time>2019-06-16T12:24:38Z</time>
      </trkpt>
      <trkpt lat="44.72186" lon="5.23391">
        <ele>694</ele>
        <time>2019-06-16T12:24:39Z</time>
      </trkpt>
      <trkpt lat="44.72188" lon="5.23391">
        <ele>694.6</ele>
        <time>2019-06-16T12:24:40Z</time>
      </trkpt>
      <trkpt lat="44.72189" lon="5.2339">
        <ele>695</ele>
        <time>2019-06-16T12:24:41Z</time>
      </trkpt>
      <trkpt lat="44.72191" lon="5.2339">
        <ele>695.6</ele>
        <time>2019-06-16T12:24:42Z</time>
      </trkpt>
      <trkpt lat="44.72198" lon="5.23387">
        <ele>695.6</ele>
        <time>2019-06-16T12:24:48Z</time>
      </trkpt>
      <trkpt lat="44.72201" lon="5.23385">
        <ele>696</ele>
        <time>2019-06-16T12:24:50Z</time>
      </trkpt>
      <trkpt lat="44.72202" lon="5.23385">
        <ele>696.4</ele>
        <time>2019-06-16T12:24:51Z</time>
      </trkpt>
      <trkpt lat="44.72204" lon="5.23384">
        <ele>696.8</ele>
        <time>2019-06-16T12:24:52Z</time>
      </trkpt>
      <trkpt lat="44.72205" lon="5.23383">
        <ele>697.2</ele>
        <time>2019-06-16T12:24:53Z</time>
      </trkpt>
      <trkpt lat="44.72206" lon="5.23383">
        <ele>697.8</ele>
        <time>2019-06-16T12:24:54Z</time>
      </trkpt>
      <trkpt lat="44.72213" lon="5.23378">
        <ele>697.8</ele>
        <time>2019-06-16T12:25:02Z</time>
      </trkpt>
      <trkpt lat="44.72214" lon="5.23377">
        <ele>697.8</ele>
        <time>2019-06-16T12:25:03Z</time>
      </trkpt>
      <trkpt lat="44.72218" lon="5.23376">
        <ele>698.2</ele>
        <time>2019-06-16T12:25:06Z</time>
      </trkpt>
      <trkpt lat="44.72219" lon="5.23377">
        <ele>698.6</ele>
        <time>2019-06-16T12:25:07Z</time>
      </trkpt>
      <trkpt lat="44.72218" lon="5.23377">
        <ele>699</ele>
        <time>2019-06-16T12:25:08Z</time>
      </trkpt>
      <trkpt lat="44.72219" lon="5.23377">
        <ele>699.4</ele>
        <time>2019-06-16T12:25:09Z</time>
      </trkpt>
      <trkpt lat="44.72219" lon="5.23377">
        <ele>699.8</ele>
        <time>2019-06-16T12:25:10Z</time>
      </trkpt>
      <trkpt lat="44.72219" lon="5.23376">
        <ele>699.8</ele>
        <time>2019-06-16T12:25:11Z</time>
      </trkpt>
      <trkpt lat="44.72218" lon="5.2337">
        <ele>699.8</ele>
        <time>2019-06-16T12:25:17Z</time>
      </trkpt>
      <trkpt lat="44.72216" lon="5.23365">
        <ele>700.2</ele>
        <time>2019-06-16T12:25:22Z</time>
      </trkpt>
      <trkpt lat="44.72215" lon="5.23364">
        <ele>700.6</ele>
        <time>2019-06-16T12:25:23Z</time>
      </trkpt>
      <trkpt lat="44.72214" lon="5.23363">
        <ele>701.2</ele>
        <time>2019-06-16T12:25:24Z</time>
      </trkpt>
      <trkpt lat="44.72213" lon="5.23362">
        <ele>701.6</ele>
        <time>2019-06-16T12:25:25Z</time>
      </trkpt>
      <trkpt lat="44.72212" lon="5.23361">
        <ele>702</ele>
        <time>2019-06-16T12:25:26Z</time>
      </trkpt>
      <trkpt lat="44.72213" lon="5.23358">
        <ele>702.4</ele>
        <time>2019-06-16T12:25:35Z</time>
      </trkpt>
      <trkpt lat="44.72214" lon="5.23359">
        <ele>702.8</ele>
        <time>2019-06-16T12:25:36Z</time>
      </trkpt>
      <trkpt lat="44.72213" lon="5.23358">
        <ele>703.2</ele>
        <time>2019-06-16T12:25:37Z</time>
      </trkpt>
      <trkpt lat="44.72213" lon="5.23358">
        <ele>703.6</ele>
        <time>2019-06-16T12:25:38Z</time>
      </trkpt>
      <trkpt lat="44.72213" lon="5.23357">
        <ele>704</ele>
        <time>2019-06-16T12:25:39Z</time>
      </trkpt>
      <trkpt lat="44.72208" lon="5.23354">
        <ele>704</ele>
        <time>2019-06-16T12:25:45Z</time>
      </trkpt>
      <trkpt lat="44.72207" lon="5.23353">
        <ele>704.4</ele>
        <time>2019-06-16T12:25:46Z</time>
      </trkpt>
      <trkpt lat="44.72206" lon="5.23352">
        <ele>704.8</ele>
        <time>2019-06-16T12:25:47Z</time>
      </trkpt>
      <trkpt lat="44.72205" lon="5.23351">
        <ele>705.2</ele>
        <time>2019-06-16T12:25:48Z</time>
      </trkpt>
      <trkpt lat="44.72204" lon="5.2335">
        <ele>705.6</ele>
        <time>2019-06-16T12:25:49Z</time>
      </trkpt>
      <trkpt lat="44.72204" lon="5.23349">
        <ele>706</ele>
        <time>2019-06-16T12:25:50Z</time>
      </trkpt>
      <trkpt lat="44.722" lon="5.23346">
        <ele>706</ele>
        <time>2019-06-16T12:25:54Z</time>
      </trkpt>
      <trkpt lat="44.72193" lon="5.23345">
        <ele>706.4</ele>
        <time>2019-06-16T12:26:00Z</time>
      </trkpt>
      <trkpt lat="44.72192" lon="5.23344">
        <ele>706.8</ele>
        <time>2019-06-16T12:26:01Z</time>
      </trkpt>
      <trkpt lat="44.7219" lon="5.23343">
        <ele>707.2</ele>
        <time>2019-06-16T12:26:02Z</time>
      </trkpt>
      <trkpt lat="44.7219" lon="5.23343">
        <ele>707.6</ele>
        <time>2019-06-16T12:26:03Z</time>
      </trkpt>
      <trkpt lat="44.72188" lon="5.23342">
        <ele>708</ele>
        <time>2019-06-16T12:26:04Z</time>
      </trkpt>
      <trkpt lat="44.72181" lon="5.23338">
        <ele>708</ele>
        <time>2019-06-16T12:26:12Z</time>
      </trkpt>
      <trkpt lat="44.72179" lon="5.23336">
        <ele>708.6</ele>
        <time>2019-06-16T12:26:14Z</time>
      </trkpt>
      <trkpt lat="44.72178" lon="5.23334">
        <ele>709</ele>
        <time>2019-06-16T12:26:15Z</time>
      </trkpt>
      <trkpt lat="44.72176" lon="5.23333">
        <ele>709.4</ele>
        <time>2019-06-16T12:26:16Z</time>
      </trkpt>
      <trkpt lat="44.72176" lon="5.23332">
        <ele>710</ele>
        <time>2019-06-16T12:26:17Z</time>
      </trkpt>
      <trkpt lat="44.72175" lon="5.23332">
        <ele>710.4</ele>
        <time>2019-06-16T12:26:18Z</time>
      </trkpt>
      <trkpt lat="44.72173" lon="5.2333">
        <ele>710.4</ele>
        <time>2019-06-16T12:26:20Z</time>
      </trkpt>
      <trkpt lat="44.72168" lon="5.23326">
        <ele>710.8</ele>
        <time>2019-06-16T12:26:25Z</time>
      </trkpt>
      <trkpt lat="44.72168" lon="5.23326">
        <ele>711.2</ele>
        <time>2019-06-16T12:26:26Z</time>
      </trkpt>
      <trkpt lat="44.72167" lon="5.23325">
        <ele>711.8</ele>
        <time>2019-06-16T12:26:27Z</time>
      </trkpt>
      <trkpt lat="44.72166" lon="5.23324">
        <ele>712.2</ele>
        <time>2019-06-16T12:26:28Z</time>
      </trkpt>
      <trkpt lat="44.72165" lon="5.23324">
        <ele>712.6</ele>
        <time>2019-06-16T12:26:29Z</time>
      </trkpt>
      <trkpt lat="44.72161" lon="5.23319">
        <ele>712.6</ele>
        <time>2019-06-16T12:26:34Z</time>
      </trkpt>
      <trkpt lat="44.72157" lon="5.23314">
        <ele>713</ele>
        <time>2019-06-16T12:26:39Z</time>
      </trkpt>
      <trkpt lat="44.72156" lon="5.23314">
        <ele>713.6</ele>
        <time>2019-06-16T12:26:40Z</time>
      </trkpt>
      <trkpt lat="44.72154" lon="5.23312">
        <ele>714</ele>
        <time>2019-06-16T12:26:41Z</time>
      </trkpt>
      <trkpt lat="44.72153" lon="5.23311">
        <ele>714.4</ele>
        <time>2019-06-16T12:26:42Z</time>
      </trkpt>
      <trkpt lat="44.72153" lon="5.2331">
        <ele>715</ele>
        <time>2019-06-16T12:26:43Z</time>
      </trkpt>
      <trkpt lat="44.72152" lon="5.23309">
        <ele>715</ele>
        <time>2019-06-16T12:26:50Z</time>
      </trkpt>
      <trkpt lat="44.72144" lon="5.233">
        <ele>715</ele>
        <time>2019-06-16T12:27:53Z</time>
      </trkpt>
      <trkpt lat="44.72139" lon="5.233">
        <ele>715.4</ele>
        <time>2019-06-16T12:27:58Z</time>
      </trkpt>
      <trkpt lat="44.72137" lon="5.23299">
        <ele>715.8</ele>
        <time>2019-06-16T12:27:59Z</time>
      </trkpt>
      <trkpt lat="44.72135" lon="5.23298">
        <ele>716.2</ele>
        <time>2019-06-16T12:28:00Z</time>
      </trkpt>
      <trkpt lat="44.72133" lon="5.23296">
        <ele>716.6</ele>
        <time>2019-06-16T12:28:01Z</time>
      </trkpt>
      <trkpt lat="44.72131" lon="5.23295">
        <ele>717</ele>
        <time>2019-06-16T12:28:02Z</time>
      </trkpt>
      <trkpt lat="44.72122" lon="5.2329">
        <ele>717</ele>
        <time>2019-06-16T12:28:09Z</time>
      </trkpt>
      <trkpt lat="44.72121" lon="5.2329">
        <ele>717.4</ele>
        <time>2019-06-16T12:28:10Z</time>
      </trkpt>
      <trkpt lat="44.72119" lon="5.23288">
        <ele>717.8</ele>
        <time>2019-06-16T12:28:11Z</time>
      </trkpt>
      <trkpt lat="44.72117" lon="5.23287">
        <ele>718.2</ele>
        <time>2019-06-16T12:28:12Z</time>
      </trkpt>
      <trkpt lat="44.72116" lon="5.23286">
        <ele>718.6</ele>
        <time>2019-06-16T12:28:13Z</time>
      </trkpt>
      <trkpt lat="44.72115" lon="5.23286">
        <ele>719</ele>
        <time>2019-06-16T12:28:14Z</time>
      </trkpt>
      <trkpt lat="44.72113" lon="5.23286">
        <ele>719</ele>
        <time>2019-06-16T12:28:16Z</time>
      </trkpt>
      <trkpt lat="44.72104" lon="5.23279">
        <ele>719.6</ele>
        <time>2019-06-16T12:28:22Z</time>
      </trkpt>
      <trkpt lat="44.72102" lon="5.23279">
        <ele>720</ele>
        <time>2019-06-16T12:28:23Z</time>
      </trkpt>
      <trkpt lat="44.72102" lon="5.23279">
        <ele>720.4</ele>
        <time>2019-06-16T12:28:24Z</time>
      </trkpt>
      <trkpt lat="44.72101" lon="5.23279">
        <ele>720.8</ele>
        <time>2019-06-16T12:28:25Z</time>
      </trkpt>
      <trkpt lat="44.721" lon="5.2328">
        <ele>721.2</ele>
        <time>2019-06-16T12:28:26Z</time>
      </trkpt>
      <trkpt lat="44.7209" lon="5.23277">
        <ele>721.6</ele>
        <time>2019-06-16T12:28:35Z</time>
      </trkpt>
      <trkpt lat="44.7209" lon="5.23277">
        <ele>722</ele>
        <time>2019-06-16T12:28:36Z</time>
      </trkpt>
      <trkpt lat="44.72089" lon="5.23276">
        <ele>722.4</ele>
        <time>2019-06-16T12:28:37Z</time>
      </trkpt>
      <trkpt lat="44.7209" lon="5.23275">
        <ele>723</ele>
        <time>2019-06-16T12:28:38Z</time>
      </trkpt>
      <trkpt lat="44.7209" lon="5.23275">
        <ele>723.4</ele>
        <time>2019-06-16T12:28:39Z</time>
      </trkpt>
      <trkpt lat="44.7209" lon="5.23273">
        <ele>723.4</ele>
        <time>2019-06-16T12:28:41Z</time>
      </trkpt>
      <trkpt lat="44.72091" lon="5.23272">
        <ele>723.8</ele>
        <time>2019-06-16T12:28:44Z</time>
      </trkpt>
      <trkpt lat="44.72092" lon="5.23272">
        <ele>724.2</ele>
        <time>2019-06-16T12:28:45Z</time>
      </trkpt>
      <trkpt lat="44.72093" lon="5.23272">
        <ele>724.6</ele>
        <time>2019-06-16T12:28:46Z</time>
      </trkpt>
      <trkpt lat="44.72094" lon="5.23272">
        <ele>725</ele>
        <time>2019-06-16T12:28:47Z</time>
      </trkpt>
      <trkpt lat="44.72094" lon="5.23272">
        <ele>725.4</ele>
        <time>2019-06-16T12:28:48Z</time>
      </trkpt>
      <trkpt lat="44.72095" lon="5.23272">
        <ele>725.4</ele>
        <time>2019-06-16T12:28:49Z</time>
      </trkpt>
      <trkpt lat="44.721" lon="5.23271">
        <ele>725.4</ele>
        <time>2019-06-16T12:28:56Z</time>
      </trkpt>
      <trkpt lat="44.721" lon="5.2327">
        <ele>725.8</ele>
        <time>2019-06-16T12:28:57Z</time>
      </trkpt>
      <trkpt lat="44.72101" lon="5.23269">
        <ele>726.2</ele>
        <time>2019-06-16T12:28:58Z</time>
      </trkpt>
      <trkpt lat="44.72102" lon="5.23269">
        <ele>726.6</ele>
        <time>2019-06-16T12:28:59Z</time>
      </trkpt>
      <trkpt lat="44.72103" lon="5.23269">
        <ele>727</ele>
        <time>2019-06-16T12:29:00Z</time>
      </trkpt>
      <trkpt lat="44.72103" lon="5.23269">
        <ele>727.4</ele>
        <time>2019-06-16T12:29:01Z</time>
      </trkpt>
      <trkpt lat="44.72105" lon="5.2327">
        <ele>727.4</ele>
        <time>2019-06-16T12:29:04Z</time>
      </trkpt>
      <trkpt lat="44.72112" lon="5.23269">
        <ele>727.4</ele>
        <time>2019-06-16T12:29:11Z</time>
      </trkpt>
      <trkpt lat="44.72112" lon="5.23269">
        <ele>728</ele>
        <time>2019-06-16T12:29:12Z</time>
      </trkpt>
      <trkpt lat="44.72113" lon="5.23269">
        <ele>728.4</ele>
        <time>2019-06-16T12:29:13Z</time>
      </trkpt>
      <trkpt lat="44.72114" lon="5.2327">
        <ele>728.8</ele>
        <time>2019-06-16T12:29:14Z</time>
      </trkpt>
      <trkpt lat="44.72114" lon="5.2327">
        <ele>729.4</ele>
        <time>2019-06-16T12:29:15Z</time>
      </trkpt>
      <trkpt lat="44.72114" lon="5.2327">
        <ele>729.8</ele>
        <time>2019-06-16T12:29:16Z</time>
      </trkpt>
      <trkpt lat="44.72117" lon="5.23273">
        <ele>729.8</ele>
        <time>2019-06-16T12:29:18Z</time>
      </trkpt>
      <trkpt lat="44.72122" lon="5.23271">
        <ele>729.8</ele>
        <time>2019-06-16T12:29:26Z</time>
      </trkpt>
      <trkpt lat="44.72124" lon="5.2327">
        <ele>730.2</ele>
        <time>2019-06-16T12:29:27Z</time>
      </trkpt>
      <trkpt lat="44.72125" lon="5.2327">
        <ele>730.6</ele>
        <time>2019-06-16T12:29:28Z</time>
      </trkpt>
      <trkpt lat="44.72125" lon="5.2327">
        <ele>731</ele>
        <time>2019-06-16T12:29:29Z</time>
      </trkpt>
      <trkpt lat="44.72126" lon="5.23272">
        <ele>731.6</ele>
        <time>2019-06-16T12:29:30Z</time>
      </trkpt>
      <trkpt lat="44.72127" lon="5.23271">
        <ele>732</ele>
        <time>2019-06-16T12:29:31Z</time>
      </trkpt>
      <trkpt lat="44.72134" lon="5.23266">
        <ele>732</ele>
        <time>2019-06-16T12:29:37Z</time>
      </trkpt>
      <trkpt lat="44.72137" lon="5.23265">
        <ele>732.4</ele>
        <time>2019-06-16T12:29:39Z</time>
      </trkpt>
      <trkpt lat="44.72139" lon="5.23264">
        <ele>732.8</ele>
        <time>2019-06-16T12:29:40Z</time>
      </trkpt>
      <trkpt lat="44.7214" lon="5.23264">
        <ele>733.2</ele>
        <time>2019-06-16T12:29:41Z</time>
      </trkpt>
      <trkpt lat="44.72141" lon="5.23264">
        <ele>733.6</ele>
        <time>2019-06-16T12:29:42Z</time>
      </trkpt>
      <trkpt lat="44.72143" lon="5.23264">
        <ele>734.2</ele>
        <time>2019-06-16T12:29:43Z</time>
      </trkpt>
      <trkpt lat="44.72146" lon="5.23265">
        <ele>734.2</ele>
        <time>2019-06-16T12:29:46Z</time>
      </trkpt>
      <trkpt lat="44.72149" lon="5.23265">
        <ele>734.2</ele>
        <time>2019-06-16T12:29:48Z</time>
      </trkpt>
      <trkpt lat="44.72151" lon="5.23266">
        <ele>734.6</ele>
        <time>2019-06-16T12:29:50Z</time>
      </trkpt>
      <trkpt lat="44.72152" lon="5.23267">
        <ele>735</ele>
        <time>2019-06-16T12:29:51Z</time>
      </trkpt>
      <trkpt lat="44.72154" lon="5.23267">
        <ele>735.4</ele>
        <time>2019-06-16T12:29:52Z</time>
      </trkpt>
      <trkpt lat="44.72155" lon="5.23267">
        <ele>735.8</ele>
        <time>2019-06-16T12:29:53Z</time>
      </trkpt>
      <trkpt lat="44.72157" lon="5.23269">
        <ele>736.4</ele>
        <time>2019-06-16T12:29:54Z</time>
      </trkpt>
      <trkpt lat="44.72165" lon="5.2327">
        <ele>736.4</ele>
        <time>2019-06-16T12:30:00Z</time>
      </trkpt>
      <trkpt lat="44.72172" lon="5.2327">
        <ele>736.8</ele>
        <time>2019-06-16T12:30:07Z</time>
      </trkpt>
      <trkpt lat="44.72172" lon="5.2327">
        <ele>737.2</ele>
        <time>2019-06-16T12:30:08Z</time>
      </trkpt>
      <trkpt lat="44.72174" lon="5.2327">
        <ele>737.6</ele>
        <time>2019-06-16T12:30:09Z</time>
      </trkpt>
      <trkpt lat="44.72175" lon="5.2327">
        <ele>738</ele>
        <time>2019-06-16T12:30:10Z</time>
      </trkpt>
      <trkpt lat="44.72176" lon="5.2327">
        <ele>738.4</ele>
        <time>2019-06-16T12:30:11Z</time>
      </trkpt>
      <trkpt lat="44.72182" lon="5.2327">
        <ele>738.4</ele>
        <time>2019-06-16T12:30:17Z</time>
      </trkpt>
      <trkpt lat="44.72186" lon="5.23269">
        <ele>739</ele>
        <time>2019-06-16T12:30:20Z</time>
      </trkpt>
      <trkpt lat="44.72188" lon="5.2327">
        <ele>739.4</ele>
        <time>2019-06-16T12:30:21Z</time>
      </trkpt>
      <trkpt lat="44.72189" lon="5.23271">
        <ele>739.8</ele>
        <time>2019-06-16T12:30:22Z</time>
      </trkpt>
      <trkpt lat="44.7219" lon="5.23271">
        <ele>740.4</ele>
        <time>2019-06-16T12:30:23Z</time>
      </trkpt>
      <trkpt lat="44.72192" lon="5.23271">
        <ele>740.8</ele>
        <time>2019-06-16T12:30:24Z</time>
      </trkpt>
      <trkpt lat="44.72201" lon="5.2327">
        <ele>740.8</ele>
        <time>2019-06-16T12:30:32Z</time>
      </trkpt>
      <trkpt lat="44.72202" lon="5.2327">
        <ele>741.2</ele>
        <time>2019-06-16T12:30:33Z</time>
      </trkpt>
      <trkpt lat="44.72203" lon="5.23271">
        <ele>741.6</ele>
        <time>2019-06-16T12:30:34Z</time>
      </trkpt>
      <trkpt lat="44.72204" lon="5.2327">
        <ele>742</ele>
        <time>2019-06-16T12:30:35Z</time>
      </trkpt>
      <trkpt lat="44.72205" lon="5.2327">
        <ele>742.4</ele>
        <time>2019-06-16T12:30:36Z</time>
      </trkpt>
      <trkpt lat="44.72206" lon="5.2327">
        <ele>742.8</ele>
        <time>2019-06-16T12:30:37Z</time>
      </trkpt>
      <trkpt lat="44.72217" lon="5.23265">
        <ele>742.8</ele>
        <time>2019-06-16T12:30:43Z</time>
      </trkpt>
      <trkpt lat="44.72221" lon="5.23265">
        <ele>743.2</ele>
        <time>2019-06-16T12:30:48Z</time>
      </trkpt>
      <trkpt lat="44.72223" lon="5.23265">
        <ele>743.8</ele>
        <time>2019-06-16T12:30:49Z</time>
      </trkpt>
      <trkpt lat="44.72224" lon="5.23263">
        <ele>744.2</ele>
        <time>2019-06-16T12:30:50Z</time>
      </trkpt>
      <trkpt lat="44.72226" lon="5.23264">
        <ele>744.6</ele>
        <time>2019-06-16T12:30:51Z</time>
      </trkpt>
      <trkpt lat="44.72228" lon="5.23265">
        <ele>745</ele>
        <time>2019-06-16T12:30:52Z</time>
      </trkpt>
      <trkpt lat="44.72236" lon="5.23266">
        <ele>745</ele>
        <time>2019-06-16T12:30:58Z</time>
      </trkpt>
      <trkpt lat="44.7224" lon="5.23266">
        <ele>745.8</ele>
        <time>2019-06-16T12:31:01Z</time>
      </trkpt>
      <trkpt lat="44.72244" lon="5.23264">
        <ele>746.4</ele>
        <time>2019-06-16T12:31:02Z</time>
      </trkpt>
      <trkpt lat="44.72245" lon="5.23265">
        <ele>746.8</ele>
        <time>2019-06-16T12:31:03Z</time>
      </trkpt>
      <trkpt lat="44.72246" lon="5.23265">
        <ele>747.2</ele>
        <time>2019-06-16T12:31:04Z</time>
      </trkpt>
      <trkpt lat="44.72261" lon="5.23264">
        <ele>747.6</ele>
        <time>2019-06-16T12:31:13Z</time>
      </trkpt>
      <trkpt lat="44.72264" lon="5.23264">
        <ele>748</ele>
        <time>2019-06-16T12:31:14Z</time>
      </trkpt>
      <trkpt lat="44.72265" lon="5.23265">
        <ele>748.4</ele>
        <time>2019-06-16T12:31:15Z</time>
      </trkpt>
      <trkpt lat="44.72266" lon="5.23265">
        <ele>748.8</ele>
        <time>2019-06-16T12:31:16Z</time>
      </trkpt>
      <trkpt lat="44.72268" lon="5.23266">
        <ele>749.2</ele>
        <time>2019-06-16T12:31:17Z</time>
      </trkpt>
      <trkpt lat="44.72274" lon="5.23267">
        <ele>749.2</ele>
        <time>2019-06-16T12:31:21Z</time>
      </trkpt>
      <trkpt lat="44.72284" lon="5.23265">
        <ele>749.8</ele>
        <time>2019-06-16T12:31:27Z</time>
      </trkpt>
      <trkpt lat="44.72287" lon="5.23265">
        <ele>750.2</ele>
        <time>2019-06-16T12:31:28Z</time>
      </trkpt>
      <trkpt lat="44.72289" lon="5.23265">
        <ele>750.6</ele>
        <time>2019-06-16T12:31:29Z</time>
      </trkpt>
      <trkpt lat="44.7229" lon="5.23265">
        <ele>751</ele>
        <time>2019-06-16T12:31:30Z</time>
      </trkpt>
      <trkpt lat="44.72291" lon="5.23265">
        <ele>751.6</ele>
        <time>2019-06-16T12:31:31Z</time>
      </trkpt>
      <trkpt lat="44.72296" lon="5.23267">
        <ele>751.6</ele>
        <time>2019-06-16T12:31:35Z</time>
      </trkpt>
      <trkpt lat="44.72307" lon="5.23262">
        <ele>751.6</ele>
        <time>2019-06-16T12:31:42Z</time>
      </trkpt>
      <trkpt lat="44.72309" lon="5.23262">
        <ele>752</ele>
        <time>2019-06-16T12:31:43Z</time>
      </trkpt>
      <trkpt lat="44.72311" lon="5.23263">
        <ele>752.4</ele>
        <time>2019-06-16T12:31:44Z</time>
      </trkpt>
      <trkpt lat="44.72313" lon="5.23263">
        <ele>752.8</ele>
        <time>2019-06-16T12:31:45Z</time>
      </trkpt>
      <trkpt lat="44.72314" lon="5.23263">
        <ele>753.2</ele>
        <time>2019-06-16T12:31:46Z</time>
      </trkpt>
      <trkpt lat="44.72316" lon="5.23264">
        <ele>753.6</ele>
        <time>2019-06-16T12:31:47Z</time>
      </trkpt>
      <trkpt lat="44.72323" lon="5.23265">
        <ele>753.6</ele>
        <time>2019-06-16T12:31:50Z</time>
      </trkpt>
      <trkpt lat="44.72324" lon="5.23277">
        <ele>753.6</ele>
        <time>2019-06-16T12:34:18Z</time>
      </trkpt>
      <trkpt lat="44.7232" lon="5.23278">
        <ele>753.6</ele>
        <time>2019-06-16T12:35:44Z</time>
      </trkpt>
      <trkpt lat="44.72335" lon="5.23276">
        <ele>753.6</ele>
        <time>2019-06-16T12:37:09Z</time>
      </trkpt>
      <trkpt lat="44.7234" lon="5.23275">
        <ele>753.6</ele>
        <time>2019-06-16T12:38:27Z</time>
      </trkpt>
      <trkpt lat="44.7234" lon="5.23279">
        <ele>753.6</ele>
        <time>2019-06-16T12:39:53Z</time>
      </trkpt>
      <trkpt lat="44.72344" lon="5.23272">
        <ele>754</ele>
        <time>2019-06-16T12:41:13Z</time>
      </trkpt>
      <trkpt lat="44.72344" lon="5.23272">
        <ele>754.4</ele>
        <time>2019-06-16T12:41:14Z</time>
      </trkpt>
      <trkpt lat="44.72344" lon="5.23272">
        <ele>755</ele>
        <time>2019-06-16T12:41:15Z</time>
      </trkpt>
      <trkpt lat="44.72344" lon="5.23272">
        <ele>755.4</ele>
        <time>2019-06-16T12:41:16Z</time>
      </trkpt>
      <trkpt lat="44.72344" lon="5.23272">
        <ele>755.8</ele>
        <time>2019-06-16T12:41:17Z</time>
      </trkpt>
      <trkpt lat="44.72344" lon="5.23272">
        <ele>755.8</ele>
        <time>2019-06-16T12:41:30Z</time>
      </trkpt>
      <trkpt lat="44.72349" lon="5.23279">
        <ele>755.8</ele>
        <time>2019-06-16T12:43:13Z</time>
      </trkpt>
      <trkpt lat="44.72366" lon="5.23273">
        <ele>755.8</ele>
        <time>2019-06-16T12:44:39Z</time>
      </trkpt>
      <trkpt lat="44.72384" lon="5.23276">
        <ele>756.2</ele>
        <time>2019-06-16T12:44:46Z</time>
      </trkpt>
      <trkpt lat="44.72387" lon="5.23276">
        <ele>756.6</ele>
        <time>2019-06-16T12:44:47Z</time>
      </trkpt>
      <trkpt lat="44.72388" lon="5.23277">
        <ele>757</ele>
        <time>2019-06-16T12:44:48Z</time>
      </trkpt>
      <trkpt lat="44.7239" lon="5.23277">
        <ele>757.4</ele>
        <time>2019-06-16T12:44:49Z</time>
      </trkpt>
      <trkpt lat="44.72391" lon="5.23279">
        <ele>757.8</ele>
        <time>2019-06-16T12:44:50Z</time>
      </trkpt>
      <trkpt lat="44.72393" lon="5.2328">
        <ele>757.8</ele>
        <time>2019-06-16T12:44:51Z</time>
      </trkpt>
      <trkpt lat="44.72397" lon="5.23282">
        <ele>758.4</ele>
        <time>2019-06-16T12:44:53Z</time>
      </trkpt>
      <trkpt lat="44.72398" lon="5.23282">
        <ele>758.8</ele>
        <time>2019-06-16T12:44:54Z</time>
      </trkpt>
      <trkpt lat="44.724" lon="5.23283">
        <ele>759.2</ele>
        <time>2019-06-16T12:44:55Z</time>
      </trkpt>
      <trkpt lat="44.72402" lon="5.23284">
        <ele>759.8</ele>
        <time>2019-06-16T12:44:56Z</time>
      </trkpt>
      <trkpt lat="44.72404" lon="5.23284">
        <ele>760.2</ele>
        <time>2019-06-16T12:44:57Z</time>
      </trkpt>
      <trkpt lat="44.72408" lon="5.23286">
        <ele>760.2</ele>
        <time>2019-06-16T12:45:01Z</time>
      </trkpt>
      <trkpt lat="44.7241" lon="5.23286">
        <ele>760.6</ele>
        <time>2019-06-16T12:45:02Z</time>
      </trkpt>
      <trkpt lat="44.72411" lon="5.23286">
        <ele>761</ele>
        <time>2019-06-16T12:45:03Z</time>
      </trkpt>
      <trkpt lat="44.72413" lon="5.23286">
        <ele>761.6</ele>
        <time>2019-06-16T12:45:04Z</time>
      </trkpt>
      <trkpt lat="44.72414" lon="5.23287">
        <ele>762</ele>
        <time>2019-06-16T12:45:05Z</time>
      </trkpt>
      <trkpt lat="44.72416" lon="5.23288">
        <ele>762.4</ele>
        <time>2019-06-16T12:45:06Z</time>
      </trkpt>
      <trkpt lat="44.72419" lon="5.23288">
        <ele>762.4</ele>
        <time>2019-06-16T12:45:08Z</time>
      </trkpt>
      <trkpt lat="44.72427" lon="5.23291">
        <ele>762.8</ele>
        <time>2019-06-16T12:45:12Z</time>
      </trkpt>
      <trkpt lat="44.72428" lon="5.23292">
        <ele>763.4</ele>
        <time>2019-06-16T12:45:13Z</time>
      </trkpt>
      <trkpt lat="44.72429" lon="5.23294">
        <ele>763.8</ele>
        <time>2019-06-16T12:45:14Z</time>
      </trkpt>
      <trkpt lat="44.7243" lon="5.23295">
        <ele>764.2</ele>
        <time>2019-06-16T12:45:15Z</time>
      </trkpt>
      <trkpt lat="44.72432" lon="5.23295">
        <ele>764.8</ele>
        <time>2019-06-16T12:45:16Z</time>
      </trkpt>
      <trkpt lat="44.72435" lon="5.23297">
        <ele>764.8</ele>
        <time>2019-06-16T12:45:18Z</time>
      </trkpt>
      <trkpt lat="44.72438" lon="5.23299">
        <ele>765.2</ele>
        <time>2019-06-16T12:45:20Z</time>
      </trkpt>
      <trkpt lat="44.72439" lon="5.23299">
        <ele>765.6</ele>
        <time>2019-06-16T12:45:21Z</time>
      </trkpt>
      <trkpt lat="44.7244" lon="5.23301">
        <ele>766</ele>
        <time>2019-06-16T12:45:22Z</time>
      </trkpt>
      <trkpt lat="44.72442" lon="5.23302">
        <ele>766.4</ele>
        <time>2019-06-16T12:45:23Z</time>
      </trkpt>
      <trkpt lat="44.72444" lon="5.23303">
        <ele>766.8</ele>
        <time>2019-06-16T12:45:24Z</time>
      </trkpt>
      <trkpt lat="44.72451" lon="5.23307">
        <ele>767.2</ele>
        <time>2019-06-16T12:45:28Z</time>
      </trkpt>
      <trkpt lat="44.72452" lon="5.23306">
        <ele>767.6</ele>
        <time>2019-06-16T12:45:29Z</time>
      </trkpt>
      <trkpt lat="44.72452" lon="5.23306">
        <ele>768.2</ele>
        <time>2019-06-16T12:45:30Z</time>
      </trkpt>
      <trkpt lat="44.72454" lon="5.23306">
        <ele>768.6</ele>
        <time>2019-06-16T12:45:31Z</time>
      </trkpt>
      <trkpt lat="44.72456" lon="5.23307">
        <ele>769</ele>
        <time>2019-06-16T12:45:32Z</time>
      </trkpt>
      <trkpt lat="44.72464" lon="5.23317">
        <ele>769</ele>
        <time>2019-06-16T12:45:39Z</time>
      </trkpt>
      <trkpt lat="44.72468" lon="5.23323">
        <ele>769.4</ele>
        <time>2019-06-16T12:45:42Z</time>
      </trkpt>
      <trkpt lat="44.72469" lon="5.23323">
        <ele>769.8</ele>
        <time>2019-06-16T12:45:43Z</time>
      </trkpt>
      <trkpt lat="44.72471" lon="5.23323">
        <ele>770.2</ele>
        <time>2019-06-16T12:45:44Z</time>
      </trkpt>
      <trkpt lat="44.72472" lon="5.23323">
        <ele>770.6</ele>
        <time>2019-06-16T12:45:45Z</time>
      </trkpt>
      <trkpt lat="44.72473" lon="5.23325">
        <ele>771.2</ele>
        <time>2019-06-16T12:45:46Z</time>
      </trkpt>
      <trkpt lat="44.72479" lon="5.2333">
        <ele>771.6</ele>
        <time>2019-06-16T12:45:53Z</time>
      </trkpt>
      <trkpt lat="44.72481" lon="5.23332">
        <ele>772</ele>
        <time>2019-06-16T12:45:54Z</time>
      </trkpt>
      <trkpt lat="44.72482" lon="5.23333">
        <ele>772.4</ele>
        <time>2019-06-16T12:45:55Z</time>
      </trkpt>
      <trkpt lat="44.72484" lon="5.23334">
        <ele>772.8</ele>
        <time>2019-06-16T12:45:56Z</time>
      </trkpt>
      <trkpt lat="44.72485" lon="5.23336">
        <ele>773.2</ele>
        <time>2019-06-16T12:45:57Z</time>
      </trkpt>
      <trkpt lat="44.72499" lon="5.23354">
        <ele>773.2</ele>
        <time>2019-06-16T12:46:03Z</time>
      </trkpt>
      <trkpt lat="44.72511" lon="5.23367">
        <ele>773.6</ele>
        <time>2019-06-16T12:46:09Z</time>
      </trkpt>
      <trkpt lat="44.72512" lon="5.23369">
        <ele>774</ele>
        <time>2019-06-16T12:46:10Z</time>
      </trkpt>
      <trkpt lat="44.72513" lon="5.23371">
        <ele>774.4</ele>
        <time>2019-06-16T12:46:11Z</time>
      </trkpt>
      <trkpt lat="44.72515" lon="5.23372">
        <ele>775</ele>
        <time>2019-06-16T12:46:12Z</time>
      </trkpt>
      <trkpt lat="44.72517" lon="5.23374">
        <ele>775.4</ele>
        <time>2019-06-16T12:46:13Z</time>
      </trkpt>
      <trkpt lat="44.72527" lon="5.23387">
        <ele>775.4</ele>
        <time>2019-06-16T12:46:19Z</time>
      </trkpt>
      <trkpt lat="44.72546" lon="5.23396">
        <ele>775.8</ele>
        <time>2019-06-16T12:46:26Z</time>
      </trkpt>
      <trkpt lat="44.72548" lon="5.23399">
        <ele>776.2</ele>
        <time>2019-06-16T12:46:27Z</time>
      </trkpt>
      <trkpt lat="44.72549" lon="5.23399">
        <ele>776.6</ele>
        <time>2019-06-16T12:46:28Z</time>
      </trkpt>
      <trkpt lat="44.72551" lon="5.234">
        <ele>777</ele>
        <time>2019-06-16T12:46:29Z</time>
      </trkpt>
      <trkpt lat="44.72554" lon="5.23403">
        <ele>777.4</ele>
        <time>2019-06-16T12:46:30Z</time>
      </trkpt>
      <trkpt lat="44.72555" lon="5.23401">
        <ele>777.8</ele>
        <time>2019-06-16T12:46:32Z</time>
      </trkpt>
      <trkpt lat="44.72556" lon="5.23401">
        <ele>778.2</ele>
        <time>2019-06-16T12:46:33Z</time>
      </trkpt>
      <trkpt lat="44.72556" lon="5.23401">
        <ele>778.6</ele>
        <time>2019-06-16T12:46:34Z</time>
      </trkpt>
      <trkpt lat="44.72555" lon="5.23401">
        <ele>779</ele>
        <time>2019-06-16T12:46:35Z</time>
      </trkpt>
      <trkpt lat="44.72556" lon="5.23401">
        <ele>779.4</ele>
        <time>2019-06-16T12:46:36Z</time>
      </trkpt>
      <trkpt lat="44.72555" lon="5.23402">
        <ele>779.4</ele>
        <time>2019-06-16T12:46:38Z</time>
      </trkpt>
      <trkpt lat="44.72554" lon="5.23397">
        <ele>779.4</ele>
        <time>2019-06-16T12:46:46Z</time>
      </trkpt>
      <trkpt lat="44.72551" lon="5.23395">
        <ele>779.8</ele>
        <time>2019-06-16T12:46:50Z</time>
      </trkpt>
      <trkpt lat="44.72551" lon="5.23394">
        <ele>780.4</ele>
        <time>2019-06-16T12:46:51Z</time>
      </trkpt>
      <trkpt lat="44.72551" lon="5.23394">
        <ele>780.8</ele>
        <time>2019-06-16T12:46:52Z</time>
      </trkpt>
      <trkpt lat="44.72551" lon="5.23394">
        <ele>781.2</ele>
        <time>2019-06-16T12:46:53Z</time>
      </trkpt>
      <trkpt lat="44.7255" lon="5.23393">
        <ele>781.6</ele>
        <time>2019-06-16T12:46:54Z</time>
      </trkpt>
      <trkpt lat="44.7255" lon="5.23392">
        <ele>781.6</ele>
        <time>2019-06-16T12:46:56Z</time>
      </trkpt>
      <trkpt lat="44.72549" lon="5.2339">
        <ele>781.6</ele>
        <time>2019-06-16T12:46:58Z</time>
      </trkpt>
      <trkpt lat="44.72547" lon="5.23385">
        <ele>782</ele>
        <time>2019-06-16T12:47:04Z</time>
      </trkpt>
      <trkpt lat="44.72547" lon="5.23384">
        <ele>782.4</ele>
        <time>2019-06-16T12:47:05Z</time>
      </trkpt>
      <trkpt lat="44.72546" lon="5.23383">
        <ele>782.8</ele>
        <time>2019-06-16T12:47:06Z</time>
      </trkpt>
      <trkpt lat="44.72546" lon="5.23381">
        <ele>783.2</ele>
        <time>2019-06-16T12:47:07Z</time>
      </trkpt>
      <trkpt lat="44.72545" lon="5.2338">
        <ele>783.6</ele>
        <time>2019-06-16T12:47:08Z</time>
      </trkpt>
      <trkpt lat="44.72542" lon="5.23373">
        <ele>783.6</ele>
        <time>2019-06-16T12:47:13Z</time>
      </trkpt>
      <trkpt lat="44.7254" lon="5.23366">
        <ele>784</ele>
        <time>2019-06-16T12:47:19Z</time>
      </trkpt>
      <trkpt lat="44.72539" lon="5.23365">
        <ele>784.6</ele>
        <time>2019-06-16T12:47:20Z</time>
      </trkpt>
      <trkpt lat="44.72538" lon="5.23362">
        <ele>785</ele>
        <time>2019-06-16T12:47:21Z</time>
      </trkpt>
      <trkpt lat="44.72536" lon="5.23359">
        <ele>785.4</ele>
        <time>2019-06-16T12:47:22Z</time>
      </trkpt>
      <trkpt lat="44.72535" lon="5.23356">
        <ele>785.8</ele>
        <time>2019-06-16T12:47:23Z</time>
      </trkpt>
      <trkpt lat="44.72528" lon="5.23339">
        <ele>786.2</ele>
        <time>2019-06-16T12:47:32Z</time>
      </trkpt>
      <trkpt lat="44.72528" lon="5.23338">
        <ele>786.6</ele>
        <time>2019-06-16T12:47:33Z</time>
      </trkpt>
      <trkpt lat="44.72527" lon="5.23335">
        <ele>787</ele>
        <time>2019-06-16T12:47:34Z</time>
      </trkpt>
      <trkpt lat="44.72526" lon="5.23333">
        <ele>787.4</ele>
        <time>2019-06-16T12:47:35Z</time>
      </trkpt>
      <trkpt lat="44.72526" lon="5.23331">
        <ele>787.8</ele>
        <time>2019-06-16T12:47:36Z</time>
      </trkpt>
      <trkpt lat="44.72524" lon="5.23326">
        <ele>787.8</ele>
        <time>2019-06-16T12:47:39Z</time>
      </trkpt>
      <trkpt lat="44.72515" lon="5.23309">
        <ele>788.2</ele>
        <time>2019-06-16T12:47:48Z</time>
      </trkpt>
      <trkpt lat="44.72514" lon="5.23308">
        <ele>788.6</ele>
        <time>2019-06-16T12:47:49Z</time>
      </trkpt>
      <trkpt lat="44.72513" lon="5.23306">
        <ele>789</ele>
        <time>2019-06-16T12:47:50Z</time>
      </trkpt>
      <trkpt lat="44.72513" lon="5.23304">
        <ele>789.6</ele>
        <time>2019-06-16T12:47:51Z</time>
      </trkpt>
      <trkpt lat="44.72512" lon="5.23302">
        <ele>790</ele>
        <time>2019-06-16T12:47:52Z</time>
      </trkpt>
      <trkpt lat="44.72505" lon="5.23289">
        <ele>790</ele>
        <time>2019-06-16T12:47:59Z</time>
      </trkpt>
      <trkpt lat="44.725" lon="5.2328">
        <ele>790.4</ele>
        <time>2019-06-16T12:48:04Z</time>
      </trkpt>
      <trkpt lat="44.72499" lon="5.23278">
        <ele>790.8</ele>
        <time>2019-06-16T12:48:05Z</time>
      </trkpt>
      <trkpt lat="44.72498" lon="5.23276">
        <ele>791.2</ele>
        <time>2019-06-16T12:48:06Z</time>
      </trkpt>
      <trkpt lat="44.72498" lon="5.23274">
        <ele>791.6</ele>
        <time>2019-06-16T12:48:07Z</time>
      </trkpt>
      <trkpt lat="44.72496" lon="5.23271">
        <ele>792</ele>
        <time>2019-06-16T12:48:08Z</time>
      </trkpt>
      <trkpt lat="44.7249" lon="5.23261">
        <ele>792</ele>
        <time>2019-06-16T12:48:14Z</time>
      </trkpt>
      <trkpt lat="44.72489" lon="5.23247">
        <ele>792</ele>
        <time>2019-06-16T12:48:21Z</time>
      </trkpt>
      <trkpt lat="44.72489" lon="5.23244">
        <ele>792.4</ele>
        <time>2019-06-16T12:48:23Z</time>
      </trkpt>
      <trkpt lat="44.72491" lon="5.2324">
        <ele>792.8</ele>
        <time>2019-06-16T12:48:24Z</time>
      </trkpt>
      <trkpt lat="44.72491" lon="5.23238">
        <ele>793.2</ele>
        <time>2019-06-16T12:48:25Z</time>
      </trkpt>
      <trkpt lat="44.72491" lon="5.23237">
        <ele>793.6</ele>
        <time>2019-06-16T12:48:26Z</time>
      </trkpt>
      <trkpt lat="44.72491" lon="5.23236">
        <ele>794</ele>
        <time>2019-06-16T12:48:27Z</time>
      </trkpt>
      <trkpt lat="44.72492" lon="5.23237">
        <ele>794</ele>
        <time>2019-06-16T12:48:30Z</time>
      </trkpt>
      <trkpt lat="44.72493" lon="5.23233">
        <ele>794.4</ele>
        <time>2019-06-16T12:48:44Z</time>
      </trkpt>
      <trkpt lat="44.72493" lon="5.23234">
        <ele>794.8</ele>
        <time>2019-06-16T12:48:45Z</time>
      </trkpt>
      <trkpt lat="44.72494" lon="5.23234">
        <ele>795.4</ele>
        <time>2019-06-16T12:48:46Z</time>
      </trkpt>
      <trkpt lat="44.72494" lon="5.23234">
        <ele>795.8</ele>
        <time>2019-06-16T12:48:47Z</time>
      </trkpt>
      <trkpt lat="44.72494" lon="5.23234">
        <ele>796.2</ele>
        <time>2019-06-16T12:48:48Z</time>
      </trkpt>
      <trkpt lat="44.72495" lon="5.23234">
        <ele>796.2</ele>
        <time>2019-06-16T12:49:10Z</time>
      </trkpt>
      <trkpt lat="44.72503" lon="5.23238">
        <ele>796.2</ele>
        <time>2019-06-16T12:50:04Z</time>
      </trkpt>
      <trkpt lat="44.72509" lon="5.23241">
        <ele>796.2</ele>
        <time>2019-06-16T12:50:11Z</time>
      </trkpt>
      <trkpt lat="44.72522" lon="5.23243">
        <ele>796.6</ele>
        <time>2019-06-16T12:50:16Z</time>
      </trkpt>
      <trkpt lat="44.72523" lon="5.23244">
        <ele>797</ele>
        <time>2019-06-16T12:50:17Z</time>
      </trkpt>
      <trkpt lat="44.72523" lon="5.23244">
        <ele>797.4</ele>
        <time>2019-06-16T12:50:18Z</time>
      </trkpt>
      <trkpt lat="44.72525" lon="5.23244">
        <ele>797.8</ele>
        <time>2019-06-16T12:50:19Z</time>
      </trkpt>
      <trkpt lat="44.72527" lon="5.23245">
        <ele>798.4</ele>
        <time>2019-06-16T12:50:20Z</time>
      </trkpt>
      <trkpt lat="44.72536" lon="5.23247">
        <ele>798.8</ele>
        <time>2019-06-16T12:50:26Z</time>
      </trkpt>
      <trkpt lat="44.72537" lon="5.23248">
        <ele>799.2</ele>
        <time>2019-06-16T12:50:27Z</time>
      </trkpt>
      <trkpt lat="44.72538" lon="5.23248">
        <ele>799.6</ele>
        <time>2019-06-16T12:50:28Z</time>
      </trkpt>
      <trkpt lat="44.72539" lon="5.23248">
        <ele>800</ele>
        <time>2019-06-16T12:50:29Z</time>
      </trkpt>
      <trkpt lat="44.7254" lon="5.23248">
        <ele>800.4</ele>
        <time>2019-06-16T12:50:30Z</time>
      </trkpt>
      <trkpt lat="44.72546" lon="5.23251">
        <ele>800.4</ele>
        <time>2019-06-16T12:50:35Z</time>
      </trkpt>
      <trkpt lat="44.72548" lon="5.23251">
        <ele>800.8</ele>
        <time>2019-06-16T12:50:37Z</time>
      </trkpt>
      <trkpt lat="44.72549" lon="5.23252">
        <ele>801.2</ele>
        <time>2019-06-16T12:50:38Z</time>
      </trkpt>
      <trkpt lat="44.7255" lon="5.23254">
        <ele>801.8</ele>
        <time>2019-06-16T12:50:39Z</time>
      </trkpt>
      <trkpt lat="44.72551" lon="5.23254">
        <ele>802.2</ele>
        <time>2019-06-16T12:50:40Z</time>
      </trkpt>
      <trkpt lat="44.72552" lon="5.23254">
        <ele>802.6</ele>
        <time>2019-06-16T12:50:41Z</time>
      </trkpt>
      <trkpt lat="44.72555" lon="5.23255">
        <ele>802.6</ele>
        <time>2019-06-16T12:50:43Z</time>
      </trkpt>
      <trkpt lat="44.72566" lon="5.2327">
        <ele>803</ele>
        <time>2019-06-16T12:50:53Z</time>
      </trkpt>
      <trkpt lat="44.72567" lon="5.23271">
        <ele>803.6</ele>
        <time>2019-06-16T12:50:54Z</time>
      </trkpt>
      <trkpt lat="44.72569" lon="5.23273">
        <ele>804</ele>
        <time>2019-06-16T12:50:55Z</time>
      </trkpt>
      <trkpt lat="44.72569" lon="5.23273">
        <ele>804.4</ele>
        <time>2019-06-16T12:50:56Z</time>
      </trkpt>
      <trkpt lat="44.72571" lon="5.23274">
        <ele>805</ele>
        <time>2019-06-16T12:50:57Z</time>
      </trkpt>
      <trkpt lat="44.72575" lon="5.23277">
        <ele>805</ele>
        <time>2019-06-16T12:51:01Z</time>
      </trkpt>
      <trkpt lat="44.72579" lon="5.23279">
        <ele>805.4</ele>
        <time>2019-06-16T12:51:05Z</time>
      </trkpt>
      <trkpt lat="44.72579" lon="5.23279">
        <ele>805.8</ele>
        <time>2019-06-16T12:51:06Z</time>
      </trkpt>
      <trkpt lat="44.72581" lon="5.2328">
        <ele>806.2</ele>
        <time>2019-06-16T12:51:07Z</time>
      </trkpt>
      <trkpt lat="44.72582" lon="5.23281">
        <ele>806.8</ele>
        <time>2019-06-16T12:51:08Z</time>
      </trkpt>
      <trkpt lat="44.72584" lon="5.23282">
        <ele>807.2</ele>
        <time>2019-06-16T12:51:09Z</time>
      </trkpt>
      <trkpt lat="44.72592" lon="5.23287">
        <ele>807.2</ele>
        <time>2019-06-16T12:51:16Z</time>
      </trkpt>
      <trkpt lat="44.72594" lon="5.23288">
        <ele>807.6</ele>
        <time>2019-06-16T12:51:18Z</time>
      </trkpt>
      <trkpt lat="44.72595" lon="5.23289">
        <ele>808</ele>
        <time>2019-06-16T12:51:19Z</time>
      </trkpt>
      <trkpt lat="44.72595" lon="5.23291">
        <ele>808.4</ele>
        <time>2019-06-16T12:51:20Z</time>
      </trkpt>
      <trkpt lat="44.72596" lon="5.23292">
        <ele>809</ele>
        <time>2019-06-16T12:51:21Z</time>
      </trkpt>
      <trkpt lat="44.72599" lon="5.23293">
        <ele>809.4</ele>
        <time>2019-06-16T12:51:23Z</time>
      </trkpt>
      <trkpt lat="44.72605" lon="5.23299">
        <ele>809.8</ele>
        <time>2019-06-16T12:51:30Z</time>
      </trkpt>
      <trkpt lat="44.72603" lon="5.23297">
        <ele>810.2</ele>
        <time>2019-06-16T12:51:31Z</time>
      </trkpt>
      <trkpt lat="44.72604" lon="5.23297">
        <ele>810.8</ele>
        <time>2019-06-16T12:51:32Z</time>
      </trkpt>
      <trkpt lat="44.72604" lon="5.23297">
        <ele>811.2</ele>
        <time>2019-06-16T12:51:33Z</time>
      </trkpt>
      <trkpt lat="44.72603" lon="5.23297">
        <ele>811.6</ele>
        <time>2019-06-16T12:51:34Z</time>
      </trkpt>
      <trkpt lat="44.72604" lon="5.23295">
        <ele>811.6</ele>
        <time>2019-06-16T12:51:38Z</time>
      </trkpt>
      <trkpt lat="44.72609" lon="5.23307">
        <ele>812</ele>
        <time>2019-06-16T12:51:46Z</time>
      </trkpt>
      <trkpt lat="44.7261" lon="5.23308">
        <ele>812.4</ele>
        <time>2019-06-16T12:51:47Z</time>
      </trkpt>
      <trkpt lat="44.72613" lon="5.23309">
        <ele>813</ele>
        <time>2019-06-16T12:51:48Z</time>
      </trkpt>
      <trkpt lat="44.72615" lon="5.23311">
        <ele>813.4</ele>
        <time>2019-06-16T12:51:49Z</time>
      </trkpt>
      <trkpt lat="44.72616" lon="5.23312">
        <ele>813.8</ele>
        <time>2019-06-16T12:51:50Z</time>
      </trkpt>
      <trkpt lat="44.7262" lon="5.23319">
        <ele>813.8</ele>
        <time>2019-06-16T12:51:55Z</time>
      </trkpt>
      <trkpt lat="44.72623" lon="5.23324">
        <ele>814.2</ele>
        <time>2019-06-16T12:51:59Z</time>
      </trkpt>
      <trkpt lat="44.72624" lon="5.23325">
        <ele>814.6</ele>
        <time>2019-06-16T12:52:00Z</time>
      </trkpt>
      <trkpt lat="44.72624" lon="5.23326">
        <ele>815</ele>
        <time>2019-06-16T12:52:01Z</time>
      </trkpt>
      <trkpt lat="44.72626" lon="5.23327">
        <ele>815.4</ele>
        <time>2019-06-16T12:52:02Z</time>
      </trkpt>
      <trkpt lat="44.72626" lon="5.23328">
        <ele>816</ele>
        <time>2019-06-16T12:52:03Z</time>
      </trkpt>
      <trkpt lat="44.72627" lon="5.23329">
        <ele>816</ele>
        <time>2019-06-16T12:52:04Z</time>
      </trkpt>
      <trkpt lat="44.72627" lon="5.23329">
        <ele>816</ele>
        <time>2019-06-16T12:52:12Z</time>
      </trkpt>
      <trkpt lat="44.7263" lon="5.23334">
        <ele>816.4</ele>
        <time>2019-06-16T12:52:30Z</time>
      </trkpt>
      <trkpt lat="44.72631" lon="5.23335">
        <ele>816.8</ele>
        <time>2019-06-16T12:52:31Z</time>
      </trkpt>
      <trkpt lat="44.72631" lon="5.23337">
        <ele>817.2</ele>
        <time>2019-06-16T12:52:32Z</time>
      </trkpt>
      <trkpt lat="44.72632" lon="5.23337">
        <ele>817.6</ele>
        <time>2019-06-16T12:52:33Z</time>
      </trkpt>
      <trkpt lat="44.72632" lon="5.23338">
        <ele>818</ele>
        <time>2019-06-16T12:52:34Z</time>
      </trkpt>
      <trkpt lat="44.72644" lon="5.23346">
        <ele>818</ele>
        <time>2019-06-16T12:54:16Z</time>
      </trkpt>
      <trkpt lat="44.72644" lon="5.23347">
        <ele>818.4</ele>
        <time>2019-06-16T12:54:20Z</time>
      </trkpt>
      <trkpt lat="44.72644" lon="5.23347">
        <ele>818.8</ele>
        <time>2019-06-16T12:54:21Z</time>
      </trkpt>
      <trkpt lat="44.72644" lon="5.23347">
        <ele>819.2</ele>
        <time>2019-06-16T12:54:22Z</time>
      </trkpt>
      <trkpt lat="44.72644" lon="5.23347">
        <ele>819.6</ele>
        <time>2019-06-16T12:54:23Z</time>
      </trkpt>
      <trkpt lat="44.72644" lon="5.23346">
        <ele>820</ele>
        <time>2019-06-16T12:54:24Z</time>
      </trkpt>
      <trkpt lat="44.72644" lon="5.23345">
        <ele>820</ele>
        <time>2019-06-16T12:54:25Z</time>
      </trkpt>
      <trkpt lat="44.7264" lon="5.23337">
        <ele>820.6</ele>
        <time>2019-06-16T12:54:34Z</time>
      </trkpt>
      <trkpt lat="44.72639" lon="5.23335">
        <ele>821</ele>
        <time>2019-06-16T12:54:35Z</time>
      </trkpt>
      <trkpt lat="44.72638" lon="5.23334">
        <ele>821.4</ele>
        <time>2019-06-16T12:54:36Z</time>
      </trkpt>
      <trkpt lat="44.72638" lon="5.23332">
        <ele>821.8</ele>
        <time>2019-06-16T12:54:37Z</time>
      </trkpt>
      <trkpt lat="44.72638" lon="5.2333">
        <ele>822.2</ele>
        <time>2019-06-16T12:54:38Z</time>
      </trkpt>
      <trkpt lat="44.72637" lon="5.23318">
        <ele>822.8</ele>
        <time>2019-06-16T12:54:47Z</time>
      </trkpt>
      <trkpt lat="44.72637" lon="5.23317">
        <ele>823.2</ele>
        <time>2019-06-16T12:54:48Z</time>
      </trkpt>
      <trkpt lat="44.72636" lon="5.23315">
        <ele>823.8</ele>
        <time>2019-06-16T12:54:49Z</time>
      </trkpt>
      <trkpt lat="44.72636" lon="5.23313">
        <ele>824.2</ele>
        <time>2019-06-16T12:54:50Z</time>
      </trkpt>
      <trkpt lat="44.72636" lon="5.23311">
        <ele>824.8</ele>
        <time>2019-06-16T12:54:51Z</time>
      </trkpt>
      <trkpt lat="44.72635" lon="5.23311">
        <ele>824.8</ele>
        <time>2019-06-16T12:54:52Z</time>
      </trkpt>
      <trkpt lat="44.72628" lon="5.2329">
        <ele>825.2</ele>
        <time>2019-06-16T12:55:04Z</time>
      </trkpt>
      <trkpt lat="44.72628" lon="5.23289">
        <ele>825.6</ele>
        <time>2019-06-16T12:55:05Z</time>
      </trkpt>
      <trkpt lat="44.72627" lon="5.23287">
        <ele>826</ele>
        <time>2019-06-16T12:55:06Z</time>
      </trkpt>
      <trkpt lat="44.72627" lon="5.23285">
        <ele>826.4</ele>
        <time>2019-06-16T12:55:07Z</time>
      </trkpt>
      <trkpt lat="44.72626" lon="5.23284">
        <ele>826.8</ele>
        <time>2019-06-16T12:55:08Z</time>
      </trkpt>
      <trkpt lat="44.72624" lon="5.23275">
        <ele>827.2</ele>
        <time>2019-06-16T12:55:13Z</time>
      </trkpt>
      <trkpt lat="44.72623" lon="5.23273">
        <ele>827.6</ele>
        <time>2019-06-16T12:55:14Z</time>
      </trkpt>
      <trkpt lat="44.72622" lon="5.23271">
        <ele>828</ele>
        <time>2019-06-16T12:55:15Z</time>
      </trkpt>
      <trkpt lat="44.72622" lon="5.2327">
        <ele>828.4</ele>
        <time>2019-06-16T12:55:16Z</time>
      </trkpt>
      <trkpt lat="44.72621" lon="5.23269">
        <ele>828.8</ele>
        <time>2019-06-16T12:55:17Z</time>
      </trkpt>
      <trkpt lat="44.7262" lon="5.23266">
        <ele>828.8</ele>
        <time>2019-06-16T12:55:20Z</time>
      </trkpt>
      <trkpt lat="44.72612" lon="5.23255">
        <ele>829.2</ele>
        <time>2019-06-16T12:55:27Z</time>
      </trkpt>
      <trkpt lat="44.72611" lon="5.23255">
        <ele>829.6</ele>
        <time>2019-06-16T12:55:28Z</time>
      </trkpt>
      <trkpt lat="44.7261" lon="5.23254">
        <ele>830</ele>
        <time>2019-06-16T12:55:29Z</time>
      </trkpt>
      <trkpt lat="44.72609" lon="5.23253">
        <ele>830</ele>
        <time>2019-06-16T12:55:30Z</time>
      </trkpt>
      <trkpt lat="44.72609" lon="5.23252">
        <ele>831</ele>
        <time>2019-06-16T12:55:31Z</time>
      </trkpt>
      <trkpt lat="44.72599" lon="5.23236">
        <ele>831.4</ele>
        <time>2019-06-16T12:55:40Z</time>
      </trkpt>
      <trkpt lat="44.72598" lon="5.23231">
        <ele>831.8</ele>
        <time>2019-06-16T12:55:41Z</time>
      </trkpt>
      <trkpt lat="44.72597" lon="5.23229">
        <ele>832.2</ele>
        <time>2019-06-16T12:55:42Z</time>
      </trkpt>
      <trkpt lat="44.72596" lon="5.23226">
        <ele>832.6</ele>
        <time>2019-06-16T12:55:43Z</time>
      </trkpt>
      <trkpt lat="44.72595" lon="5.23224">
        <ele>833</ele>
        <time>2019-06-16T12:55:44Z</time>
      </trkpt>
      <trkpt lat="44.72583" lon="5.2321">
        <ele>833</ele>
        <time>2019-06-16T12:55:56Z</time>
      </trkpt>
      <trkpt lat="44.7258" lon="5.23204">
        <ele>833.4</ele>
        <time>2019-06-16T12:56:00Z</time>
      </trkpt>
      <trkpt lat="44.72578" lon="5.23203">
        <ele>833.8</ele>
        <time>2019-06-16T12:56:01Z</time>
      </trkpt>
      <trkpt lat="44.72577" lon="5.23201">
        <ele>834.2</ele>
        <time>2019-06-16T12:56:02Z</time>
      </trkpt>
      <trkpt lat="44.72576" lon="5.232">
        <ele>834.8</ele>
        <time>2019-06-16T12:56:03Z</time>
      </trkpt>
      <trkpt lat="44.72576" lon="5.23199">
        <ele>835.2</ele>
        <time>2019-06-16T12:56:04Z</time>
      </trkpt>
      <trkpt lat="44.72574" lon="5.23198">
        <ele>835.2</ele>
        <time>2019-06-16T12:56:08Z</time>
      </trkpt>
      <trkpt lat="44.72569" lon="5.23194">
        <ele>835.2</ele>
        <time>2019-06-16T12:56:18Z</time>
      </trkpt>
      <trkpt lat="44.72558" lon="5.23185">
        <ele>835.2</ele>
        <time>2019-06-16T12:57:21Z</time>
      </trkpt>
      <trkpt lat="44.7255" lon="5.23168">
        <ele>835.2</ele>
        <time>2019-06-16T12:57:29Z</time>
      </trkpt>
      <trkpt lat="44.72549" lon="5.23167">
        <ele>835.6</ele>
        <time>2019-06-16T12:57:30Z</time>
      </trkpt>
      <trkpt lat="44.72548" lon="5.23167">
        <ele>836</ele>
        <time>2019-06-16T12:57:31Z</time>
      </trkpt>
      <trkpt lat="44.72548" lon="5.23166">
        <ele>836.4</ele>
        <time>2019-06-16T12:57:32Z</time>
      </trkpt>
      <trkpt lat="44.72547" lon="5.23165">
        <ele>836.8</ele>
        <time>2019-06-16T12:57:33Z</time>
      </trkpt>
      <trkpt lat="44.72546" lon="5.23163">
        <ele>837.2</ele>
        <time>2019-06-16T12:57:34Z</time>
      </trkpt>
      <trkpt lat="44.7254" lon="5.23157">
        <ele>837.2</ele>
        <time>2019-06-16T12:57:41Z</time>
      </trkpt>
      <trkpt lat="44.72535" lon="5.23154">
        <ele>837.6</ele>
        <time>2019-06-16T12:57:48Z</time>
      </trkpt>
      <trkpt lat="44.72536" lon="5.23153">
        <ele>838</ele>
        <time>2019-06-16T12:57:49Z</time>
      </trkpt>
      <trkpt lat="44.72535" lon="5.23152">
        <ele>838.4</ele>
        <time>2019-06-16T12:57:50Z</time>
      </trkpt>
      <trkpt lat="44.72534" lon="5.23149">
        <ele>838.8</ele>
        <time>2019-06-16T12:57:51Z</time>
      </trkpt>
      <trkpt lat="44.72535" lon="5.23148">
        <ele>839.2</ele>
        <time>2019-06-16T12:57:52Z</time>
      </trkpt>
      <trkpt lat="44.72537" lon="5.23148">
        <ele>839.6</ele>
        <time>2019-06-16T12:57:57Z</time>
      </trkpt>
      <trkpt lat="44.72537" lon="5.23149">
        <ele>840</ele>
        <time>2019-06-16T12:57:58Z</time>
      </trkpt>
      <trkpt lat="44.72538" lon="5.2315">
        <ele>840.4</ele>
        <time>2019-06-16T12:57:59Z</time>
      </trkpt>
      <trkpt lat="44.7254" lon="5.23151">
        <ele>840.8</ele>
        <time>2019-06-16T12:58:00Z</time>
      </trkpt>
      <trkpt lat="44.72543" lon="5.2315">
        <ele>841.2</ele>
        <time>2019-06-16T12:58:01Z</time>
      </trkpt>
      <trkpt lat="44.72546" lon="5.23152">
        <ele>841.2</ele>
        <time>2019-06-16T12:58:04Z</time>
      </trkpt>
      <trkpt lat="44.72553" lon="5.23154">
        <ele>841.2</ele>
        <time>2019-06-16T12:58:11Z</time>
      </trkpt>
      <trkpt lat="44.72553" lon="5.23154">
        <ele>841.8</ele>
        <time>2019-06-16T12:58:12Z</time>
      </trkpt>
      <trkpt lat="44.72554" lon="5.23153">
        <ele>842.2</ele>
        <time>2019-06-16T12:58:13Z</time>
      </trkpt>
      <trkpt lat="44.72554" lon="5.23154">
        <ele>842.6</ele>
        <time>2019-06-16T12:58:14Z</time>
      </trkpt>
      <trkpt lat="44.72555" lon="5.23156">
        <ele>843</ele>
        <time>2019-06-16T12:58:15Z</time>
      </trkpt>
      <trkpt lat="44.72554" lon="5.23157">
        <ele>843.6</ele>
        <time>2019-06-16T12:58:16Z</time>
      </trkpt>
      <trkpt lat="44.72554" lon="5.23157">
        <ele>843.6</ele>
        <time>2019-06-16T12:58:18Z</time>
      </trkpt>
      <trkpt lat="44.72564" lon="5.23177">
        <ele>843.6</ele>
        <time>2019-06-16T13:01:55Z</time>
      </trkpt>
      <trkpt lat="44.72561" lon="5.23176">
        <ele>843.2</ele>
        <time>2019-06-16T13:03:31Z</time>
      </trkpt>
      <trkpt lat="44.72561" lon="5.23176">
        <ele>842.8</ele>
        <time>2019-06-16T13:03:32Z</time>
      </trkpt>
      <trkpt lat="44.72561" lon="5.23176">
        <ele>842.4</ele>
        <time>2019-06-16T13:03:33Z</time>
      </trkpt>
      <trkpt lat="44.72561" lon="5.23176">
        <ele>842</ele>
        <time>2019-06-16T13:03:34Z</time>
      </trkpt>
      <trkpt lat="44.72561" lon="5.23176">
        <ele>841.6</ele>
        <time>2019-06-16T13:03:35Z</time>
      </trkpt>
      <trkpt lat="44.72557" lon="5.23167">
        <ele>841.6</ele>
        <time>2019-06-16T13:04:12Z</time>
      </trkpt>
      <trkpt lat="44.72554" lon="5.23159">
        <ele>842</ele>
        <time>2019-06-16T13:04:23Z</time>
      </trkpt>
      <trkpt lat="44.72554" lon="5.23159">
        <ele>842.4</ele>
        <time>2019-06-16T13:04:24Z</time>
      </trkpt>
      <trkpt lat="44.72554" lon="5.23158">
        <ele>842.8</ele>
        <time>2019-06-16T13:04:25Z</time>
      </trkpt>
      <trkpt lat="44.72554" lon="5.23156">
        <ele>843.2</ele>
        <time>2019-06-16T13:04:26Z</time>
      </trkpt>
      <trkpt lat="44.72553" lon="5.23155">
        <ele>843.6</ele>
        <time>2019-06-16T13:04:27Z</time>
      </trkpt>
      <trkpt lat="44.7255" lon="5.2315">
        <ele>844</ele>
        <time>2019-06-16T13:04:36Z</time>
      </trkpt>
      <trkpt lat="44.7255" lon="5.2315">
        <ele>844.6</ele>
        <time>2019-06-16T13:04:37Z</time>
      </trkpt>
      <trkpt lat="44.72549" lon="5.2315">
        <ele>845</ele>
        <time>2019-06-16T13:04:38Z</time>
      </trkpt>
      <trkpt lat="44.72549" lon="5.23149">
        <ele>845.4</ele>
        <time>2019-06-16T13:04:39Z</time>
      </trkpt>
      <trkpt lat="44.72548" lon="5.23149">
        <ele>845.8</ele>
        <time>2019-06-16T13:04:40Z</time>
      </trkpt>
      <trkpt lat="44.72546" lon="5.23144">
        <ele>845.8</ele>
        <time>2019-06-16T13:04:43Z</time>
      </trkpt>
      <trkpt lat="44.72543" lon="5.23139">
        <ele>845.8</ele>
        <time>2019-06-16T13:04:50Z</time>
      </trkpt>
      <trkpt lat="44.72542" lon="5.23135">
        <ele>846.2</ele>
        <time>2019-06-16T13:04:54Z</time>
      </trkpt>
      <trkpt lat="44.72542" lon="5.23135">
        <ele>846.8</ele>
        <time>2019-06-16T13:04:55Z</time>
      </trkpt>
      <trkpt lat="44.72542" lon="5.23135">
        <ele>847.2</ele>
        <time>2019-06-16T13:04:56Z</time>
      </trkpt>
      <trkpt lat="44.72541" lon="5.23133">
        <ele>847.8</ele>
        <time>2019-06-16T13:04:57Z</time>
      </trkpt>
      <trkpt lat="44.72541" lon="5.23132">
        <ele>848.2</ele>
        <time>2019-06-16T13:04:58Z</time>
      </trkpt>
      <trkpt lat="44.72538" lon="5.23127">
        <ele>848.2</ele>
        <time>2019-06-16T13:05:03Z</time>
      </trkpt>
      <trkpt lat="44.72536" lon="5.23123">
        <ele>848.6</ele>
        <time>2019-06-16T13:05:09Z</time>
      </trkpt>
      <trkpt lat="44.72535" lon="5.23122">
        <ele>849</ele>
        <time>2019-06-16T13:05:10Z</time>
      </trkpt>
      <trkpt lat="44.72535" lon="5.23121">
        <ele>849.6</ele>
        <time>2019-06-16T13:05:11Z</time>
      </trkpt>
      <trkpt lat="44.72534" lon="5.2312">
        <ele>850</ele>
        <time>2019-06-16T13:05:12Z</time>
      </trkpt>
      <trkpt lat="44.72534" lon="5.23119">
        <ele>850.4</ele>
        <time>2019-06-16T13:05:13Z</time>
      </trkpt>
      <trkpt lat="44.72529" lon="5.2311">
        <ele>850.4</ele>
        <time>2019-06-16T13:05:24Z</time>
      </trkpt>
      <trkpt lat="44.72527" lon="5.23107">
        <ele>850.8</ele>
        <time>2019-06-16T13:05:27Z</time>
      </trkpt>
      <trkpt lat="44.72526" lon="5.23106">
        <ele>851.4</ele>
        <time>2019-06-16T13:05:28Z</time>
      </trkpt>
      <trkpt lat="44.72526" lon="5.23105">
        <ele>851.8</ele>
        <time>2019-06-16T13:05:29Z</time>
      </trkpt>
      <trkpt lat="44.72525" lon="5.23105">
        <ele>852.2</ele>
        <time>2019-06-16T13:05:30Z</time>
      </trkpt>
      <trkpt lat="44.72524" lon="5.23104">
        <ele>852.8</ele>
        <time>2019-06-16T13:05:31Z</time>
      </trkpt>
      <trkpt lat="44.7252" lon="5.23103">
        <ele>852.8</ele>
        <time>2019-06-16T13:05:37Z</time>
      </trkpt>
      <trkpt lat="44.72518" lon="5.23098">
        <ele>853.2</ele>
        <time>2019-06-16T13:05:47Z</time>
      </trkpt>
      <trkpt lat="44.72517" lon="5.23098">
        <ele>853.6</ele>
        <time>2019-06-16T13:05:48Z</time>
      </trkpt>
      <trkpt lat="44.72517" lon="5.23098">
        <ele>854</ele>
        <time>2019-06-16T13:05:49Z</time>
      </trkpt>
      <trkpt lat="44.72516" lon="5.23098">
        <ele>854.4</ele>
        <time>2019-06-16T13:05:50Z</time>
      </trkpt>
      <trkpt lat="44.72516" lon="5.23097">
        <ele>854.8</ele>
        <time>2019-06-16T13:05:51Z</time>
      </trkpt>
      <trkpt lat="44.72513" lon="5.23094">
        <ele>855.2</ele>
        <time>2019-06-16T13:06:00Z</time>
      </trkpt>
      <trkpt lat="44.72513" lon="5.23094">
        <ele>855.6</ele>
        <time>2019-06-16T13:06:01Z</time>
      </trkpt>
      <trkpt lat="44.72513" lon="5.23093">
        <ele>856</ele>
        <time>2019-06-16T13:06:02Z</time>
      </trkpt>
      <trkpt lat="44.72513" lon="5.23093">
        <ele>856.4</ele>
        <time>2019-06-16T13:06:03Z</time>
      </trkpt>
      <trkpt lat="44.72512" lon="5.23092">
        <ele>856.8</ele>
        <time>2019-06-16T13:06:04Z</time>
      </trkpt>
      <trkpt lat="44.72505" lon="5.2308">
        <ele>856.8</ele>
        <time>2019-06-16T13:06:15Z</time>
      </trkpt>
      <trkpt lat="44.72504" lon="5.23077">
        <ele>857.2</ele>
        <time>2019-06-16T13:06:17Z</time>
      </trkpt>
      <trkpt lat="44.72504" lon="5.23076">
        <ele>857.6</ele>
        <time>2019-06-16T13:06:18Z</time>
      </trkpt>
      <trkpt lat="44.72503" lon="5.23075">
        <ele>858.2</ele>
        <time>2019-06-16T13:06:19Z</time>
      </trkpt>
      <trkpt lat="44.72503" lon="5.23075">
        <ele>858.6</ele>
        <time>2019-06-16T13:06:20Z</time>
      </trkpt>
      <trkpt lat="44.72503" lon="5.23075">
        <ele>859</ele>
        <time>2019-06-16T13:06:21Z</time>
      </trkpt>
      <trkpt lat="44.72502" lon="5.23072">
        <ele>859</ele>
        <time>2019-06-16T13:06:25Z</time>
      </trkpt>
      <trkpt lat="44.72499" lon="5.23071">
        <ele>859.4</ele>
        <time>2019-06-16T13:06:33Z</time>
      </trkpt>
      <trkpt lat="44.72498" lon="5.23071">
        <ele>859.8</ele>
        <time>2019-06-16T13:06:34Z</time>
      </trkpt>
      <trkpt lat="44.72498" lon="5.23071">
        <ele>860.2</ele>
        <time>2019-06-16T13:06:35Z</time>
      </trkpt>
      <trkpt lat="44.72498" lon="5.23071">
        <ele>860.6</ele>
        <time>2019-06-16T13:06:36Z</time>
      </trkpt>
      <trkpt lat="44.72498" lon="5.2307">
        <ele>861</ele>
        <time>2019-06-16T13:06:37Z</time>
      </trkpt>
      <trkpt lat="44.72491" lon="5.23062">
        <ele>861.4</ele>
        <time>2019-06-16T13:07:11Z</time>
      </trkpt>
      <trkpt lat="44.72491" lon="5.23061">
        <ele>861.8</ele>
        <time>2019-06-16T13:07:12Z</time>
      </trkpt>
      <trkpt lat="44.72492" lon="5.23061">
        <ele>862.2</ele>
        <time>2019-06-16T13:07:13Z</time>
      </trkpt>
      <trkpt lat="44.72491" lon="5.2306">
        <ele>862.6</ele>
        <time>2019-06-16T13:07:14Z</time>
      </trkpt>
      <trkpt lat="44.72491" lon="5.2306">
        <ele>863</ele>
        <time>2019-06-16T13:07:15Z</time>
      </trkpt>
      <trkpt lat="44.72493" lon="5.23054">
        <ele>863</ele>
        <time>2019-06-16T13:07:27Z</time>
      </trkpt>
      <trkpt lat="44.72493" lon="5.23054">
        <ele>863.4</ele>
        <time>2019-06-16T13:07:28Z</time>
      </trkpt>
      <trkpt lat="44.72493" lon="5.23053">
        <ele>863.8</ele>
        <time>2019-06-16T13:07:29Z</time>
      </trkpt>
      <trkpt lat="44.72494" lon="5.23053">
        <ele>864.2</ele>
        <time>2019-06-16T13:07:30Z</time>
      </trkpt>
      <trkpt lat="44.72495" lon="5.23053">
        <ele>864.8</ele>
        <time>2019-06-16T13:07:31Z</time>
      </trkpt>
      <trkpt lat="44.72496" lon="5.23052">
        <ele>865.2</ele>
        <time>2019-06-16T13:07:32Z</time>
      </trkpt>
      <trkpt lat="44.72495" lon="5.2305">
        <ele>865.2</ele>
        <time>2019-06-16T13:07:37Z</time>
      </trkpt>
      <trkpt lat="44.72494" lon="5.23051">
        <ele>865.6</ele>
        <time>2019-06-16T13:07:46Z</time>
      </trkpt>
      <trkpt lat="44.72494" lon="5.23051">
        <ele>866</ele>
        <time>2019-06-16T13:07:47Z</time>
      </trkpt>
      <trkpt lat="44.72494" lon="5.23051">
        <ele>866.4</ele>
        <time>2019-06-16T13:07:48Z</time>
      </trkpt>
      <trkpt lat="44.72494" lon="5.23051">
        <ele>866.8</ele>
        <time>2019-06-16T13:07:49Z</time>
      </trkpt>
      <trkpt lat="44.72494" lon="5.23051">
        <ele>867.2</ele>
        <time>2019-06-16T13:07:50Z</time>
      </trkpt>
      <trkpt lat="44.72496" lon="5.23044">
        <ele>867.2</ele>
        <time>2019-06-16T13:08:10Z</time>
      </trkpt>
      <trkpt lat="44.72498" lon="5.23044">
        <ele>867.6</ele>
        <time>2019-06-16T13:08:13Z</time>
      </trkpt>
      <trkpt lat="44.72499" lon="5.23044">
        <ele>868</ele>
        <time>2019-06-16T13:08:14Z</time>
      </trkpt>
      <trkpt lat="44.72499" lon="5.23043">
        <ele>868.4</ele>
        <time>2019-06-16T13:08:15Z</time>
      </trkpt>
      <trkpt lat="44.72499" lon="5.23043">
        <ele>868.8</ele>
        <time>2019-06-16T13:08:16Z</time>
      </trkpt>
      <trkpt lat="44.725" lon="5.23042">
        <ele>869.2</ele>
        <time>2019-06-16T13:08:17Z</time>
      </trkpt>
      <trkpt lat="44.72502" lon="5.2304">
        <ele>869.2</ele>
        <time>2019-06-16T13:08:22Z</time>
      </trkpt>
      <trkpt lat="44.72501" lon="5.23036">
        <ele>869.2</ele>
        <time>2019-06-16T13:08:34Z</time>
      </trkpt>
      <trkpt lat="44.725" lon="5.23033">
        <ele>869.2</ele>
        <time>2019-06-16T13:10:36Z</time>
      </trkpt>
      <trkpt lat="44.72493" lon="5.23029">
        <ele>869.2</ele>
        <time>2019-06-16T13:12:27Z</time>
      </trkpt>
      <trkpt lat="44.725" lon="5.23028">
        <ele>869.2</ele>
        <time>2019-06-16T13:14:56Z</time>
      </trkpt>
      <trkpt lat="44.725" lon="5.23034">
        <ele>869.2</ele>
        <time>2019-06-16T13:19:13Z</time>
      </trkpt>
      <trkpt lat="44.72497" lon="5.23035">
        <ele>869.2</ele>
        <time>2019-06-16T13:22:02Z</time>
      </trkpt>
      <trkpt lat="44.72487" lon="5.23033">
        <ele>869.2</ele>
        <time>2019-06-16T13:22:22Z</time>
      </trkpt>
      <trkpt lat="44.72475" lon="5.23036">
        <ele>868.8</ele>
        <time>2019-06-16T13:22:26Z</time>
      </trkpt>
      <trkpt lat="44.72473" lon="5.23037">
        <ele>868.4</ele>
        <time>2019-06-16T13:22:27Z</time>
      </trkpt>
      <trkpt lat="44.72472" lon="5.23037">
        <ele>868</ele>
        <time>2019-06-16T13:22:28Z</time>
      </trkpt>
      <trkpt lat="44.72472" lon="5.23038">
        <ele>867.4</ele>
        <time>2019-06-16T13:22:29Z</time>
      </trkpt>
      <trkpt lat="44.72472" lon="5.23038">
        <ele>867</ele>
        <time>2019-06-16T13:22:30Z</time>
      </trkpt>
      <trkpt lat="44.72471" lon="5.23038">
        <ele>866.6</ele>
        <time>2019-06-16T13:22:32Z</time>
      </trkpt>
      <trkpt lat="44.72471" lon="5.23038">
        <ele>866</ele>
        <time>2019-06-16T13:22:33Z</time>
      </trkpt>
      <trkpt lat="44.7247" lon="5.23039">
        <ele>866.8</ele>
        <time>2019-06-16T13:22:34Z</time>
      </trkpt>
      <trkpt lat="44.72471" lon="5.23041">
        <ele>867.4</ele>
        <time>2019-06-16T13:22:35Z</time>
      </trkpt>
      <trkpt lat="44.72472" lon="5.23042">
        <ele>868.4</ele>
        <time>2019-06-16T13:22:36Z</time>
      </trkpt>
      <trkpt lat="44.72471" lon="5.23042">
        <ele>868.2</ele>
        <time>2019-06-16T13:22:37Z</time>
      </trkpt>
      <trkpt lat="44.72468" lon="5.23039">
        <ele>868.2</ele>
        <time>2019-06-16T13:22:38Z</time>
      </trkpt>
      <trkpt lat="44.72467" lon="5.23038">
        <ele>868</ele>
        <time>2019-06-16T13:22:39Z</time>
      </trkpt>
      <trkpt lat="44.72466" lon="5.23037">
        <ele>867.8</ele>
        <time>2019-06-16T13:22:40Z</time>
      </trkpt>
      <trkpt lat="44.72465" lon="5.23036">
        <ele>867.8</ele>
        <time>2019-06-16T13:22:41Z</time>
      </trkpt>
      <trkpt lat="44.72454" lon="5.23036">
        <ele>867.8</ele>
        <time>2019-06-16T13:22:47Z</time>
      </trkpt>
      <trkpt lat="44.72441" lon="5.23039">
        <ele>867.8</ele>
        <time>2019-06-16T13:22:54Z</time>
      </trkpt>
      <trkpt lat="44.72437" lon="5.23042">
        <ele>867.2</ele>
        <time>2019-06-16T13:22:56Z</time>
      </trkpt>
      <trkpt lat="44.72434" lon="5.23042">
        <ele>866.8</ele>
        <time>2019-06-16T13:22:57Z</time>
      </trkpt>
      <trkpt lat="44.72431" lon="5.23043">
        <ele>866.4</ele>
        <time>2019-06-16T13:22:58Z</time>
      </trkpt>
      <trkpt lat="44.72428" lon="5.23043">
        <ele>866</ele>
        <time>2019-06-16T13:22:59Z</time>
      </trkpt>
      <trkpt lat="44.72425" lon="5.23043">
        <ele>865.6</ele>
        <time>2019-06-16T13:23:00Z</time>
      </trkpt>
      <trkpt lat="44.72423" lon="5.23044">
        <ele>865.6</ele>
        <time>2019-06-16T13:23:01Z</time>
      </trkpt>
      <trkpt lat="44.72418" lon="5.23047">
        <ele>865</ele>
        <time>2019-06-16T13:23:06Z</time>
      </trkpt>
      <trkpt lat="44.72417" lon="5.23047">
        <ele>864.6</ele>
        <time>2019-06-16T13:23:07Z</time>
      </trkpt>
      <trkpt lat="44.72416" lon="5.23047">
        <ele>864</ele>
        <time>2019-06-16T13:23:08Z</time>
      </trkpt>
      <trkpt lat="44.72414" lon="5.23047">
        <ele>863.4</ele>
        <time>2019-06-16T13:23:09Z</time>
      </trkpt>
      <trkpt lat="44.72412" lon="5.23047">
        <ele>863</ele>
        <time>2019-06-16T13:23:10Z</time>
      </trkpt>
      <trkpt lat="44.7241" lon="5.23048">
        <ele>862.6</ele>
        <time>2019-06-16T13:23:11Z</time>
      </trkpt>
      <trkpt lat="44.72409" lon="5.23048">
        <ele>862</ele>
        <time>2019-06-16T13:23:12Z</time>
      </trkpt>
      <trkpt lat="44.72407" lon="5.23049">
        <ele>861.6</ele>
        <time>2019-06-16T13:23:13Z</time>
      </trkpt>
      <trkpt lat="44.72405" lon="5.23049">
        <ele>861.2</ele>
        <time>2019-06-16T13:23:14Z</time>
      </trkpt>
      <trkpt lat="44.72403" lon="5.23049">
        <ele>860.8</ele>
        <time>2019-06-16T13:23:15Z</time>
      </trkpt>
      <trkpt lat="44.72396" lon="5.2305">
        <ele>860.4</ele>
        <time>2019-06-16T13:23:18Z</time>
      </trkpt>
      <trkpt lat="44.72393" lon="5.2305">
        <ele>860</ele>
        <time>2019-06-16T13:23:19Z</time>
      </trkpt>
      <trkpt lat="44.7239" lon="5.2305">
        <ele>859.6</ele>
        <time>2019-06-16T13:23:20Z</time>
      </trkpt>
      <trkpt lat="44.72388" lon="5.2305">
        <ele>859.2</ele>
        <time>2019-06-16T13:23:21Z</time>
      </trkpt>
      <trkpt lat="44.72385" lon="5.23051">
        <ele>858.8</ele>
        <time>2019-06-16T13:23:22Z</time>
      </trkpt>
      <trkpt lat="44.72378" lon="5.23057">
        <ele>858.8</ele>
        <time>2019-06-16T13:23:26Z</time>
      </trkpt>
      <trkpt lat="44.72376" lon="5.23058">
        <ele>858.8</ele>
        <time>2019-06-16T13:23:27Z</time>
      </trkpt>
      <trkpt lat="44.72363" lon="5.23062">
        <ele>858.4</ele>
        <time>2019-06-16T13:23:32Z</time>
      </trkpt>
      <trkpt lat="44.72359" lon="5.23064">
        <ele>858</ele>
        <time>2019-06-16T13:23:33Z</time>
      </trkpt>
      <trkpt lat="44.72357" lon="5.23066">
        <ele>857.4</ele>
        <time>2019-06-16T13:23:34Z</time>
      </trkpt>
      <trkpt lat="44.72353" lon="5.23068">
        <ele>857</ele>
        <time>2019-06-16T13:23:35Z</time>
      </trkpt>
      <trkpt lat="44.7235" lon="5.23068">
        <ele>856.6</ele>
        <time>2019-06-16T13:23:36Z</time>
      </trkpt>
      <trkpt lat="44.72347" lon="5.23069">
        <ele>856</ele>
        <time>2019-06-16T13:23:37Z</time>
      </trkpt>
      <trkpt lat="44.72344" lon="5.2307">
        <ele>855.6</ele>
        <time>2019-06-16T13:23:38Z</time>
      </trkpt>
      <trkpt lat="44.72341" lon="5.23071">
        <ele>855</ele>
        <time>2019-06-16T13:23:39Z</time>
      </trkpt>
      <trkpt lat="44.72338" lon="5.23073">
        <ele>854.6</ele>
        <time>2019-06-16T13:23:40Z</time>
      </trkpt>
      <trkpt lat="44.72335" lon="5.23074">
        <ele>854.2</ele>
        <time>2019-06-16T13:23:41Z</time>
      </trkpt>
      <trkpt lat="44.72333" lon="5.23076">
        <ele>853.8</ele>
        <time>2019-06-16T13:23:42Z</time>
      </trkpt>
      <trkpt lat="44.72331" lon="5.23077">
        <ele>853.4</ele>
        <time>2019-06-16T13:23:43Z</time>
      </trkpt>
      <trkpt lat="44.72329" lon="5.23077">
        <ele>853</ele>
        <time>2019-06-16T13:23:44Z</time>
      </trkpt>
      <trkpt lat="44.72329" lon="5.23077">
        <ele>852.6</ele>
        <time>2019-06-16T13:23:45Z</time>
      </trkpt>
      <trkpt lat="44.72322" lon="5.2308">
        <ele>852</ele>
        <time>2019-06-16T13:23:48Z</time>
      </trkpt>
      <trkpt lat="44.72319" lon="5.23081">
        <ele>851.6</ele>
        <time>2019-06-16T13:23:49Z</time>
      </trkpt>
      <trkpt lat="44.72316" lon="5.23081">
        <ele>851</ele>
        <time>2019-06-16T13:23:50Z</time>
      </trkpt>
      <trkpt lat="44.72314" lon="5.23081">
        <ele>850.6</ele>
        <time>2019-06-16T13:23:51Z</time>
      </trkpt>
      <trkpt lat="44.72311" lon="5.23083">
        <ele>850.2</ele>
        <time>2019-06-16T13:23:52Z</time>
      </trkpt>
      <trkpt lat="44.72306" lon="5.23082">
        <ele>849.8</ele>
        <time>2019-06-16T13:23:55Z</time>
      </trkpt>
      <trkpt lat="44.72303" lon="5.23084">
        <ele>849.4</ele>
        <time>2019-06-16T13:23:56Z</time>
      </trkpt>
      <trkpt lat="44.72301" lon="5.23085">
        <ele>848.8</ele>
        <time>2019-06-16T13:23:57Z</time>
      </trkpt>
      <trkpt lat="44.72298" lon="5.23085">
        <ele>848.4</ele>
        <time>2019-06-16T13:23:58Z</time>
      </trkpt>
      <trkpt lat="44.72295" lon="5.23084">
        <ele>848</ele>
        <time>2019-06-16T13:23:59Z</time>
      </trkpt>
      <trkpt lat="44.72292" lon="5.23084">
        <ele>847.4</ele>
        <time>2019-06-16T13:24:00Z</time>
      </trkpt>
      <trkpt lat="44.72289" lon="5.23084">
        <ele>846.8</ele>
        <time>2019-06-16T13:24:01Z</time>
      </trkpt>
      <trkpt lat="44.72287" lon="5.23084">
        <ele>846.2</ele>
        <time>2019-06-16T13:24:02Z</time>
      </trkpt>
      <trkpt lat="44.72285" lon="5.23084">
        <ele>845.8</ele>
        <time>2019-06-16T13:24:03Z</time>
      </trkpt>
      <trkpt lat="44.72279" lon="5.23086">
        <ele>845.2</ele>
        <time>2019-06-16T13:24:06Z</time>
      </trkpt>
      <trkpt lat="44.72278" lon="5.23086">
        <ele>844.8</ele>
        <time>2019-06-16T13:24:07Z</time>
      </trkpt>
      <trkpt lat="44.72275" lon="5.23085">
        <ele>844.4</ele>
        <time>2019-06-16T13:24:08Z</time>
      </trkpt>
      <trkpt lat="44.72272" lon="5.23085">
        <ele>844</ele>
        <time>2019-06-16T13:24:09Z</time>
      </trkpt>
      <trkpt lat="44.72267" lon="5.23084">
        <ele>843.6</ele>
        <time>2019-06-16T13:24:10Z</time>
      </trkpt>
      <trkpt lat="44.72263" lon="5.23085">
        <ele>843.2</ele>
        <time>2019-06-16T13:24:14Z</time>
      </trkpt>
      <trkpt lat="44.72263" lon="5.23085">
        <ele>842.8</ele>
        <time>2019-06-16T13:24:15Z</time>
      </trkpt>
      <trkpt lat="44.72263" lon="5.23085">
        <ele>842.4</ele>
        <time>2019-06-16T13:24:16Z</time>
      </trkpt>
      <trkpt lat="44.72262" lon="5.23085">
        <ele>842</ele>
        <time>2019-06-16T13:24:17Z</time>
      </trkpt>
      <trkpt lat="44.72262" lon="5.23084">
        <ele>841.6</ele>
        <time>2019-06-16T13:24:18Z</time>
      </trkpt>
      <trkpt lat="44.7225" lon="5.23084">
        <ele>841.6</ele>
        <time>2019-06-16T13:24:22Z</time>
      </trkpt>
      <trkpt lat="44.72247" lon="5.23085">
        <ele>841</ele>
        <time>2019-06-16T13:24:23Z</time>
      </trkpt>
      <trkpt lat="44.72242" lon="5.23085">
        <ele>840.6</ele>
        <time>2019-06-16T13:24:24Z</time>
      </trkpt>
      <trkpt lat="44.72237" lon="5.23086">
        <ele>840</ele>
        <time>2019-06-16T13:24:25Z</time>
      </trkpt>
      <trkpt lat="44.72232" lon="5.23086">
        <ele>839.6</ele>
        <time>2019-06-16T13:24:26Z</time>
      </trkpt>
      <trkpt lat="44.72231" lon="5.23086">
        <ele>839</ele>
        <time>2019-06-16T13:24:27Z</time>
      </trkpt>
      <trkpt lat="44.72229" lon="5.23083">
        <ele>838.6</ele>
        <time>2019-06-16T13:24:28Z</time>
      </trkpt>
      <trkpt lat="44.72226" lon="5.23082">
        <ele>838</ele>
        <time>2019-06-16T13:24:29Z</time>
      </trkpt>
      <trkpt lat="44.72224" lon="5.23082">
        <ele>837.4</ele>
        <time>2019-06-16T13:24:30Z</time>
      </trkpt>
      <trkpt lat="44.72221" lon="5.23081">
        <ele>837</ele>
        <time>2019-06-16T13:24:31Z</time>
      </trkpt>
      <trkpt lat="44.7222" lon="5.23081">
        <ele>836.4</ele>
        <time>2019-06-16T13:24:32Z</time>
      </trkpt>
      <trkpt lat="44.72216" lon="5.23081">
        <ele>836</ele>
        <time>2019-06-16T13:24:33Z</time>
      </trkpt>
      <trkpt lat="44.72213" lon="5.2308">
        <ele>835.6</ele>
        <time>2019-06-16T13:24:34Z</time>
      </trkpt>
      <trkpt lat="44.7221" lon="5.23081">
        <ele>835</ele>
        <time>2019-06-16T13:24:35Z</time>
      </trkpt>
      <trkpt lat="44.72208" lon="5.23082">
        <ele>834.6</ele>
        <time>2019-06-16T13:24:36Z</time>
      </trkpt>
      <trkpt lat="44.72204" lon="5.23081">
        <ele>834.2</ele>
        <time>2019-06-16T13:24:38Z</time>
      </trkpt>
      <trkpt lat="44.72203" lon="5.23081">
        <ele>833.6</ele>
        <time>2019-06-16T13:24:39Z</time>
      </trkpt>
      <trkpt lat="44.722" lon="5.23079">
        <ele>833.2</ele>
        <time>2019-06-16T13:24:40Z</time>
      </trkpt>
      <trkpt lat="44.72198" lon="5.23078">
        <ele>832.8</ele>
        <time>2019-06-16T13:24:41Z</time>
      </trkpt>
      <trkpt lat="44.72196" lon="5.23078">
        <ele>832.2</ele>
        <time>2019-06-16T13:24:42Z</time>
      </trkpt>
      <trkpt lat="44.72194" lon="5.23078">
        <ele>831.8</ele>
        <time>2019-06-16T13:24:43Z</time>
      </trkpt>
      <trkpt lat="44.72192" lon="5.23079">
        <ele>831.4</ele>
        <time>2019-06-16T13:24:44Z</time>
      </trkpt>
      <trkpt lat="44.72189" lon="5.23079">
        <ele>830.8</ele>
        <time>2019-06-16T13:24:45Z</time>
      </trkpt>
      <trkpt lat="44.72187" lon="5.2308">
        <ele>830.4</ele>
        <time>2019-06-16T13:24:46Z</time>
      </trkpt>
      <trkpt lat="44.72184" lon="5.23082">
        <ele>830</ele>
        <time>2019-06-16T13:24:47Z</time>
      </trkpt>
      <trkpt lat="44.72182" lon="5.23083">
        <ele>830</ele>
        <time>2019-06-16T13:24:48Z</time>
      </trkpt>
      <trkpt lat="44.7218" lon="5.23084">
        <ele>829.6</ele>
        <time>2019-06-16T13:24:49Z</time>
      </trkpt>
      <trkpt lat="44.72178" lon="5.23083">
        <ele>829</ele>
        <time>2019-06-16T13:24:50Z</time>
      </trkpt>
      <trkpt lat="44.72175" lon="5.23083">
        <ele>828.6</ele>
        <time>2019-06-16T13:24:51Z</time>
      </trkpt>
      <trkpt lat="44.72172" lon="5.23083">
        <ele>828</ele>
        <time>2019-06-16T13:24:52Z</time>
      </trkpt>
      <trkpt lat="44.72169" lon="5.23084">
        <ele>827.4</ele>
        <time>2019-06-16T13:24:53Z</time>
      </trkpt>
      <trkpt lat="44.72167" lon="5.23084">
        <ele>826.8</ele>
        <time>2019-06-16T13:24:54Z</time>
      </trkpt>
      <trkpt lat="44.72164" lon="5.23085">
        <ele>826.2</ele>
        <time>2019-06-16T13:24:55Z</time>
      </trkpt>
      <trkpt lat="44.72161" lon="5.23087">
        <ele>825.6</ele>
        <time>2019-06-16T13:24:56Z</time>
      </trkpt>
      <trkpt lat="44.72156" lon="5.23092">
        <ele>825.6</ele>
        <time>2019-06-16T13:24:59Z</time>
      </trkpt>
      <trkpt lat="44.72152" lon="5.23096">
        <ele>825.2</ele>
        <time>2019-06-16T13:25:02Z</time>
      </trkpt>
      <trkpt lat="44.7215" lon="5.23098">
        <ele>824.8</ele>
        <time>2019-06-16T13:25:03Z</time>
      </trkpt>
      <trkpt lat="44.72148" lon="5.231">
        <ele>824.2</ele>
        <time>2019-06-16T13:25:04Z</time>
      </trkpt>
      <trkpt lat="44.72146" lon="5.23102">
        <ele>823.8</ele>
        <time>2019-06-16T13:25:05Z</time>
      </trkpt>
      <trkpt lat="44.72144" lon="5.23104">
        <ele>823.2</ele>
        <time>2019-06-16T13:25:06Z</time>
      </trkpt>
      <trkpt lat="44.72142" lon="5.23106">
        <ele>822.8</ele>
        <time>2019-06-16T13:25:07Z</time>
      </trkpt>
      <trkpt lat="44.72139" lon="5.23107">
        <ele>822.2</ele>
        <time>2019-06-16T13:25:08Z</time>
      </trkpt>
      <trkpt lat="44.72137" lon="5.23107">
        <ele>821.6</ele>
        <time>2019-06-16T13:25:09Z</time>
      </trkpt>
      <trkpt lat="44.72135" lon="5.23106">
        <ele>821</ele>
        <time>2019-06-16T13:25:10Z</time>
      </trkpt>
      <trkpt lat="44.72132" lon="5.23104">
        <ele>821</ele>
        <time>2019-06-16T13:25:12Z</time>
      </trkpt>
      <trkpt lat="44.72122" lon="5.23103">
        <ele>820.6</ele>
        <time>2019-06-16T13:25:15Z</time>
      </trkpt>
      <trkpt lat="44.7212" lon="5.23103">
        <ele>820.2</ele>
        <time>2019-06-16T13:25:16Z</time>
      </trkpt>
      <trkpt lat="44.72118" lon="5.23102">
        <ele>819.8</ele>
        <time>2019-06-16T13:25:17Z</time>
      </trkpt>
      <trkpt lat="44.72117" lon="5.23102">
        <ele>819.4</ele>
        <time>2019-06-16T13:25:18Z</time>
      </trkpt>
      <trkpt lat="44.72115" lon="5.23103">
        <ele>818.8</ele>
        <time>2019-06-16T13:25:19Z</time>
      </trkpt>
      <trkpt lat="44.72114" lon="5.23103">
        <ele>818.8</ele>
        <time>2019-06-16T13:25:20Z</time>
      </trkpt>
      <trkpt lat="44.72099" lon="5.23102">
        <ele>818.8</ele>
        <time>2019-06-16T13:25:26Z</time>
      </trkpt>
      <trkpt lat="44.72085" lon="5.23104">
        <ele>818.4</ele>
        <time>2019-06-16T13:25:31Z</time>
      </trkpt>
      <trkpt lat="44.72082" lon="5.23103">
        <ele>818</ele>
        <time>2019-06-16T13:25:32Z</time>
      </trkpt>
      <trkpt lat="44.72078" lon="5.23102">
        <ele>817.6</ele>
        <time>2019-06-16T13:25:33Z</time>
      </trkpt>
      <trkpt lat="44.72074" lon="5.23101">
        <ele>817.2</ele>
        <time>2019-06-16T13:25:34Z</time>
      </trkpt>
      <trkpt lat="44.72071" lon="5.231">
        <ele>816.8</ele>
        <time>2019-06-16T13:25:35Z</time>
      </trkpt>
      <trkpt lat="44.7207" lon="5.231">
        <ele>816.8</ele>
        <time>2019-06-16T13:25:36Z</time>
      </trkpt>
      <trkpt lat="44.72069" lon="5.231">
        <ele>816.8</ele>
        <time>2019-06-16T13:25:40Z</time>
      </trkpt>
      <trkpt lat="44.72067" lon="5.231">
        <ele>816.4</ele>
        <time>2019-06-16T13:25:47Z</time>
      </trkpt>
      <trkpt lat="44.72067" lon="5.231">
        <ele>816</ele>
        <time>2019-06-16T13:25:48Z</time>
      </trkpt>
      <trkpt lat="44.72067" lon="5.23099">
        <ele>815.6</ele>
        <time>2019-06-16T13:25:49Z</time>
      </trkpt>
      <trkpt lat="44.72067" lon="5.23099">
        <ele>815</ele>
        <time>2019-06-16T13:25:50Z</time>
      </trkpt>
      <trkpt lat="44.72067" lon="5.23099">
        <ele>814.6</ele>
        <time>2019-06-16T13:25:51Z</time>
      </trkpt>
      <trkpt lat="44.72067" lon="5.23099">
        <ele>814.6</ele>
        <time>2019-06-16T13:25:54Z</time>
      </trkpt>
      <trkpt lat="44.72048" lon="5.23092">
        <ele>814.6</ele>
        <time>2019-06-16T13:26:00Z</time>
      </trkpt>
      <trkpt lat="44.72022" lon="5.23087">
        <ele>814.6</ele>
        <time>2019-06-16T13:26:07Z</time>
      </trkpt>
      <trkpt lat="44.71992" lon="5.2308">
        <ele>814.6</ele>
        <time>2019-06-16T13:26:14Z</time>
      </trkpt>
      <trkpt lat="44.71973" lon="5.2308">
        <ele>814.2</ele>
        <time>2019-06-16T13:26:18Z</time>
      </trkpt>
      <trkpt lat="44.71968" lon="5.23081">
        <ele>813.6</ele>
        <time>2019-06-16T13:26:19Z</time>
      </trkpt>
      <trkpt lat="44.71963" lon="5.23083">
        <ele>813.2</ele>
        <time>2019-06-16T13:26:20Z</time>
      </trkpt>
      <trkpt lat="44.71958" lon="5.23082">
        <ele>812.6</ele>
        <time>2019-06-16T13:26:21Z</time>
      </trkpt>
      <trkpt lat="44.71952" lon="5.23084">
        <ele>812.2</ele>
        <time>2019-06-16T13:26:22Z</time>
      </trkpt>
      <trkpt lat="44.71941" lon="5.23084">
        <ele>811.6</ele>
        <time>2019-06-16T13:26:24Z</time>
      </trkpt>
      <trkpt lat="44.71936" lon="5.23085">
        <ele>811.2</ele>
        <time>2019-06-16T13:26:25Z</time>
      </trkpt>
      <trkpt lat="44.71932" lon="5.23087">
        <ele>810.8</ele>
        <time>2019-06-16T13:26:26Z</time>
      </trkpt>
      <trkpt lat="44.71928" lon="5.23087">
        <ele>810.2</ele>
        <time>2019-06-16T13:26:27Z</time>
      </trkpt>
      <trkpt lat="44.71924" lon="5.23086">
        <ele>809.8</ele>
        <time>2019-06-16T13:26:28Z</time>
      </trkpt>
      <trkpt lat="44.71922" lon="5.23085">
        <ele>809.4</ele>
        <time>2019-06-16T13:26:29Z</time>
      </trkpt>
      <trkpt lat="44.71918" lon="5.23087">
        <ele>809</ele>
        <time>2019-06-16T13:26:30Z</time>
      </trkpt>
      <trkpt lat="44.71915" lon="5.23087">
        <ele>808.6</ele>
        <time>2019-06-16T13:26:31Z</time>
      </trkpt>
      <trkpt lat="44.71911" lon="5.23087">
        <ele>808.2</ele>
        <time>2019-06-16T13:26:32Z</time>
      </trkpt>
      <trkpt lat="44.71907" lon="5.23087">
        <ele>807.8</ele>
        <time>2019-06-16T13:26:33Z</time>
      </trkpt>
      <trkpt lat="44.71901" lon="5.23088">
        <ele>807.4</ele>
        <time>2019-06-16T13:26:35Z</time>
      </trkpt>
      <trkpt lat="44.71898" lon="5.23088">
        <ele>807</ele>
        <time>2019-06-16T13:26:36Z</time>
      </trkpt>
      <trkpt lat="44.71895" lon="5.23087">
        <ele>806.4</ele>
        <time>2019-06-16T13:26:37Z</time>
      </trkpt>
      <trkpt lat="44.71893" lon="5.23086">
        <ele>806</ele>
        <time>2019-06-16T13:26:38Z</time>
      </trkpt>
      <trkpt lat="44.71891" lon="5.23085">
        <ele>805.6</ele>
        <time>2019-06-16T13:26:39Z</time>
      </trkpt>
      <trkpt lat="44.71889" lon="5.23084">
        <ele>805</ele>
        <time>2019-06-16T13:26:40Z</time>
      </trkpt>
      <trkpt lat="44.71887" lon="5.23083">
        <ele>804.4</ele>
        <time>2019-06-16T13:26:41Z</time>
      </trkpt>
      <trkpt lat="44.71883" lon="5.23082">
        <ele>804</ele>
        <time>2019-06-16T13:26:42Z</time>
      </trkpt>
      <trkpt lat="44.7188" lon="5.23082">
        <ele>803.4</ele>
        <time>2019-06-16T13:26:43Z</time>
      </trkpt>
      <trkpt lat="44.71872" lon="5.23081">
        <ele>803</ele>
        <time>2019-06-16T13:26:45Z</time>
      </trkpt>
      <trkpt lat="44.71869" lon="5.23081">
        <ele>802.6</ele>
        <time>2019-06-16T13:26:46Z</time>
      </trkpt>
      <trkpt lat="44.71864" lon="5.2308">
        <ele>802.2</ele>
        <time>2019-06-16T13:26:47Z</time>
      </trkpt>
      <trkpt lat="44.71861" lon="5.2308">
        <ele>801.8</ele>
        <time>2019-06-16T13:26:48Z</time>
      </trkpt>
      <trkpt lat="44.71858" lon="5.2308">
        <ele>801.4</ele>
        <time>2019-06-16T13:26:49Z</time>
      </trkpt>
      <trkpt lat="44.71855" lon="5.23078">
        <ele>801.4</ele>
        <time>2019-06-16T13:26:50Z</time>
      </trkpt>
      <trkpt lat="44.71852" lon="5.23077">
        <ele>800.8</ele>
        <time>2019-06-16T13:26:51Z</time>
      </trkpt>
      <trkpt lat="44.71847" lon="5.23077">
        <ele>800.2</ele>
        <time>2019-06-16T13:26:52Z</time>
      </trkpt>
      <trkpt lat="44.71844" lon="5.23078">
        <ele>799.6</ele>
        <time>2019-06-16T13:26:53Z</time>
      </trkpt>
      <trkpt lat="44.7184" lon="5.23079">
        <ele>799.2</ele>
        <time>2019-06-16T13:26:54Z</time>
      </trkpt>
      <trkpt lat="44.71838" lon="5.2308">
        <ele>798.6</ele>
        <time>2019-06-16T13:26:55Z</time>
      </trkpt>
      <trkpt lat="44.71834" lon="5.23081">
        <ele>798.6</ele>
        <time>2019-06-16T13:26:56Z</time>
      </trkpt>
      <trkpt lat="44.71827" lon="5.23081">
        <ele>798</ele>
        <time>2019-06-16T13:26:58Z</time>
      </trkpt>
      <trkpt lat="44.71825" lon="5.23081">
        <ele>797.6</ele>
        <time>2019-06-16T13:26:59Z</time>
      </trkpt>
      <trkpt lat="44.71821" lon="5.23081">
        <ele>797</ele>
        <time>2019-06-16T13:27:00Z</time>
      </trkpt>
      <trkpt lat="44.71815" lon="5.23083">
        <ele>796.4</ele>
        <time>2019-06-16T13:27:01Z</time>
      </trkpt>
      <trkpt lat="44.71811" lon="5.23083">
        <ele>796</ele>
        <time>2019-06-16T13:27:02Z</time>
      </trkpt>
      <trkpt lat="44.71806" lon="5.23082">
        <ele>795.4</ele>
        <time>2019-06-16T13:27:03Z</time>
      </trkpt>
      <trkpt lat="44.71802" lon="5.23083">
        <ele>795</ele>
        <time>2019-06-16T13:27:04Z</time>
      </trkpt>
      <trkpt lat="44.718" lon="5.23082">
        <ele>794.4</ele>
        <time>2019-06-16T13:27:05Z</time>
      </trkpt>
      <trkpt lat="44.71797" lon="5.23081">
        <ele>794</ele>
        <time>2019-06-16T13:27:06Z</time>
      </trkpt>
      <trkpt lat="44.71792" lon="5.23079">
        <ele>794</ele>
        <time>2019-06-16T13:27:08Z</time>
      </trkpt>
      <trkpt lat="44.71777" lon="5.23072">
        <ele>794</ele>
        <time>2019-06-16T13:27:15Z</time>
      </trkpt>
      <trkpt lat="44.71766" lon="5.23068">
        <ele>794.4</ele>
        <time>2019-06-16T13:27:20Z</time>
      </trkpt>
      <trkpt lat="44.71765" lon="5.23067">
        <ele>794.8</ele>
        <time>2019-06-16T13:27:21Z</time>
      </trkpt>
      <trkpt lat="44.71764" lon="5.23067">
        <ele>795.2</ele>
        <time>2019-06-16T13:27:22Z</time>
      </trkpt>
      <trkpt lat="44.71763" lon="5.23067">
        <ele>795.6</ele>
        <time>2019-06-16T13:27:23Z</time>
      </trkpt>
      <trkpt lat="44.7176" lon="5.23068">
        <ele>796</ele>
        <time>2019-06-16T13:27:24Z</time>
      </trkpt>
      <trkpt lat="44.71752" lon="5.23068">
        <ele>796</ele>
        <time>2019-06-16T13:27:27Z</time>
      </trkpt>
      <trkpt lat="44.71746" lon="5.23069">
        <ele>796</ele>
        <time>2019-06-16T13:27:36Z</time>
      </trkpt>
      <trkpt lat="44.71734" lon="5.23071">
        <ele>796</ele>
        <time>2019-06-16T13:29:05Z</time>
      </trkpt>
      <trkpt lat="44.71716" lon="5.23075">
        <ele>796</ele>
        <time>2019-06-16T13:29:08Z</time>
      </trkpt>
      <trkpt lat="44.71708" lon="5.23076">
        <ele>796</ele>
        <time>2019-06-16T13:29:10Z</time>
      </trkpt>
      <trkpt lat="44.71689" lon="5.23081">
        <ele>796</ele>
        <time>2019-06-16T13:29:16Z</time>
      </trkpt>
      <trkpt lat="44.7167" lon="5.23086">
        <ele>796</ele>
        <time>2019-06-16T13:29:23Z</time>
      </trkpt>
      <trkpt lat="44.71654" lon="5.23098">
        <ele>796</ele>
        <time>2019-06-16T13:29:28Z</time>
      </trkpt>
      <trkpt lat="44.71641" lon="5.231">
        <ele>795.4</ele>
        <time>2019-06-16T13:29:31Z</time>
      </trkpt>
      <trkpt lat="44.71638" lon="5.23099">
        <ele>795</ele>
        <time>2019-06-16T13:29:32Z</time>
      </trkpt>
      <trkpt lat="44.71635" lon="5.23098">
        <ele>794.6</ele>
        <time>2019-06-16T13:29:33Z</time>
      </trkpt>
      <trkpt lat="44.7163" lon="5.23097">
        <ele>794.2</ele>
        <time>2019-06-16T13:29:34Z</time>
      </trkpt>
      <trkpt lat="44.71627" lon="5.23097">
        <ele>793.6</ele>
        <time>2019-06-16T13:29:35Z</time>
      </trkpt>
      <trkpt lat="44.7162" lon="5.23098">
        <ele>793.6</ele>
        <time>2019-06-16T13:29:37Z</time>
      </trkpt>
      <trkpt lat="44.71603" lon="5.23097">
        <ele>793.6</ele>
        <time>2019-06-16T13:29:43Z</time>
      </trkpt>
      <trkpt lat="44.71583" lon="5.23103">
        <ele>793.6</ele>
        <time>2019-06-16T13:29:49Z</time>
      </trkpt>
      <trkpt lat="44.71565" lon="5.2311">
        <ele>793.2</ele>
        <time>2019-06-16T13:29:54Z</time>
      </trkpt>
      <trkpt lat="44.71562" lon="5.23111">
        <ele>792.8</ele>
        <time>2019-06-16T13:29:55Z</time>
      </trkpt>
      <trkpt lat="44.71558" lon="5.23112">
        <ele>792.4</ele>
        <time>2019-06-16T13:29:56Z</time>
      </trkpt>
      <trkpt lat="44.71554" lon="5.23114">
        <ele>792</ele>
        <time>2019-06-16T13:29:57Z</time>
      </trkpt>
      <trkpt lat="44.71551" lon="5.23116">
        <ele>791.6</ele>
        <time>2019-06-16T13:29:58Z</time>
      </trkpt>
      <trkpt lat="44.71542" lon="5.2312">
        <ele>791.2</ele>
        <time>2019-06-16T13:30:00Z</time>
      </trkpt>
      <trkpt lat="44.71539" lon="5.23122">
        <ele>790.6</ele>
        <time>2019-06-16T13:30:01Z</time>
      </trkpt>
      <trkpt lat="44.71535" lon="5.23124">
        <ele>790.2</ele>
        <time>2019-06-16T13:30:02Z</time>
      </trkpt>
      <trkpt lat="44.71532" lon="5.23126">
        <ele>789.8</ele>
        <time>2019-06-16T13:30:03Z</time>
      </trkpt>
      <trkpt lat="44.71529" lon="5.23128">
        <ele>789.2</ele>
        <time>2019-06-16T13:30:04Z</time>
      </trkpt>
      <trkpt lat="44.71525" lon="5.23129">
        <ele>788.8</ele>
        <time>2019-06-16T13:30:05Z</time>
      </trkpt>
      <trkpt lat="44.71521" lon="5.23131">
        <ele>788.4</ele>
        <time>2019-06-16T13:30:06Z</time>
      </trkpt>
      <trkpt lat="44.71517" lon="5.23134">
        <ele>788</ele>
        <time>2019-06-16T13:30:07Z</time>
      </trkpt>
      <trkpt lat="44.71514" lon="5.23137">
        <ele>787.4</ele>
        <time>2019-06-16T13:30:08Z</time>
      </trkpt>
      <trkpt lat="44.7151" lon="5.23139">
        <ele>787</ele>
        <time>2019-06-16T13:30:09Z</time>
      </trkpt>
      <trkpt lat="44.71506" lon="5.23142">
        <ele>786.4</ele>
        <time>2019-06-16T13:30:10Z</time>
      </trkpt>
      <trkpt lat="44.71501" lon="5.23142">
        <ele>785.8</ele>
        <time>2019-06-16T13:30:11Z</time>
      </trkpt>
      <trkpt lat="44.71497" lon="5.23143">
        <ele>785.2</ele>
        <time>2019-06-16T13:30:12Z</time>
      </trkpt>
      <trkpt lat="44.71492" lon="5.23143">
        <ele>784.8</ele>
        <time>2019-06-16T13:30:13Z</time>
      </trkpt>
      <trkpt lat="44.71488" lon="5.23143">
        <ele>784.2</ele>
        <time>2019-06-16T13:30:14Z</time>
      </trkpt>
      <trkpt lat="44.71484" lon="5.23144">
        <ele>783.6</ele>
        <time>2019-06-16T13:30:15Z</time>
      </trkpt>
      <trkpt lat="44.7148" lon="5.23144">
        <ele>783</ele>
        <time>2019-06-16T13:30:16Z</time>
      </trkpt>
      <trkpt lat="44.71476" lon="5.23144">
        <ele>782.4</ele>
        <time>2019-06-16T13:30:17Z</time>
      </trkpt>
      <trkpt lat="44.71471" lon="5.23145">
        <ele>781.8</ele>
        <time>2019-06-16T13:30:18Z</time>
      </trkpt>
      <trkpt lat="44.71466" lon="5.23145">
        <ele>781.2</ele>
        <time>2019-06-16T13:30:19Z</time>
      </trkpt>
      <trkpt lat="44.7146" lon="5.23144">
        <ele>780.6</ele>
        <time>2019-06-16T13:30:20Z</time>
      </trkpt>
      <trkpt lat="44.7145" lon="5.23143">
        <ele>780.2</ele>
        <time>2019-06-16T13:30:22Z</time>
      </trkpt>
      <trkpt lat="44.71446" lon="5.23141">
        <ele>779.8</ele>
        <time>2019-06-16T13:30:23Z</time>
      </trkpt>
      <trkpt lat="44.71444" lon="5.2314">
        <ele>779.4</ele>
        <time>2019-06-16T13:30:24Z</time>
      </trkpt>
      <trkpt lat="44.71442" lon="5.23137">
        <ele>779</ele>
        <time>2019-06-16T13:30:25Z</time>
      </trkpt>
      <trkpt lat="44.7144" lon="5.23134">
        <ele>778.4</ele>
        <time>2019-06-16T13:30:26Z</time>
      </trkpt>
      <trkpt lat="44.71438" lon="5.2313">
        <ele>778</ele>
        <time>2019-06-16T13:30:27Z</time>
      </trkpt>
      <trkpt lat="44.71438" lon="5.23126">
        <ele>777.4</ele>
        <time>2019-06-16T13:30:28Z</time>
      </trkpt>
      <trkpt lat="44.71438" lon="5.23123">
        <ele>776.8</ele>
        <time>2019-06-16T13:30:29Z</time>
      </trkpt>
      <trkpt lat="44.71439" lon="5.23121">
        <ele>776.2</ele>
        <time>2019-06-16T13:30:30Z</time>
      </trkpt>
      <trkpt lat="44.7144" lon="5.23117">
        <ele>775.6</ele>
        <time>2019-06-16T13:30:31Z</time>
      </trkpt>
      <trkpt lat="44.71441" lon="5.23113">
        <ele>775</ele>
        <time>2019-06-16T13:30:32Z</time>
      </trkpt>
      <trkpt lat="44.71443" lon="5.23108">
        <ele>774.4</ele>
        <time>2019-06-16T13:30:33Z</time>
      </trkpt>
      <trkpt lat="44.71444" lon="5.23104">
        <ele>773.8</ele>
        <time>2019-06-16T13:30:34Z</time>
      </trkpt>
      <trkpt lat="44.71445" lon="5.231">
        <ele>773.4</ele>
        <time>2019-06-16T13:30:35Z</time>
      </trkpt>
      <trkpt lat="44.71446" lon="5.23096">
        <ele>772.8</ele>
        <time>2019-06-16T13:30:36Z</time>
      </trkpt>
      <trkpt lat="44.71446" lon="5.23093">
        <ele>772</ele>
        <time>2019-06-16T13:30:37Z</time>
      </trkpt>
      <trkpt lat="44.71445" lon="5.23091">
        <ele>771.4</ele>
        <time>2019-06-16T13:30:38Z</time>
      </trkpt>
      <trkpt lat="44.71443" lon="5.23089">
        <ele>770.8</ele>
        <time>2019-06-16T13:30:39Z</time>
      </trkpt>
      <trkpt lat="44.71441" lon="5.23089">
        <ele>770.2</ele>
        <time>2019-06-16T13:30:40Z</time>
      </trkpt>
      <trkpt lat="44.71438" lon="5.23089">
        <ele>769.6</ele>
        <time>2019-06-16T13:30:41Z</time>
      </trkpt>
      <trkpt lat="44.71434" lon="5.23089">
        <ele>769.2</ele>
        <time>2019-06-16T13:30:42Z</time>
      </trkpt>
      <trkpt lat="44.71429" lon="5.23087">
        <ele>768.8</ele>
        <time>2019-06-16T13:30:43Z</time>
      </trkpt>
      <trkpt lat="44.71424" lon="5.23086">
        <ele>768.2</ele>
        <time>2019-06-16T13:30:44Z</time>
      </trkpt>
      <trkpt lat="44.7142" lon="5.23088">
        <ele>767.8</ele>
        <time>2019-06-16T13:30:45Z</time>
      </trkpt>
      <trkpt lat="44.71416" lon="5.23088">
        <ele>767.2</ele>
        <time>2019-06-16T13:30:46Z</time>
      </trkpt>
      <trkpt lat="44.7141" lon="5.23087">
        <ele>766.8</ele>
        <time>2019-06-16T13:30:47Z</time>
      </trkpt>
      <trkpt lat="44.71405" lon="5.23086">
        <ele>766.2</ele>
        <time>2019-06-16T13:30:48Z</time>
      </trkpt>
      <trkpt lat="44.71401" lon="5.23085">
        <ele>765.6</ele>
        <time>2019-06-16T13:30:49Z</time>
      </trkpt>
      <trkpt lat="44.71398" lon="5.23085">
        <ele>765.2</ele>
        <time>2019-06-16T13:30:50Z</time>
      </trkpt>
      <trkpt lat="44.71393" lon="5.23086">
        <ele>764.6</ele>
        <time>2019-06-16T13:30:51Z</time>
      </trkpt>
      <trkpt lat="44.71389" lon="5.23087">
        <ele>764</ele>
        <time>2019-06-16T13:30:52Z</time>
      </trkpt>
      <trkpt lat="44.71384" lon="5.23088">
        <ele>763.4</ele>
        <time>2019-06-16T13:30:53Z</time>
      </trkpt>
      <trkpt lat="44.71378" lon="5.23088">
        <ele>763</ele>
        <time>2019-06-16T13:30:54Z</time>
      </trkpt>
      <trkpt lat="44.71373" lon="5.23088">
        <ele>762.4</ele>
        <time>2019-06-16T13:30:55Z</time>
      </trkpt>
      <trkpt lat="44.71367" lon="5.2309">
        <ele>762</ele>
        <time>2019-06-16T13:30:56Z</time>
      </trkpt>
      <trkpt lat="44.71362" lon="5.23092">
        <ele>761.4</ele>
        <time>2019-06-16T13:30:57Z</time>
      </trkpt>
      <trkpt lat="44.71352" lon="5.23095">
        <ele>761</ele>
        <time>2019-06-16T13:30:59Z</time>
      </trkpt>
      <trkpt lat="44.71348" lon="5.23096">
        <ele>760.6</ele>
        <time>2019-06-16T13:31:00Z</time>
      </trkpt>
      <trkpt lat="44.71344" lon="5.23097">
        <ele>760</ele>
        <time>2019-06-16T13:31:01Z</time>
      </trkpt>
      <trkpt lat="44.71339" lon="5.23098">
        <ele>759.6</ele>
        <time>2019-06-16T13:31:02Z</time>
      </trkpt>
      <trkpt lat="44.71334" lon="5.23099">
        <ele>759.2</ele>
        <time>2019-06-16T13:31:03Z</time>
      </trkpt>
      <trkpt lat="44.71323" lon="5.23099">
        <ele>758.8</ele>
        <time>2019-06-16T13:31:05Z</time>
      </trkpt>
      <trkpt lat="44.71318" lon="5.23099">
        <ele>758.4</ele>
        <time>2019-06-16T13:31:06Z</time>
      </trkpt>
      <trkpt lat="44.71312" lon="5.231">
        <ele>757.8</ele>
        <time>2019-06-16T13:31:07Z</time>
      </trkpt>
      <trkpt lat="44.71308" lon="5.231">
        <ele>757.4</ele>
        <time>2019-06-16T13:31:08Z</time>
      </trkpt>
      <trkpt lat="44.71302" lon="5.23101">
        <ele>757</ele>
        <time>2019-06-16T13:31:09Z</time>
      </trkpt>
      <trkpt lat="44.71288" lon="5.23102">
        <ele>757</ele>
        <time>2019-06-16T13:31:12Z</time>
      </trkpt>
      <trkpt lat="44.71284" lon="5.23103">
        <ele>757</ele>
        <time>2019-06-16T13:31:13Z</time>
      </trkpt>
      <trkpt lat="44.71271" lon="5.23105">
        <ele>757</ele>
        <time>2019-06-16T13:31:17Z</time>
      </trkpt>
      <trkpt lat="44.71252" lon="5.23108">
        <ele>756.6</ele>
        <time>2019-06-16T13:31:23Z</time>
      </trkpt>
      <trkpt lat="44.71249" lon="5.23109">
        <ele>756.2</ele>
        <time>2019-06-16T13:31:24Z</time>
      </trkpt>
      <trkpt lat="44.71245" lon="5.23109">
        <ele>755.6</ele>
        <time>2019-06-16T13:31:25Z</time>
      </trkpt>
      <trkpt lat="44.71241" lon="5.23109">
        <ele>755.2</ele>
        <time>2019-06-16T13:31:26Z</time>
      </trkpt>
      <trkpt lat="44.71237" lon="5.23109">
        <ele>754.8</ele>
        <time>2019-06-16T13:31:27Z</time>
      </trkpt>
      <trkpt lat="44.71232" lon="5.23108">
        <ele>754.4</ele>
        <time>2019-06-16T13:31:28Z</time>
      </trkpt>
      <trkpt lat="44.71227" lon="5.23108">
        <ele>754</ele>
        <time>2019-06-16T13:31:29Z</time>
      </trkpt>
      <trkpt lat="44.71221" lon="5.23108">
        <ele>753.4</ele>
        <time>2019-06-16T13:31:30Z</time>
      </trkpt>
      <trkpt lat="44.71215" lon="5.23108">
        <ele>752.8</ele>
        <time>2019-06-16T13:31:31Z</time>
      </trkpt>
      <trkpt lat="44.71209" lon="5.23108">
        <ele>752.2</ele>
        <time>2019-06-16T13:31:32Z</time>
      </trkpt>
      <trkpt lat="44.71203" lon="5.23108">
        <ele>751.6</ele>
        <time>2019-06-16T13:31:33Z</time>
      </trkpt>
      <trkpt lat="44.71197" lon="5.23108">
        <ele>751</ele>
        <time>2019-06-16T13:31:34Z</time>
      </trkpt>
      <trkpt lat="44.71192" lon="5.23107">
        <ele>750.6</ele>
        <time>2019-06-16T13:31:35Z</time>
      </trkpt>
      <trkpt lat="44.71177" lon="5.23106">
        <ele>750.6</ele>
        <time>2019-06-16T13:31:38Z</time>
      </trkpt>
      <trkpt lat="44.7116" lon="5.23106">
        <ele>750.6</ele>
        <time>2019-06-16T13:31:43Z</time>
      </trkpt>
      <trkpt lat="44.71145" lon="5.23105">
        <ele>750.6</ele>
        <time>2019-06-16T13:31:50Z</time>
      </trkpt>
      <trkpt lat="44.71131" lon="5.23102">
        <ele>750.6</ele>
        <time>2019-06-16T13:31:56Z</time>
      </trkpt>
      <trkpt lat="44.71115" lon="5.23101">
        <ele>750.6</ele>
        <time>2019-06-16T13:32:03Z</time>
      </trkpt>
      <trkpt lat="44.71103" lon="5.23099">
        <ele>750</ele>
        <time>2019-06-16T13:32:07Z</time>
      </trkpt>
      <trkpt lat="44.711" lon="5.23098">
        <ele>749.6</ele>
        <time>2019-06-16T13:32:08Z</time>
      </trkpt>
      <trkpt lat="44.71096" lon="5.23098">
        <ele>749.2</ele>
        <time>2019-06-16T13:32:09Z</time>
      </trkpt>
      <trkpt lat="44.71092" lon="5.23097">
        <ele>748.8</ele>
        <time>2019-06-16T13:32:10Z</time>
      </trkpt>
      <trkpt lat="44.71086" lon="5.23099">
        <ele>748.4</ele>
        <time>2019-06-16T13:32:11Z</time>
      </trkpt>
      <trkpt lat="44.71077" lon="5.23101">
        <ele>748.4</ele>
        <time>2019-06-16T13:32:13Z</time>
      </trkpt>
      <trkpt lat="44.71057" lon="5.23103">
        <ele>748.4</ele>
        <time>2019-06-16T13:32:19Z</time>
      </trkpt>
      <trkpt lat="44.71054" lon="5.23103">
        <ele>748</ele>
        <time>2019-06-16T13:32:20Z</time>
      </trkpt>
      <trkpt lat="44.7105" lon="5.23103">
        <ele>747.6</ele>
        <time>2019-06-16T13:32:21Z</time>
      </trkpt>
      <trkpt lat="44.71046" lon="5.23102">
        <ele>747.2</ele>
        <time>2019-06-16T13:32:22Z</time>
      </trkpt>
      <trkpt lat="44.71043" lon="5.23103">
        <ele>746.6</ele>
        <time>2019-06-16T13:32:23Z</time>
      </trkpt>
      <trkpt lat="44.71039" lon="5.23104">
        <ele>746.2</ele>
        <time>2019-06-16T13:32:24Z</time>
      </trkpt>
      <trkpt lat="44.71034" lon="5.23105">
        <ele>746.2</ele>
        <time>2019-06-16T13:32:25Z</time>
      </trkpt>
      <trkpt lat="44.71021" lon="5.23109">
        <ele>746.2</ele>
        <time>2019-06-16T13:32:28Z</time>
      </trkpt>
      <trkpt lat="44.71017" lon="5.23111">
        <ele>745.8</ele>
        <time>2019-06-16T13:32:29Z</time>
      </trkpt>
      <trkpt lat="44.71012" lon="5.23114">
        <ele>745.4</ele>
        <time>2019-06-16T13:32:30Z</time>
      </trkpt>
      <trkpt lat="44.71007" lon="5.23116">
        <ele>744.8</ele>
        <time>2019-06-16T13:32:31Z</time>
      </trkpt>
      <trkpt lat="44.71002" lon="5.23119">
        <ele>744.4</ele>
        <time>2019-06-16T13:32:32Z</time>
      </trkpt>
      <trkpt lat="44.70996" lon="5.23123">
        <ele>743.8</ele>
        <time>2019-06-16T13:32:33Z</time>
      </trkpt>
      <trkpt lat="44.7099" lon="5.23127">
        <ele>743.4</ele>
        <time>2019-06-16T13:32:34Z</time>
      </trkpt>
      <trkpt lat="44.70985" lon="5.2313">
        <ele>742.8</ele>
        <time>2019-06-16T13:32:35Z</time>
      </trkpt>
      <trkpt lat="44.70981" lon="5.23132">
        <ele>742.4</ele>
        <time>2019-06-16T13:32:36Z</time>
      </trkpt>
      <trkpt lat="44.70976" lon="5.23134">
        <ele>741.8</ele>
        <time>2019-06-16T13:32:37Z</time>
      </trkpt>
      <trkpt lat="44.70968" lon="5.23137">
        <ele>741.8</ele>
        <time>2019-06-16T13:32:40Z</time>
      </trkpt>
      <trkpt lat="44.70949" lon="5.2314">
        <ele>741.8</ele>
        <time>2019-06-16T13:32:45Z</time>
      </trkpt>
      <trkpt lat="44.7094" lon="5.23142">
        <ele>741.8</ele>
        <time>2019-06-16T13:32:50Z</time>
      </trkpt>
      <trkpt lat="44.70929" lon="5.23146">
        <ele>741.8</ele>
        <time>2019-06-16T13:32:55Z</time>
      </trkpt>
      <trkpt lat="44.70907" lon="5.2315">
        <ele>741.4</ele>
        <time>2019-06-16T13:33:01Z</time>
      </trkpt>
      <trkpt lat="44.70901" lon="5.23151">
        <ele>741</ele>
        <time>2019-06-16T13:33:02Z</time>
      </trkpt>
      <trkpt lat="44.70896" lon="5.23152">
        <ele>740.4</ele>
        <time>2019-06-16T13:33:03Z</time>
      </trkpt>
      <trkpt lat="44.70891" lon="5.23153">
        <ele>739.8</ele>
        <time>2019-06-16T13:33:04Z</time>
      </trkpt>
      <trkpt lat="44.70884" lon="5.23155">
        <ele>739.2</ele>
        <time>2019-06-16T13:33:05Z</time>
      </trkpt>
      <trkpt lat="44.70877" lon="5.23155">
        <ele>738.4</ele>
        <time>2019-06-16T13:33:06Z</time>
      </trkpt>
      <trkpt lat="44.7087" lon="5.23154">
        <ele>737.4</ele>
        <time>2019-06-16T13:33:07Z</time>
      </trkpt>
      <trkpt lat="44.70863" lon="5.23153">
        <ele>736.4</ele>
        <time>2019-06-16T13:33:08Z</time>
      </trkpt>
      <trkpt lat="44.70855" lon="5.23152">
        <ele>735.4</ele>
        <time>2019-06-16T13:33:09Z</time>
      </trkpt>
      <trkpt lat="44.70849" lon="5.23151">
        <ele>734.4</ele>
        <time>2019-06-16T13:33:10Z</time>
      </trkpt>
      <trkpt lat="44.70842" lon="5.23149">
        <ele>733.6</ele>
        <time>2019-06-16T13:33:11Z</time>
      </trkpt>
      <trkpt lat="44.70835" lon="5.23147">
        <ele>732.8</ele>
        <time>2019-06-16T13:33:12Z</time>
      </trkpt>
      <trkpt lat="44.70829" lon="5.23146">
        <ele>732</ele>
        <time>2019-06-16T13:33:13Z</time>
      </trkpt>
      <trkpt lat="44.70823" lon="5.23144">
        <ele>731.2</ele>
        <time>2019-06-16T13:33:14Z</time>
      </trkpt>
      <trkpt lat="44.70817" lon="5.2314">
        <ele>730.4</ele>
        <time>2019-06-16T13:33:15Z</time>
      </trkpt>
      <trkpt lat="44.70811" lon="5.23138">
        <ele>729.6</ele>
        <time>2019-06-16T13:33:16Z</time>
      </trkpt>
      <trkpt lat="44.70806" lon="5.23136">
        <ele>729</ele>
        <time>2019-06-16T13:33:17Z</time>
      </trkpt>
      <trkpt lat="44.70801" lon="5.23134">
        <ele>728.2</ele>
        <time>2019-06-16T13:33:18Z</time>
      </trkpt>
      <trkpt lat="44.70796" lon="5.23133">
        <ele>727.8</ele>
        <time>2019-06-16T13:33:19Z</time>
      </trkpt>
      <trkpt lat="44.70791" lon="5.23131">
        <ele>727.2</ele>
        <time>2019-06-16T13:33:20Z</time>
      </trkpt>
      <trkpt lat="44.70787" lon="5.23131">
        <ele>726.8</ele>
        <time>2019-06-16T13:33:21Z</time>
      </trkpt>
      <trkpt lat="44.70784" lon="5.2313">
        <ele>726.4</ele>
        <time>2019-06-16T13:33:22Z</time>
      </trkpt>
      <trkpt lat="44.70781" lon="5.23129">
        <ele>726</ele>
        <time>2019-06-16T13:33:23Z</time>
      </trkpt>
      <trkpt lat="44.70777" lon="5.23128">
        <ele>725.4</ele>
        <time>2019-06-16T13:33:24Z</time>
      </trkpt>
      <trkpt lat="44.70774" lon="5.23128">
        <ele>725</ele>
        <time>2019-06-16T13:33:25Z</time>
      </trkpt>
      <trkpt lat="44.70771" lon="5.23127">
        <ele>724.4</ele>
        <time>2019-06-16T13:33:26Z</time>
      </trkpt>
      <trkpt lat="44.70768" lon="5.23127">
        <ele>723.8</ele>
        <time>2019-06-16T13:33:27Z</time>
      </trkpt>
      <trkpt lat="44.70765" lon="5.23127">
        <ele>723.2</ele>
        <time>2019-06-16T13:33:28Z</time>
      </trkpt>
      <trkpt lat="44.70759" lon="5.23124">
        <ele>722.8</ele>
        <time>2019-06-16T13:33:31Z</time>
      </trkpt>
      <trkpt lat="44.70757" lon="5.23123">
        <ele>722.4</ele>
        <time>2019-06-16T13:33:32Z</time>
      </trkpt>
      <trkpt lat="44.70757" lon="5.23123">
        <ele>722</ele>
        <time>2019-06-16T13:33:33Z</time>
      </trkpt>
      <trkpt lat="44.70757" lon="5.23123">
        <ele>721.6</ele>
        <time>2019-06-16T13:33:34Z</time>
      </trkpt>
      <trkpt lat="44.70757" lon="5.23122">
        <ele>721.2</ele>
        <time>2019-06-16T13:33:35Z</time>
      </trkpt>
      <trkpt lat="44.70756" lon="5.23122">
        <ele>721.2</ele>
        <time>2019-06-16T13:34:07Z</time>
      </trkpt>
      <trkpt lat="44.70759" lon="5.2312">
        <ele>721.2</ele>
        <time>2019-06-16T13:35:06Z</time>
      </trkpt>
      <trkpt lat="44.70761" lon="5.23119">
        <ele>721.2</ele>
        <time>2019-06-16T13:35:07Z</time>
      </trkpt>
      <trkpt lat="44.70776" lon="5.23111">
        <ele>721.2</ele>
        <time>2019-06-16T13:35:14Z</time>
      </trkpt>
      <trkpt lat="44.70792" lon="5.23101">
        <ele>721.2</ele>
        <time>2019-06-16T13:35:20Z</time>
      </trkpt>
      <trkpt lat="44.70815" lon="5.23092">
        <ele>721.2</ele>
        <time>2019-06-16T13:35:27Z</time>
      </trkpt>
      <trkpt lat="44.70839" lon="5.23085">
        <ele>721.2</ele>
        <time>2019-06-16T13:35:36Z</time>
      </trkpt>
      <trkpt lat="44.70861" lon="5.23078">
        <ele>721.2</ele>
        <time>2019-06-16T13:35:42Z</time>
      </trkpt>
      <trkpt lat="44.70875" lon="5.2307">
        <ele>721.2</ele>
        <time>2019-06-16T13:35:48Z</time>
      </trkpt>
      <trkpt lat="44.70889" lon="5.23067">
        <ele>721.2</ele>
        <time>2019-06-16T13:35:54Z</time>
      </trkpt>
      <trkpt lat="44.70903" lon="5.23061">
        <ele>721.2</ele>
        <time>2019-06-16T13:36:00Z</time>
      </trkpt>
      <trkpt lat="44.70918" lon="5.23053">
        <ele>721.2</ele>
        <time>2019-06-16T13:36:07Z</time>
      </trkpt>
      <trkpt lat="44.70942" lon="5.23045">
        <ele>721.2</ele>
        <time>2019-06-16T13:36:14Z</time>
      </trkpt>
      <trkpt lat="44.70955" lon="5.23044">
        <ele>721.2</ele>
        <time>2019-06-16T13:36:19Z</time>
      </trkpt>
      <trkpt lat="44.70969" lon="5.23039">
        <ele>721.2</ele>
        <time>2019-06-16T13:36:25Z</time>
      </trkpt>
      <trkpt lat="44.7098" lon="5.23034">
        <ele>721.2</ele>
        <time>2019-06-16T13:36:31Z</time>
      </trkpt>
      <trkpt lat="44.70983" lon="5.23032">
        <ele>721.2</ele>
        <time>2019-06-16T13:36:33Z</time>
      </trkpt>
      <trkpt lat="44.70996" lon="5.23023">
        <ele>721.2</ele>
        <time>2019-06-16T13:36:43Z</time>
      </trkpt>
      <trkpt lat="44.70996" lon="5.23022">
        <ele>721.6</ele>
        <time>2019-06-16T13:36:46Z</time>
      </trkpt>
      <trkpt lat="44.70996" lon="5.23022">
        <ele>722</ele>
        <time>2019-06-16T13:36:47Z</time>
      </trkpt>
      <trkpt lat="44.70996" lon="5.23022">
        <ele>722.4</ele>
        <time>2019-06-16T13:36:48Z</time>
      </trkpt>
      <trkpt lat="44.70997" lon="5.23022">
        <ele>722.8</ele>
        <time>2019-06-16T13:36:49Z</time>
      </trkpt>
      <trkpt lat="44.70997" lon="5.23022">
        <ele>723.2</ele>
        <time>2019-06-16T13:36:50Z</time>
      </trkpt>
      <trkpt lat="44.70997" lon="5.23022">
        <ele>723.2</ele>
        <time>2019-06-16T13:36:54Z</time>
      </trkpt>
      <trkpt lat="44.71" lon="5.23021">
        <ele>723.6</ele>
        <time>2019-06-16T13:37:10Z</time>
      </trkpt>
      <trkpt lat="44.71003" lon="5.23021">
        <ele>724.2</ele>
        <time>2019-06-16T13:37:11Z</time>
      </trkpt>
      <trkpt lat="44.71005" lon="5.2302">
        <ele>724.6</ele>
        <time>2019-06-16T13:37:12Z</time>
      </trkpt>
      <trkpt lat="44.71007" lon="5.2302">
        <ele>725</ele>
        <time>2019-06-16T13:37:13Z</time>
      </trkpt>
      <trkpt lat="44.71016" lon="5.23015">
        <ele>725.4</ele>
        <time>2019-06-16T13:37:14Z</time>
      </trkpt>
      <trkpt lat="44.71028" lon="5.23014">
        <ele>725.4</ele>
        <time>2019-06-16T13:37:18Z</time>
      </trkpt>
      <trkpt lat="44.71037" lon="5.23015">
        <ele>725.8</ele>
        <time>2019-06-16T13:37:23Z</time>
      </trkpt>
      <trkpt lat="44.71039" lon="5.23015">
        <ele>726.2</ele>
        <time>2019-06-16T13:37:24Z</time>
      </trkpt>
      <trkpt lat="44.71041" lon="5.23015">
        <ele>726.8</ele>
        <time>2019-06-16T13:37:25Z</time>
      </trkpt>
      <trkpt lat="44.71042" lon="5.23015">
        <ele>727.2</ele>
        <time>2019-06-16T13:37:26Z</time>
      </trkpt>
      <trkpt lat="44.71044" lon="5.23015">
        <ele>727.6</ele>
        <time>2019-06-16T13:37:27Z</time>
      </trkpt>
      <trkpt lat="44.71051" lon="5.23015">
        <ele>727.6</ele>
        <time>2019-06-16T13:37:33Z</time>
      </trkpt>
      <trkpt lat="44.71056" lon="5.23014">
        <ele>727.6</ele>
        <time>2019-06-16T13:37:39Z</time>
      </trkpt>
      <trkpt lat="44.71059" lon="5.23013">
        <ele>727.6</ele>
        <time>2019-06-16T13:37:42Z</time>
      </trkpt>
      <trkpt lat="44.71077" lon="5.23015">
        <ele>727.6</ele>
        <time>2019-06-16T13:37:51Z</time>
      </trkpt>
      <trkpt lat="44.71084" lon="5.23017">
        <ele>727.6</ele>
        <time>2019-06-16T13:38:00Z</time>
      </trkpt>
      <trkpt lat="44.71088" lon="5.23019">
        <ele>728</ele>
        <time>2019-06-16T13:38:06Z</time>
      </trkpt>
      <trkpt lat="44.71088" lon="5.2302">
        <ele>728.4</ele>
        <time>2019-06-16T13:38:07Z</time>
      </trkpt>
      <trkpt lat="44.71089" lon="5.2302">
        <ele>728.8</ele>
        <time>2019-06-16T13:38:08Z</time>
      </trkpt>
      <trkpt lat="44.71089" lon="5.23019">
        <ele>729.2</ele>
        <time>2019-06-16T13:38:09Z</time>
      </trkpt>
      <trkpt lat="44.71089" lon="5.23019">
        <ele>729.6</ele>
        <time>2019-06-16T13:38:10Z</time>
      </trkpt>
      <trkpt lat="44.71087" lon="5.23015">
        <ele>729.6</ele>
        <time>2019-06-16T13:38:17Z</time>
      </trkpt>
      <trkpt lat="44.71097" lon="5.23019">
        <ele>729.6</ele>
        <time>2019-06-16T13:39:04Z</time>
      </trkpt>
      <trkpt lat="44.71111" lon="5.23025">
        <ele>729.6</ele>
        <time>2019-06-16T13:39:10Z</time>
      </trkpt>
      <trkpt lat="44.71127" lon="5.23034">
        <ele>729.6</ele>
        <time>2019-06-16T13:39:17Z</time>
      </trkpt>
      <trkpt lat="44.71138" lon="5.23039">
        <ele>729.6</ele>
        <time>2019-06-16T13:39:23Z</time>
      </trkpt>
      <trkpt lat="44.71143" lon="5.2304">
        <ele>730</ele>
        <time>2019-06-16T13:39:29Z</time>
      </trkpt>
      <trkpt lat="44.71144" lon="5.2304">
        <ele>730.4</ele>
        <time>2019-06-16T13:39:30Z</time>
      </trkpt>
      <trkpt lat="44.71145" lon="5.23041">
        <ele>730.8</ele>
        <time>2019-06-16T13:39:31Z</time>
      </trkpt>
      <trkpt lat="44.71146" lon="5.23041">
        <ele>731.4</ele>
        <time>2019-06-16T13:39:32Z</time>
      </trkpt>
      <trkpt lat="44.71148" lon="5.23041">
        <ele>731.8</ele>
        <time>2019-06-16T13:39:33Z</time>
      </trkpt>
      <trkpt lat="44.71166" lon="5.23044">
        <ele>731.8</ele>
        <time>2019-06-16T13:39:42Z</time>
      </trkpt>
      <trkpt lat="44.71171" lon="5.23046">
        <ele>731.8</ele>
        <time>2019-06-16T13:39:48Z</time>
      </trkpt>
      <trkpt lat="44.71178" lon="5.23048">
        <ele>731.8</ele>
        <time>2019-06-16T13:39:54Z</time>
      </trkpt>
      <trkpt lat="44.71186" lon="5.23049">
        <ele>731.8</ele>
        <time>2019-06-16T13:40:04Z</time>
      </trkpt>
      <trkpt lat="44.71199" lon="5.23048">
        <ele>731.8</ele>
        <time>2019-06-16T13:40:16Z</time>
      </trkpt>
      <trkpt lat="44.71221" lon="5.23045">
        <ele>731.8</ele>
        <time>2019-06-16T13:40:27Z</time>
      </trkpt>
      <trkpt lat="44.71233" lon="5.23043">
        <ele>731.8</ele>
        <time>2019-06-16T13:40:34Z</time>
      </trkpt>
      <trkpt lat="44.71239" lon="5.23042">
        <ele>732.2</ele>
        <time>2019-06-16T13:40:38Z</time>
      </trkpt>
      <trkpt lat="44.7124" lon="5.23041">
        <ele>732.6</ele>
        <time>2019-06-16T13:40:39Z</time>
      </trkpt>
      <trkpt lat="44.71242" lon="5.23041">
        <ele>733</ele>
        <time>2019-06-16T13:40:40Z</time>
      </trkpt>
      <trkpt lat="44.71243" lon="5.2304">
        <ele>733.6</ele>
        <time>2019-06-16T13:40:41Z</time>
      </trkpt>
      <trkpt lat="44.71244" lon="5.2304">
        <ele>734</ele>
        <time>2019-06-16T13:40:42Z</time>
      </trkpt>
      <trkpt lat="44.71257" lon="5.23034">
        <ele>734</ele>
        <time>2019-06-16T13:40:50Z</time>
      </trkpt>
      <trkpt lat="44.71268" lon="5.2303">
        <ele>734</ele>
        <time>2019-06-16T13:40:56Z</time>
      </trkpt>
      <trkpt lat="44.71281" lon="5.23028">
        <ele>734</ele>
        <time>2019-06-16T13:41:02Z</time>
      </trkpt>
      <trkpt lat="44.71296" lon="5.23022">
        <ele>734</ele>
        <time>2019-06-16T13:41:09Z</time>
      </trkpt>
      <trkpt lat="44.71311" lon="5.23013">
        <ele>734</ele>
        <time>2019-06-16T13:41:16Z</time>
      </trkpt>
      <trkpt lat="44.71314" lon="5.23011">
        <ele>733.6</ele>
        <time>2019-06-16T13:41:17Z</time>
      </trkpt>
      <trkpt lat="44.71316" lon="5.2301">
        <ele>733</ele>
        <time>2019-06-16T13:41:18Z</time>
      </trkpt>
      <trkpt lat="44.71319" lon="5.23009">
        <ele>732.6</ele>
        <time>2019-06-16T13:41:19Z</time>
      </trkpt>
      <trkpt lat="44.71322" lon="5.23007">
        <ele>732.2</ele>
        <time>2019-06-16T13:41:20Z</time>
      </trkpt>
      <trkpt lat="44.71324" lon="5.23006">
        <ele>731.6</ele>
        <time>2019-06-16T13:41:21Z</time>
      </trkpt>
      <trkpt lat="44.71327" lon="5.23003">
        <ele>731.6</ele>
        <time>2019-06-16T13:41:24Z</time>
      </trkpt>
      <trkpt lat="44.71338" lon="5.22996">
        <ele>731.6</ele>
        <time>2019-06-16T13:41:30Z</time>
      </trkpt>
      <trkpt lat="44.71348" lon="5.22987">
        <ele>731.6</ele>
        <time>2019-06-16T13:41:36Z</time>
      </trkpt>
      <trkpt lat="44.71356" lon="5.22975">
        <ele>731.6</ele>
        <time>2019-06-16T13:41:44Z</time>
      </trkpt>
      <trkpt lat="44.7136" lon="5.22966">
        <ele>731.6</ele>
        <time>2019-06-16T13:41:51Z</time>
      </trkpt>
      <trkpt lat="44.71372" lon="5.22951">
        <ele>731.6</ele>
        <time>2019-06-16T13:42:01Z</time>
      </trkpt>
      <trkpt lat="44.71379" lon="5.2294">
        <ele>731.6</ele>
        <time>2019-06-16T13:42:08Z</time>
      </trkpt>
      <trkpt lat="44.71384" lon="5.22928">
        <ele>731.6</ele>
        <time>2019-06-16T13:42:16Z</time>
      </trkpt>
      <trkpt lat="44.71385" lon="5.22927">
        <ele>732</ele>
        <time>2019-06-16T13:42:17Z</time>
      </trkpt>
      <trkpt lat="44.71387" lon="5.22926">
        <ele>732.6</ele>
        <time>2019-06-16T13:42:18Z</time>
      </trkpt>
      <trkpt lat="44.71388" lon="5.22925">
        <ele>733</ele>
        <time>2019-06-16T13:42:19Z</time>
      </trkpt>
      <trkpt lat="44.71389" lon="5.22923">
        <ele>733.4</ele>
        <time>2019-06-16T13:42:20Z</time>
      </trkpt>
      <trkpt lat="44.7139" lon="5.22922">
        <ele>733.8</ele>
        <time>2019-06-16T13:42:21Z</time>
      </trkpt>
      <trkpt lat="44.71392" lon="5.2292">
        <ele>733.8</ele>
        <time>2019-06-16T13:42:23Z</time>
      </trkpt>
      <trkpt lat="44.71395" lon="5.22918">
        <ele>733.8</ele>
        <time>2019-06-16T13:42:25Z</time>
      </trkpt>
      <trkpt lat="44.71408" lon="5.22911">
        <ele>733.8</ele>
        <time>2019-06-16T13:42:33Z</time>
      </trkpt>
      <trkpt lat="44.71417" lon="5.22908">
        <ele>733.8</ele>
        <time>2019-06-16T13:42:38Z</time>
      </trkpt>
      <trkpt lat="44.7143" lon="5.22909">
        <ele>733.8</ele>
        <time>2019-06-16T13:42:44Z</time>
      </trkpt>
      <trkpt lat="44.71442" lon="5.22903">
        <ele>733.4</ele>
        <time>2019-06-16T13:42:49Z</time>
      </trkpt>
      <trkpt lat="44.71444" lon="5.22901">
        <ele>733</ele>
        <time>2019-06-16T13:42:50Z</time>
      </trkpt>
      <trkpt lat="44.71446" lon="5.229">
        <ele>732.4</ele>
        <time>2019-06-16T13:42:51Z</time>
      </trkpt>
      <trkpt lat="44.71447" lon="5.22898">
        <ele>732</ele>
        <time>2019-06-16T13:42:52Z</time>
      </trkpt>
      <trkpt lat="44.7145" lon="5.22897">
        <ele>731.6</ele>
        <time>2019-06-16T13:42:53Z</time>
      </trkpt>
      <trkpt lat="44.71455" lon="5.22891">
        <ele>731.6</ele>
        <time>2019-06-16T13:42:55Z</time>
      </trkpt>
      <trkpt lat="44.71467" lon="5.22885">
        <ele>731.6</ele>
        <time>2019-06-16T13:43:01Z</time>
      </trkpt>
      <trkpt lat="44.71485" lon="5.22872">
        <ele>731.6</ele>
        <time>2019-06-16T13:43:09Z</time>
      </trkpt>
      <trkpt lat="44.71498" lon="5.22864">
        <ele>731.6</ele>
        <time>2019-06-16T13:43:14Z</time>
      </trkpt>
      <trkpt lat="44.71516" lon="5.22849">
        <ele>731.6</ele>
        <time>2019-06-16T13:43:22Z</time>
      </trkpt>
      <trkpt lat="44.71532" lon="5.22839">
        <ele>731.6</ele>
        <time>2019-06-16T13:43:29Z</time>
      </trkpt>
      <trkpt lat="44.7154" lon="5.22834">
        <ele>731.6</ele>
        <time>2019-06-16T13:43:36Z</time>
      </trkpt>
      <trkpt lat="44.71549" lon="5.22829">
        <ele>731.6</ele>
        <time>2019-06-16T13:43:43Z</time>
      </trkpt>
      <trkpt lat="44.71563" lon="5.22819">
        <ele>731.6</ele>
        <time>2019-06-16T13:43:51Z</time>
      </trkpt>
      <trkpt lat="44.71577" lon="5.22805">
        <ele>731.6</ele>
        <time>2019-06-16T13:43:58Z</time>
      </trkpt>
      <trkpt lat="44.71586" lon="5.22791">
        <ele>731.6</ele>
        <time>2019-06-16T13:44:05Z</time>
      </trkpt>
      <trkpt lat="44.71604" lon="5.22782">
        <ele>731.6</ele>
        <time>2019-06-16T13:44:12Z</time>
      </trkpt>
      <trkpt lat="44.7161" lon="5.22766">
        <ele>731.2</ele>
        <time>2019-06-16T13:44:16Z</time>
      </trkpt>
      <trkpt lat="44.71611" lon="5.22763">
        <ele>730.8</ele>
        <time>2019-06-16T13:44:17Z</time>
      </trkpt>
      <trkpt lat="44.71613" lon="5.2276">
        <ele>730.4</ele>
        <time>2019-06-16T13:44:18Z</time>
      </trkpt>
      <trkpt lat="44.71616" lon="5.22756">
        <ele>730</ele>
        <time>2019-06-16T13:44:19Z</time>
      </trkpt>
      <trkpt lat="44.71619" lon="5.22753">
        <ele>729.6</ele>
        <time>2019-06-16T13:44:20Z</time>
      </trkpt>
      <trkpt lat="44.71625" lon="5.22745">
        <ele>729.6</ele>
        <time>2019-06-16T13:44:23Z</time>
      </trkpt>
      <trkpt lat="44.71632" lon="5.22728">
        <ele>729.2</ele>
        <time>2019-06-16T13:44:29Z</time>
      </trkpt>
      <trkpt lat="44.71634" lon="5.22725">
        <ele>728.6</ele>
        <time>2019-06-16T13:44:30Z</time>
      </trkpt>
      <trkpt lat="44.71637" lon="5.22721">
        <ele>728.2</ele>
        <time>2019-06-16T13:44:31Z</time>
      </trkpt>
      <trkpt lat="44.71638" lon="5.22717">
        <ele>727.8</ele>
        <time>2019-06-16T13:44:32Z</time>
      </trkpt>
      <trkpt lat="44.71641" lon="5.22715">
        <ele>727.4</ele>
        <time>2019-06-16T13:44:33Z</time>
      </trkpt>
      <trkpt lat="44.71645" lon="5.22707">
        <ele>727.4</ele>
        <time>2019-06-16T13:44:35Z</time>
      </trkpt>
      <trkpt lat="44.71647" lon="5.22705">
        <ele>727</ele>
        <time>2019-06-16T13:44:36Z</time>
      </trkpt>
      <trkpt lat="44.71645" lon="5.22703">
        <ele>726.6</ele>
        <time>2019-06-16T13:44:37Z</time>
      </trkpt>
      <trkpt lat="44.71642" lon="5.22699">
        <ele>726.2</ele>
        <time>2019-06-16T13:44:38Z</time>
      </trkpt>
      <trkpt lat="44.7164" lon="5.22698">
        <ele>725.8</ele>
        <time>2019-06-16T13:44:39Z</time>
      </trkpt>
      <trkpt lat="44.71638" lon="5.22695">
        <ele>725.4</ele>
        <time>2019-06-16T13:44:40Z</time>
      </trkpt>
      <trkpt lat="44.71637" lon="5.22694">
        <ele>725</ele>
        <time>2019-06-16T13:44:41Z</time>
      </trkpt>
      <trkpt lat="44.71635" lon="5.2269">
        <ele>724.6</ele>
        <time>2019-06-16T13:44:42Z</time>
      </trkpt>
      <trkpt lat="44.71634" lon="5.22687">
        <ele>724.2</ele>
        <time>2019-06-16T13:44:43Z</time>
      </trkpt>
      <trkpt lat="44.71632" lon="5.22684">
        <ele>723.8</ele>
        <time>2019-06-16T13:44:44Z</time>
      </trkpt>
      <trkpt lat="44.71631" lon="5.22682">
        <ele>723.4</ele>
        <time>2019-06-16T13:44:45Z</time>
      </trkpt>
      <trkpt lat="44.71629" lon="5.22679">
        <ele>722.8</ele>
        <time>2019-06-16T13:44:46Z</time>
      </trkpt>
      <trkpt lat="44.71627" lon="5.22676">
        <ele>722.2</ele>
        <time>2019-06-16T13:44:47Z</time>
      </trkpt>
      <trkpt lat="44.71625" lon="5.22675">
        <ele>721.8</ele>
        <time>2019-06-16T13:44:48Z</time>
      </trkpt>
      <trkpt lat="44.71623" lon="5.22672">
        <ele>721.2</ele>
        <time>2019-06-16T13:44:49Z</time>
      </trkpt>
      <trkpt lat="44.71621" lon="5.22669">
        <ele>720.6</ele>
        <time>2019-06-16T13:44:50Z</time>
      </trkpt>
      <trkpt lat="44.71619" lon="5.22667">
        <ele>720.2</ele>
        <time>2019-06-16T13:44:51Z</time>
      </trkpt>
      <trkpt lat="44.71616" lon="5.22664">
        <ele>719.8</ele>
        <time>2019-06-16T13:44:52Z</time>
      </trkpt>
      <trkpt lat="44.71613" lon="5.22661">
        <ele>719.4</ele>
        <time>2019-06-16T13:44:53Z</time>
      </trkpt>
      <trkpt lat="44.71612" lon="5.2266">
        <ele>719</ele>
        <time>2019-06-16T13:44:54Z</time>
      </trkpt>
      <trkpt lat="44.71609" lon="5.22657">
        <ele>718.4</ele>
        <time>2019-06-16T13:44:55Z</time>
      </trkpt>
      <trkpt lat="44.71605" lon="5.22653">
        <ele>718</ele>
        <time>2019-06-16T13:44:56Z</time>
      </trkpt>
      <trkpt lat="44.71602" lon="5.2265">
        <ele>717.4</ele>
        <time>2019-06-16T13:44:57Z</time>
      </trkpt>
      <trkpt lat="44.71599" lon="5.22646">
        <ele>716.8</ele>
        <time>2019-06-16T13:44:58Z</time>
      </trkpt>
      <trkpt lat="44.71595" lon="5.22641">
        <ele>716.4</ele>
        <time>2019-06-16T13:44:59Z</time>
      </trkpt>
      <trkpt lat="44.71593" lon="5.22639">
        <ele>715.8</ele>
        <time>2019-06-16T13:45:00Z</time>
      </trkpt>
      <trkpt lat="44.71589" lon="5.22634">
        <ele>715.2</ele>
        <time>2019-06-16T13:45:01Z</time>
      </trkpt>
      <trkpt lat="44.71586" lon="5.22631">
        <ele>714.6</ele>
        <time>2019-06-16T13:45:02Z</time>
      </trkpt>
      <trkpt lat="44.71583" lon="5.22627">
        <ele>714.2</ele>
        <time>2019-06-16T13:45:03Z</time>
      </trkpt>
      <trkpt lat="44.7158" lon="5.22625">
        <ele>713.6</ele>
        <time>2019-06-16T13:45:04Z</time>
      </trkpt>
      <trkpt lat="44.71577" lon="5.22623">
        <ele>713</ele>
        <time>2019-06-16T13:45:05Z</time>
      </trkpt>
      <trkpt lat="44.71574" lon="5.22622">
        <ele>712.6</ele>
        <time>2019-06-16T13:45:06Z</time>
      </trkpt>
      <trkpt lat="44.71571" lon="5.2262">
        <ele>712</ele>
        <time>2019-06-16T13:45:07Z</time>
      </trkpt>
      <trkpt lat="44.71566" lon="5.22614">
        <ele>712</ele>
        <time>2019-06-16T13:45:09Z</time>
      </trkpt>
      <trkpt lat="44.71561" lon="5.22609">
        <ele>711.6</ele>
        <time>2019-06-16T13:45:11Z</time>
      </trkpt>
      <trkpt lat="44.71559" lon="5.22605">
        <ele>711</ele>
        <time>2019-06-16T13:45:12Z</time>
      </trkpt>
      <trkpt lat="44.71558" lon="5.22603">
        <ele>710.6</ele>
        <time>2019-06-16T13:45:13Z</time>
      </trkpt>
      <trkpt lat="44.71557" lon="5.22601">
        <ele>710</ele>
        <time>2019-06-16T13:45:14Z</time>
      </trkpt>
      <trkpt lat="44.71552" lon="5.22594">
        <ele>709.6</ele>
        <time>2019-06-16T13:45:15Z</time>
      </trkpt>
      <trkpt lat="44.71547" lon="5.22591">
        <ele>709.2</ele>
        <time>2019-06-16T13:45:17Z</time>
      </trkpt>
      <trkpt lat="44.71545" lon="5.2259">
        <ele>708.8</ele>
        <time>2019-06-16T13:45:18Z</time>
      </trkpt>
      <trkpt lat="44.71543" lon="5.22589">
        <ele>708.4</ele>
        <time>2019-06-16T13:45:19Z</time>
      </trkpt>
      <trkpt lat="44.7154" lon="5.22587">
        <ele>708</ele>
        <time>2019-06-16T13:45:20Z</time>
      </trkpt>
      <trkpt lat="44.71538" lon="5.22583">
        <ele>707.6</ele>
        <time>2019-06-16T13:45:21Z</time>
      </trkpt>
      <trkpt lat="44.71534" lon="5.22578">
        <ele>707</ele>
        <time>2019-06-16T13:45:24Z</time>
      </trkpt>
      <trkpt lat="44.71533" lon="5.22577">
        <ele>706.6</ele>
        <time>2019-06-16T13:45:25Z</time>
      </trkpt>
      <trkpt lat="44.71531" lon="5.22576">
        <ele>706</ele>
        <time>2019-06-16T13:45:26Z</time>
      </trkpt>
      <trkpt lat="44.71529" lon="5.22572">
        <ele>705.6</ele>
        <time>2019-06-16T13:45:27Z</time>
      </trkpt>
      <trkpt lat="44.71528" lon="5.2257">
        <ele>705</ele>
        <time>2019-06-16T13:45:28Z</time>
      </trkpt>
      <trkpt lat="44.71527" lon="5.22568">
        <ele>704.6</ele>
        <time>2019-06-16T13:45:29Z</time>
      </trkpt>
      <trkpt lat="44.71524" lon="5.22566">
        <ele>704.2</ele>
        <time>2019-06-16T13:45:30Z</time>
      </trkpt>
      <trkpt lat="44.71522" lon="5.22562">
        <ele>703.6</ele>
        <time>2019-06-16T13:45:31Z</time>
      </trkpt>
      <trkpt lat="44.71521" lon="5.2256">
        <ele>703.2</ele>
        <time>2019-06-16T13:45:32Z</time>
      </trkpt>
      <trkpt lat="44.71519" lon="5.22558">
        <ele>702.6</ele>
        <time>2019-06-16T13:45:33Z</time>
      </trkpt>
      <trkpt lat="44.71517" lon="5.22555">
        <ele>702</ele>
        <time>2019-06-16T13:45:34Z</time>
      </trkpt>
      <trkpt lat="44.71515" lon="5.22553">
        <ele>701.4</ele>
        <time>2019-06-16T13:45:35Z</time>
      </trkpt>
      <trkpt lat="44.71512" lon="5.2255">
        <ele>700.8</ele>
        <time>2019-06-16T13:45:36Z</time>
      </trkpt>
      <trkpt lat="44.71511" lon="5.22548">
        <ele>700.2</ele>
        <time>2019-06-16T13:45:37Z</time>
      </trkpt>
      <trkpt lat="44.71509" lon="5.22545">
        <ele>699.6</ele>
        <time>2019-06-16T13:45:38Z</time>
      </trkpt>
      <trkpt lat="44.71508" lon="5.22543">
        <ele>699.2</ele>
        <time>2019-06-16T13:45:39Z</time>
      </trkpt>
      <trkpt lat="44.71507" lon="5.22541">
        <ele>698.8</ele>
        <time>2019-06-16T13:45:40Z</time>
      </trkpt>
      <trkpt lat="44.71505" lon="5.22539">
        <ele>698.2</ele>
        <time>2019-06-16T13:45:41Z</time>
      </trkpt>
      <trkpt lat="44.71504" lon="5.22537">
        <ele>697.8</ele>
        <time>2019-06-16T13:45:42Z</time>
      </trkpt>
      <trkpt lat="44.71501" lon="5.22533">
        <ele>697.4</ele>
        <time>2019-06-16T13:45:45Z</time>
      </trkpt>
      <trkpt lat="44.715" lon="5.22531">
        <ele>697</ele>
        <time>2019-06-16T13:45:46Z</time>
      </trkpt>
      <trkpt lat="44.715" lon="5.22529">
        <ele>696.6</ele>
        <time>2019-06-16T13:45:47Z</time>
      </trkpt>
      <trkpt lat="44.71499" lon="5.22526">
        <ele>696.2</ele>
        <time>2019-06-16T13:45:48Z</time>
      </trkpt>
      <trkpt lat="44.71499" lon="5.22524">
        <ele>695.8</ele>
        <time>2019-06-16T13:45:49Z</time>
      </trkpt>
      <trkpt lat="44.71499" lon="5.22522">
        <ele>695.4</ele>
        <time>2019-06-16T13:45:51Z</time>
      </trkpt>
      <trkpt lat="44.71499" lon="5.2252">
        <ele>694.8</ele>
        <time>2019-06-16T13:45:52Z</time>
      </trkpt>
      <trkpt lat="44.71499" lon="5.22519">
        <ele>694.4</ele>
        <time>2019-06-16T13:45:53Z</time>
      </trkpt>
      <trkpt lat="44.71499" lon="5.22518">
        <ele>694</ele>
        <time>2019-06-16T13:45:54Z</time>
      </trkpt>
      <trkpt lat="44.71499" lon="5.22517">
        <ele>693.6</ele>
        <time>2019-06-16T13:45:55Z</time>
      </trkpt>
      <trkpt lat="44.71497" lon="5.22514">
        <ele>693</ele>
        <time>2019-06-16T13:46:00Z</time>
      </trkpt>
      <trkpt lat="44.71497" lon="5.22514">
        <ele>692.6</ele>
        <time>2019-06-16T13:46:01Z</time>
      </trkpt>
      <trkpt lat="44.71497" lon="5.22512">
        <ele>692</ele>
        <time>2019-06-16T13:46:02Z</time>
      </trkpt>
      <trkpt lat="44.71495" lon="5.22509">
        <ele>691.6</ele>
        <time>2019-06-16T13:46:03Z</time>
      </trkpt>
      <trkpt lat="44.71494" lon="5.22506">
        <ele>691</ele>
        <time>2019-06-16T13:46:04Z</time>
      </trkpt>
      <trkpt lat="44.71493" lon="5.22505">
        <ele>690.4</ele>
        <time>2019-06-16T13:46:05Z</time>
      </trkpt>
      <trkpt lat="44.71492" lon="5.22504">
        <ele>689.8</ele>
        <time>2019-06-16T13:46:06Z</time>
      </trkpt>
      <trkpt lat="44.7149" lon="5.22502">
        <ele>689.2</ele>
        <time>2019-06-16T13:46:07Z</time>
      </trkpt>
      <trkpt lat="44.71488" lon="5.225">
        <ele>688.6</ele>
        <time>2019-06-16T13:46:08Z</time>
      </trkpt>
      <trkpt lat="44.71486" lon="5.22497">
        <ele>688.2</ele>
        <time>2019-06-16T13:46:10Z</time>
      </trkpt>
      <trkpt lat="44.71486" lon="5.22495">
        <ele>687.6</ele>
        <time>2019-06-16T13:46:11Z</time>
      </trkpt>
      <trkpt lat="44.71485" lon="5.22493">
        <ele>687.2</ele>
        <time>2019-06-16T13:46:12Z</time>
      </trkpt>
      <trkpt lat="44.71484" lon="5.22492">
        <ele>686.8</ele>
        <time>2019-06-16T13:46:13Z</time>
      </trkpt>
      <trkpt lat="44.71483" lon="5.22491">
        <ele>686.2</ele>
        <time>2019-06-16T13:46:14Z</time>
      </trkpt>
      <trkpt lat="44.7148" lon="5.22488">
        <ele>686.2</ele>
        <time>2019-06-16T13:46:19Z</time>
      </trkpt>
      <trkpt lat="44.71475" lon="5.22482">
        <ele>685.8</ele>
        <time>2019-06-16T13:46:59Z</time>
      </trkpt>
      <trkpt lat="44.71475" lon="5.22481">
        <ele>685.4</ele>
        <time>2019-06-16T13:47:00Z</time>
      </trkpt>
      <trkpt lat="44.71474" lon="5.2248">
        <ele>685</ele>
        <time>2019-06-16T13:47:01Z</time>
      </trkpt>
      <trkpt lat="44.71474" lon="5.22478">
        <ele>684.6</ele>
        <time>2019-06-16T13:47:02Z</time>
      </trkpt>
      <trkpt lat="44.71474" lon="5.22477">
        <ele>684.2</ele>
        <time>2019-06-16T13:47:03Z</time>
      </trkpt>
      <trkpt lat="44.71475" lon="5.22476">
        <ele>684.2</ele>
        <time>2019-06-16T13:47:04Z</time>
      </trkpt>
      <trkpt lat="44.71475" lon="5.22472">
        <ele>683.8</ele>
        <time>2019-06-16T13:47:06Z</time>
      </trkpt>
      <trkpt lat="44.71475" lon="5.2247">
        <ele>683.4</ele>
        <time>2019-06-16T13:47:07Z</time>
      </trkpt>
      <trkpt lat="44.71475" lon="5.22469">
        <ele>682.8</ele>
        <time>2019-06-16T13:47:08Z</time>
      </trkpt>
      <trkpt lat="44.71474" lon="5.22467">
        <ele>682.4</ele>
        <time>2019-06-16T13:47:09Z</time>
      </trkpt>
      <trkpt lat="44.71474" lon="5.22466">
        <ele>682</ele>
        <time>2019-06-16T13:47:10Z</time>
      </trkpt>
      <trkpt lat="44.71473" lon="5.22462">
        <ele>681.6</ele>
        <time>2019-06-16T13:47:13Z</time>
      </trkpt>
      <trkpt lat="44.71472" lon="5.2246">
        <ele>681</ele>
        <time>2019-06-16T13:47:14Z</time>
      </trkpt>
      <trkpt lat="44.71471" lon="5.22457">
        <ele>680.6</ele>
        <time>2019-06-16T13:47:15Z</time>
      </trkpt>
      <trkpt lat="44.71471" lon="5.22455">
        <ele>680.2</ele>
        <time>2019-06-16T13:47:16Z</time>
      </trkpt>
      <trkpt lat="44.7147" lon="5.22452">
        <ele>679.6</ele>
        <time>2019-06-16T13:47:17Z</time>
      </trkpt>
      <trkpt lat="44.71469" lon="5.2245">
        <ele>679</ele>
        <time>2019-06-16T13:47:18Z</time>
      </trkpt>
      <trkpt lat="44.71468" lon="5.22448">
        <ele>678.6</ele>
        <time>2019-06-16T13:47:19Z</time>
      </trkpt>
      <trkpt lat="44.71466" lon="5.22446">
        <ele>678</ele>
        <time>2019-06-16T13:47:20Z</time>
      </trkpt>
      <trkpt lat="44.71464" lon="5.22443">
        <ele>677.4</ele>
        <time>2019-06-16T13:47:21Z</time>
      </trkpt>
      <trkpt lat="44.71463" lon="5.22439">
        <ele>677</ele>
        <time>2019-06-16T13:47:22Z</time>
      </trkpt>
      <trkpt lat="44.71462" lon="5.22437">
        <ele>676.4</ele>
        <time>2019-06-16T13:47:23Z</time>
      </trkpt>
      <trkpt lat="44.71461" lon="5.22435">
        <ele>676</ele>
        <time>2019-06-16T13:47:24Z</time>
      </trkpt>
      <trkpt lat="44.7146" lon="5.22433">
        <ele>675.4</ele>
        <time>2019-06-16T13:47:25Z</time>
      </trkpt>
      <trkpt lat="44.71459" lon="5.22431">
        <ele>675</ele>
        <time>2019-06-16T13:47:26Z</time>
      </trkpt>
      <trkpt lat="44.71458" lon="5.22429">
        <ele>674.4</ele>
        <time>2019-06-16T13:47:27Z</time>
      </trkpt>
      <trkpt lat="44.71457" lon="5.22427">
        <ele>673.8</ele>
        <time>2019-06-16T13:47:28Z</time>
      </trkpt>
      <trkpt lat="44.71456" lon="5.22426">
        <ele>673.2</ele>
        <time>2019-06-16T13:47:29Z</time>
      </trkpt>
      <trkpt lat="44.71456" lon="5.22425">
        <ele>672.8</ele>
        <time>2019-06-16T13:47:30Z</time>
      </trkpt>
      <trkpt lat="44.71451" lon="5.22419">
        <ele>672.2</ele>
        <time>2019-06-16T13:47:34Z</time>
      </trkpt>
      <trkpt lat="44.7145" lon="5.22417">
        <ele>671.8</ele>
        <time>2019-06-16T13:47:35Z</time>
      </trkpt>
      <trkpt lat="44.71448" lon="5.22415">
        <ele>671.2</ele>
        <time>2019-06-16T13:47:36Z</time>
      </trkpt>
      <trkpt lat="44.71445" lon="5.22414">
        <ele>670.8</ele>
        <time>2019-06-16T13:47:37Z</time>
      </trkpt>
      <trkpt lat="44.71443" lon="5.22409">
        <ele>670.2</ele>
        <time>2019-06-16T13:47:38Z</time>
      </trkpt>
      <trkpt lat="44.71441" lon="5.22405">
        <ele>669.6</ele>
        <time>2019-06-16T13:47:39Z</time>
      </trkpt>
      <trkpt lat="44.71439" lon="5.22403">
        <ele>669</ele>
        <time>2019-06-16T13:47:40Z</time>
      </trkpt>
      <trkpt lat="44.71438" lon="5.22401">
        <ele>668.4</ele>
        <time>2019-06-16T13:47:41Z</time>
      </trkpt>
      <trkpt lat="44.71435" lon="5.22399">
        <ele>667.8</ele>
        <time>2019-06-16T13:47:42Z</time>
      </trkpt>
      <trkpt lat="44.71433" lon="5.22397">
        <ele>667.4</ele>
        <time>2019-06-16T13:47:44Z</time>
      </trkpt>
      <trkpt lat="44.71432" lon="5.22395">
        <ele>667</ele>
        <time>2019-06-16T13:47:45Z</time>
      </trkpt>
      <trkpt lat="44.7143" lon="5.22393">
        <ele>666.6</ele>
        <time>2019-06-16T13:47:46Z</time>
      </trkpt>
      <trkpt lat="44.71429" lon="5.22391">
        <ele>666.2</ele>
        <time>2019-06-16T13:47:47Z</time>
      </trkpt>
      <trkpt lat="44.71427" lon="5.2239">
        <ele>665.8</ele>
        <time>2019-06-16T13:47:48Z</time>
      </trkpt>
      <trkpt lat="44.71426" lon="5.22386">
        <ele>665.8</ele>
        <time>2019-06-16T13:47:51Z</time>
      </trkpt>
      <trkpt lat="44.71425" lon="5.22385">
        <ele>665.4</ele>
        <time>2019-06-16T13:47:52Z</time>
      </trkpt>
      <trkpt lat="44.71423" lon="5.22382">
        <ele>665</ele>
        <time>2019-06-16T13:47:53Z</time>
      </trkpt>
      <trkpt lat="44.71422" lon="5.2238">
        <ele>664.6</ele>
        <time>2019-06-16T13:47:54Z</time>
      </trkpt>
      <trkpt lat="44.7142" lon="5.22378">
        <ele>664</ele>
        <time>2019-06-16T13:47:55Z</time>
      </trkpt>
      <trkpt lat="44.71418" lon="5.22375">
        <ele>663.6</ele>
        <time>2019-06-16T13:47:56Z</time>
      </trkpt>
      <trkpt lat="44.71412" lon="5.22366">
        <ele>663.2</ele>
        <time>2019-06-16T13:47:59Z</time>
      </trkpt>
      <trkpt lat="44.7141" lon="5.22363">
        <ele>662.6</ele>
        <time>2019-06-16T13:48:00Z</time>
      </trkpt>
      <trkpt lat="44.71409" lon="5.22361">
        <ele>662</ele>
        <time>2019-06-16T13:48:01Z</time>
      </trkpt>
      <trkpt lat="44.71407" lon="5.22359">
        <ele>661.4</ele>
        <time>2019-06-16T13:48:02Z</time>
      </trkpt>
      <trkpt lat="44.71406" lon="5.22357">
        <ele>661</ele>
        <time>2019-06-16T13:48:03Z</time>
      </trkpt>
      <trkpt lat="44.71404" lon="5.22353">
        <ele>660.4</ele>
        <time>2019-06-16T13:48:05Z</time>
      </trkpt>
      <trkpt lat="44.71403" lon="5.22353">
        <ele>660</ele>
        <time>2019-06-16T13:48:06Z</time>
      </trkpt>
      <trkpt lat="44.71403" lon="5.22353">
        <ele>659.6</ele>
        <time>2019-06-16T13:48:07Z</time>
      </trkpt>
      <trkpt lat="44.71403" lon="5.22352">
        <ele>659.2</ele>
        <time>2019-06-16T13:48:08Z</time>
      </trkpt>
      <trkpt lat="44.71401" lon="5.2235">
        <ele>658.8</ele>
        <time>2019-06-16T13:48:09Z</time>
      </trkpt>
      <trkpt lat="44.714" lon="5.22343">
        <ele>658.4</ele>
        <time>2019-06-16T13:48:12Z</time>
      </trkpt>
      <trkpt lat="44.71402" lon="5.22339">
        <ele>657.8</ele>
        <time>2019-06-16T13:48:13Z</time>
      </trkpt>
      <trkpt lat="44.71403" lon="5.22335">
        <ele>657.4</ele>
        <time>2019-06-16T13:48:14Z</time>
      </trkpt>
      <trkpt lat="44.71405" lon="5.22333">
        <ele>656.8</ele>
        <time>2019-06-16T13:48:15Z</time>
      </trkpt>
      <trkpt lat="44.71406" lon="5.22332">
        <ele>656.4</ele>
        <time>2019-06-16T13:48:16Z</time>
      </trkpt>
      <trkpt lat="44.71406" lon="5.2233">
        <ele>655.8</ele>
        <time>2019-06-16T13:48:17Z</time>
      </trkpt>
      <trkpt lat="44.71406" lon="5.22327">
        <ele>655.4</ele>
        <time>2019-06-16T13:48:18Z</time>
      </trkpt>
      <trkpt lat="44.71406" lon="5.22324">
        <ele>654.8</ele>
        <time>2019-06-16T13:48:19Z</time>
      </trkpt>
      <trkpt lat="44.71407" lon="5.22321">
        <ele>654.4</ele>
        <time>2019-06-16T13:48:20Z</time>
      </trkpt>
      <trkpt lat="44.71408" lon="5.22317">
        <ele>654</ele>
        <time>2019-06-16T13:48:21Z</time>
      </trkpt>
      <trkpt lat="44.71408" lon="5.22314">
        <ele>653.4</ele>
        <time>2019-06-16T13:48:22Z</time>
      </trkpt>
      <trkpt lat="44.71409" lon="5.22313">
        <ele>653</ele>
        <time>2019-06-16T13:48:23Z</time>
      </trkpt>
      <trkpt lat="44.71409" lon="5.22312">
        <ele>652.6</ele>
        <time>2019-06-16T13:48:24Z</time>
      </trkpt>
      <trkpt lat="44.71409" lon="5.2231">
        <ele>652.2</ele>
        <time>2019-06-16T13:48:25Z</time>
      </trkpt>
      <trkpt lat="44.7141" lon="5.22308">
        <ele>651.8</ele>
        <time>2019-06-16T13:48:26Z</time>
      </trkpt>
      <trkpt lat="44.71411" lon="5.22303">
        <ele>651.2</ele>
        <time>2019-06-16T13:48:29Z</time>
      </trkpt>
      <trkpt lat="44.71411" lon="5.223">
        <ele>650.8</ele>
        <time>2019-06-16T13:48:30Z</time>
      </trkpt>
      <trkpt lat="44.71411" lon="5.22298">
        <ele>650.4</ele>
        <time>2019-06-16T13:48:31Z</time>
      </trkpt>
      <trkpt lat="44.71412" lon="5.22295">
        <ele>649.8</ele>
        <time>2019-06-16T13:48:32Z</time>
      </trkpt>
      <trkpt lat="44.71412" lon="5.22292">
        <ele>649.4</ele>
        <time>2019-06-16T13:48:33Z</time>
      </trkpt>
      <trkpt lat="44.71413" lon="5.2229">
        <ele>649</ele>
        <time>2019-06-16T13:48:34Z</time>
      </trkpt>
      <trkpt lat="44.71414" lon="5.22288">
        <ele>648.4</ele>
        <time>2019-06-16T13:48:35Z</time>
      </trkpt>
      <trkpt lat="44.71415" lon="5.22287">
        <ele>648</ele>
        <time>2019-06-16T13:48:36Z</time>
      </trkpt>
      <trkpt lat="44.71417" lon="5.22286">
        <ele>647.6</ele>
        <time>2019-06-16T13:48:37Z</time>
      </trkpt>
      <trkpt lat="44.71417" lon="5.22284">
        <ele>647</ele>
        <time>2019-06-16T13:48:38Z</time>
      </trkpt>
      <trkpt lat="44.71419" lon="5.22278">
        <ele>646.6</ele>
        <time>2019-06-16T13:48:41Z</time>
      </trkpt>
      <trkpt lat="44.71422" lon="5.22274">
        <ele>646.2</ele>
        <time>2019-06-16T13:48:42Z</time>
      </trkpt>
      <trkpt lat="44.71422" lon="5.22272">
        <ele>645.8</ele>
        <time>2019-06-16T13:48:43Z</time>
      </trkpt>
      <trkpt lat="44.71423" lon="5.22271">
        <ele>645.4</ele>
        <time>2019-06-16T13:48:44Z</time>
      </trkpt>
      <trkpt lat="44.71424" lon="5.22269">
        <ele>645</ele>
        <time>2019-06-16T13:48:45Z</time>
      </trkpt>
      <trkpt lat="44.71426" lon="5.22263">
        <ele>645</ele>
        <time>2019-06-16T13:48:48Z</time>
      </trkpt>
      <trkpt lat="44.71426" lon="5.2226">
        <ele>644.6</ele>
        <time>2019-06-16T13:48:49Z</time>
      </trkpt>
      <trkpt lat="44.71425" lon="5.22258">
        <ele>644.2</ele>
        <time>2019-06-16T13:48:50Z</time>
      </trkpt>
      <trkpt lat="44.71424" lon="5.22253">
        <ele>643.8</ele>
        <time>2019-06-16T13:48:51Z</time>
      </trkpt>
      <trkpt lat="44.71425" lon="5.22248">
        <ele>643.2</ele>
        <time>2019-06-16T13:48:52Z</time>
      </trkpt>
      <trkpt lat="44.71426" lon="5.22245">
        <ele>642.8</ele>
        <time>2019-06-16T13:48:53Z</time>
      </trkpt>
      <trkpt lat="44.71427" lon="5.22242">
        <ele>642.8</ele>
        <time>2019-06-16T13:48:54Z</time>
      </trkpt>
      <trkpt lat="44.71427" lon="5.22233">
        <ele>642.4</ele>
        <time>2019-06-16T13:48:56Z</time>
      </trkpt>
      <trkpt lat="44.71427" lon="5.22229">
        <ele>641.8</ele>
        <time>2019-06-16T13:48:57Z</time>
      </trkpt>
      <trkpt lat="44.71428" lon="5.22225">
        <ele>641.4</ele>
        <time>2019-06-16T13:48:58Z</time>
      </trkpt>
      <trkpt lat="44.71428" lon="5.2222">
        <ele>640.8</ele>
        <time>2019-06-16T13:48:59Z</time>
      </trkpt>
      <trkpt lat="44.71428" lon="5.22215">
        <ele>640.4</ele>
        <time>2019-06-16T13:49:00Z</time>
      </trkpt>
      <trkpt lat="44.71429" lon="5.22209">
        <ele>640.4</ele>
        <time>2019-06-16T13:49:01Z</time>
      </trkpt>
      <trkpt lat="44.71431" lon="5.22199">
        <ele>640</ele>
        <time>2019-06-16T13:49:03Z</time>
      </trkpt>
      <trkpt lat="44.71432" lon="5.22194">
        <ele>639.6</ele>
        <time>2019-06-16T13:49:04Z</time>
      </trkpt>
      <trkpt lat="44.71432" lon="5.22189">
        <ele>639.2</ele>
        <time>2019-06-16T13:49:05Z</time>
      </trkpt>
      <trkpt lat="44.71432" lon="5.22184">
        <ele>638.8</ele>
        <time>2019-06-16T13:49:06Z</time>
      </trkpt>
      <trkpt lat="44.71431" lon="5.2218">
        <ele>638.4</ele>
        <time>2019-06-16T13:49:07Z</time>
      </trkpt>
      <trkpt lat="44.71429" lon="5.22173">
        <ele>637.8</ele>
        <time>2019-06-16T13:49:09Z</time>
      </trkpt>
      <trkpt lat="44.71428" lon="5.22169">
        <ele>637.4</ele>
        <time>2019-06-16T13:49:10Z</time>
      </trkpt>
      <trkpt lat="44.71426" lon="5.22165">
        <ele>637</ele>
        <time>2019-06-16T13:49:11Z</time>
      </trkpt>
      <trkpt lat="44.71426" lon="5.22161">
        <ele>636.6</ele>
        <time>2019-06-16T13:49:12Z</time>
      </trkpt>
      <trkpt lat="44.71428" lon="5.22157">
        <ele>636.2</ele>
        <time>2019-06-16T13:49:13Z</time>
      </trkpt>
      <trkpt lat="44.71426" lon="5.22141">
        <ele>635.8</ele>
        <time>2019-06-16T13:49:15Z</time>
      </trkpt>
      <trkpt lat="44.71425" lon="5.22135">
        <ele>635.4</ele>
        <time>2019-06-16T13:49:16Z</time>
      </trkpt>
      <trkpt lat="44.71422" lon="5.22127">
        <ele>634.8</ele>
        <time>2019-06-16T13:49:17Z</time>
      </trkpt>
      <trkpt lat="44.7142" lon="5.22121">
        <ele>634.4</ele>
        <time>2019-06-16T13:49:18Z</time>
      </trkpt>
      <trkpt lat="44.71417" lon="5.22117">
        <ele>634</ele>
        <time>2019-06-16T13:49:19Z</time>
      </trkpt>
      <trkpt lat="44.71415" lon="5.22114">
        <ele>634</ele>
        <time>2019-06-16T13:49:20Z</time>
      </trkpt>
      <trkpt lat="44.71407" lon="5.22098">
        <ele>634</ele>
        <time>2019-06-16T13:49:25Z</time>
      </trkpt>
      <trkpt lat="44.71403" lon="5.22091">
        <ele>634</ele>
        <time>2019-06-16T13:49:29Z</time>
      </trkpt>
      <trkpt lat="44.71401" lon="5.22089">
        <ele>633.6</ele>
        <time>2019-06-16T13:50:25Z</time>
      </trkpt>
      <trkpt lat="44.71401" lon="5.22089">
        <ele>633.2</ele>
        <time>2019-06-16T13:50:26Z</time>
      </trkpt>
      <trkpt lat="44.71401" lon="5.22089">
        <ele>632.8</ele>
        <time>2019-06-16T13:50:27Z</time>
      </trkpt>
      <trkpt lat="44.71401" lon="5.22089">
        <ele>632.4</ele>
        <time>2019-06-16T13:50:28Z</time>
      </trkpt>
      <trkpt lat="44.71401" lon="5.22089">
        <ele>632</ele>
        <time>2019-06-16T13:50:29Z</time>
      </trkpt>
      <trkpt lat="44.71398" lon="5.22092">
        <ele>631.6</ele>
        <time>2019-06-16T13:50:43Z</time>
      </trkpt>
      <trkpt lat="44.71397" lon="5.22092">
        <ele>631.2</ele>
        <time>2019-06-16T13:50:44Z</time>
      </trkpt>
      <trkpt lat="44.71395" lon="5.22093">
        <ele>630.8</ele>
        <time>2019-06-16T13:50:45Z</time>
      </trkpt>
      <trkpt lat="44.71394" lon="5.22094">
        <ele>630.2</ele>
        <time>2019-06-16T13:50:46Z</time>
      </trkpt>
      <trkpt lat="44.71391" lon="5.22094">
        <ele>629.6</ele>
        <time>2019-06-16T13:50:47Z</time>
      </trkpt>
      <trkpt lat="44.71389" lon="5.22093">
        <ele>629</ele>
        <time>2019-06-16T13:50:48Z</time>
      </trkpt>
      <trkpt lat="44.71387" lon="5.22093">
        <ele>628.4</ele>
        <time>2019-06-16T13:50:49Z</time>
      </trkpt>
      <trkpt lat="44.71385" lon="5.22094">
        <ele>627.8</ele>
        <time>2019-06-16T13:50:50Z</time>
      </trkpt>
      <trkpt lat="44.71382" lon="5.22094">
        <ele>627.2</ele>
        <time>2019-06-16T13:50:51Z</time>
      </trkpt>
      <trkpt lat="44.7138" lon="5.22095">
        <ele>626.6</ele>
        <time>2019-06-16T13:50:52Z</time>
      </trkpt>
      <trkpt lat="44.71378" lon="5.22095">
        <ele>626</ele>
        <time>2019-06-16T13:50:53Z</time>
      </trkpt>
      <trkpt lat="44.71377" lon="5.22096">
        <ele>625.4</ele>
        <time>2019-06-16T13:50:54Z</time>
      </trkpt>
      <trkpt lat="44.71376" lon="5.22097">
        <ele>624.8</ele>
        <time>2019-06-16T13:50:55Z</time>
      </trkpt>
      <trkpt lat="44.71375" lon="5.22098">
        <ele>624.4</ele>
        <time>2019-06-16T13:50:56Z</time>
      </trkpt>
      <trkpt lat="44.71374" lon="5.22099">
        <ele>623.8</ele>
        <time>2019-06-16T13:50:57Z</time>
      </trkpt>
      <trkpt lat="44.71373" lon="5.22102">
        <ele>623.4</ele>
        <time>2019-06-16T13:50:58Z</time>
      </trkpt>
      <trkpt lat="44.71371" lon="5.22103">
        <ele>623</ele>
        <time>2019-06-16T13:50:59Z</time>
      </trkpt>
      <trkpt lat="44.7137" lon="5.22104">
        <ele>622.6</ele>
        <time>2019-06-16T13:51:00Z</time>
      </trkpt>
      <trkpt lat="44.71368" lon="5.22104">
        <ele>622.2</ele>
        <time>2019-06-16T13:51:01Z</time>
      </trkpt>
      <trkpt lat="44.71366" lon="5.22104">
        <ele>621.6</ele>
        <time>2019-06-16T13:51:02Z</time>
      </trkpt>
      <trkpt lat="44.71364" lon="5.22103">
        <ele>621.2</ele>
        <time>2019-06-16T13:51:03Z</time>
      </trkpt>
      <trkpt lat="44.71362" lon="5.22103">
        <ele>620.8</ele>
        <time>2019-06-16T13:51:04Z</time>
      </trkpt>
      <trkpt lat="44.7136" lon="5.22103">
        <ele>620.2</ele>
        <time>2019-06-16T13:51:05Z</time>
      </trkpt>
      <trkpt lat="44.71359" lon="5.22104">
        <ele>619.6</ele>
        <time>2019-06-16T13:51:06Z</time>
      </trkpt>
      <trkpt lat="44.71358" lon="5.22106">
        <ele>619</ele>
        <time>2019-06-16T13:51:07Z</time>
      </trkpt>
      <trkpt lat="44.71357" lon="5.22107">
        <ele>618.4</ele>
        <time>2019-06-16T13:51:08Z</time>
      </trkpt>
      <trkpt lat="44.71356" lon="5.22108">
        <ele>617.8</ele>
        <time>2019-06-16T13:51:09Z</time>
      </trkpt>
      <trkpt lat="44.71355" lon="5.22111">
        <ele>617.4</ele>
        <time>2019-06-16T13:51:11Z</time>
      </trkpt>
      <trkpt lat="44.71354" lon="5.22114">
        <ele>616.8</ele>
        <time>2019-06-16T13:51:12Z</time>
      </trkpt>
      <trkpt lat="44.71353" lon="5.22116">
        <ele>616.4</ele>
        <time>2019-06-16T13:51:13Z</time>
      </trkpt>
      <trkpt lat="44.71351" lon="5.22118">
        <ele>615.8</ele>
        <time>2019-06-16T13:51:14Z</time>
      </trkpt>
      <trkpt lat="44.71351" lon="5.2212">
        <ele>615.2</ele>
        <time>2019-06-16T13:51:15Z</time>
      </trkpt>
      <trkpt lat="44.7135" lon="5.22122">
        <ele>614.6</ele>
        <time>2019-06-16T13:51:16Z</time>
      </trkpt>
      <trkpt lat="44.71349" lon="5.22123">
        <ele>614</ele>
        <time>2019-06-16T13:51:17Z</time>
      </trkpt>
      <trkpt lat="44.71348" lon="5.22124">
        <ele>613.4</ele>
        <time>2019-06-16T13:51:18Z</time>
      </trkpt>
      <trkpt lat="44.71347" lon="5.22124">
        <ele>612.8</ele>
        <time>2019-06-16T13:51:19Z</time>
      </trkpt>
      <trkpt lat="44.71346" lon="5.22125">
        <ele>612.4</ele>
        <time>2019-06-16T13:51:20Z</time>
      </trkpt>
      <trkpt lat="44.71345" lon="5.22125">
        <ele>612</ele>
        <time>2019-06-16T13:51:21Z</time>
      </trkpt>
      <trkpt lat="44.71344" lon="5.22125">
        <ele>611.4</ele>
        <time>2019-06-16T13:51:22Z</time>
      </trkpt>
      <trkpt lat="44.71342" lon="5.22125">
        <ele>611</ele>
        <time>2019-06-16T13:51:23Z</time>
      </trkpt>
      <trkpt lat="44.71341" lon="5.22126">
        <ele>610.4</ele>
        <time>2019-06-16T13:51:24Z</time>
      </trkpt>
      <trkpt lat="44.71339" lon="5.22125">
        <ele>610</ele>
        <time>2019-06-16T13:51:25Z</time>
      </trkpt>
      <trkpt lat="44.71336" lon="5.22125">
        <ele>609.2</ele>
        <time>2019-06-16T13:51:26Z</time>
      </trkpt>
      <trkpt lat="44.71335" lon="5.22125">
        <ele>608.6</ele>
        <time>2019-06-16T13:51:27Z</time>
      </trkpt>
      <trkpt lat="44.71333" lon="5.22125">
        <ele>607.8</ele>
        <time>2019-06-16T13:51:28Z</time>
      </trkpt>
      <trkpt lat="44.71331" lon="5.22124">
        <ele>607.2</ele>
        <time>2019-06-16T13:51:29Z</time>
      </trkpt>
      <trkpt lat="44.7133" lon="5.22123">
        <ele>606.6</ele>
        <time>2019-06-16T13:51:30Z</time>
      </trkpt>
      <trkpt lat="44.71328" lon="5.22121">
        <ele>606</ele>
        <time>2019-06-16T13:51:31Z</time>
      </trkpt>
      <trkpt lat="44.71326" lon="5.22119">
        <ele>605.4</ele>
        <time>2019-06-16T13:51:32Z</time>
      </trkpt>
      <trkpt lat="44.71323" lon="5.22117">
        <ele>604.8</ele>
        <time>2019-06-16T13:51:33Z</time>
      </trkpt>
      <trkpt lat="44.71322" lon="5.22116">
        <ele>604.4</ele>
        <time>2019-06-16T13:51:34Z</time>
      </trkpt>
      <trkpt lat="44.71315" lon="5.22113">
        <ele>604.4</ele>
        <time>2019-06-16T13:51:37Z</time>
      </trkpt>
      <trkpt lat="44.71314" lon="5.22112">
        <ele>603.8</ele>
        <time>2019-06-16T13:51:38Z</time>
      </trkpt>
      <trkpt lat="44.71312" lon="5.22111">
        <ele>603.2</ele>
        <time>2019-06-16T13:51:39Z</time>
      </trkpt>
      <trkpt lat="44.7131" lon="5.2211">
        <ele>602.8</ele>
        <time>2019-06-16T13:51:40Z</time>
      </trkpt>
      <trkpt lat="44.71309" lon="5.2211">
        <ele>602.2</ele>
        <time>2019-06-16T13:51:41Z</time>
      </trkpt>
      <trkpt lat="44.71307" lon="5.22109">
        <ele>601.8</ele>
        <time>2019-06-16T13:51:42Z</time>
      </trkpt>
      <trkpt lat="44.71306" lon="5.22108">
        <ele>601.2</ele>
        <time>2019-06-16T13:51:43Z</time>
      </trkpt>
      <trkpt lat="44.71304" lon="5.22108">
        <ele>600.8</ele>
        <time>2019-06-16T13:51:44Z</time>
      </trkpt>
      <trkpt lat="44.71302" lon="5.22108">
        <ele>600.4</ele>
        <time>2019-06-16T13:51:45Z</time>
      </trkpt>
      <trkpt lat="44.713" lon="5.22109">
        <ele>599.8</ele>
        <time>2019-06-16T13:51:46Z</time>
      </trkpt>
      <trkpt lat="44.713" lon="5.22111">
        <ele>599.4</ele>
        <time>2019-06-16T13:51:47Z</time>
      </trkpt>
      <trkpt lat="44.713" lon="5.22114">
        <ele>599.4</ele>
        <time>2019-06-16T13:51:49Z</time>
      </trkpt>
      <trkpt lat="44.71301" lon="5.22116">
        <ele>599</ele>
        <time>2019-06-16T13:51:50Z</time>
      </trkpt>
      <trkpt lat="44.71302" lon="5.22119">
        <ele>598.4</ele>
        <time>2019-06-16T13:51:51Z</time>
      </trkpt>
      <trkpt lat="44.71303" lon="5.22121">
        <ele>598</ele>
        <time>2019-06-16T13:51:52Z</time>
      </trkpt>
      <trkpt lat="44.71304" lon="5.22124">
        <ele>597.4</ele>
        <time>2019-06-16T13:51:53Z</time>
      </trkpt>
      <trkpt lat="44.71304" lon="5.22127">
        <ele>597</ele>
        <time>2019-06-16T13:51:54Z</time>
      </trkpt>
      <trkpt lat="44.71304" lon="5.2213">
        <ele>597</ele>
        <time>2019-06-16T13:51:56Z</time>
      </trkpt>
      <trkpt lat="44.71303" lon="5.22131">
        <ele>596.6</ele>
        <time>2019-06-16T13:51:57Z</time>
      </trkpt>
      <trkpt lat="44.71301" lon="5.22131">
        <ele>596.2</ele>
        <time>2019-06-16T13:51:58Z</time>
      </trkpt>
      <trkpt lat="44.713" lon="5.22131">
        <ele>595.6</ele>
        <time>2019-06-16T13:51:59Z</time>
      </trkpt>
      <trkpt lat="44.71299" lon="5.22131">
        <ele>595</ele>
        <time>2019-06-16T13:52:00Z</time>
      </trkpt>
      <trkpt lat="44.71298" lon="5.22132">
        <ele>594.4</ele>
        <time>2019-06-16T13:52:01Z</time>
      </trkpt>
      <trkpt lat="44.71296" lon="5.22131">
        <ele>594</ele>
        <time>2019-06-16T13:52:02Z</time>
      </trkpt>
      <trkpt lat="44.71295" lon="5.22132">
        <ele>593.4</ele>
        <time>2019-06-16T13:52:03Z</time>
      </trkpt>
      <trkpt lat="44.71294" lon="5.22133">
        <ele>592.8</ele>
        <time>2019-06-16T13:52:04Z</time>
      </trkpt>
      <trkpt lat="44.7129" lon="5.22133">
        <ele>592.2</ele>
        <time>2019-06-16T13:52:07Z</time>
      </trkpt>
      <trkpt lat="44.71289" lon="5.22133">
        <ele>591.8</ele>
        <time>2019-06-16T13:52:08Z</time>
      </trkpt>
      <trkpt lat="44.71288" lon="5.22132">
        <ele>591.4</ele>
        <time>2019-06-16T13:52:09Z</time>
      </trkpt>
      <trkpt lat="44.71286" lon="5.22131">
        <ele>590.8</ele>
        <time>2019-06-16T13:52:10Z</time>
      </trkpt>
      <trkpt lat="44.71285" lon="5.2213">
        <ele>590.4</ele>
        <time>2019-06-16T13:52:11Z</time>
      </trkpt>
      <trkpt lat="44.71282" lon="5.2213">
        <ele>590</ele>
        <time>2019-06-16T13:52:14Z</time>
      </trkpt>
      <trkpt lat="44.71281" lon="5.22129">
        <ele>589.6</ele>
        <time>2019-06-16T13:52:15Z</time>
      </trkpt>
      <trkpt lat="44.7128" lon="5.22129">
        <ele>589.2</ele>
        <time>2019-06-16T13:52:16Z</time>
      </trkpt>
      <trkpt lat="44.71279" lon="5.22128">
        <ele>588.8</ele>
        <time>2019-06-16T13:52:17Z</time>
      </trkpt>
      <trkpt lat="44.71278" lon="5.22127">
        <ele>588.4</ele>
        <time>2019-06-16T13:52:18Z</time>
      </trkpt>
      <trkpt lat="44.71274" lon="5.22126">
        <ele>588</ele>
        <time>2019-06-16T13:52:20Z</time>
      </trkpt>
      <trkpt lat="44.71271" lon="5.22124">
        <ele>587.4</ele>
        <time>2019-06-16T13:52:21Z</time>
      </trkpt>
      <trkpt lat="44.71269" lon="5.22124">
        <ele>587</ele>
        <time>2019-06-16T13:52:22Z</time>
      </trkpt>
      <trkpt lat="44.71267" lon="5.22122">
        <ele>586.6</ele>
        <time>2019-06-16T13:52:23Z</time>
      </trkpt>
      <trkpt lat="44.71265" lon="5.2212">
        <ele>586</ele>
        <time>2019-06-16T13:52:24Z</time>
      </trkpt>
      <trkpt lat="44.71264" lon="5.22119">
        <ele>585.6</ele>
        <time>2019-06-16T13:52:25Z</time>
      </trkpt>
      <trkpt lat="44.71262" lon="5.22118">
        <ele>585.2</ele>
        <time>2019-06-16T13:52:26Z</time>
      </trkpt>
      <trkpt lat="44.71261" lon="5.22117">
        <ele>584.8</ele>
        <time>2019-06-16T13:52:27Z</time>
      </trkpt>
      <trkpt lat="44.7126" lon="5.22117">
        <ele>584.4</ele>
        <time>2019-06-16T13:52:28Z</time>
      </trkpt>
      <trkpt lat="44.71259" lon="5.22117">
        <ele>584</ele>
        <time>2019-06-16T13:52:29Z</time>
      </trkpt>
      <trkpt lat="44.71258" lon="5.22117">
        <ele>584</ele>
        <time>2019-06-16T13:52:32Z</time>
      </trkpt>
      <trkpt lat="44.71258" lon="5.22116">
        <ele>583.6</ele>
        <time>2019-06-16T13:52:34Z</time>
      </trkpt>
      <trkpt lat="44.71258" lon="5.22116">
        <ele>583</ele>
        <time>2019-06-16T13:52:35Z</time>
      </trkpt>
      <trkpt lat="44.71257" lon="5.22116">
        <ele>582.6</ele>
        <time>2019-06-16T13:52:36Z</time>
      </trkpt>
      <trkpt lat="44.71257" lon="5.22116">
        <ele>582.2</ele>
        <time>2019-06-16T13:52:37Z</time>
      </trkpt>
      <trkpt lat="44.71257" lon="5.22116">
        <ele>581.8</ele>
        <time>2019-06-16T13:52:38Z</time>
      </trkpt>
      <trkpt lat="44.71252" lon="5.22119">
        <ele>581.8</ele>
        <time>2019-06-16T13:53:25Z</time>
      </trkpt>
      <trkpt lat="44.71249" lon="5.22114">
        <ele>581.4</ele>
        <time>2019-06-16T13:53:48Z</time>
      </trkpt>
      <trkpt lat="44.71249" lon="5.22114">
        <ele>581</ele>
        <time>2019-06-16T13:53:49Z</time>
      </trkpt>
      <trkpt lat="44.71249" lon="5.22115">
        <ele>580.6</ele>
        <time>2019-06-16T13:53:50Z</time>
      </trkpt>
      <trkpt lat="44.71249" lon="5.22116">
        <ele>580.2</ele>
        <time>2019-06-16T13:53:51Z</time>
      </trkpt>
      <trkpt lat="44.71249" lon="5.22117">
        <ele>579.8</ele>
        <time>2019-06-16T13:53:52Z</time>
      </trkpt>
      <trkpt lat="44.71248" lon="5.2212">
        <ele>579.4</ele>
        <time>2019-06-16T13:53:55Z</time>
      </trkpt>
      <trkpt lat="44.71247" lon="5.2212">
        <ele>578.8</ele>
        <time>2019-06-16T13:53:56Z</time>
      </trkpt>
      <trkpt lat="44.71247" lon="5.2212">
        <ele>578.4</ele>
        <time>2019-06-16T13:53:57Z</time>
      </trkpt>
      <trkpt lat="44.71246" lon="5.22119">
        <ele>578</ele>
        <time>2019-06-16T13:53:58Z</time>
      </trkpt>
      <trkpt lat="44.71245" lon="5.22119">
        <ele>577.4</ele>
        <time>2019-06-16T13:53:59Z</time>
      </trkpt>
      <trkpt lat="44.71243" lon="5.22117">
        <ele>577</ele>
        <time>2019-06-16T13:54:02Z</time>
      </trkpt>
      <trkpt lat="44.71241" lon="5.22117">
        <ele>576.6</ele>
        <time>2019-06-16T13:54:03Z</time>
      </trkpt>
      <trkpt lat="44.71241" lon="5.22117">
        <ele>576.2</ele>
        <time>2019-06-16T13:54:04Z</time>
      </trkpt>
      <trkpt lat="44.7124" lon="5.22116">
        <ele>575.8</ele>
        <time>2019-06-16T13:54:05Z</time>
      </trkpt>
      <trkpt lat="44.71239" lon="5.22115">
        <ele>575.4</ele>
        <time>2019-06-16T13:54:06Z</time>
      </trkpt>
      <trkpt lat="44.71237" lon="5.22114">
        <ele>574.8</ele>
        <time>2019-06-16T13:54:08Z</time>
      </trkpt>
      <trkpt lat="44.71236" lon="5.22113">
        <ele>574.4</ele>
        <time>2019-06-16T13:54:09Z</time>
      </trkpt>
      <trkpt lat="44.71235" lon="5.22111">
        <ele>574</ele>
        <time>2019-06-16T13:54:10Z</time>
      </trkpt>
      <trkpt lat="44.71232" lon="5.22109">
        <ele>573.6</ele>
        <time>2019-06-16T13:54:11Z</time>
      </trkpt>
      <trkpt lat="44.71231" lon="5.22107">
        <ele>573.2</ele>
        <time>2019-06-16T13:54:12Z</time>
      </trkpt>
      <trkpt lat="44.71226" lon="5.22104">
        <ele>572.8</ele>
        <time>2019-06-16T13:54:15Z</time>
      </trkpt>
      <trkpt lat="44.71225" lon="5.22103">
        <ele>572.4</ele>
        <time>2019-06-16T13:54:16Z</time>
      </trkpt>
      <trkpt lat="44.71223" lon="5.22102">
        <ele>572</ele>
        <time>2019-06-16T13:54:17Z</time>
      </trkpt>
      <trkpt lat="44.7122" lon="5.22101">
        <ele>571.6</ele>
        <time>2019-06-16T13:54:18Z</time>
      </trkpt>
      <trkpt lat="44.71218" lon="5.221">
        <ele>571.2</ele>
        <time>2019-06-16T13:54:19Z</time>
      </trkpt>
      <trkpt lat="44.71216" lon="5.22099">
        <ele>570.8</ele>
        <time>2019-06-16T13:54:20Z</time>
      </trkpt>
      <trkpt lat="44.71215" lon="5.22098">
        <ele>570.2</ele>
        <time>2019-06-16T13:54:21Z</time>
      </trkpt>
      <trkpt lat="44.71213" lon="5.22098">
        <ele>569.8</ele>
        <time>2019-06-16T13:54:22Z</time>
      </trkpt>
      <trkpt lat="44.71212" lon="5.22098">
        <ele>569.4</ele>
        <time>2019-06-16T13:54:23Z</time>
      </trkpt>
      <trkpt lat="44.71211" lon="5.22098">
        <ele>569</ele>
        <time>2019-06-16T13:54:24Z</time>
      </trkpt>
      <trkpt lat="44.7121" lon="5.22098">
        <ele>568.4</ele>
        <time>2019-06-16T13:54:25Z</time>
      </trkpt>
      <trkpt lat="44.71208" lon="5.22098">
        <ele>567.8</ele>
        <time>2019-06-16T13:54:26Z</time>
      </trkpt>
      <trkpt lat="44.71206" lon="5.22099">
        <ele>567.4</ele>
        <time>2019-06-16T13:54:27Z</time>
      </trkpt>
      <trkpt lat="44.71205" lon="5.22101">
        <ele>566.8</ele>
        <time>2019-06-16T13:54:28Z</time>
      </trkpt>
      <trkpt lat="44.71203" lon="5.22102">
        <ele>566.2</ele>
        <time>2019-06-16T13:54:29Z</time>
      </trkpt>
      <trkpt lat="44.71203" lon="5.22104">
        <ele>565.8</ele>
        <time>2019-06-16T13:54:30Z</time>
      </trkpt>
      <trkpt lat="44.71203" lon="5.22106">
        <ele>565.4</ele>
        <time>2019-06-16T13:54:31Z</time>
      </trkpt>
      <trkpt lat="44.71203" lon="5.22108">
        <ele>565</ele>
        <time>2019-06-16T13:54:32Z</time>
      </trkpt>
      <trkpt lat="44.71203" lon="5.22109">
        <ele>564.6</ele>
        <time>2019-06-16T13:54:33Z</time>
      </trkpt>
      <trkpt lat="44.71203" lon="5.22111">
        <ele>564</ele>
        <time>2019-06-16T13:54:34Z</time>
      </trkpt>
      <trkpt lat="44.71203" lon="5.22112">
        <ele>563.6</ele>
        <time>2019-06-16T13:54:35Z</time>
      </trkpt>
      <trkpt lat="44.71202" lon="5.22112">
        <ele>563.2</ele>
        <time>2019-06-16T13:54:36Z</time>
      </trkpt>
      <trkpt lat="44.71201" lon="5.22112">
        <ele>562.8</ele>
        <time>2019-06-16T13:54:37Z</time>
      </trkpt>
      <trkpt lat="44.71199" lon="5.22112">
        <ele>562.4</ele>
        <time>2019-06-16T13:54:38Z</time>
      </trkpt>
      <trkpt lat="44.71198" lon="5.22111">
        <ele>562</ele>
        <time>2019-06-16T13:54:39Z</time>
      </trkpt>
      <trkpt lat="44.71197" lon="5.22111">
        <ele>561.6</ele>
        <time>2019-06-16T13:54:40Z</time>
      </trkpt>
      <trkpt lat="44.71196" lon="5.22111">
        <ele>561</ele>
        <time>2019-06-16T13:54:41Z</time>
      </trkpt>
      <trkpt lat="44.71195" lon="5.22111">
        <ele>560.6</ele>
        <time>2019-06-16T13:54:42Z</time>
      </trkpt>
      <trkpt lat="44.71194" lon="5.22111">
        <ele>560.2</ele>
        <time>2019-06-16T13:54:43Z</time>
      </trkpt>
      <trkpt lat="44.71194" lon="5.2211">
        <ele>559.6</ele>
        <time>2019-06-16T13:54:44Z</time>
      </trkpt>
      <trkpt lat="44.71189" lon="5.22115">
        <ele>559.6</ele>
        <time>2019-06-16T13:54:52Z</time>
      </trkpt>
      <trkpt lat="44.71195" lon="5.2212">
        <ele>559.2</ele>
        <time>2019-06-16T13:55:14Z</time>
      </trkpt>
      <trkpt lat="44.71195" lon="5.22121">
        <ele>558.8</ele>
        <time>2019-06-16T13:55:15Z</time>
      </trkpt>
      <trkpt lat="44.71195" lon="5.22123">
        <ele>558.2</ele>
        <time>2019-06-16T13:55:16Z</time>
      </trkpt>
      <trkpt lat="44.71194" lon="5.22123">
        <ele>557.8</ele>
        <time>2019-06-16T13:55:17Z</time>
      </trkpt>
      <trkpt lat="44.71192" lon="5.22125">
        <ele>557.2</ele>
        <time>2019-06-16T13:55:18Z</time>
      </trkpt>
      <trkpt lat="44.71191" lon="5.22127">
        <ele>556.6</ele>
        <time>2019-06-16T13:55:19Z</time>
      </trkpt>
      <trkpt lat="44.7119" lon="5.22128">
        <ele>556</ele>
        <time>2019-06-16T13:55:20Z</time>
      </trkpt>
      <trkpt lat="44.71188" lon="5.22128">
        <ele>555.4</ele>
        <time>2019-06-16T13:55:21Z</time>
      </trkpt>
      <trkpt lat="44.71187" lon="5.22129">
        <ele>554.8</ele>
        <time>2019-06-16T13:55:22Z</time>
      </trkpt>
      <trkpt lat="44.71186" lon="5.22129">
        <ele>554.2</ele>
        <time>2019-06-16T13:55:23Z</time>
      </trkpt>
      <trkpt lat="44.71185" lon="5.2213">
        <ele>553.6</ele>
        <time>2019-06-16T13:55:24Z</time>
      </trkpt>
      <trkpt lat="44.71185" lon="5.22132">
        <ele>553.2</ele>
        <time>2019-06-16T13:55:25Z</time>
      </trkpt>
      <trkpt lat="44.71184" lon="5.22133">
        <ele>552.6</ele>
        <time>2019-06-16T13:55:26Z</time>
      </trkpt>
      <trkpt lat="44.71178" lon="5.22138">
        <ele>552.6</ele>
        <time>2019-06-16T13:55:31Z</time>
      </trkpt>
      <trkpt lat="44.71176" lon="5.22138">
        <ele>552</ele>
        <time>2019-06-16T13:55:32Z</time>
      </trkpt>
      <trkpt lat="44.71175" lon="5.22137">
        <ele>551.4</ele>
        <time>2019-06-16T13:55:33Z</time>
      </trkpt>
      <trkpt lat="44.71175" lon="5.22136">
        <ele>551</ele>
        <time>2019-06-16T13:55:34Z</time>
      </trkpt>
      <trkpt lat="44.71174" lon="5.22136">
        <ele>550.4</ele>
        <time>2019-06-16T13:55:35Z</time>
      </trkpt>
      <trkpt lat="44.71174" lon="5.22135">
        <ele>549.8</ele>
        <time>2019-06-16T13:55:36Z</time>
      </trkpt>
      <trkpt lat="44.71174" lon="5.22134">
        <ele>549.8</ele>
        <time>2019-06-16T13:55:37Z</time>
      </trkpt>
      <trkpt lat="44.71174" lon="5.22134">
        <ele>549.8</ele>
        <time>2019-06-16T13:55:40Z</time>
      </trkpt>
      <trkpt lat="44.71173" lon="5.22134">
        <ele>549.4</ele>
        <time>2019-06-16T13:55:41Z</time>
      </trkpt>
      <trkpt lat="44.71173" lon="5.22134">
        <ele>549</ele>
        <time>2019-06-16T13:55:42Z</time>
      </trkpt>
      <trkpt lat="44.71173" lon="5.22135">
        <ele>548.6</ele>
        <time>2019-06-16T13:55:43Z</time>
      </trkpt>
      <trkpt lat="44.71173" lon="5.22135">
        <ele>548.2</ele>
        <time>2019-06-16T13:55:44Z</time>
      </trkpt>
      <trkpt lat="44.71173" lon="5.22135">
        <ele>547.8</ele>
        <time>2019-06-16T13:55:45Z</time>
      </trkpt>
      <trkpt lat="44.71173" lon="5.22135">
        <ele>547.8</ele>
        <time>2019-06-16T13:55:48Z</time>
      </trkpt>
      <trkpt lat="44.71169" lon="5.22136">
        <ele>547.8</ele>
        <time>2019-06-16T13:56:19Z</time>
      </trkpt>
      <trkpt lat="44.71162" lon="5.22141">
        <ele>547.8</ele>
        <time>2019-06-16T13:56:25Z</time>
      </trkpt>
      <trkpt lat="44.71159" lon="5.22144">
        <ele>547.2</ele>
        <time>2019-06-16T13:56:27Z</time>
      </trkpt>
      <trkpt lat="44.71157" lon="5.22145">
        <ele>546.8</ele>
        <time>2019-06-16T13:56:28Z</time>
      </trkpt>
      <trkpt lat="44.71155" lon="5.22147">
        <ele>546.2</ele>
        <time>2019-06-16T13:56:29Z</time>
      </trkpt>
      <trkpt lat="44.71153" lon="5.2215">
        <ele>545.6</ele>
        <time>2019-06-16T13:56:30Z</time>
      </trkpt>
      <trkpt lat="44.71151" lon="5.22152">
        <ele>544.8</ele>
        <time>2019-06-16T13:56:31Z</time>
      </trkpt>
      <trkpt lat="44.71149" lon="5.22154">
        <ele>544</ele>
        <time>2019-06-16T13:56:32Z</time>
      </trkpt>
      <trkpt lat="44.71147" lon="5.22156">
        <ele>543.4</ele>
        <time>2019-06-16T13:56:33Z</time>
      </trkpt>
      <trkpt lat="44.71145" lon="5.22158">
        <ele>542.8</ele>
        <time>2019-06-16T13:56:34Z</time>
      </trkpt>
      <trkpt lat="44.71143" lon="5.22159">
        <ele>542.2</ele>
        <time>2019-06-16T13:56:35Z</time>
      </trkpt>
      <trkpt lat="44.71141" lon="5.22161">
        <ele>541.6</ele>
        <time>2019-06-16T13:56:36Z</time>
      </trkpt>
      <trkpt lat="44.71139" lon="5.22164">
        <ele>541.2</ele>
        <time>2019-06-16T13:56:37Z</time>
      </trkpt>
      <trkpt lat="44.71137" lon="5.22166">
        <ele>540.4</ele>
        <time>2019-06-16T13:56:38Z</time>
      </trkpt>
      <trkpt lat="44.71135" lon="5.22168">
        <ele>539.8</ele>
        <time>2019-06-16T13:56:39Z</time>
      </trkpt>
      <trkpt lat="44.71133" lon="5.22169">
        <ele>539.2</ele>
        <time>2019-06-16T13:56:40Z</time>
      </trkpt>
      <trkpt lat="44.71131" lon="5.2217">
        <ele>538.4</ele>
        <time>2019-06-16T13:56:41Z</time>
      </trkpt>
      <trkpt lat="44.71129" lon="5.22171">
        <ele>537.8</ele>
        <time>2019-06-16T13:56:42Z</time>
      </trkpt>
      <trkpt lat="44.71126" lon="5.22172">
        <ele>537.2</ele>
        <time>2019-06-16T13:56:43Z</time>
      </trkpt>
      <trkpt lat="44.71124" lon="5.22172">
        <ele>536.8</ele>
        <time>2019-06-16T13:56:44Z</time>
      </trkpt>
      <trkpt lat="44.71122" lon="5.22173">
        <ele>536.2</ele>
        <time>2019-06-16T13:56:45Z</time>
      </trkpt>
      <trkpt lat="44.7112" lon="5.22174">
        <ele>535.6</ele>
        <time>2019-06-16T13:56:46Z</time>
      </trkpt>
      <trkpt lat="44.71114" lon="5.22178">
        <ele>535.6</ele>
        <time>2019-06-16T13:56:49Z</time>
      </trkpt>
      <trkpt lat="44.71112" lon="5.22179">
        <ele>535.2</ele>
        <time>2019-06-16T13:56:50Z</time>
      </trkpt>
      <trkpt lat="44.7111" lon="5.22179">
        <ele>534.8</ele>
        <time>2019-06-16T13:56:51Z</time>
      </trkpt>
      <trkpt lat="44.71108" lon="5.2218">
        <ele>534.4</ele>
        <time>2019-06-16T13:56:52Z</time>
      </trkpt>
      <trkpt lat="44.71106" lon="5.2218">
        <ele>534</ele>
        <time>2019-06-16T13:56:53Z</time>
      </trkpt>
      <trkpt lat="44.71104" lon="5.22181">
        <ele>533.4</ele>
        <time>2019-06-16T13:56:54Z</time>
      </trkpt>
      <trkpt lat="44.71102" lon="5.22182">
        <ele>533</ele>
        <time>2019-06-16T13:56:55Z</time>
      </trkpt>
      <trkpt lat="44.711" lon="5.22182">
        <ele>532.6</ele>
        <time>2019-06-16T13:56:56Z</time>
      </trkpt>
      <trkpt lat="44.71099" lon="5.22182">
        <ele>532.2</ele>
        <time>2019-06-16T13:56:57Z</time>
      </trkpt>
      <trkpt lat="44.71097" lon="5.22182">
        <ele>531.6</ele>
        <time>2019-06-16T13:56:58Z</time>
      </trkpt>
      <trkpt lat="44.71095" lon="5.22183">
        <ele>531.2</ele>
        <time>2019-06-16T13:56:59Z</time>
      </trkpt>
      <trkpt lat="44.71093" lon="5.22184">
        <ele>530.6</ele>
        <time>2019-06-16T13:57:00Z</time>
      </trkpt>
      <trkpt lat="44.71091" lon="5.22185">
        <ele>530.2</ele>
        <time>2019-06-16T13:57:01Z</time>
      </trkpt>
      <trkpt lat="44.71091" lon="5.22184">
        <ele>529.6</ele>
        <time>2019-06-16T13:57:02Z</time>
      </trkpt>
      <trkpt lat="44.71089" lon="5.22184">
        <ele>529</ele>
        <time>2019-06-16T13:57:03Z</time>
      </trkpt>
      <trkpt lat="44.71085" lon="5.22183">
        <ele>528.6</ele>
        <time>2019-06-16T13:57:05Z</time>
      </trkpt>
      <trkpt lat="44.71083" lon="5.22183">
        <ele>528.2</ele>
        <time>2019-06-16T13:57:06Z</time>
      </trkpt>
      <trkpt lat="44.71081" lon="5.22183">
        <ele>527.6</ele>
        <time>2019-06-16T13:57:07Z</time>
      </trkpt>
      <trkpt lat="44.7108" lon="5.22184">
        <ele>527.2</ele>
        <time>2019-06-16T13:57:08Z</time>
      </trkpt>
      <trkpt lat="44.71078" lon="5.22185">
        <ele>526.6</ele>
        <time>2019-06-16T13:57:09Z</time>
      </trkpt>
      <trkpt lat="44.71076" lon="5.22185">
        <ele>526.2</ele>
        <time>2019-06-16T13:57:10Z</time>
      </trkpt>
      <trkpt lat="44.71074" lon="5.22186">
        <ele>525.8</ele>
        <time>2019-06-16T13:57:11Z</time>
      </trkpt>
      <trkpt lat="44.71072" lon="5.22187">
        <ele>525.4</ele>
        <time>2019-06-16T13:57:12Z</time>
      </trkpt>
      <trkpt lat="44.7107" lon="5.22188">
        <ele>525</ele>
        <time>2019-06-16T13:57:13Z</time>
      </trkpt>
      <trkpt lat="44.71069" lon="5.2219">
        <ele>524.4</ele>
        <time>2019-06-16T13:57:14Z</time>
      </trkpt>
      <trkpt lat="44.71063" lon="5.2219">
        <ele>524</ele>
        <time>2019-06-16T13:57:17Z</time>
      </trkpt>
      <trkpt lat="44.71062" lon="5.22191">
        <ele>523.6</ele>
        <time>2019-06-16T13:57:18Z</time>
      </trkpt>
      <trkpt lat="44.7106" lon="5.22191">
        <ele>523</ele>
        <time>2019-06-16T13:57:19Z</time>
      </trkpt>
      <trkpt lat="44.71058" lon="5.22191">
        <ele>522.6</ele>
        <time>2019-06-16T13:57:20Z</time>
      </trkpt>
      <trkpt lat="44.71056" lon="5.22191">
        <ele>522.2</ele>
        <time>2019-06-16T13:57:21Z</time>
      </trkpt>
      <trkpt lat="44.71054" lon="5.22191">
        <ele>521.6</ele>
        <time>2019-06-16T13:57:22Z</time>
      </trkpt>
      <trkpt lat="44.71052" lon="5.22191">
        <ele>521.2</ele>
        <time>2019-06-16T13:57:23Z</time>
      </trkpt>
      <trkpt lat="44.71051" lon="5.22192">
        <ele>520.8</ele>
        <time>2019-06-16T13:57:24Z</time>
      </trkpt>
      <trkpt lat="44.71049" lon="5.22191">
        <ele>520.2</ele>
        <time>2019-06-16T13:57:25Z</time>
      </trkpt>
      <trkpt lat="44.71048" lon="5.22191">
        <ele>519.8</ele>
        <time>2019-06-16T13:57:26Z</time>
      </trkpt>
      <trkpt lat="44.71041" lon="5.22192">
        <ele>519.4</ele>
        <time>2019-06-16T13:57:30Z</time>
      </trkpt>
      <trkpt lat="44.71039" lon="5.22191">
        <ele>519</ele>
        <time>2019-06-16T13:57:31Z</time>
      </trkpt>
      <trkpt lat="44.71037" lon="5.2219">
        <ele>518.6</ele>
        <time>2019-06-16T13:57:32Z</time>
      </trkpt>
      <trkpt lat="44.71036" lon="5.22189">
        <ele>518.2</ele>
        <time>2019-06-16T13:57:33Z</time>
      </trkpt>
      <trkpt lat="44.71034" lon="5.22189">
        <ele>517.8</ele>
        <time>2019-06-16T13:57:34Z</time>
      </trkpt>
      <trkpt lat="44.7103" lon="5.22188">
        <ele>517.2</ele>
        <time>2019-06-16T13:57:36Z</time>
      </trkpt>
      <trkpt lat="44.71028" lon="5.22187">
        <ele>516.8</ele>
        <time>2019-06-16T13:57:37Z</time>
      </trkpt>
      <trkpt lat="44.71026" lon="5.22186">
        <ele>516.4</ele>
        <time>2019-06-16T13:57:38Z</time>
      </trkpt>
      <trkpt lat="44.71025" lon="5.22185">
        <ele>515.8</ele>
        <time>2019-06-16T13:57:39Z</time>
      </trkpt>
      <trkpt lat="44.71022" lon="5.22184">
        <ele>515.4</ele>
        <time>2019-06-16T13:57:40Z</time>
      </trkpt>
      <trkpt lat="44.7102" lon="5.22183">
        <ele>515</ele>
        <time>2019-06-16T13:57:41Z</time>
      </trkpt>
      <trkpt lat="44.71018" lon="5.22182">
        <ele>514.6</ele>
        <time>2019-06-16T13:57:42Z</time>
      </trkpt>
      <trkpt lat="44.71016" lon="5.22181">
        <ele>514</ele>
        <time>2019-06-16T13:57:43Z</time>
      </trkpt>
      <trkpt lat="44.71014" lon="5.22179">
        <ele>513.6</ele>
        <time>2019-06-16T13:57:44Z</time>
      </trkpt>
      <trkpt lat="44.71013" lon="5.22178">
        <ele>513.2</ele>
        <time>2019-06-16T13:57:45Z</time>
      </trkpt>
      <trkpt lat="44.71011" lon="5.22176">
        <ele>513.2</ele>
        <time>2019-06-16T13:57:46Z</time>
      </trkpt>
      <trkpt lat="44.7101" lon="5.22174">
        <ele>513.2</ele>
        <time>2019-06-16T13:57:47Z</time>
      </trkpt>
      <trkpt lat="44.71006" lon="5.22172">
        <ele>513.2</ele>
        <time>2019-06-16T13:57:51Z</time>
      </trkpt>
      <trkpt lat="44.71001" lon="5.22172">
        <ele>512.8</ele>
        <time>2019-06-16T13:57:56Z</time>
      </trkpt>
      <trkpt lat="44.70998" lon="5.22171">
        <ele>512.4</ele>
        <time>2019-06-16T13:57:57Z</time>
      </trkpt>
      <trkpt lat="44.70995" lon="5.2217">
        <ele>512</ele>
        <time>2019-06-16T13:57:58Z</time>
      </trkpt>
      <trkpt lat="44.70993" lon="5.22169">
        <ele>511.6</ele>
        <time>2019-06-16T13:57:59Z</time>
      </trkpt>
      <trkpt lat="44.70991" lon="5.22169">
        <ele>511.2</ele>
        <time>2019-06-16T13:58:00Z</time>
      </trkpt>
      <trkpt lat="44.70985" lon="5.22166">
        <ele>510.8</ele>
        <time>2019-06-16T13:58:02Z</time>
      </trkpt>
      <trkpt lat="44.70982" lon="5.22166">
        <ele>510.2</ele>
        <time>2019-06-16T13:58:03Z</time>
      </trkpt>
      <trkpt lat="44.70979" lon="5.22166">
        <ele>509.8</ele>
        <time>2019-06-16T13:58:04Z</time>
      </trkpt>
      <trkpt lat="44.70976" lon="5.22166">
        <ele>509.4</ele>
        <time>2019-06-16T13:58:05Z</time>
      </trkpt>
      <trkpt lat="44.70973" lon="5.22165">
        <ele>509</ele>
        <time>2019-06-16T13:58:06Z</time>
      </trkpt>
      <trkpt lat="44.70965" lon="5.22165">
        <ele>509</ele>
        <time>2019-06-16T13:58:09Z</time>
      </trkpt>
      <trkpt lat="44.70963" lon="5.22163">
        <ele>508.6</ele>
        <time>2019-06-16T13:58:10Z</time>
      </trkpt>
      <trkpt lat="44.70961" lon="5.22163">
        <ele>508.2</ele>
        <time>2019-06-16T13:58:11Z</time>
      </trkpt>
      <trkpt lat="44.70959" lon="5.22163">
        <ele>507.8</ele>
        <time>2019-06-16T13:58:12Z</time>
      </trkpt>
      <trkpt lat="44.70957" lon="5.22162">
        <ele>507.4</ele>
        <time>2019-06-16T13:58:13Z</time>
      </trkpt>
      <trkpt lat="44.70955" lon="5.22162">
        <ele>507</ele>
        <time>2019-06-16T13:58:14Z</time>
      </trkpt>
      <trkpt lat="44.70954" lon="5.22161">
        <ele>506.4</ele>
        <time>2019-06-16T13:58:15Z</time>
      </trkpt>
      <trkpt lat="44.70952" lon="5.2216">
        <ele>506</ele>
        <time>2019-06-16T13:58:16Z</time>
      </trkpt>
      <trkpt lat="44.70951" lon="5.2216">
        <ele>505.6</ele>
        <time>2019-06-16T13:58:17Z</time>
      </trkpt>
      <trkpt lat="44.7095" lon="5.2216">
        <ele>505.2</ele>
        <time>2019-06-16T13:58:18Z</time>
      </trkpt>
      <trkpt lat="44.70948" lon="5.2216">
        <ele>504.8</ele>
        <time>2019-06-16T13:58:19Z</time>
      </trkpt>
      <trkpt lat="44.70945" lon="5.22159">
        <ele>504.4</ele>
        <time>2019-06-16T13:58:21Z</time>
      </trkpt>
      <trkpt lat="44.70944" lon="5.22159">
        <ele>504</ele>
        <time>2019-06-16T13:58:22Z</time>
      </trkpt>
      <trkpt lat="44.70942" lon="5.22159">
        <ele>503.6</ele>
        <time>2019-06-16T13:58:23Z</time>
      </trkpt>
      <trkpt lat="44.70941" lon="5.2216">
        <ele>503</ele>
        <time>2019-06-16T13:58:24Z</time>
      </trkpt>
      <trkpt lat="44.70939" lon="5.2216">
        <ele>502.6</ele>
        <time>2019-06-16T13:58:25Z</time>
      </trkpt>
      <trkpt lat="44.70935" lon="5.22159">
        <ele>502.2</ele>
        <time>2019-06-16T13:58:27Z</time>
      </trkpt>
      <trkpt lat="44.70934" lon="5.22159">
        <ele>501.6</ele>
        <time>2019-06-16T13:58:28Z</time>
      </trkpt>
      <trkpt lat="44.70932" lon="5.22157">
        <ele>501.2</ele>
        <time>2019-06-16T13:58:29Z</time>
      </trkpt>
      <trkpt lat="44.7093" lon="5.22157">
        <ele>500.6</ele>
        <time>2019-06-16T13:58:30Z</time>
      </trkpt>
      <trkpt lat="44.70927" lon="5.22156">
        <ele>500.2</ele>
        <time>2019-06-16T13:58:31Z</time>
      </trkpt>
      <trkpt lat="44.70925" lon="5.22156">
        <ele>499.8</ele>
        <time>2019-06-16T13:58:32Z</time>
      </trkpt>
      <trkpt lat="44.70924" lon="5.22154">
        <ele>499.2</ele>
        <time>2019-06-16T13:58:33Z</time>
      </trkpt>
      <trkpt lat="44.70922" lon="5.22154">
        <ele>498.8</ele>
        <time>2019-06-16T13:58:34Z</time>
      </trkpt>
      <trkpt lat="44.7092" lon="5.22154">
        <ele>498.2</ele>
        <time>2019-06-16T13:58:35Z</time>
      </trkpt>
      <trkpt lat="44.70918" lon="5.22153">
        <ele>497.8</ele>
        <time>2019-06-16T13:58:36Z</time>
      </trkpt>
      <trkpt lat="44.70917" lon="5.22152">
        <ele>497.2</ele>
        <time>2019-06-16T13:58:37Z</time>
      </trkpt>
      <trkpt lat="44.70915" lon="5.22153">
        <ele>496.8</ele>
        <time>2019-06-16T13:58:38Z</time>
      </trkpt>
      <trkpt lat="44.70913" lon="5.22153">
        <ele>496.2</ele>
        <time>2019-06-16T13:58:39Z</time>
      </trkpt>
      <trkpt lat="44.70912" lon="5.22153">
        <ele>495.6</ele>
        <time>2019-06-16T13:58:40Z</time>
      </trkpt>
      <trkpt lat="44.7091" lon="5.22152">
        <ele>495.2</ele>
        <time>2019-06-16T13:58:41Z</time>
      </trkpt>
      <trkpt lat="44.70909" lon="5.22151">
        <ele>494.8</ele>
        <time>2019-06-16T13:58:42Z</time>
      </trkpt>
      <trkpt lat="44.70908" lon="5.2215">
        <ele>494.4</ele>
        <time>2019-06-16T13:58:43Z</time>
      </trkpt>
      <trkpt lat="44.70907" lon="5.2215">
        <ele>494</ele>
        <time>2019-06-16T13:58:44Z</time>
      </trkpt>
      <trkpt lat="44.70906" lon="5.22151">
        <ele>493.6</ele>
        <time>2019-06-16T13:58:45Z</time>
      </trkpt>
      <trkpt lat="44.70903" lon="5.22152">
        <ele>493.2</ele>
        <time>2019-06-16T13:58:56Z</time>
      </trkpt>
      <trkpt lat="44.70903" lon="5.22153">
        <ele>492.8</ele>
        <time>2019-06-16T13:58:57Z</time>
      </trkpt>
      <trkpt lat="44.70903" lon="5.22154">
        <ele>492.4</ele>
        <time>2019-06-16T13:58:58Z</time>
      </trkpt>
      <trkpt lat="44.70903" lon="5.22154">
        <ele>492</ele>
        <time>2019-06-16T13:58:59Z</time>
      </trkpt>
      <trkpt lat="44.70904" lon="5.22155">
        <ele>491.6</ele>
        <time>2019-06-16T13:59:00Z</time>
      </trkpt>
      <trkpt lat="44.70904" lon="5.22158">
        <ele>491.6</ele>
        <time>2019-06-16T13:59:07Z</time>
      </trkpt>
      <trkpt lat="44.70907" lon="5.22171">
        <ele>491.6</ele>
        <time>2019-06-16T14:00:08Z</time>
      </trkpt>
      <trkpt lat="44.70909" lon="5.22173">
        <ele>491.2</ele>
        <time>2019-06-16T14:00:09Z</time>
      </trkpt>
      <trkpt lat="44.7091" lon="5.22174">
        <ele>490.8</ele>
        <time>2019-06-16T14:00:10Z</time>
      </trkpt>
      <trkpt lat="44.7091" lon="5.22176">
        <ele>490.2</ele>
        <time>2019-06-16T14:00:11Z</time>
      </trkpt>
      <trkpt lat="44.70911" lon="5.22178">
        <ele>489.6</ele>
        <time>2019-06-16T14:00:12Z</time>
      </trkpt>
      <trkpt lat="44.70912" lon="5.22181">
        <ele>488.2</ele>
        <time>2019-06-16T14:00:13Z</time>
      </trkpt>
      <trkpt lat="44.70912" lon="5.22185">
        <ele>487.6</ele>
        <time>2019-06-16T14:00:14Z</time>
      </trkpt>
      <trkpt lat="44.7091" lon="5.22189">
        <ele>486.8</ele>
        <time>2019-06-16T14:00:16Z</time>
      </trkpt>
      <trkpt lat="44.70909" lon="5.22191">
        <ele>486.8</ele>
        <time>2019-06-16T14:00:17Z</time>
      </trkpt>
      <trkpt lat="44.70907" lon="5.22195">
        <ele>486.8</ele>
        <time>2019-06-16T14:00:22Z</time>
      </trkpt>
      <trkpt lat="44.70903" lon="5.22198">
        <ele>486.8</ele>
        <time>2019-06-16T14:00:31Z</time>
      </trkpt>
      <trkpt lat="44.709" lon="5.22197">
        <ele>486.8</ele>
        <time>2019-06-16T14:00:45Z</time>
      </trkpt>
      <trkpt lat="44.70906" lon="5.22206">
        <ele>486.8</ele>
        <time>2019-06-16T14:02:28Z</time>
      </trkpt>
      <trkpt lat="44.70903" lon="5.22204">
        <ele>486.8</ele>
        <time>2019-06-16T14:02:31Z</time>
      </trkpt>
      <trkpt lat="44.70892" lon="5.22197">
        <ele>486.8</ele>
        <time>2019-06-16T14:02:35Z</time>
      </trkpt>
      <trkpt lat="44.70881" lon="5.22193">
        <ele>486.8</ele>
        <time>2019-06-16T14:02:40Z</time>
      </trkpt>
      <trkpt lat="44.70878" lon="5.22192">
        <ele>486.4</ele>
        <time>2019-06-16T14:02:42Z</time>
      </trkpt>
      <trkpt lat="44.70876" lon="5.2219">
        <ele>486</ele>
        <time>2019-06-16T14:02:43Z</time>
      </trkpt>
      <trkpt lat="44.70874" lon="5.22189">
        <ele>485.6</ele>
        <time>2019-06-16T14:02:44Z</time>
      </trkpt>
      <trkpt lat="44.70871" lon="5.22188">
        <ele>485.2</ele>
        <time>2019-06-16T14:02:45Z</time>
      </trkpt>
      <trkpt lat="44.70868" lon="5.22186">
        <ele>484.8</ele>
        <time>2019-06-16T14:02:46Z</time>
      </trkpt>
      <trkpt lat="44.70865" lon="5.22185">
        <ele>484.8</ele>
        <time>2019-06-16T14:02:47Z</time>
      </trkpt>
      <trkpt lat="44.70862" lon="5.22183">
        <ele>484.2</ele>
        <time>2019-06-16T14:02:48Z</time>
      </trkpt>
      <trkpt lat="44.7086" lon="5.22181">
        <ele>483.6</ele>
        <time>2019-06-16T14:02:49Z</time>
      </trkpt>
      <trkpt lat="44.70857" lon="5.22179">
        <ele>483.2</ele>
        <time>2019-06-16T14:02:50Z</time>
      </trkpt>
      <trkpt lat="44.70854" lon="5.22178">
        <ele>482.6</ele>
        <time>2019-06-16T14:02:51Z</time>
      </trkpt>
      <trkpt lat="44.70852" lon="5.22175">
        <ele>482</ele>
        <time>2019-06-16T14:02:52Z</time>
      </trkpt>
      <trkpt lat="44.70849" lon="5.22173">
        <ele>481.4</ele>
        <time>2019-06-16T14:02:53Z</time>
      </trkpt>
      <trkpt lat="44.70846" lon="5.22172">
        <ele>481</ele>
        <time>2019-06-16T14:02:54Z</time>
      </trkpt>
      <trkpt lat="44.70843" lon="5.2217">
        <ele>480.4</ele>
        <time>2019-06-16T14:02:55Z</time>
      </trkpt>
      <trkpt lat="44.70841" lon="5.22169">
        <ele>479.8</ele>
        <time>2019-06-16T14:02:56Z</time>
      </trkpt>
      <trkpt lat="44.70834" lon="5.22163">
        <ele>479.4</ele>
        <time>2019-06-16T14:02:59Z</time>
      </trkpt>
      <trkpt lat="44.70831" lon="5.22161">
        <ele>478.8</ele>
        <time>2019-06-16T14:03:00Z</time>
      </trkpt>
      <trkpt lat="44.70829" lon="5.22158">
        <ele>478.4</ele>
        <time>2019-06-16T14:03:01Z</time>
      </trkpt>
      <trkpt lat="44.70826" lon="5.22156">
        <ele>478</ele>
        <time>2019-06-16T14:03:02Z</time>
      </trkpt>
      <trkpt lat="44.70824" lon="5.22155">
        <ele>477.4</ele>
        <time>2019-06-16T14:03:03Z</time>
      </trkpt>
      <trkpt lat="44.70819" lon="5.2215">
        <ele>477</ele>
        <time>2019-06-16T14:03:05Z</time>
      </trkpt>
      <trkpt lat="44.70817" lon="5.22149">
        <ele>476.6</ele>
        <time>2019-06-16T14:03:06Z</time>
      </trkpt>
      <trkpt lat="44.70814" lon="5.22147">
        <ele>476.2</ele>
        <time>2019-06-16T14:03:07Z</time>
      </trkpt>
      <trkpt lat="44.70811" lon="5.22146">
        <ele>475.8</ele>
        <time>2019-06-16T14:03:08Z</time>
      </trkpt>
      <trkpt lat="44.70809" lon="5.22146">
        <ele>475.2</ele>
        <time>2019-06-16T14:03:09Z</time>
      </trkpt>
      <trkpt lat="44.70806" lon="5.22145">
        <ele>475.2</ele>
        <time>2019-06-16T14:03:10Z</time>
      </trkpt>
      <trkpt lat="44.70801" lon="5.22142">
        <ele>474.8</ele>
        <time>2019-06-16T14:03:12Z</time>
      </trkpt>
      <trkpt lat="44.70798" lon="5.22141">
        <ele>474.2</ele>
        <time>2019-06-16T14:03:13Z</time>
      </trkpt>
      <trkpt lat="44.70795" lon="5.2214">
        <ele>473.8</ele>
        <time>2019-06-16T14:03:14Z</time>
      </trkpt>
      <trkpt lat="44.70794" lon="5.22137">
        <ele>473.2</ele>
        <time>2019-06-16T14:03:15Z</time>
      </trkpt>
      <trkpt lat="44.70792" lon="5.22135">
        <ele>472.6</ele>
        <time>2019-06-16T14:03:16Z</time>
      </trkpt>
      <trkpt lat="44.7079" lon="5.2213">
        <ele>472.6</ele>
        <time>2019-06-16T14:03:17Z</time>
      </trkpt>
      <trkpt lat="44.70786" lon="5.22124">
        <ele>472.2</ele>
        <time>2019-06-16T14:03:19Z</time>
      </trkpt>
      <trkpt lat="44.70784" lon="5.22122">
        <ele>471.8</ele>
        <time>2019-06-16T14:03:20Z</time>
      </trkpt>
      <trkpt lat="44.70782" lon="5.2212">
        <ele>471.4</ele>
        <time>2019-06-16T14:03:21Z</time>
      </trkpt>
      <trkpt lat="44.7078" lon="5.22118">
        <ele>471</ele>
        <time>2019-06-16T14:03:22Z</time>
      </trkpt>
      <trkpt lat="44.70779" lon="5.22117">
        <ele>470.6</ele>
        <time>2019-06-16T14:03:23Z</time>
      </trkpt>
      <trkpt lat="44.70763" lon="5.22104">
        <ele>470.6</ele>
        <time>2019-06-16T14:03:30Z</time>
      </trkpt>
      <trkpt lat="44.70757" lon="5.22102">
        <ele>470.6</ele>
        <time>2019-06-16T14:03:33Z</time>
      </trkpt>
      <trkpt lat="44.70752" lon="5.221">
        <ele>471</ele>
        <time>2019-06-16T14:03:36Z</time>
      </trkpt>
      <trkpt lat="44.70751" lon="5.22099">
        <ele>471.4</ele>
        <time>2019-06-16T14:03:37Z</time>
      </trkpt>
      <trkpt lat="44.7075" lon="5.22099">
        <ele>471.8</ele>
        <time>2019-06-16T14:03:38Z</time>
      </trkpt>
      <trkpt lat="44.70749" lon="5.22099">
        <ele>472.2</ele>
        <time>2019-06-16T14:03:39Z</time>
      </trkpt>
      <trkpt lat="44.70748" lon="5.22097">
        <ele>472.8</ele>
        <time>2019-06-16T14:03:40Z</time>
      </trkpt>
      <trkpt lat="44.70743" lon="5.22095">
        <ele>472.8</ele>
        <time>2019-06-16T14:03:46Z</time>
      </trkpt>
      <trkpt lat="44.70736" lon="5.22095">
        <ele>473.2</ele>
        <time>2019-06-16T14:03:51Z</time>
      </trkpt>
      <trkpt lat="44.70734" lon="5.22095">
        <ele>473.6</ele>
        <time>2019-06-16T14:03:52Z</time>
      </trkpt>
      <trkpt lat="44.70733" lon="5.22095">
        <ele>474</ele>
        <time>2019-06-16T14:03:53Z</time>
      </trkpt>
      <trkpt lat="44.70731" lon="5.22095">
        <ele>474.6</ele>
        <time>2019-06-16T14:03:54Z</time>
      </trkpt>
      <trkpt lat="44.7073" lon="5.22094">
        <ele>475</ele>
        <time>2019-06-16T14:03:55Z</time>
      </trkpt>
      <trkpt lat="44.70728" lon="5.22094">
        <ele>475</ele>
        <time>2019-06-16T14:03:57Z</time>
      </trkpt>
      <trkpt lat="44.70717" lon="5.22096">
        <ele>475.4</ele>
        <time>2019-06-16T14:04:07Z</time>
      </trkpt>
      <trkpt lat="44.70716" lon="5.22096">
        <ele>475.8</ele>
        <time>2019-06-16T14:04:08Z</time>
      </trkpt>
      <trkpt lat="44.70714" lon="5.22097">
        <ele>476.4</ele>
        <time>2019-06-16T14:04:09Z</time>
      </trkpt>
      <trkpt lat="44.70712" lon="5.22097">
        <ele>476.8</ele>
        <time>2019-06-16T14:04:10Z</time>
      </trkpt>
      <trkpt lat="44.70711" lon="5.22096">
        <ele>477.2</ele>
        <time>2019-06-16T14:04:11Z</time>
      </trkpt>
      <trkpt lat="44.70701" lon="5.2209">
        <ele>477.2</ele>
        <time>2019-06-16T14:04:20Z</time>
      </trkpt>
      <trkpt lat="44.70696" lon="5.22087">
        <ele>477.6</ele>
        <time>2019-06-16T14:04:25Z</time>
      </trkpt>
      <trkpt lat="44.70694" lon="5.22086">
        <ele>478</ele>
        <time>2019-06-16T14:04:26Z</time>
      </trkpt>
      <trkpt lat="44.70693" lon="5.22085">
        <ele>478.4</ele>
        <time>2019-06-16T14:04:27Z</time>
      </trkpt>
      <trkpt lat="44.70692" lon="5.22084">
        <ele>478.8</ele>
        <time>2019-06-16T14:04:28Z</time>
      </trkpt>
      <trkpt lat="44.70691" lon="5.22082">
        <ele>479.4</ele>
        <time>2019-06-16T14:04:29Z</time>
      </trkpt>
      <trkpt lat="44.70689" lon="5.22078">
        <ele>479.4</ele>
        <time>2019-06-16T14:04:36Z</time>
      </trkpt>
      <trkpt lat="44.70688" lon="5.22077">
        <ele>479.8</ele>
        <time>2019-06-16T14:04:39Z</time>
      </trkpt>
      <trkpt lat="44.70688" lon="5.22077">
        <ele>480.2</ele>
        <time>2019-06-16T14:04:40Z</time>
      </trkpt>
      <trkpt lat="44.70688" lon="5.22077">
        <ele>480.6</ele>
        <time>2019-06-16T14:04:41Z</time>
      </trkpt>
      <trkpt lat="44.70687" lon="5.22077">
        <ele>481</ele>
        <time>2019-06-16T14:04:42Z</time>
      </trkpt>
      <trkpt lat="44.70686" lon="5.22075">
        <ele>481.4</ele>
        <time>2019-06-16T14:04:43Z</time>
      </trkpt>
      <trkpt lat="44.70671" lon="5.2206">
        <ele>481.4</ele>
        <time>2019-06-16T14:04:52Z</time>
      </trkpt>
      <trkpt lat="44.70663" lon="5.22055">
        <ele>481.4</ele>
        <time>2019-06-16T14:04:59Z</time>
      </trkpt>
      <trkpt lat="44.70655" lon="5.22041">
        <ele>481.4</ele>
        <time>2019-06-16T14:05:06Z</time>
      </trkpt>
      <trkpt lat="44.70645" lon="5.2203">
        <ele>481.4</ele>
        <time>2019-06-16T14:05:13Z</time>
      </trkpt>
      <trkpt lat="44.70643" lon="5.22029">
        <ele>481.8</ele>
        <time>2019-06-16T14:05:14Z</time>
      </trkpt>
      <trkpt lat="44.70643" lon="5.22025">
        <ele>482.4</ele>
        <time>2019-06-16T14:05:15Z</time>
      </trkpt>
      <trkpt lat="44.70642" lon="5.22022">
        <ele>482.8</ele>
        <time>2019-06-16T14:05:16Z</time>
      </trkpt>
      <trkpt lat="44.70641" lon="5.2202">
        <ele>483.2</ele>
        <time>2019-06-16T14:05:17Z</time>
      </trkpt>
      <trkpt lat="44.7064" lon="5.22018">
        <ele>483.8</ele>
        <time>2019-06-16T14:05:18Z</time>
      </trkpt>
      <trkpt lat="44.70634" lon="5.22013">
        <ele>483.8</ele>
        <time>2019-06-16T14:05:20Z</time>
      </trkpt>
      <trkpt lat="44.70613" lon="5.21999">
        <ele>483.8</ele>
        <time>2019-06-16T14:05:28Z</time>
      </trkpt>
      <trkpt lat="44.70605" lon="5.21988">
        <ele>483.8</ele>
        <time>2019-06-16T14:05:34Z</time>
      </trkpt>
      <trkpt lat="44.70596" lon="5.21973">
        <ele>483.8</ele>
        <time>2019-06-16T14:05:41Z</time>
      </trkpt>
      <trkpt lat="44.70594" lon="5.21958">
        <ele>483.8</ele>
        <time>2019-06-16T14:05:47Z</time>
      </trkpt>
      <trkpt lat="44.70594" lon="5.21942">
        <ele>483.2</ele>
        <time>2019-06-16T14:05:52Z</time>
      </trkpt>
      <trkpt lat="44.70594" lon="5.21938">
        <ele>482.8</ele>
        <time>2019-06-16T14:05:53Z</time>
      </trkpt>
      <trkpt lat="44.70595" lon="5.21934">
        <ele>482.2</ele>
        <time>2019-06-16T14:05:54Z</time>
      </trkpt>
      <trkpt lat="44.70595" lon="5.21931">
        <ele>481.8</ele>
        <time>2019-06-16T14:05:55Z</time>
      </trkpt>
      <trkpt lat="44.70595" lon="5.21928">
        <ele>481.4</ele>
        <time>2019-06-16T14:05:56Z</time>
      </trkpt>
      <trkpt lat="44.70594" lon="5.21926">
        <ele>480.8</ele>
        <time>2019-06-16T14:05:57Z</time>
      </trkpt>
      <trkpt lat="44.70593" lon="5.21922">
        <ele>480.4</ele>
        <time>2019-06-16T14:05:58Z</time>
      </trkpt>
      <trkpt lat="44.70592" lon="5.21919">
        <ele>480</ele>
        <time>2019-06-16T14:05:59Z</time>
      </trkpt>
      <trkpt lat="44.70591" lon="5.21917">
        <ele>479.6</ele>
        <time>2019-06-16T14:06:00Z</time>
      </trkpt>
      <trkpt lat="44.70591" lon="5.21915">
        <ele>479.2</ele>
        <time>2019-06-16T14:06:01Z</time>
      </trkpt>
      <trkpt lat="44.70588" lon="5.21909">
        <ele>479.2</ele>
        <time>2019-06-16T14:06:06Z</time>
      </trkpt>
      <trkpt lat="44.70586" lon="5.21905">
        <ele>478.8</ele>
        <time>2019-06-16T14:06:12Z</time>
      </trkpt>
      <trkpt lat="44.70586" lon="5.21905">
        <ele>478.4</ele>
        <time>2019-06-16T14:06:13Z</time>
      </trkpt>
      <trkpt lat="44.70586" lon="5.21905">
        <ele>478</ele>
        <time>2019-06-16T14:06:14Z</time>
      </trkpt>
      <trkpt lat="44.70586" lon="5.21905">
        <ele>477.6</ele>
        <time>2019-06-16T14:06:15Z</time>
      </trkpt>
      <trkpt lat="44.70586" lon="5.21905">
        <ele>477.2</ele>
        <time>2019-06-16T14:06:16Z</time>
      </trkpt>
      <trkpt lat="44.7059" lon="5.21918">
        <ele>477.2</ele>
        <time>2019-06-16T14:06:57Z</time>
      </trkpt>
      <trkpt lat="44.70591" lon="5.21921">
        <ele>477.6</ele>
        <time>2019-06-16T14:06:58Z</time>
      </trkpt>
      <trkpt lat="44.70592" lon="5.21924">
        <ele>478</ele>
        <time>2019-06-16T14:06:59Z</time>
      </trkpt>
      <trkpt lat="44.70593" lon="5.21926">
        <ele>478.6</ele>
        <time>2019-06-16T14:07:00Z</time>
      </trkpt>
      <trkpt lat="44.70593" lon="5.21928">
        <ele>479</ele>
        <time>2019-06-16T14:07:01Z</time>
      </trkpt>
      <trkpt lat="44.70594" lon="5.2193">
        <ele>479.4</ele>
        <time>2019-06-16T14:07:02Z</time>
      </trkpt>
      <trkpt lat="44.70593" lon="5.21935">
        <ele>479.4</ele>
        <time>2019-06-16T14:07:04Z</time>
      </trkpt>
      <trkpt lat="44.70593" lon="5.21941">
        <ele>479.8</ele>
        <time>2019-06-16T14:07:07Z</time>
      </trkpt>
      <trkpt lat="44.70594" lon="5.21943">
        <ele>480.4</ele>
        <time>2019-06-16T14:07:08Z</time>
      </trkpt>
      <trkpt lat="44.70594" lon="5.21944">
        <ele>480.8</ele>
        <time>2019-06-16T14:07:09Z</time>
      </trkpt>
      <trkpt lat="44.70596" lon="5.21945">
        <ele>481.2</ele>
        <time>2019-06-16T14:07:10Z</time>
      </trkpt>
      <trkpt lat="44.70598" lon="5.21944">
        <ele>481.6</ele>
        <time>2019-06-16T14:07:11Z</time>
      </trkpt>
      <trkpt lat="44.70598" lon="5.21942">
        <ele>481.6</ele>
        <time>2019-06-16T14:07:13Z</time>
      </trkpt>
      <trkpt lat="44.706" lon="5.21936">
        <ele>481.6</ele>
        <time>2019-06-16T14:07:16Z</time>
      </trkpt>
      <trkpt lat="44.706" lon="5.21919">
        <ele>481.6</ele>
        <time>2019-06-16T14:07:23Z</time>
      </trkpt>
      <trkpt lat="44.706" lon="5.21913">
        <ele>481.6</ele>
        <time>2019-06-16T14:07:29Z</time>
      </trkpt>
      <trkpt lat="44.70599" lon="5.2192">
        <ele>481.6</ele>
        <time>2019-06-16T14:07:35Z</time>
      </trkpt>
      <trkpt lat="44.70597" lon="5.21928">
        <ele>481.6</ele>
        <time>2019-06-16T14:07:45Z</time>
      </trkpt>
      <trkpt lat="44.70595" lon="5.21938">
        <ele>481.6</ele>
        <time>2019-06-16T14:07:53Z</time>
      </trkpt>
      <trkpt lat="44.70592" lon="5.21936">
        <ele>481.6</ele>
        <time>2019-06-16T14:07:59Z</time>
      </trkpt>
      <trkpt lat="44.70591" lon="5.21925">
        <ele>481</ele>
        <time>2019-06-16T14:08:02Z</time>
      </trkpt>
      <trkpt lat="44.7059" lon="5.2192">
        <ele>480.6</ele>
        <time>2019-06-16T14:08:03Z</time>
      </trkpt>
      <trkpt lat="44.70589" lon="5.21912">
        <ele>480</ele>
        <time>2019-06-16T14:08:04Z</time>
      </trkpt>
      <trkpt lat="44.70587" lon="5.21903">
        <ele>479.2</ele>
        <time>2019-06-16T14:08:05Z</time>
      </trkpt>
      <trkpt lat="44.70583" lon="5.21895">
        <ele>478.4</ele>
        <time>2019-06-16T14:08:06Z</time>
      </trkpt>
      <trkpt lat="44.70578" lon="5.21889">
        <ele>477.8</ele>
        <time>2019-06-16T14:08:07Z</time>
      </trkpt>
      <trkpt lat="44.70574" lon="5.21884">
        <ele>477</ele>
        <time>2019-06-16T14:08:08Z</time>
      </trkpt>
      <trkpt lat="44.7057" lon="5.2188">
        <ele>476.4</ele>
        <time>2019-06-16T14:08:09Z</time>
      </trkpt>
      <trkpt lat="44.70567" lon="5.21877">
        <ele>476</ele>
        <time>2019-06-16T14:08:10Z</time>
      </trkpt>
      <trkpt lat="44.70564" lon="5.21873">
        <ele>475.4</ele>
        <time>2019-06-16T14:08:11Z</time>
      </trkpt>
      <trkpt lat="44.7056" lon="5.21871">
        <ele>474.6</ele>
        <time>2019-06-16T14:08:12Z</time>
      </trkpt>
      <trkpt lat="44.70557" lon="5.21867">
        <ele>473.8</ele>
        <time>2019-06-16T14:08:13Z</time>
      </trkpt>
      <trkpt lat="44.70554" lon="5.21865">
        <ele>473.2</ele>
        <time>2019-06-16T14:08:14Z</time>
      </trkpt>
      <trkpt lat="44.70551" lon="5.21863">
        <ele>472.4</ele>
        <time>2019-06-16T14:08:15Z</time>
      </trkpt>
      <trkpt lat="44.70548" lon="5.2186">
        <ele>471.8</ele>
        <time>2019-06-16T14:08:16Z</time>
      </trkpt>
      <trkpt lat="44.70544" lon="5.21857">
        <ele>471.2</ele>
        <time>2019-06-16T14:08:17Z</time>
      </trkpt>
      <trkpt lat="44.70541" lon="5.21853">
        <ele>470.8</ele>
        <time>2019-06-16T14:08:18Z</time>
      </trkpt>
      <trkpt lat="44.70538" lon="5.2185">
        <ele>470.2</ele>
        <time>2019-06-16T14:08:19Z</time>
      </trkpt>
      <trkpt lat="44.70536" lon="5.21848">
        <ele>469.6</ele>
        <time>2019-06-16T14:08:20Z</time>
      </trkpt>
      <trkpt lat="44.70533" lon="5.21844">
        <ele>469.6</ele>
        <time>2019-06-16T14:08:23Z</time>
      </trkpt>
      <trkpt lat="44.70532" lon="5.21843">
        <ele>469.6</ele>
        <time>2019-06-16T14:08:28Z</time>
      </trkpt>
      <trkpt lat="44.7053" lon="5.21841">
        <ele>469.2</ele>
        <time>2019-06-16T14:09:03Z</time>
      </trkpt>
      <trkpt lat="44.7053" lon="5.2184">
        <ele>468.6</ele>
        <time>2019-06-16T14:09:04Z</time>
      </trkpt>
      <trkpt lat="44.70529" lon="5.21838">
        <ele>468.2</ele>
        <time>2019-06-16T14:09:05Z</time>
      </trkpt>
      <trkpt lat="44.70528" lon="5.21836">
        <ele>467.8</ele>
        <time>2019-06-16T14:09:06Z</time>
      </trkpt>
      <trkpt lat="44.70527" lon="5.21833">
        <ele>467.2</ele>
        <time>2019-06-16T14:09:07Z</time>
      </trkpt>
      <trkpt lat="44.70523" lon="5.21829">
        <ele>466.6</ele>
        <time>2019-06-16T14:09:08Z</time>
      </trkpt>
      <trkpt lat="44.70519" lon="5.21825">
        <ele>465.8</ele>
        <time>2019-06-16T14:09:09Z</time>
      </trkpt>
      <trkpt lat="44.70516" lon="5.2182">
        <ele>464.8</ele>
        <time>2019-06-16T14:09:10Z</time>
      </trkpt>
      <trkpt lat="44.70513" lon="5.21815">
        <ele>464</ele>
        <time>2019-06-16T14:09:11Z</time>
      </trkpt>
      <trkpt lat="44.7051" lon="5.21811">
        <ele>463.2</ele>
        <time>2019-06-16T14:09:12Z</time>
      </trkpt>
      <trkpt lat="44.70507" lon="5.21808">
        <ele>462.4</ele>
        <time>2019-06-16T14:09:13Z</time>
      </trkpt>
      <trkpt lat="44.70505" lon="5.21805">
        <ele>461.6</ele>
        <time>2019-06-16T14:09:14Z</time>
      </trkpt>
      <trkpt lat="44.70502" lon="5.21801">
        <ele>460.8</ele>
        <time>2019-06-16T14:09:15Z</time>
      </trkpt>
      <trkpt lat="44.705" lon="5.21799">
        <ele>460</ele>
        <time>2019-06-16T14:09:16Z</time>
      </trkpt>
      <trkpt lat="44.70497" lon="5.21795">
        <ele>459.2</ele>
        <time>2019-06-16T14:09:17Z</time>
      </trkpt>
      <trkpt lat="44.70493" lon="5.21792">
        <ele>458.4</ele>
        <time>2019-06-16T14:09:18Z</time>
      </trkpt>
      <trkpt lat="44.70489" lon="5.21789">
        <ele>458</ele>
        <time>2019-06-16T14:09:19Z</time>
      </trkpt>
      <trkpt lat="44.70486" lon="5.21786">
        <ele>457.4</ele>
        <time>2019-06-16T14:09:20Z</time>
      </trkpt>
      <trkpt lat="44.70481" lon="5.21784">
        <ele>456.8</ele>
        <time>2019-06-16T14:09:21Z</time>
      </trkpt>
      <trkpt lat="44.70477" lon="5.21781">
        <ele>456</ele>
        <time>2019-06-16T14:09:22Z</time>
      </trkpt>
      <trkpt lat="44.70473" lon="5.2178">
        <ele>455.2</ele>
        <time>2019-06-16T14:09:23Z</time>
      </trkpt>
      <trkpt lat="44.70469" lon="5.21778">
        <ele>454.6</ele>
        <time>2019-06-16T14:09:24Z</time>
      </trkpt>
      <trkpt lat="44.70464" lon="5.21776">
        <ele>453.8</ele>
        <time>2019-06-16T14:09:25Z</time>
      </trkpt>
      <trkpt lat="44.7046" lon="5.21774">
        <ele>453</ele>
        <time>2019-06-16T14:09:26Z</time>
      </trkpt>
      <trkpt lat="44.70454" lon="5.21774">
        <ele>452.2</ele>
        <time>2019-06-16T14:09:27Z</time>
      </trkpt>
      <trkpt lat="44.7045" lon="5.21773">
        <ele>451.6</ele>
        <time>2019-06-16T14:09:28Z</time>
      </trkpt>
      <trkpt lat="44.70446" lon="5.21772">
        <ele>450.8</ele>
        <time>2019-06-16T14:09:29Z</time>
      </trkpt>
      <trkpt lat="44.70442" lon="5.21771">
        <ele>450.2</ele>
        <time>2019-06-16T14:09:30Z</time>
      </trkpt>
      <trkpt lat="44.70438" lon="5.21771">
        <ele>449.4</ele>
        <time>2019-06-16T14:09:31Z</time>
      </trkpt>
      <trkpt lat="44.70433" lon="5.21771">
        <ele>448.8</ele>
        <time>2019-06-16T14:09:32Z</time>
      </trkpt>
      <trkpt lat="44.70429" lon="5.21772">
        <ele>448.2</ele>
        <time>2019-06-16T14:09:33Z</time>
      </trkpt>
      <trkpt lat="44.70425" lon="5.21774">
        <ele>447.6</ele>
        <time>2019-06-16T14:09:34Z</time>
      </trkpt>
      <trkpt lat="44.70421" lon="5.21775">
        <ele>447</ele>
        <time>2019-06-16T14:09:35Z</time>
      </trkpt>
      <trkpt lat="44.70416" lon="5.21778">
        <ele>446.2</ele>
        <time>2019-06-16T14:09:36Z</time>
      </trkpt>
      <trkpt lat="44.70411" lon="5.2178">
        <ele>445.6</ele>
        <time>2019-06-16T14:09:37Z</time>
      </trkpt>
      <trkpt lat="44.70405" lon="5.21785">
        <ele>444.8</ele>
        <time>2019-06-16T14:09:38Z</time>
      </trkpt>
      <trkpt lat="44.70401" lon="5.21789">
        <ele>444.2</ele>
        <time>2019-06-16T14:09:39Z</time>
      </trkpt>
      <trkpt lat="44.70397" lon="5.21791">
        <ele>443.2</ele>
        <time>2019-06-16T14:09:40Z</time>
      </trkpt>
      <trkpt lat="44.70392" lon="5.21796">
        <ele>442.4</ele>
        <time>2019-06-16T14:09:41Z</time>
      </trkpt>
      <trkpt lat="44.70388" lon="5.21798">
        <ele>441.4</ele>
        <time>2019-06-16T14:09:42Z</time>
      </trkpt>
      <trkpt lat="44.70384" lon="5.21799">
        <ele>440.8</ele>
        <time>2019-06-16T14:09:43Z</time>
      </trkpt>
      <trkpt lat="44.7038" lon="5.218">
        <ele>440</ele>
        <time>2019-06-16T14:09:44Z</time>
      </trkpt>
      <trkpt lat="44.70376" lon="5.218">
        <ele>439.2</ele>
        <time>2019-06-16T14:09:45Z</time>
      </trkpt>
      <trkpt lat="44.70374" lon="5.218">
        <ele>438.4</ele>
        <time>2019-06-16T14:09:46Z</time>
      </trkpt>
      <trkpt lat="44.7037" lon="5.218">
        <ele>437.8</ele>
        <time>2019-06-16T14:09:47Z</time>
      </trkpt>
      <trkpt lat="44.70367" lon="5.218">
        <ele>437</ele>
        <time>2019-06-16T14:09:48Z</time>
      </trkpt>
      <trkpt lat="44.70364" lon="5.21799">
        <ele>436.4</ele>
        <time>2019-06-16T14:09:49Z</time>
      </trkpt>
      <trkpt lat="44.7036" lon="5.218">
        <ele>435.8</ele>
        <time>2019-06-16T14:09:50Z</time>
      </trkpt>
      <trkpt lat="44.70357" lon="5.21799">
        <ele>435</ele>
        <time>2019-06-16T14:09:51Z</time>
      </trkpt>
      <trkpt lat="44.70353" lon="5.21799">
        <ele>434.4</ele>
        <time>2019-06-16T14:09:52Z</time>
      </trkpt>
      <trkpt lat="44.70349" lon="5.218">
        <ele>433.6</ele>
        <time>2019-06-16T14:09:53Z</time>
      </trkpt>
      <trkpt lat="44.70345" lon="5.218">
        <ele>433</ele>
        <time>2019-06-16T14:09:54Z</time>
      </trkpt>
      <trkpt lat="44.70342" lon="5.218">
        <ele>432.4</ele>
        <time>2019-06-16T14:09:55Z</time>
      </trkpt>
      <trkpt lat="44.70338" lon="5.21801">
        <ele>432</ele>
        <time>2019-06-16T14:09:56Z</time>
      </trkpt>
      <trkpt lat="44.70334" lon="5.21804">
        <ele>431.6</ele>
        <time>2019-06-16T14:09:57Z</time>
      </trkpt>
      <trkpt lat="44.7033" lon="5.21805">
        <ele>430.8</ele>
        <time>2019-06-16T14:09:58Z</time>
      </trkpt>
      <trkpt lat="44.70327" lon="5.21807">
        <ele>430.2</ele>
        <time>2019-06-16T14:09:59Z</time>
      </trkpt>
      <trkpt lat="44.70325" lon="5.21809">
        <ele>429.6</ele>
        <time>2019-06-16T14:10:00Z</time>
      </trkpt>
      <trkpt lat="44.70322" lon="5.2181">
        <ele>428.8</ele>
        <time>2019-06-16T14:10:01Z</time>
      </trkpt>
      <trkpt lat="44.70319" lon="5.21812">
        <ele>428.2</ele>
        <time>2019-06-16T14:10:02Z</time>
      </trkpt>
      <trkpt lat="44.70317" lon="5.21814">
        <ele>427.4</ele>
        <time>2019-06-16T14:10:03Z</time>
      </trkpt>
      <trkpt lat="44.70314" lon="5.21815">
        <ele>426.8</ele>
        <time>2019-06-16T14:10:04Z</time>
      </trkpt>
      <trkpt lat="44.70311" lon="5.21817">
        <ele>426</ele>
        <time>2019-06-16T14:10:05Z</time>
      </trkpt>
      <trkpt lat="44.70308" lon="5.21819">
        <ele>425.4</ele>
        <time>2019-06-16T14:10:06Z</time>
      </trkpt>
      <trkpt lat="44.70304" lon="5.21821">
        <ele>424.6</ele>
        <time>2019-06-16T14:10:07Z</time>
      </trkpt>
      <trkpt lat="44.70301" lon="5.21822">
        <ele>423.8</ele>
        <time>2019-06-16T14:10:08Z</time>
      </trkpt>
      <trkpt lat="44.70298" lon="5.21823">
        <ele>423</ele>
        <time>2019-06-16T14:10:09Z</time>
      </trkpt>
      <trkpt lat="44.70295" lon="5.21824">
        <ele>422.2</ele>
        <time>2019-06-16T14:10:10Z</time>
      </trkpt>
      <trkpt lat="44.70291" lon="5.21825">
        <ele>421.4</ele>
        <time>2019-06-16T14:10:11Z</time>
      </trkpt>
      <trkpt lat="44.70288" lon="5.21825">
        <ele>420.6</ele>
        <time>2019-06-16T14:10:12Z</time>
      </trkpt>
      <trkpt lat="44.70285" lon="5.21826">
        <ele>420</ele>
        <time>2019-06-16T14:10:13Z</time>
      </trkpt>
      <trkpt lat="44.70281" lon="5.21825">
        <ele>419.4</ele>
        <time>2019-06-16T14:10:14Z</time>
      </trkpt>
      <trkpt lat="44.70277" lon="5.21826">
        <ele>418.8</ele>
        <time>2019-06-16T14:10:15Z</time>
      </trkpt>
      <trkpt lat="44.70273" lon="5.21826">
        <ele>418.2</ele>
        <time>2019-06-16T14:10:16Z</time>
      </trkpt>
      <trkpt lat="44.70269" lon="5.21827">
        <ele>417.6</ele>
        <time>2019-06-16T14:10:17Z</time>
      </trkpt>
      <trkpt lat="44.70263" lon="5.21827">
        <ele>417.2</ele>
        <time>2019-06-16T14:10:18Z</time>
      </trkpt>
      <trkpt lat="44.70258" lon="5.21827">
        <ele>416.8</ele>
        <time>2019-06-16T14:10:19Z</time>
      </trkpt>
      <trkpt lat="44.70254" lon="5.21828">
        <ele>416.4</ele>
        <time>2019-06-16T14:10:20Z</time>
      </trkpt>
      <trkpt lat="44.7025" lon="5.21828">
        <ele>416</ele>
        <time>2019-06-16T14:10:21Z</time>
      </trkpt>
      <trkpt lat="44.70246" lon="5.21827">
        <ele>415.6</ele>
        <time>2019-06-16T14:10:22Z</time>
      </trkpt>
      <trkpt lat="44.70243" lon="5.21827">
        <ele>415.2</ele>
        <time>2019-06-16T14:10:23Z</time>
      </trkpt>
      <trkpt lat="44.70239" lon="5.21827">
        <ele>414.6</ele>
        <time>2019-06-16T14:10:24Z</time>
      </trkpt>
      <trkpt lat="44.70236" lon="5.21827">
        <ele>414.2</ele>
        <time>2019-06-16T14:10:25Z</time>
      </trkpt>
      <trkpt lat="44.70233" lon="5.21828">
        <ele>413.8</ele>
        <time>2019-06-16T14:10:26Z</time>
      </trkpt>
      <trkpt lat="44.70229" lon="5.21828">
        <ele>413.2</ele>
        <time>2019-06-16T14:10:27Z</time>
      </trkpt>
      <trkpt lat="44.70226" lon="5.21827">
        <ele>412.8</ele>
        <time>2019-06-16T14:10:28Z</time>
      </trkpt>
      <trkpt lat="44.70218" lon="5.21826">
        <ele>412.4</ele>
        <time>2019-06-16T14:10:30Z</time>
      </trkpt>
      <trkpt lat="44.70214" lon="5.21826">
        <ele>411.8</ele>
        <time>2019-06-16T14:10:31Z</time>
      </trkpt>
      <trkpt lat="44.70209" lon="5.21827">
        <ele>411.4</ele>
        <time>2019-06-16T14:10:32Z</time>
      </trkpt>
      <trkpt lat="44.70204" lon="5.21827">
        <ele>411</ele>
        <time>2019-06-16T14:10:33Z</time>
      </trkpt>
      <trkpt lat="44.702" lon="5.21826">
        <ele>410.4</ele>
        <time>2019-06-16T14:10:34Z</time>
      </trkpt>
      <trkpt lat="44.70195" lon="5.21827">
        <ele>410</ele>
        <time>2019-06-16T14:10:35Z</time>
      </trkpt>
      <trkpt lat="44.70191" lon="5.21828">
        <ele>409.4</ele>
        <time>2019-06-16T14:10:36Z</time>
      </trkpt>
      <trkpt lat="44.70186" lon="5.21827">
        <ele>409</ele>
        <time>2019-06-16T14:10:37Z</time>
      </trkpt>
      <trkpt lat="44.70182" lon="5.21827">
        <ele>408.4</ele>
        <time>2019-06-16T14:10:38Z</time>
      </trkpt>
      <trkpt lat="44.70178" lon="5.21828">
        <ele>408</ele>
        <time>2019-06-16T14:10:39Z</time>
      </trkpt>
      <trkpt lat="44.70174" lon="5.21828">
        <ele>407.6</ele>
        <time>2019-06-16T14:10:40Z</time>
      </trkpt>
      <trkpt lat="44.7017" lon="5.21827">
        <ele>407.2</ele>
        <time>2019-06-16T14:10:41Z</time>
      </trkpt>
      <trkpt lat="44.70166" lon="5.21828">
        <ele>406.8</ele>
        <time>2019-06-16T14:10:42Z</time>
      </trkpt>
      <trkpt lat="44.70162" lon="5.21827">
        <ele>406.4</ele>
        <time>2019-06-16T14:10:43Z</time>
      </trkpt>
      <trkpt lat="44.70154" lon="5.21825">
        <ele>405.8</ele>
        <time>2019-06-16T14:10:45Z</time>
      </trkpt>
      <trkpt lat="44.7015" lon="5.21824">
        <ele>405.2</ele>
        <time>2019-06-16T14:10:46Z</time>
      </trkpt>
      <trkpt lat="44.70146" lon="5.21823">
        <ele>404.8</ele>
        <time>2019-06-16T14:10:47Z</time>
      </trkpt>
      <trkpt lat="44.70141" lon="5.21823">
        <ele>404.2</ele>
        <time>2019-06-16T14:10:48Z</time>
      </trkpt>
      <trkpt lat="44.70137" lon="5.21822">
        <ele>403.6</ele>
        <time>2019-06-16T14:10:49Z</time>
      </trkpt>
      <trkpt lat="44.70133" lon="5.21821">
        <ele>403.2</ele>
        <time>2019-06-16T14:10:50Z</time>
      </trkpt>
      <trkpt lat="44.70128" lon="5.21821">
        <ele>402.6</ele>
        <time>2019-06-16T14:10:51Z</time>
      </trkpt>
      <trkpt lat="44.70123" lon="5.21822">
        <ele>402</ele>
        <time>2019-06-16T14:10:52Z</time>
      </trkpt>
      <trkpt lat="44.70118" lon="5.21822">
        <ele>401.4</ele>
        <time>2019-06-16T14:10:53Z</time>
      </trkpt>
      <trkpt lat="44.70115" lon="5.21822">
        <ele>400.8</ele>
        <time>2019-06-16T14:10:54Z</time>
      </trkpt>
      <trkpt lat="44.70111" lon="5.2182">
        <ele>400.2</ele>
        <time>2019-06-16T14:10:55Z</time>
      </trkpt>
      <trkpt lat="44.70107" lon="5.21819">
        <ele>399.6</ele>
        <time>2019-06-16T14:10:56Z</time>
      </trkpt>
      <trkpt lat="44.70103" lon="5.21817">
        <ele>399</ele>
        <time>2019-06-16T14:10:57Z</time>
      </trkpt>
      <trkpt lat="44.70098" lon="5.21816">
        <ele>398.6</ele>
        <time>2019-06-16T14:10:58Z</time>
      </trkpt>
      <trkpt lat="44.70094" lon="5.21814">
        <ele>398</ele>
        <time>2019-06-16T14:10:59Z</time>
      </trkpt>
      <trkpt lat="44.7009" lon="5.21812">
        <ele>397.6</ele>
        <time>2019-06-16T14:11:00Z</time>
      </trkpt>
      <trkpt lat="44.70087" lon="5.21809">
        <ele>397.2</ele>
        <time>2019-06-16T14:11:01Z</time>
      </trkpt>
      <trkpt lat="44.70083" lon="5.21806">
        <ele>396.8</ele>
        <time>2019-06-16T14:11:02Z</time>
      </trkpt>
      <trkpt lat="44.70073" lon="5.21803">
        <ele>396.4</ele>
        <time>2019-06-16T14:11:05Z</time>
      </trkpt>
      <trkpt lat="44.70069" lon="5.21803">
        <ele>396</ele>
        <time>2019-06-16T14:11:06Z</time>
      </trkpt>
      <trkpt lat="44.70066" lon="5.21802">
        <ele>395.6</ele>
        <time>2019-06-16T14:11:07Z</time>
      </trkpt>
      <trkpt lat="44.70062" lon="5.21804">
        <ele>395.2</ele>
        <time>2019-06-16T14:11:08Z</time>
      </trkpt>
      <trkpt lat="44.70059" lon="5.21805">
        <ele>394.8</ele>
        <time>2019-06-16T14:11:09Z</time>
      </trkpt>
      <trkpt lat="44.70052" lon="5.21808">
        <ele>394.8</ele>
        <time>2019-06-16T14:11:11Z</time>
      </trkpt>
      <trkpt lat="44.70049" lon="5.2181">
        <ele>394.4</ele>
        <time>2019-06-16T14:11:12Z</time>
      </trkpt>
      <trkpt lat="44.70046" lon="5.21813">
        <ele>393.8</ele>
        <time>2019-06-16T14:11:13Z</time>
      </trkpt>
      <trkpt lat="44.70042" lon="5.21816">
        <ele>393.4</ele>
        <time>2019-06-16T14:11:14Z</time>
      </trkpt>
      <trkpt lat="44.70039" lon="5.21819">
        <ele>393</ele>
        <time>2019-06-16T14:11:15Z</time>
      </trkpt>
      <trkpt lat="44.70036" lon="5.21821">
        <ele>392.6</ele>
        <time>2019-06-16T14:11:16Z</time>
      </trkpt>
      <trkpt lat="44.70033" lon="5.21823">
        <ele>392</ele>
        <time>2019-06-16T14:11:17Z</time>
      </trkpt>
      <trkpt lat="44.7003" lon="5.21825">
        <ele>391.4</ele>
        <time>2019-06-16T14:11:18Z</time>
      </trkpt>
      <trkpt lat="44.70026" lon="5.21826">
        <ele>391</ele>
        <time>2019-06-16T14:11:19Z</time>
      </trkpt>
      <trkpt lat="44.70023" lon="5.21827">
        <ele>390.4</ele>
        <time>2019-06-16T14:11:20Z</time>
      </trkpt>
      <trkpt lat="44.70019" lon="5.2183">
        <ele>389.6</ele>
        <time>2019-06-16T14:11:21Z</time>
      </trkpt>
      <trkpt lat="44.70016" lon="5.21833">
        <ele>389</ele>
        <time>2019-06-16T14:11:22Z</time>
      </trkpt>
      <trkpt lat="44.70012" lon="5.21835">
        <ele>388.2</ele>
        <time>2019-06-16T14:11:23Z</time>
      </trkpt>
      <trkpt lat="44.70009" lon="5.21836">
        <ele>387.6</ele>
        <time>2019-06-16T14:11:24Z</time>
      </trkpt>
      <trkpt lat="44.70005" lon="5.21838">
        <ele>386.8</ele>
        <time>2019-06-16T14:11:25Z</time>
      </trkpt>
      <trkpt lat="44.70002" lon="5.2184">
        <ele>386</ele>
        <time>2019-06-16T14:11:26Z</time>
      </trkpt>
      <trkpt lat="44.69998" lon="5.21842">
        <ele>385.4</ele>
        <time>2019-06-16T14:11:27Z</time>
      </trkpt>
      <trkpt lat="44.69996" lon="5.21843">
        <ele>385</ele>
        <time>2019-06-16T14:11:28Z</time>
      </trkpt>
      <trkpt lat="44.69994" lon="5.21844">
        <ele>384.6</ele>
        <time>2019-06-16T14:11:29Z</time>
      </trkpt>
      <trkpt lat="44.69992" lon="5.21844">
        <ele>384.2</ele>
        <time>2019-06-16T14:11:30Z</time>
      </trkpt>
      <trkpt lat="44.69989" lon="5.21845">
        <ele>383.8</ele>
        <time>2019-06-16T14:11:31Z</time>
      </trkpt>
      <trkpt lat="44.69986" lon="5.21846">
        <ele>383.4</ele>
        <time>2019-06-16T14:11:32Z</time>
      </trkpt>
      <trkpt lat="44.69983" lon="5.21846">
        <ele>382.8</ele>
        <time>2019-06-16T14:11:33Z</time>
      </trkpt>
      <trkpt lat="44.69981" lon="5.21846">
        <ele>382.4</ele>
        <time>2019-06-16T14:11:34Z</time>
      </trkpt>
      <trkpt lat="44.69978" lon="5.21847">
        <ele>382</ele>
        <time>2019-06-16T14:11:35Z</time>
      </trkpt>
      <trkpt lat="44.69975" lon="5.21848">
        <ele>381.6</ele>
        <time>2019-06-16T14:11:36Z</time>
      </trkpt>
      <trkpt lat="44.69973" lon="5.21849">
        <ele>381.2</ele>
        <time>2019-06-16T14:11:37Z</time>
      </trkpt>
      <trkpt lat="44.69969" lon="5.21848">
        <ele>380.8</ele>
        <time>2019-06-16T14:11:39Z</time>
      </trkpt>
      <trkpt lat="44.69967" lon="5.21848">
        <ele>380.2</ele>
        <time>2019-06-16T14:11:40Z</time>
      </trkpt>
      <trkpt lat="44.69965" lon="5.21849">
        <ele>379.8</ele>
        <time>2019-06-16T14:11:41Z</time>
      </trkpt>
      <trkpt lat="44.69965" lon="5.21849">
        <ele>379.4</ele>
        <time>2019-06-16T14:11:42Z</time>
      </trkpt>
      <trkpt lat="44.69964" lon="5.21849">
        <ele>378.8</ele>
        <time>2019-06-16T14:11:43Z</time>
      </trkpt>
      <trkpt lat="44.69963" lon="5.21851">
        <ele>378.8</ele>
        <time>2019-06-16T14:11:46Z</time>
      </trkpt>
      <trkpt lat="44.69961" lon="5.21854">
        <ele>378.8</ele>
        <time>2019-06-16T14:14:12Z</time>
      </trkpt>
      <trkpt lat="44.69961" lon="5.21854">
        <ele>379.4</ele>
        <time>2019-06-16T14:14:49Z</time>
      </trkpt>
      <trkpt lat="44.69961" lon="5.21854">
        <ele>379.8</ele>
        <time>2019-06-16T14:14:50Z</time>
      </trkpt>
      <trkpt lat="44.69961" lon="5.21854">
        <ele>380.2</ele>
        <time>2019-06-16T14:14:51Z</time>
      </trkpt>
      <trkpt lat="44.69961" lon="5.21854">
        <ele>380.6</ele>
        <time>2019-06-16T14:14:52Z</time>
      </trkpt>
      <trkpt lat="44.69961" lon="5.21854">
        <ele>381.2</ele>
        <time>2019-06-16T14:14:53Z</time>
      </trkpt>
      <trkpt lat="44.69961" lon="5.21854">
        <ele>381.6</ele>
        <time>2019-06-16T14:15:01Z</time>
      </trkpt>
      <trkpt lat="44.69961" lon="5.21854">
        <ele>382</ele>
        <time>2019-06-16T14:15:02Z</time>
      </trkpt>
      <trkpt lat="44.69961" lon="5.21854">
        <ele>382.4</ele>
        <time>2019-06-16T14:15:03Z</time>
      </trkpt>
      <trkpt lat="44.69961" lon="5.21854">
        <ele>382.8</ele>
        <time>2019-06-16T14:15:04Z</time>
      </trkpt>
      <trkpt lat="44.69961" lon="5.21854">
        <ele>383.2</ele>
        <time>2019-06-16T14:15:05Z</time>
      </trkpt>
      <trkpt lat="44.69961" lon="5.21854">
        <ele>383.6</ele>
        <time>2019-06-16T14:15:12Z</time>
      </trkpt>
      <trkpt lat="44.69961" lon="5.21854">
        <ele>384</ele>
        <time>2019-06-16T14:15:13Z</time>
      </trkpt>
      <trkpt lat="44.69961" lon="5.21854">
        <ele>384.4</ele>
        <time>2019-06-16T14:15:14Z</time>
      </trkpt>
      <trkpt lat="44.69961" lon="5.21854">
        <ele>384.8</ele>
        <time>2019-06-16T14:15:15Z</time>
      </trkpt>
      <trkpt lat="44.69961" lon="5.21854">
        <ele>385.2</ele>
        <time>2019-06-16T14:15:16Z</time>
      </trkpt>
      <trkpt lat="44.69961" lon="5.21854">
        <ele>385.6</ele>
        <time>2019-06-16T14:15:19Z</time>
      </trkpt>
      <trkpt lat="44.69961" lon="5.21854">
        <ele>386</ele>
        <time>2019-06-16T14:15:20Z</time>
      </trkpt>
      <trkpt lat="44.69961" lon="5.21854">
        <ele>386.4</ele>
        <time>2019-06-16T14:15:21Z</time>
      </trkpt>
      <trkpt lat="44.69961" lon="5.21854">
        <ele>386.8</ele>
        <time>2019-06-16T14:15:22Z</time>
      </trkpt>
      <trkpt lat="44.69961" lon="5.21854">
        <ele>387.2</ele>
        <time>2019-06-16T14:15:23Z</time>
      </trkpt>
      <trkpt lat="44.69961" lon="5.21854">
        <ele>387.8</ele>
        <time>2019-06-16T14:15:30Z</time>
      </trkpt>
      <trkpt lat="44.69961" lon="5.21854">
        <ele>388.2</ele>
        <time>2019-06-16T14:15:31Z</time>
      </trkpt>
      <trkpt lat="44.69961" lon="5.21854">
        <ele>388.6</ele>
        <time>2019-06-16T14:15:32Z</time>
      </trkpt>
      <trkpt lat="44.69961" lon="5.21854">
        <ele>389</ele>
        <time>2019-06-16T14:15:33Z</time>
      </trkpt>
      <trkpt lat="44.69961" lon="5.21854">
        <ele>389.6</ele>
        <time>2019-06-16T14:15:34Z</time>
      </trkpt>
      <trkpt lat="44.69956" lon="5.21839">
        <ele>390</ele>
        <time>2019-06-16T14:15:43Z</time>
      </trkpt>
      <trkpt lat="44.69954" lon="5.21837">
        <ele>390.4</ele>
        <time>2019-06-16T14:15:44Z</time>
      </trkpt>
      <trkpt lat="44.69952" lon="5.21834">
        <ele>390.8</ele>
        <time>2019-06-16T14:15:45Z</time>
      </trkpt>
      <trkpt lat="44.69951" lon="5.21832">
        <ele>391.4</ele>
        <time>2019-06-16T14:15:46Z</time>
      </trkpt>
      <trkpt lat="44.6995" lon="5.2183">
        <ele>391.8</ele>
        <time>2019-06-16T14:15:47Z</time>
      </trkpt>
      <trkpt lat="44.69935" lon="5.21808">
        <ele>391.8</ele>
        <time>2019-06-16T14:15:58Z</time>
      </trkpt>
      <trkpt lat="44.69932" lon="5.21799">
        <ele>392.2</ele>
        <time>2019-06-16T14:16:03Z</time>
      </trkpt>
      <trkpt lat="44.69931" lon="5.21798">
        <ele>392.6</ele>
        <time>2019-06-16T14:16:04Z</time>
      </trkpt>
      <trkpt lat="44.69931" lon="5.21796">
        <ele>393</ele>
        <time>2019-06-16T14:16:05Z</time>
      </trkpt>
      <trkpt lat="44.69929" lon="5.21795">
        <ele>393.4</ele>
        <time>2019-06-16T14:16:06Z</time>
      </trkpt>
      <trkpt lat="44.69928" lon="5.21792">
        <ele>393.8</ele>
        <time>2019-06-16T14:16:07Z</time>
      </trkpt>
      <trkpt lat="44.69923" lon="5.21783">
        <ele>393.8</ele>
        <time>2019-06-16T14:16:13Z</time>
      </trkpt>
      <trkpt lat="44.69921" lon="5.21779">
        <ele>394.4</ele>
        <time>2019-06-16T14:16:17Z</time>
      </trkpt>
      <trkpt lat="44.69921" lon="5.21777">
        <ele>394.8</ele>
        <time>2019-06-16T14:16:18Z</time>
      </trkpt>
      <trkpt lat="44.6992" lon="5.21776">
        <ele>395.2</ele>
        <time>2019-06-16T14:16:19Z</time>
      </trkpt>
      <trkpt lat="44.69919" lon="5.21775">
        <ele>395.6</ele>
        <time>2019-06-16T14:16:20Z</time>
      </trkpt>
      <trkpt lat="44.69918" lon="5.21774">
        <ele>396</ele>
        <time>2019-06-16T14:16:21Z</time>
      </trkpt>
      <trkpt lat="44.69915" lon="5.21771">
        <ele>396</ele>
        <time>2019-06-16T14:16:26Z</time>
      </trkpt>
      <trkpt lat="44.69912" lon="5.21767">
        <ele>396.4</ele>
        <time>2019-06-16T14:16:31Z</time>
      </trkpt>
      <trkpt lat="44.69912" lon="5.21767">
        <ele>397</ele>
        <time>2019-06-16T14:16:32Z</time>
      </trkpt>
      <trkpt lat="44.69911" lon="5.21766">
        <ele>397.4</ele>
        <time>2019-06-16T14:16:33Z</time>
      </trkpt>
      <trkpt lat="44.69911" lon="5.21765">
        <ele>397.8</ele>
        <time>2019-06-16T14:16:34Z</time>
      </trkpt>
      <trkpt lat="44.6991" lon="5.21764">
        <ele>398.2</ele>
        <time>2019-06-16T14:16:35Z</time>
      </trkpt>
      <trkpt lat="44.6991" lon="5.21763">
        <ele>398.2</ele>
        <time>2019-06-16T14:16:36Z</time>
      </trkpt>
      <trkpt lat="44.69906" lon="5.21761">
        <ele>398.6</ele>
        <time>2019-06-16T14:16:42Z</time>
      </trkpt>
      <trkpt lat="44.69905" lon="5.2176">
        <ele>399</ele>
        <time>2019-06-16T14:16:43Z</time>
      </trkpt>
      <trkpt lat="44.69905" lon="5.2176">
        <ele>399.6</ele>
        <time>2019-06-16T14:16:44Z</time>
      </trkpt>
      <trkpt lat="44.69905" lon="5.2176">
        <ele>400</ele>
        <time>2019-06-16T14:16:45Z</time>
      </trkpt>
      <trkpt lat="44.69904" lon="5.21759">
        <ele>400.4</ele>
        <time>2019-06-16T14:16:46Z</time>
      </trkpt>
      <trkpt lat="44.69903" lon="5.21758">
        <ele>400.4</ele>
        <time>2019-06-16T14:16:49Z</time>
      </trkpt>
      <trkpt lat="44.69893" lon="5.21747">
        <ele>400.4</ele>
        <time>2019-06-16T14:17:03Z</time>
      </trkpt>
      <trkpt lat="44.69874" lon="5.21737">
        <ele>400.4</ele>
        <time>2019-06-16T14:17:13Z</time>
      </trkpt>
      <trkpt lat="44.69856" lon="5.21732">
        <ele>400.4</ele>
        <time>2019-06-16T14:17:20Z</time>
      </trkpt>
      <trkpt lat="44.69836" lon="5.21728">
        <ele>400.4</ele>
        <time>2019-06-16T14:17:27Z</time>
      </trkpt>
      <trkpt lat="44.69828" lon="5.21727">
        <ele>400</ele>
        <time>2019-06-16T14:17:30Z</time>
      </trkpt>
      <trkpt lat="44.69826" lon="5.21727">
        <ele>399.6</ele>
        <time>2019-06-16T14:17:31Z</time>
      </trkpt>
      <trkpt lat="44.69824" lon="5.21725">
        <ele>399</ele>
        <time>2019-06-16T14:17:32Z</time>
      </trkpt>
      <trkpt lat="44.69822" lon="5.21724">
        <ele>398.6</ele>
        <time>2019-06-16T14:17:33Z</time>
      </trkpt>
      <trkpt lat="44.6982" lon="5.21722">
        <ele>398.2</ele>
        <time>2019-06-16T14:17:34Z</time>
      </trkpt>
      <trkpt lat="44.69811" lon="5.21714">
        <ele>398.2</ele>
        <time>2019-06-16T14:17:39Z</time>
      </trkpt>
      <trkpt lat="44.69806" lon="5.21709">
        <ele>398.2</ele>
        <time>2019-06-16T14:17:41Z</time>
      </trkpt>
      <trkpt lat="44.69795" lon="5.21694">
        <ele>398.2</ele>
        <time>2019-06-16T14:17:47Z</time>
      </trkpt>
      <trkpt lat="44.69781" lon="5.21684">
        <ele>398.2</ele>
        <time>2019-06-16T14:17:53Z</time>
      </trkpt>
      <trkpt lat="44.69769" lon="5.21674">
        <ele>398.2</ele>
        <time>2019-06-16T14:17:59Z</time>
      </trkpt>
      <trkpt lat="44.6975" lon="5.21667">
        <ele>397.8</ele>
        <time>2019-06-16T14:18:05Z</time>
      </trkpt>
      <trkpt lat="44.69747" lon="5.21666">
        <ele>397.4</ele>
        <time>2019-06-16T14:18:06Z</time>
      </trkpt>
      <trkpt lat="44.69744" lon="5.21666">
        <ele>397</ele>
        <time>2019-06-16T14:18:07Z</time>
      </trkpt>
      <trkpt lat="44.69742" lon="5.21667">
        <ele>396.6</ele>
        <time>2019-06-16T14:18:08Z</time>
      </trkpt>
      <trkpt lat="44.69739" lon="5.21668">
        <ele>396</ele>
        <time>2019-06-16T14:18:09Z</time>
      </trkpt>
      <trkpt lat="44.69736" lon="5.2167">
        <ele>396</ele>
        <time>2019-06-16T14:18:10Z</time>
      </trkpt>
      <trkpt lat="44.69729" lon="5.21673">
        <ele>396.4</ele>
        <time>2019-06-16T14:18:13Z</time>
      </trkpt>
      <trkpt lat="44.69726" lon="5.21675">
        <ele>396.8</ele>
        <time>2019-06-16T14:18:14Z</time>
      </trkpt>
      <trkpt lat="44.69725" lon="5.21676">
        <ele>397.2</ele>
        <time>2019-06-16T14:18:15Z</time>
      </trkpt>
      <trkpt lat="44.69723" lon="5.21677">
        <ele>397.6</ele>
        <time>2019-06-16T14:18:16Z</time>
      </trkpt>
      <trkpt lat="44.69721" lon="5.21678">
        <ele>398.2</ele>
        <time>2019-06-16T14:18:17Z</time>
      </trkpt>
      <trkpt lat="44.69712" lon="5.21684">
        <ele>398.6</ele>
        <time>2019-06-16T14:18:23Z</time>
      </trkpt>
      <trkpt lat="44.6971" lon="5.21685">
        <ele>399</ele>
        <time>2019-06-16T14:18:24Z</time>
      </trkpt>
      <trkpt lat="44.69708" lon="5.21686">
        <ele>399.4</ele>
        <time>2019-06-16T14:18:25Z</time>
      </trkpt>
      <trkpt lat="44.69707" lon="5.21687">
        <ele>399.8</ele>
        <time>2019-06-16T14:18:26Z</time>
      </trkpt>
      <trkpt lat="44.69705" lon="5.21688">
        <ele>400.2</ele>
        <time>2019-06-16T14:18:27Z</time>
      </trkpt>
      <trkpt lat="44.69699" lon="5.21692">
        <ele>400.2</ele>
        <time>2019-06-16T14:18:30Z</time>
      </trkpt>
      <trkpt lat="44.6969" lon="5.21696">
        <ele>400.6</ele>
        <time>2019-06-16T14:18:35Z</time>
      </trkpt>
      <trkpt lat="44.69688" lon="5.21696">
        <ele>401</ele>
        <time>2019-06-16T14:18:36Z</time>
      </trkpt>
      <trkpt lat="44.69687" lon="5.21698">
        <ele>401.4</ele>
        <time>2019-06-16T14:18:37Z</time>
      </trkpt>
      <trkpt lat="44.69685" lon="5.21699">
        <ele>401.8</ele>
        <time>2019-06-16T14:18:38Z</time>
      </trkpt>
      <trkpt lat="44.69684" lon="5.217">
        <ele>402.2</ele>
        <time>2019-06-16T14:18:39Z</time>
      </trkpt>
      <trkpt lat="44.69672" lon="5.2171">
        <ele>402.2</ele>
        <time>2019-06-16T14:18:45Z</time>
      </trkpt>
      <trkpt lat="44.69657" lon="5.21712">
        <ele>402.2</ele>
        <time>2019-06-16T14:18:50Z</time>
      </trkpt>
      <trkpt lat="44.69645" lon="5.21711">
        <ele>402.2</ele>
        <time>2019-06-16T14:18:55Z</time>
      </trkpt>
      <trkpt lat="44.69634" lon="5.21714">
        <ele>402.2</ele>
        <time>2019-06-16T14:19:01Z</time>
      </trkpt>
      <trkpt lat="44.6962" lon="5.21717">
        <ele>401.8</ele>
        <time>2019-06-16T14:19:06Z</time>
      </trkpt>
      <trkpt lat="44.69617" lon="5.21718">
        <ele>401.4</ele>
        <time>2019-06-16T14:19:07Z</time>
      </trkpt>
      <trkpt lat="44.69615" lon="5.2172">
        <ele>401</ele>
        <time>2019-06-16T14:19:08Z</time>
      </trkpt>
      <trkpt lat="44.69612" lon="5.2172">
        <ele>400.6</ele>
        <time>2019-06-16T14:19:09Z</time>
      </trkpt>
      <trkpt lat="44.69609" lon="5.2172">
        <ele>400.2</ele>
        <time>2019-06-16T14:19:10Z</time>
      </trkpt>
      <trkpt lat="44.69605" lon="5.2172">
        <ele>400.2</ele>
        <time>2019-06-16T14:19:12Z</time>
      </trkpt>
      <trkpt lat="44.69584" lon="5.21729">
        <ele>400.2</ele>
        <time>2019-06-16T14:19:19Z</time>
      </trkpt>
      <trkpt lat="44.69578" lon="5.21731">
        <ele>400.2</ele>
        <time>2019-06-16T14:19:21Z</time>
      </trkpt>
      <trkpt lat="44.69568" lon="5.21735">
        <ele>400.2</ele>
        <time>2019-06-16T14:19:25Z</time>
      </trkpt>
      <trkpt lat="44.69554" lon="5.21737">
        <ele>400.2</ele>
        <time>2019-06-16T14:19:31Z</time>
      </trkpt>
      <trkpt lat="44.69541" lon="5.2174">
        <ele>400.2</ele>
        <time>2019-06-16T14:19:36Z</time>
      </trkpt>
      <trkpt lat="44.69525" lon="5.21737">
        <ele>400.2</ele>
        <time>2019-06-16T14:19:43Z</time>
      </trkpt>
      <trkpt lat="44.69514" lon="5.21738">
        <ele>400.2</ele>
        <time>2019-06-16T14:19:49Z</time>
      </trkpt>
      <trkpt lat="44.69494" lon="5.21742">
        <ele>400.2</ele>
        <time>2019-06-16T14:19:57Z</time>
      </trkpt>
      <trkpt lat="44.69485" lon="5.21744">
        <ele>399.8</ele>
        <time>2019-06-16T14:20:00Z</time>
      </trkpt>
      <trkpt lat="44.69481" lon="5.21744">
        <ele>399.2</ele>
        <time>2019-06-16T14:20:01Z</time>
      </trkpt>
      <trkpt lat="44.69478" lon="5.21744">
        <ele>398.6</ele>
        <time>2019-06-16T14:20:02Z</time>
      </trkpt>
      <trkpt lat="44.69475" lon="5.21744">
        <ele>398.2</ele>
        <time>2019-06-16T14:20:03Z</time>
      </trkpt>
      <trkpt lat="44.69473" lon="5.21745">
        <ele>397.6</ele>
        <time>2019-06-16T14:20:04Z</time>
      </trkpt>
      <trkpt lat="44.69464" lon="5.21744">
        <ele>397.6</ele>
        <time>2019-06-16T14:20:08Z</time>
      </trkpt>
      <trkpt lat="44.69452" lon="5.2174">
        <ele>397.6</ele>
        <time>2019-06-16T14:20:13Z</time>
      </trkpt>
      <trkpt lat="44.69435" lon="5.2174">
        <ele>397.6</ele>
        <time>2019-06-16T14:20:19Z</time>
      </trkpt>
      <trkpt lat="44.69416" lon="5.21729">
        <ele>397.6</ele>
        <time>2019-06-16T14:20:26Z</time>
      </trkpt>
      <trkpt lat="44.69395" lon="5.2173">
        <ele>397.6</ele>
        <time>2019-06-16T14:20:32Z</time>
      </trkpt>
      <trkpt lat="44.69393" lon="5.21729">
        <ele>397.6</ele>
        <time>2019-06-16T14:20:33Z</time>
      </trkpt>
      <trkpt lat="44.69388" lon="5.21725">
        <ele>397.6</ele>
        <time>2019-06-16T14:20:36Z</time>
      </trkpt>
      <trkpt lat="44.69387" lon="5.21721">
        <ele>397.6</ele>
        <time>2019-06-16T14:20:38Z</time>
      </trkpt>
      <trkpt lat="44.69387" lon="5.21717">
        <ele>397.6</ele>
        <time>2019-06-16T14:20:40Z</time>
      </trkpt>
      <trkpt lat="44.69385" lon="5.21709">
        <ele>397.6</ele>
        <time>2019-06-16T14:20:43Z</time>
      </trkpt>
      <trkpt lat="44.69383" lon="5.21681">
        <ele>397.6</ele>
        <time>2019-06-16T14:20:51Z</time>
      </trkpt>
      <trkpt lat="44.69382" lon="5.21662">
        <ele>397.6</ele>
        <time>2019-06-16T14:20:57Z</time>
      </trkpt>
      <trkpt lat="44.69382" lon="5.21647">
        <ele>397.6</ele>
        <time>2019-06-16T14:21:03Z</time>
      </trkpt>
      <trkpt lat="44.6938" lon="5.21632">
        <ele>397.6</ele>
        <time>2019-06-16T14:21:09Z</time>
      </trkpt>
      <trkpt lat="44.69377" lon="5.21617">
        <ele>397.6</ele>
        <time>2019-06-16T14:21:16Z</time>
      </trkpt>
      <trkpt lat="44.69377" lon="5.21614">
        <ele>397.6</ele>
        <time>2019-06-16T14:21:21Z</time>
      </trkpt>
      <trkpt lat="44.69375" lon="5.21611">
        <ele>397.2</ele>
        <time>2019-06-16T14:21:37Z</time>
      </trkpt>
      <trkpt lat="44.69375" lon="5.21611">
        <ele>396.8</ele>
        <time>2019-06-16T14:21:38Z</time>
      </trkpt>
      <trkpt lat="44.69375" lon="5.2161">
        <ele>396.4</ele>
        <time>2019-06-16T14:21:39Z</time>
      </trkpt>
      <trkpt lat="44.69374" lon="5.21609">
        <ele>396</ele>
        <time>2019-06-16T14:21:40Z</time>
      </trkpt>
      <trkpt lat="44.69372" lon="5.21607">
        <ele>395.6</ele>
        <time>2019-06-16T14:21:41Z</time>
      </trkpt>
      <trkpt lat="44.6937" lon="5.21604">
        <ele>395.6</ele>
        <time>2019-06-16T14:21:42Z</time>
      </trkpt>
      <trkpt lat="44.69356" lon="5.21583">
        <ele>395.2</ele>
        <time>2019-06-16T14:21:49Z</time>
      </trkpt>
      <trkpt lat="44.69354" lon="5.21579">
        <ele>394.6</ele>
        <time>2019-06-16T14:21:50Z</time>
      </trkpt>
      <trkpt lat="44.69353" lon="5.21576">
        <ele>394.2</ele>
        <time>2019-06-16T14:21:51Z</time>
      </trkpt>
      <trkpt lat="44.69352" lon="5.21573">
        <ele>393.6</ele>
        <time>2019-06-16T14:21:52Z</time>
      </trkpt>
      <trkpt lat="44.69351" lon="5.21569">
        <ele>393.2</ele>
        <time>2019-06-16T14:21:53Z</time>
      </trkpt>
      <trkpt lat="44.6935" lon="5.21563">
        <ele>393.2</ele>
        <time>2019-06-16T14:21:55Z</time>
      </trkpt>
      <trkpt lat="44.69349" lon="5.21555">
        <ele>393.2</ele>
        <time>2019-06-16T14:21:57Z</time>
      </trkpt>
      <trkpt lat="44.69347" lon="5.2154">
        <ele>393.2</ele>
        <time>2019-06-16T14:22:00Z</time>
      </trkpt>
      <trkpt lat="44.69347" lon="5.21522">
        <ele>393.2</ele>
        <time>2019-06-16T14:22:06Z</time>
      </trkpt>
      <trkpt lat="44.69349" lon="5.21502">
        <ele>393.2</ele>
        <time>2019-06-16T14:22:11Z</time>
      </trkpt>
      <trkpt lat="44.69349" lon="5.21487">
        <ele>393.2</ele>
        <time>2019-06-16T14:22:16Z</time>
      </trkpt>
      <trkpt lat="44.69347" lon="5.21479">
        <ele>392.8</ele>
        <time>2019-06-16T14:22:20Z</time>
      </trkpt>
      <trkpt lat="44.69347" lon="5.21473">
        <ele>392.2</ele>
        <time>2019-06-16T14:22:21Z</time>
      </trkpt>
      <trkpt lat="44.69347" lon="5.2147">
        <ele>391.8</ele>
        <time>2019-06-16T14:22:22Z</time>
      </trkpt>
      <trkpt lat="44.69347" lon="5.21466">
        <ele>391.2</ele>
        <time>2019-06-16T14:22:23Z</time>
      </trkpt>
      <trkpt lat="44.69346" lon="5.21463">
        <ele>390.8</ele>
        <time>2019-06-16T14:22:24Z</time>
      </trkpt>
      <trkpt lat="44.69341" lon="5.2144">
        <ele>390.8</ele>
        <time>2019-06-16T14:22:30Z</time>
      </trkpt>
      <trkpt lat="44.69339" lon="5.21424">
        <ele>390.8</ele>
        <time>2019-06-16T14:22:36Z</time>
      </trkpt>
      <trkpt lat="44.69331" lon="5.2141">
        <ele>390.8</ele>
        <time>2019-06-16T14:22:40Z</time>
      </trkpt>
      <trkpt lat="44.69325" lon="5.21398">
        <ele>390.8</ele>
        <time>2019-06-16T14:22:46Z</time>
      </trkpt>
      <trkpt lat="44.69327" lon="5.21387">
        <ele>390.8</ele>
        <time>2019-06-16T14:22:51Z</time>
      </trkpt>
      <trkpt lat="44.69327" lon="5.21385">
        <ele>390.4</ele>
        <time>2019-06-16T14:22:54Z</time>
      </trkpt>
      <trkpt lat="44.69328" lon="5.21385">
        <ele>390</ele>
        <time>2019-06-16T14:22:55Z</time>
      </trkpt>
      <trkpt lat="44.69328" lon="5.21385">
        <ele>389.4</ele>
        <time>2019-06-16T14:22:56Z</time>
      </trkpt>
      <trkpt lat="44.69328" lon="5.21385">
        <ele>389</ele>
        <time>2019-06-16T14:22:57Z</time>
      </trkpt>
      <trkpt lat="44.69328" lon="5.21384">
        <ele>388.6</ele>
        <time>2019-06-16T14:22:58Z</time>
      </trkpt>
      <trkpt lat="44.69327" lon="5.21369">
        <ele>388.6</ele>
        <time>2019-06-16T14:23:21Z</time>
      </trkpt>
      <trkpt lat="44.69329" lon="5.21359">
        <ele>388</ele>
        <time>2019-06-16T14:23:23Z</time>
      </trkpt>
      <trkpt lat="44.6933" lon="5.21355">
        <ele>387.6</ele>
        <time>2019-06-16T14:23:24Z</time>
      </trkpt>
      <trkpt lat="44.69332" lon="5.21351">
        <ele>387</ele>
        <time>2019-06-16T14:23:25Z</time>
      </trkpt>
      <trkpt lat="44.69334" lon="5.21348">
        <ele>386.6</ele>
        <time>2019-06-16T14:23:26Z</time>
      </trkpt>
      <trkpt lat="44.69335" lon="5.21345">
        <ele>386</ele>
        <time>2019-06-16T14:23:27Z</time>
      </trkpt>
      <trkpt lat="44.69337" lon="5.21334">
        <ele>386</ele>
        <time>2019-06-16T14:23:30Z</time>
      </trkpt>
      <trkpt lat="44.69344" lon="5.21304">
        <ele>386</ele>
        <time>2019-06-16T14:23:37Z</time>
      </trkpt>
      <trkpt lat="44.69343" lon="5.213">
        <ele>385.6</ele>
        <time>2019-06-16T14:23:39Z</time>
      </trkpt>
      <trkpt lat="44.69343" lon="5.21298">
        <ele>385</ele>
        <time>2019-06-16T14:23:40Z</time>
      </trkpt>
      <trkpt lat="44.69342" lon="5.21293">
        <ele>384.6</ele>
        <time>2019-06-16T14:23:41Z</time>
      </trkpt>
      <trkpt lat="44.69341" lon="5.21288">
        <ele>383.8</ele>
        <time>2019-06-16T14:23:42Z</time>
      </trkpt>
      <trkpt lat="44.6934" lon="5.21284">
        <ele>383.2</ele>
        <time>2019-06-16T14:23:43Z</time>
      </trkpt>
      <trkpt lat="44.69337" lon="5.21282">
        <ele>382.4</ele>
        <time>2019-06-16T14:23:44Z</time>
      </trkpt>
      <trkpt lat="44.69335" lon="5.2128">
        <ele>381.4</ele>
        <time>2019-06-16T14:23:45Z</time>
      </trkpt>
      <trkpt lat="44.69332" lon="5.21278">
        <ele>380.6</ele>
        <time>2019-06-16T14:23:46Z</time>
      </trkpt>
      <trkpt lat="44.69331" lon="5.21275">
        <ele>379.8</ele>
        <time>2019-06-16T14:23:47Z</time>
      </trkpt>
      <trkpt lat="44.6933" lon="5.21271">
        <ele>378.8</ele>
        <time>2019-06-16T14:23:48Z</time>
      </trkpt>
      <trkpt lat="44.69329" lon="5.21266">
        <ele>378</ele>
        <time>2019-06-16T14:23:49Z</time>
      </trkpt>
      <trkpt lat="44.69329" lon="5.21261">
        <ele>377.2</ele>
        <time>2019-06-16T14:23:50Z</time>
      </trkpt>
      <trkpt lat="44.69328" lon="5.21256">
        <ele>376.4</ele>
        <time>2019-06-16T14:23:51Z</time>
      </trkpt>
      <trkpt lat="44.69326" lon="5.2125">
        <ele>375.6</ele>
        <time>2019-06-16T14:23:52Z</time>
      </trkpt>
      <trkpt lat="44.69326" lon="5.21242">
        <ele>375</ele>
        <time>2019-06-16T14:23:53Z</time>
      </trkpt>
      <trkpt lat="44.69325" lon="5.21236">
        <ele>374.2</ele>
        <time>2019-06-16T14:23:54Z</time>
      </trkpt>
      <trkpt lat="44.69324" lon="5.21233">
        <ele>373.4</ele>
        <time>2019-06-16T14:23:55Z</time>
      </trkpt>
      <trkpt lat="44.69324" lon="5.21229">
        <ele>372.6</ele>
        <time>2019-06-16T14:23:56Z</time>
      </trkpt>
      <trkpt lat="44.69323" lon="5.21225">
        <ele>372</ele>
        <time>2019-06-16T14:23:57Z</time>
      </trkpt>
      <trkpt lat="44.69323" lon="5.2122">
        <ele>371.2</ele>
        <time>2019-06-16T14:23:58Z</time>
      </trkpt>
      <trkpt lat="44.69317" lon="5.21206">
        <ele>370.8</ele>
        <time>2019-06-16T14:24:01Z</time>
      </trkpt>
      <trkpt lat="44.69315" lon="5.21201">
        <ele>370.2</ele>
        <time>2019-06-16T14:24:02Z</time>
      </trkpt>
      <trkpt lat="44.69313" lon="5.21197">
        <ele>369.8</ele>
        <time>2019-06-16T14:24:03Z</time>
      </trkpt>
      <trkpt lat="44.6931" lon="5.21193">
        <ele>369.2</ele>
        <time>2019-06-16T14:24:04Z</time>
      </trkpt>
      <trkpt lat="44.69307" lon="5.21189">
        <ele>368.6</ele>
        <time>2019-06-16T14:24:05Z</time>
      </trkpt>
      <trkpt lat="44.69304" lon="5.21187">
        <ele>367.8</ele>
        <time>2019-06-16T14:24:06Z</time>
      </trkpt>
      <trkpt lat="44.69301" lon="5.21185">
        <ele>367.2</ele>
        <time>2019-06-16T14:24:07Z</time>
      </trkpt>
      <trkpt lat="44.69297" lon="5.21183">
        <ele>366.6</ele>
        <time>2019-06-16T14:24:08Z</time>
      </trkpt>
      <trkpt lat="44.69292" lon="5.2118">
        <ele>366.2</ele>
        <time>2019-06-16T14:24:09Z</time>
      </trkpt>
      <trkpt lat="44.69289" lon="5.21177">
        <ele>365.4</ele>
        <time>2019-06-16T14:24:10Z</time>
      </trkpt>
      <trkpt lat="44.69284" lon="5.21174">
        <ele>364.6</ele>
        <time>2019-06-16T14:24:11Z</time>
      </trkpt>
      <trkpt lat="44.69279" lon="5.21172">
        <ele>364</ele>
        <time>2019-06-16T14:24:12Z</time>
      </trkpt>
      <trkpt lat="44.69275" lon="5.21171">
        <ele>363.2</ele>
        <time>2019-06-16T14:24:13Z</time>
      </trkpt>
      <trkpt lat="44.69271" lon="5.2117">
        <ele>362.4</ele>
        <time>2019-06-16T14:24:14Z</time>
      </trkpt>
      <trkpt lat="44.69266" lon="5.21169">
        <ele>361.8</ele>
        <time>2019-06-16T14:24:15Z</time>
      </trkpt>
      <trkpt lat="44.69263" lon="5.21168">
        <ele>360.8</ele>
        <time>2019-06-16T14:24:16Z</time>
      </trkpt>
      <trkpt lat="44.6926" lon="5.21165">
        <ele>360</ele>
        <time>2019-06-16T14:24:17Z</time>
      </trkpt>
      <trkpt lat="44.69257" lon="5.21162">
        <ele>359.2</ele>
        <time>2019-06-16T14:24:18Z</time>
      </trkpt>
      <trkpt lat="44.69254" lon="5.21158">
        <ele>358.4</ele>
        <time>2019-06-16T14:24:19Z</time>
      </trkpt>
      <trkpt lat="44.69252" lon="5.21153">
        <ele>357.6</ele>
        <time>2019-06-16T14:24:20Z</time>
      </trkpt>
      <trkpt lat="44.69251" lon="5.21148">
        <ele>356.6</ele>
        <time>2019-06-16T14:24:21Z</time>
      </trkpt>
      <trkpt lat="44.69251" lon="5.21143">
        <ele>355.8</ele>
        <time>2019-06-16T14:24:22Z</time>
      </trkpt>
      <trkpt lat="44.69252" lon="5.21138">
        <ele>354.8</ele>
        <time>2019-06-16T14:24:23Z</time>
      </trkpt>
      <trkpt lat="44.69252" lon="5.21134">
        <ele>354</ele>
        <time>2019-06-16T14:24:24Z</time>
      </trkpt>
      <trkpt lat="44.6925" lon="5.21131">
        <ele>353</ele>
        <time>2019-06-16T14:24:25Z</time>
      </trkpt>
      <trkpt lat="44.69248" lon="5.21127">
        <ele>352.2</ele>
        <time>2019-06-16T14:24:26Z</time>
      </trkpt>
      <trkpt lat="44.69247" lon="5.21123">
        <ele>351.4</ele>
        <time>2019-06-16T14:24:27Z</time>
      </trkpt>
      <trkpt lat="44.69245" lon="5.21113">
        <ele>349.4</ele>
        <time>2019-06-16T14:24:29Z</time>
      </trkpt>
      <trkpt lat="44.69244" lon="5.21109">
        <ele>348.4</ele>
        <time>2019-06-16T14:24:30Z</time>
      </trkpt>
      <trkpt lat="44.69243" lon="5.21105">
        <ele>347.2</ele>
        <time>2019-06-16T14:24:31Z</time>
      </trkpt>
      <trkpt lat="44.69241" lon="5.21101">
        <ele>346.2</ele>
        <time>2019-06-16T14:24:32Z</time>
      </trkpt>
      <trkpt lat="44.69239" lon="5.21098">
        <ele>345.2</ele>
        <time>2019-06-16T14:24:33Z</time>
      </trkpt>
      <trkpt lat="44.69237" lon="5.21095">
        <ele>344.4</ele>
        <time>2019-06-16T14:24:34Z</time>
      </trkpt>
      <trkpt lat="44.69237" lon="5.21088">
        <ele>342.4</ele>
        <time>2019-06-16T14:24:36Z</time>
      </trkpt>
      <trkpt lat="44.69236" lon="5.21085">
        <ele>341.4</ele>
        <time>2019-06-16T14:24:37Z</time>
      </trkpt>
      <trkpt lat="44.69235" lon="5.21083">
        <ele>340.4</ele>
        <time>2019-06-16T14:24:38Z</time>
      </trkpt>
      <trkpt lat="44.69235" lon="5.2108">
        <ele>339.2</ele>
        <time>2019-06-16T14:24:39Z</time>
      </trkpt>
      <trkpt lat="44.69234" lon="5.21076">
        <ele>338.4</ele>
        <time>2019-06-16T14:24:40Z</time>
      </trkpt>
      <trkpt lat="44.69233" lon="5.21074">
        <ele>337.4</ele>
        <time>2019-06-16T14:24:41Z</time>
      </trkpt>
      <trkpt lat="44.69231" lon="5.21071">
        <ele>336.6</ele>
        <time>2019-06-16T14:24:42Z</time>
      </trkpt>
      <trkpt lat="44.69228" lon="5.21069">
        <ele>335.6</ele>
        <time>2019-06-16T14:24:43Z</time>
      </trkpt>
      <trkpt lat="44.69226" lon="5.21068">
        <ele>334.8</ele>
        <time>2019-06-16T14:24:44Z</time>
      </trkpt>
      <trkpt lat="44.69224" lon="5.21067">
        <ele>334.2</ele>
        <time>2019-06-16T14:24:45Z</time>
      </trkpt>
      <trkpt lat="44.69222" lon="5.21065">
        <ele>333.4</ele>
        <time>2019-06-16T14:24:46Z</time>
      </trkpt>
      <trkpt lat="44.69221" lon="5.21062">
        <ele>332.6</ele>
        <time>2019-06-16T14:24:47Z</time>
      </trkpt>
      <trkpt lat="44.69219" lon="5.21059">
        <ele>331.6</ele>
        <time>2019-06-16T14:24:48Z</time>
      </trkpt>
      <trkpt lat="44.69217" lon="5.21057">
        <ele>330.8</ele>
        <time>2019-06-16T14:24:49Z</time>
      </trkpt>
      <trkpt lat="44.69215" lon="5.21055">
        <ele>329.8</ele>
        <time>2019-06-16T14:24:50Z</time>
      </trkpt>
      <trkpt lat="44.69212" lon="5.21052">
        <ele>329</ele>
        <time>2019-06-16T14:24:51Z</time>
      </trkpt>
      <trkpt lat="44.69211" lon="5.21051">
        <ele>328</ele>
        <time>2019-06-16T14:24:52Z</time>
      </trkpt>
      <trkpt lat="44.69211" lon="5.21049">
        <ele>327</ele>
        <time>2019-06-16T14:24:53Z</time>
      </trkpt>
      <trkpt lat="44.69211" lon="5.21046">
        <ele>326.2</ele>
        <time>2019-06-16T14:24:54Z</time>
      </trkpt>
      <trkpt lat="44.6921" lon="5.21043">
        <ele>325.2</ele>
        <time>2019-06-16T14:24:55Z</time>
      </trkpt>
      <trkpt lat="44.69209" lon="5.2104">
        <ele>324.2</ele>
        <time>2019-06-16T14:24:56Z</time>
      </trkpt>
      <trkpt lat="44.69208" lon="5.21039">
        <ele>323.2</ele>
        <time>2019-06-16T14:24:57Z</time>
      </trkpt>
      <trkpt lat="44.69208" lon="5.21039">
        <ele>322.6</ele>
        <time>2019-06-16T14:24:58Z</time>
      </trkpt>
      <trkpt lat="44.69208" lon="5.21037">
        <ele>322</ele>
        <time>2019-06-16T14:24:59Z</time>
      </trkpt>
      <trkpt lat="44.69208" lon="5.21035">
        <ele>321.2</ele>
        <time>2019-06-16T14:25:00Z</time>
      </trkpt>
      <trkpt lat="44.69207" lon="5.21032">
        <ele>320.6</ele>
        <time>2019-06-16T14:25:01Z</time>
      </trkpt>
      <trkpt lat="44.69207" lon="5.21029">
        <ele>320</ele>
        <time>2019-06-16T14:25:02Z</time>
      </trkpt>
      <trkpt lat="44.69206" lon="5.21027">
        <ele>319.4</ele>
        <time>2019-06-16T14:25:03Z</time>
      </trkpt>
      <trkpt lat="44.69205" lon="5.21024">
        <ele>318.6</ele>
        <time>2019-06-16T14:25:04Z</time>
      </trkpt>
      <trkpt lat="44.69204" lon="5.21021">
        <ele>317.8</ele>
        <time>2019-06-16T14:25:05Z</time>
      </trkpt>
      <trkpt lat="44.69203" lon="5.21019">
        <ele>317</ele>
        <time>2019-06-16T14:25:06Z</time>
      </trkpt>
      <trkpt lat="44.69201" lon="5.21016">
        <ele>316.2</ele>
        <time>2019-06-16T14:25:07Z</time>
      </trkpt>
      <trkpt lat="44.69201" lon="5.21014">
        <ele>315.4</ele>
        <time>2019-06-16T14:25:08Z</time>
      </trkpt>
      <trkpt lat="44.69201" lon="5.2101">
        <ele>314.6</ele>
        <time>2019-06-16T14:25:09Z</time>
      </trkpt>
      <trkpt lat="44.69201" lon="5.21007">
        <ele>313.8</ele>
        <time>2019-06-16T14:25:10Z</time>
      </trkpt>
      <trkpt lat="44.69201" lon="5.21003">
        <ele>313</ele>
        <time>2019-06-16T14:25:11Z</time>
      </trkpt>
      <trkpt lat="44.69201" lon="5.21">
        <ele>312</ele>
        <time>2019-06-16T14:25:12Z</time>
      </trkpt>
      <trkpt lat="44.69202" lon="5.20996">
        <ele>311.2</ele>
        <time>2019-06-16T14:25:13Z</time>
      </trkpt>
      <trkpt lat="44.69201" lon="5.20994">
        <ele>310.4</ele>
        <time>2019-06-16T14:25:14Z</time>
      </trkpt>
      <trkpt lat="44.69201" lon="5.20992">
        <ele>309.6</ele>
        <time>2019-06-16T14:25:15Z</time>
      </trkpt>
      <trkpt lat="44.69201" lon="5.2099">
        <ele>308.6</ele>
        <time>2019-06-16T14:25:16Z</time>
      </trkpt>
      <trkpt lat="44.69203" lon="5.20988">
        <ele>308</ele>
        <time>2019-06-16T14:25:17Z</time>
      </trkpt>
      <trkpt lat="44.69204" lon="5.20985">
        <ele>307.2</ele>
        <time>2019-06-16T14:25:18Z</time>
      </trkpt>
      <trkpt lat="44.69205" lon="5.20983">
        <ele>306.4</ele>
        <time>2019-06-16T14:25:19Z</time>
      </trkpt>
      <trkpt lat="44.69204" lon="5.2098">
        <ele>305.8</ele>
        <time>2019-06-16T14:25:20Z</time>
      </trkpt>
      <trkpt lat="44.69203" lon="5.20978">
        <ele>305.2</ele>
        <time>2019-06-16T14:25:21Z</time>
      </trkpt>
      <trkpt lat="44.69202" lon="5.20977">
        <ele>304.4</ele>
        <time>2019-06-16T14:25:22Z</time>
      </trkpt>
      <trkpt lat="44.69202" lon="5.20976">
        <ele>303.8</ele>
        <time>2019-06-16T14:25:23Z</time>
      </trkpt>
      <trkpt lat="44.69201" lon="5.20973">
        <ele>303</ele>
        <time>2019-06-16T14:25:24Z</time>
      </trkpt>
      <trkpt lat="44.69201" lon="5.20971">
        <ele>302.2</ele>
        <time>2019-06-16T14:25:25Z</time>
      </trkpt>
      <trkpt lat="44.692" lon="5.20967">
        <ele>301.4</ele>
        <time>2019-06-16T14:25:26Z</time>
      </trkpt>
      <trkpt lat="44.69199" lon="5.20964">
        <ele>300.4</ele>
        <time>2019-06-16T14:25:27Z</time>
      </trkpt>
      <trkpt lat="44.69198" lon="5.2096">
        <ele>299.6</ele>
        <time>2019-06-16T14:25:28Z</time>
      </trkpt>
      <trkpt lat="44.69198" lon="5.20956">
        <ele>298.6</ele>
        <time>2019-06-16T14:25:29Z</time>
      </trkpt>
      <trkpt lat="44.69198" lon="5.20951">
        <ele>297.6</ele>
        <time>2019-06-16T14:25:30Z</time>
      </trkpt>
      <trkpt lat="44.69198" lon="5.20946">
        <ele>296.6</ele>
        <time>2019-06-16T14:25:31Z</time>
      </trkpt>
      <trkpt lat="44.69197" lon="5.20942">
        <ele>295.8</ele>
        <time>2019-06-16T14:25:32Z</time>
      </trkpt>
      <trkpt lat="44.69197" lon="5.20937">
        <ele>294.8</ele>
        <time>2019-06-16T14:25:33Z</time>
      </trkpt>
      <trkpt lat="44.69197" lon="5.20932">
        <ele>293.8</ele>
        <time>2019-06-16T14:25:34Z</time>
      </trkpt>
      <trkpt lat="44.69197" lon="5.20928">
        <ele>292.8</ele>
        <time>2019-06-16T14:25:35Z</time>
      </trkpt>
      <trkpt lat="44.69197" lon="5.20923">
        <ele>291.8</ele>
        <time>2019-06-16T14:25:36Z</time>
      </trkpt>
      <trkpt lat="44.69196" lon="5.2092">
        <ele>291</ele>
        <time>2019-06-16T14:25:37Z</time>
      </trkpt>
      <trkpt lat="44.69196" lon="5.20916">
        <ele>290.2</ele>
        <time>2019-06-16T14:25:38Z</time>
      </trkpt>
      <trkpt lat="44.69196" lon="5.20911">
        <ele>289.4</ele>
        <time>2019-06-16T14:25:39Z</time>
      </trkpt>
      <trkpt lat="44.69196" lon="5.20907">
        <ele>288.6</ele>
        <time>2019-06-16T14:25:40Z</time>
      </trkpt>
      <trkpt lat="44.69196" lon="5.20903">
        <ele>287.8</ele>
        <time>2019-06-16T14:25:41Z</time>
      </trkpt>
      <trkpt lat="44.69196" lon="5.20899">
        <ele>287</ele>
        <time>2019-06-16T14:25:42Z</time>
      </trkpt>
      <trkpt lat="44.69196" lon="5.20894">
        <ele>286</ele>
        <time>2019-06-16T14:25:43Z</time>
      </trkpt>
      <trkpt lat="44.69197" lon="5.2089">
        <ele>285</ele>
        <time>2019-06-16T14:25:44Z</time>
      </trkpt>
      <trkpt lat="44.69198" lon="5.20887">
        <ele>284.2</ele>
        <time>2019-06-16T14:25:45Z</time>
      </trkpt>
      <trkpt lat="44.69199" lon="5.20883">
        <ele>283.2</ele>
        <time>2019-06-16T14:25:46Z</time>
      </trkpt>
      <trkpt lat="44.692" lon="5.20879">
        <ele>282.4</ele>
        <time>2019-06-16T14:25:47Z</time>
      </trkpt>
      <trkpt lat="44.69201" lon="5.20875">
        <ele>281.6</ele>
        <time>2019-06-16T14:25:48Z</time>
      </trkpt>
      <trkpt lat="44.69201" lon="5.20871">
        <ele>280.8</ele>
        <time>2019-06-16T14:25:49Z</time>
      </trkpt>
      <trkpt lat="44.69201" lon="5.20867">
        <ele>280.2</ele>
        <time>2019-06-16T14:25:50Z</time>
      </trkpt>
      <trkpt lat="44.69201" lon="5.20863">
        <ele>279.4</ele>
        <time>2019-06-16T14:25:51Z</time>
      </trkpt>
      <trkpt lat="44.69201" lon="5.2086">
        <ele>278.6</ele>
        <time>2019-06-16T14:25:52Z</time>
      </trkpt>
      <trkpt lat="44.69202" lon="5.20857">
        <ele>277.8</ele>
        <time>2019-06-16T14:25:53Z</time>
      </trkpt>
      <trkpt lat="44.69202" lon="5.20854">
        <ele>277</ele>
        <time>2019-06-16T14:25:54Z</time>
      </trkpt>
      <trkpt lat="44.69203" lon="5.20851">
        <ele>276.2</ele>
        <time>2019-06-16T14:25:55Z</time>
      </trkpt>
      <trkpt lat="44.69205" lon="5.2085">
        <ele>275.2</ele>
        <time>2019-06-16T14:25:56Z</time>
      </trkpt>
      <trkpt lat="44.69208" lon="5.20845">
        <ele>274.4</ele>
        <time>2019-06-16T14:25:58Z</time>
      </trkpt>
      <trkpt lat="44.6921" lon="5.20844">
        <ele>273.4</ele>
        <time>2019-06-16T14:25:59Z</time>
      </trkpt>
      <trkpt lat="44.69212" lon="5.20842">
        <ele>272.4</ele>
        <time>2019-06-16T14:26:00Z</time>
      </trkpt>
      <trkpt lat="44.69213" lon="5.20839">
        <ele>271.6</ele>
        <time>2019-06-16T14:26:01Z</time>
      </trkpt>
      <trkpt lat="44.69214" lon="5.20836">
        <ele>270.8</ele>
        <time>2019-06-16T14:26:02Z</time>
      </trkpt>
      <trkpt lat="44.69215" lon="5.20834">
        <ele>270</ele>
        <time>2019-06-16T14:26:03Z</time>
      </trkpt>
      <trkpt lat="44.69214" lon="5.20833">
        <ele>269.2</ele>
        <time>2019-06-16T14:26:04Z</time>
      </trkpt>
      <trkpt lat="44.69214" lon="5.20832">
        <ele>268.6</ele>
        <time>2019-06-16T14:26:05Z</time>
      </trkpt>
      <trkpt lat="44.69213" lon="5.20831">
        <ele>268</ele>
        <time>2019-06-16T14:26:06Z</time>
      </trkpt>
      <trkpt lat="44.69213" lon="5.2083">
        <ele>267.4</ele>
        <time>2019-06-16T14:26:07Z</time>
      </trkpt>
      <trkpt lat="44.69212" lon="5.20829">
        <ele>266.6</ele>
        <time>2019-06-16T14:26:08Z</time>
      </trkpt>
      <trkpt lat="44.69213" lon="5.20828">
        <ele>266</ele>
        <time>2019-06-16T14:26:09Z</time>
      </trkpt>
      <trkpt lat="44.69214" lon="5.20827">
        <ele>265.4</ele>
        <time>2019-06-16T14:26:10Z</time>
      </trkpt>
      <trkpt lat="44.69214" lon="5.20826">
        <ele>264.8</ele>
        <time>2019-06-16T14:26:11Z</time>
      </trkpt>
      <trkpt lat="44.69214" lon="5.20824">
        <ele>264.2</ele>
        <time>2019-06-16T14:26:12Z</time>
      </trkpt>
      <trkpt lat="44.69215" lon="5.20822">
        <ele>263.6</ele>
        <time>2019-06-16T14:26:13Z</time>
      </trkpt>
      <trkpt lat="44.69215" lon="5.2082">
        <ele>263</ele>
        <time>2019-06-16T14:26:14Z</time>
      </trkpt>
      <trkpt lat="44.69216" lon="5.20818">
        <ele>262.4</ele>
        <time>2019-06-16T14:26:15Z</time>
      </trkpt>
      <trkpt lat="44.69216" lon="5.20817">
        <ele>261.8</ele>
        <time>2019-06-16T14:26:16Z</time>
      </trkpt>
      <trkpt lat="44.69217" lon="5.20817">
        <ele>261.2</ele>
        <time>2019-06-16T14:26:17Z</time>
      </trkpt>
      <trkpt lat="44.69217" lon="5.20817">
        <ele>260.6</ele>
        <time>2019-06-16T14:26:32Z</time>
      </trkpt>
      <trkpt lat="44.69217" lon="5.20817">
        <ele>260</ele>
        <time>2019-06-16T14:26:33Z</time>
      </trkpt>
      <trkpt lat="44.69218" lon="5.20816">
        <ele>259.6</ele>
        <time>2019-06-16T14:26:34Z</time>
      </trkpt>
      <trkpt lat="44.6922" lon="5.2081">
        <ele>258.8</ele>
        <time>2019-06-16T14:26:35Z</time>
      </trkpt>
      <trkpt lat="44.69224" lon="5.20806">
        <ele>257.8</ele>
        <time>2019-06-16T14:26:36Z</time>
      </trkpt>
      <trkpt lat="44.69224" lon="5.20804">
        <ele>257</ele>
        <time>2019-06-16T14:26:37Z</time>
      </trkpt>
      <trkpt lat="44.69228" lon="5.208">
        <ele>256.2</ele>
        <time>2019-06-16T14:26:38Z</time>
      </trkpt>
      <trkpt lat="44.69232" lon="5.20795">
        <ele>255.6</ele>
        <time>2019-06-16T14:26:39Z</time>
      </trkpt>
      <trkpt lat="44.69234" lon="5.20792">
        <ele>255</ele>
        <time>2019-06-16T14:26:40Z</time>
      </trkpt>
      <trkpt lat="44.69239" lon="5.20786">
        <ele>254.4</ele>
        <time>2019-06-16T14:26:41Z</time>
      </trkpt>
      <trkpt lat="44.69243" lon="5.20781">
        <ele>253.8</ele>
        <time>2019-06-16T14:26:42Z</time>
      </trkpt>
      <trkpt lat="44.69247" lon="5.20777">
        <ele>253.2</ele>
        <time>2019-06-16T14:26:43Z</time>
      </trkpt>
      <trkpt lat="44.6925" lon="5.20773">
        <ele>252.6</ele>
        <time>2019-06-16T14:26:44Z</time>
      </trkpt>
      <trkpt lat="44.69253" lon="5.2077">
        <ele>252</ele>
        <time>2019-06-16T14:26:45Z</time>
      </trkpt>
      <trkpt lat="44.69256" lon="5.20767">
        <ele>251.6</ele>
        <time>2019-06-16T14:26:46Z</time>
      </trkpt>
      <trkpt lat="44.69258" lon="5.20764">
        <ele>251</ele>
        <time>2019-06-16T14:26:47Z</time>
      </trkpt>
      <trkpt lat="44.69271" lon="5.20743">
        <ele>251</ele>
        <time>2019-06-16T14:26:53Z</time>
      </trkpt>
      <trkpt lat="44.69297" lon="5.20713">
        <ele>251</ele>
        <time>2019-06-16T14:27:04Z</time>
      </trkpt>
      <trkpt lat="44.69317" lon="5.20688">
        <ele>251</ele>
        <time>2019-06-16T14:27:12Z</time>
      </trkpt>
      <trkpt lat="44.69335" lon="5.2066">
        <ele>250.6</ele>
        <time>2019-06-16T14:27:20Z</time>
      </trkpt>
      <trkpt lat="44.69337" lon="5.20656">
        <ele>250</ele>
        <time>2019-06-16T14:27:21Z</time>
      </trkpt>
      <trkpt lat="44.6934" lon="5.20652">
        <ele>249.6</ele>
        <time>2019-06-16T14:27:22Z</time>
      </trkpt>
      <trkpt lat="44.69343" lon="5.20648">
        <ele>249.2</ele>
        <time>2019-06-16T14:27:23Z</time>
      </trkpt>
      <trkpt lat="44.69345" lon="5.20645">
        <ele>248.8</ele>
        <time>2019-06-16T14:27:24Z</time>
      </trkpt>
      <trkpt lat="44.69357" lon="5.20628">
        <ele>248.4</ele>
        <time>2019-06-16T14:27:29Z</time>
      </trkpt>
      <trkpt lat="44.6936" lon="5.20625">
        <ele>248</ele>
        <time>2019-06-16T14:27:30Z</time>
      </trkpt>
      <trkpt lat="44.69363" lon="5.20622">
        <ele>247.4</ele>
        <time>2019-06-16T14:27:31Z</time>
      </trkpt>
      <trkpt lat="44.69365" lon="5.20618">
        <ele>247</ele>
        <time>2019-06-16T14:27:32Z</time>
      </trkpt>
      <trkpt lat="44.69369" lon="5.20614">
        <ele>246.6</ele>
        <time>2019-06-16T14:27:33Z</time>
      </trkpt>
      <trkpt lat="44.69378" lon="5.20603">
        <ele>246.2</ele>
        <time>2019-06-16T14:27:36Z</time>
      </trkpt>
      <trkpt lat="44.69381" lon="5.20599">
        <ele>245.8</ele>
        <time>2019-06-16T14:27:37Z</time>
      </trkpt>
      <trkpt lat="44.69385" lon="5.20596">
        <ele>245.2</ele>
        <time>2019-06-16T14:27:38Z</time>
      </trkpt>
      <trkpt lat="44.69389" lon="5.20593">
        <ele>244.8</ele>
        <time>2019-06-16T14:27:39Z</time>
      </trkpt>
      <trkpt lat="44.69392" lon="5.20591">
        <ele>244.4</ele>
        <time>2019-06-16T14:27:40Z</time>
      </trkpt>
      <trkpt lat="44.69391" lon="5.20591">
        <ele>244.4</ele>
        <time>2019-06-16T14:27:41Z</time>
      </trkpt>
      <trkpt lat="44.69396" lon="5.20583">
        <ele>244.4</ele>
        <time>2019-06-16T14:28:34Z</time>
      </trkpt>
      <trkpt lat="44.69403" lon="5.20575">
        <ele>243.8</ele>
        <time>2019-06-16T14:28:37Z</time>
      </trkpt>
      <trkpt lat="44.69405" lon="5.20573">
        <ele>243.4</ele>
        <time>2019-06-16T14:28:38Z</time>
      </trkpt>
      <trkpt lat="44.69407" lon="5.2057">
        <ele>243</ele>
        <time>2019-06-16T14:28:39Z</time>
      </trkpt>
      <trkpt lat="44.69409" lon="5.20568">
        <ele>242.4</ele>
        <time>2019-06-16T14:28:40Z</time>
      </trkpt>
      <trkpt lat="44.69411" lon="5.20566">
        <ele>242</ele>
        <time>2019-06-16T14:28:41Z</time>
      </trkpt>
      <trkpt lat="44.69414" lon="5.20563">
        <ele>241.6</ele>
        <time>2019-06-16T14:28:42Z</time>
      </trkpt>
      <trkpt lat="44.69416" lon="5.20559">
        <ele>241</ele>
        <time>2019-06-16T14:28:43Z</time>
      </trkpt>
      <trkpt lat="44.69419" lon="5.20555">
        <ele>240.6</ele>
        <time>2019-06-16T14:28:44Z</time>
      </trkpt>
      <trkpt lat="44.69421" lon="5.2055">
        <ele>239.8</ele>
        <time>2019-06-16T14:28:45Z</time>
      </trkpt>
      <trkpt lat="44.69423" lon="5.20545">
        <ele>239.2</ele>
        <time>2019-06-16T14:28:46Z</time>
      </trkpt>
      <trkpt lat="44.69426" lon="5.2054">
        <ele>238.4</ele>
        <time>2019-06-16T14:28:47Z</time>
      </trkpt>
      <trkpt lat="44.69428" lon="5.20536">
        <ele>237.6</ele>
        <time>2019-06-16T14:28:48Z</time>
      </trkpt>
      <trkpt lat="44.6943" lon="5.20531">
        <ele>236.8</ele>
        <time>2019-06-16T14:28:49Z</time>
      </trkpt>
      <trkpt lat="44.69432" lon="5.20528">
        <ele>236</ele>
        <time>2019-06-16T14:28:50Z</time>
      </trkpt>
      <trkpt lat="44.69434" lon="5.20524">
        <ele>235.2</ele>
        <time>2019-06-16T14:28:51Z</time>
      </trkpt>
      <trkpt lat="44.69437" lon="5.20521">
        <ele>234.4</ele>
        <time>2019-06-16T14:28:52Z</time>
      </trkpt>
      <trkpt lat="44.69439" lon="5.20517">
        <ele>234</ele>
        <time>2019-06-16T14:28:53Z</time>
      </trkpt>
      <trkpt lat="44.69441" lon="5.20514">
        <ele>233.6</ele>
        <time>2019-06-16T14:28:54Z</time>
      </trkpt>
      <trkpt lat="44.69442" lon="5.2051">
        <ele>233.2</ele>
        <time>2019-06-16T14:28:55Z</time>
      </trkpt>
      <trkpt lat="44.69445" lon="5.20508">
        <ele>232.8</ele>
        <time>2019-06-16T14:28:56Z</time>
      </trkpt>
      <trkpt lat="44.69447" lon="5.20505">
        <ele>232.4</ele>
        <time>2019-06-16T14:28:57Z</time>
      </trkpt>
      <trkpt lat="44.69459" lon="5.20498">
        <ele>232.4</ele>
        <time>2019-06-16T14:29:01Z</time>
      </trkpt>
      <trkpt lat="44.69466" lon="5.20493">
        <ele>232</ele>
        <time>2019-06-16T14:29:03Z</time>
      </trkpt>
      <trkpt lat="44.69469" lon="5.2049">
        <ele>231.4</ele>
        <time>2019-06-16T14:29:04Z</time>
      </trkpt>
      <trkpt lat="44.69472" lon="5.20487">
        <ele>231</ele>
        <time>2019-06-16T14:29:05Z</time>
      </trkpt>
      <trkpt lat="44.69475" lon="5.20484">
        <ele>230.6</ele>
        <time>2019-06-16T14:29:06Z</time>
      </trkpt>
      <trkpt lat="44.69478" lon="5.20482">
        <ele>230</ele>
        <time>2019-06-16T14:29:07Z</time>
      </trkpt>
      <trkpt lat="44.69484" lon="5.20477">
        <ele>230</ele>
        <time>2019-06-16T14:29:09Z</time>
      </trkpt>
      <trkpt lat="44.69513" lon="5.20462">
        <ele>230</ele>
        <time>2019-06-16T14:29:18Z</time>
      </trkpt>
      <trkpt lat="44.6952" lon="5.2046">
        <ele>229.6</ele>
        <time>2019-06-16T14:29:20Z</time>
      </trkpt>
      <trkpt lat="44.69524" lon="5.20459">
        <ele>229.2</ele>
        <time>2019-06-16T14:29:21Z</time>
      </trkpt>
      <trkpt lat="44.69528" lon="5.20457">
        <ele>228.8</ele>
        <time>2019-06-16T14:29:22Z</time>
      </trkpt>
      <trkpt lat="44.69532" lon="5.20457">
        <ele>228.4</ele>
        <time>2019-06-16T14:29:23Z</time>
      </trkpt>
      <trkpt lat="44.69536" lon="5.20455">
        <ele>228</ele>
        <time>2019-06-16T14:29:24Z</time>
      </trkpt>
      <trkpt lat="44.6954" lon="5.20454">
        <ele>228</ele>
        <time>2019-06-16T14:29:25Z</time>
      </trkpt>
      <trkpt lat="44.69547" lon="5.20451">
        <ele>228.4</ele>
        <time>2019-06-16T14:29:27Z</time>
      </trkpt>
      <trkpt lat="44.69551" lon="5.20449">
        <ele>228.8</ele>
        <time>2019-06-16T14:29:28Z</time>
      </trkpt>
      <trkpt lat="44.69555" lon="5.20448">
        <ele>229.2</ele>
        <time>2019-06-16T14:29:29Z</time>
      </trkpt>
      <trkpt lat="44.69559" lon="5.20446">
        <ele>229.6</ele>
        <time>2019-06-16T14:29:30Z</time>
      </trkpt>
      <trkpt lat="44.69562" lon="5.20445">
        <ele>230</ele>
        <time>2019-06-16T14:29:31Z</time>
      </trkpt>
      <trkpt lat="44.69572" lon="5.2044">
        <ele>230</ele>
        <time>2019-06-16T14:29:34Z</time>
      </trkpt>
      <trkpt lat="44.69601" lon="5.20426">
        <ele>230</ele>
        <time>2019-06-16T14:29:43Z</time>
      </trkpt>
      <trkpt lat="44.69634" lon="5.20406">
        <ele>230</ele>
        <time>2019-06-16T14:29:51Z</time>
      </trkpt>
      <trkpt lat="44.69654" lon="5.2038">
        <ele>230</ele>
        <time>2019-06-16T14:29:57Z</time>
      </trkpt>
      <trkpt lat="44.69664" lon="5.20358">
        <ele>230</ele>
        <time>2019-06-16T14:30:03Z</time>
      </trkpt>
      <trkpt lat="44.69664" lon="5.20341">
        <ele>230</ele>
        <time>2019-06-16T14:30:09Z</time>
      </trkpt>
      <trkpt lat="44.69667" lon="5.20306">
        <ele>230</ele>
        <time>2019-06-16T14:30:16Z</time>
      </trkpt>
      <trkpt lat="44.69667" lon="5.20286">
        <ele>229.6</ele>
        <time>2019-06-16T14:30:18Z</time>
      </trkpt>
      <trkpt lat="44.69677" lon="5.20271">
        <ele>229.2</ele>
        <time>2019-06-16T14:30:19Z</time>
      </trkpt>
      <trkpt lat="44.6968" lon="5.20262">
        <ele>228.8</ele>
        <time>2019-06-16T14:30:20Z</time>
      </trkpt>
      <trkpt lat="44.69681" lon="5.2025">
        <ele>228.4</ele>
        <time>2019-06-16T14:30:21Z</time>
      </trkpt>
      <trkpt lat="44.6968" lon="5.20238">
        <ele>228</ele>
        <time>2019-06-16T14:30:22Z</time>
      </trkpt>
      <trkpt lat="44.6968" lon="5.2023">
        <ele>227.4</ele>
        <time>2019-06-16T14:30:23Z</time>
      </trkpt>
      <trkpt lat="44.69679" lon="5.20223">
        <ele>227</ele>
        <time>2019-06-16T14:30:24Z</time>
      </trkpt>
      <trkpt lat="44.69679" lon="5.20217">
        <ele>226.6</ele>
        <time>2019-06-16T14:30:25Z</time>
      </trkpt>
      <trkpt lat="44.69679" lon="5.2021">
        <ele>226</ele>
        <time>2019-06-16T14:30:26Z</time>
      </trkpt>
      <trkpt lat="44.6968" lon="5.20202">
        <ele>225.6</ele>
        <time>2019-06-16T14:30:27Z</time>
      </trkpt>
      <trkpt lat="44.69679" lon="5.20189">
        <ele>225.6</ele>
        <time>2019-06-16T14:30:29Z</time>
      </trkpt>
      <trkpt lat="44.69675" lon="5.20134">
        <ele>225.6</ele>
        <time>2019-06-16T14:30:39Z</time>
      </trkpt>
      <trkpt lat="44.69676" lon="5.20105">
        <ele>225.6</ele>
        <time>2019-06-16T14:30:45Z</time>
      </trkpt>
      <trkpt lat="44.69678" lon="5.20058">
        <ele>225.6</ele>
        <time>2019-06-16T14:30:53Z</time>
      </trkpt>
      <trkpt lat="44.69679" lon="5.20026">
        <ele>225.6</ele>
        <time>2019-06-16T14:30:59Z</time>
      </trkpt>
      <trkpt lat="44.69682" lon="5.19994">
        <ele>225.6</ele>
        <time>2019-06-16T14:31:05Z</time>
      </trkpt>
      <trkpt lat="44.69687" lon="5.19971">
        <ele>225.6</ele>
        <time>2019-06-16T14:31:11Z</time>
      </trkpt>
      <trkpt lat="44.69692" lon="5.1994">
        <ele>225.6</ele>
        <time>2019-06-16T14:31:18Z</time>
      </trkpt>
      <trkpt lat="44.69692" lon="5.199">
        <ele>225.6</ele>
        <time>2019-06-16T14:31:26Z</time>
      </trkpt>
      <trkpt lat="44.69688" lon="5.19885">
        <ele>225.6</ele>
        <time>2019-06-16T14:31:31Z</time>
      </trkpt>
      <trkpt lat="44.69687" lon="5.19882">
        <ele>225.6</ele>
        <time>2019-06-16T14:31:37Z</time>
      </trkpt>
      <trkpt lat="44.69687" lon="5.19882">
        <ele>225.2</ele>
        <time>2019-06-16T14:31:44Z</time>
      </trkpt>
      <trkpt lat="44.69687" lon="5.19882">
        <ele>224.8</ele>
        <time>2019-06-16T14:31:45Z</time>
      </trkpt>
      <trkpt lat="44.69687" lon="5.19882">
        <ele>224.2</ele>
        <time>2019-06-16T14:31:46Z</time>
      </trkpt>
      <trkpt lat="44.69687" lon="5.19882">
        <ele>223.8</ele>
        <time>2019-06-16T14:31:47Z</time>
      </trkpt>
      <trkpt lat="44.69687" lon="5.19882">
        <ele>223.4</ele>
        <time>2019-06-16T14:31:48Z</time>
      </trkpt>
      <trkpt lat="44.69686" lon="5.19879">
        <ele>223.4</ele>
        <time>2019-06-16T14:33:13Z</time>
      </trkpt>
      <trkpt lat="44.69687" lon="5.19863">
        <ele>223.4</ele>
        <time>2019-06-16T14:33:17Z</time>
      </trkpt>
      <trkpt lat="44.69685" lon="5.19846">
        <ele>223</ele>
        <time>2019-06-16T14:33:21Z</time>
      </trkpt>
      <trkpt lat="44.69685" lon="5.19843">
        <ele>222.6</ele>
        <time>2019-06-16T14:33:22Z</time>
      </trkpt>
      <trkpt lat="44.69685" lon="5.19838">
        <ele>222.2</ele>
        <time>2019-06-16T14:33:23Z</time>
      </trkpt>
      <trkpt lat="44.69684" lon="5.19834">
        <ele>221.8</ele>
        <time>2019-06-16T14:33:24Z</time>
      </trkpt>
      <trkpt lat="44.69683" lon="5.19829">
        <ele>221.4</ele>
        <time>2019-06-16T14:33:25Z</time>
      </trkpt>
      <trkpt lat="44.69681" lon="5.1982">
        <ele>221.4</ele>
        <time>2019-06-16T14:33:30Z</time>
      </trkpt>
      <trkpt lat="44.69678" lon="5.19814">
        <ele>221.4</ele>
        <time>2019-06-16T14:33:42Z</time>
      </trkpt>
    </trkseg>
  </trk>
</gpx>